<?xml version="1.0" encoding="UTF-8" standalone="no" ?>
<gpx xmlns="http://www.topografix.com/GPX/1/1" xmlns:xsi="http://www.w3.org/2001/XMLSchema-instance" xsi:schemaLocation="http://www.topografix.com/GPX/1/1 http://www.topografix.com/GPX/1/1/gpx.xsd" version="1.1" creator="VisuGPX - https://www.visugpx.com">
  <metadata>
    <name>13 - D+ - Puyloubier</name>
    <desc><![CDATA[13 - D+ - Puyloubier - Ste Victoire - St Ser- pic des mouches - grotte Marin]]></desc>
  </metadata>
  <trk>
    <name><![CDATA[Puyloubier ste Victoire St Ser pic des mouches grotte Marin 2025-03-16]]></name>
    <trkseg>
      <trkpt lat="43.52795" lon="5.64361">
        <ele>406.2</ele>
        <time>2025-03-16T07:58:57Z</time>
      </trkpt>
      <trkpt lat="43.52795" lon="5.64361">
        <ele>406</ele>
        <time>2025-03-16T07:58:58Z</time>
      </trkpt>
      <trkpt lat="43.52795" lon="5.64361">
        <ele>405.8</ele>
        <time>2025-03-16T07:59:00Z</time>
      </trkpt>
      <trkpt lat="43.52794" lon="5.64361">
        <ele>405.9</ele>
        <time>2025-03-16T07:59:01Z</time>
      </trkpt>
      <trkpt lat="43.52794" lon="5.64361">
        <ele>405.9</ele>
        <time>2025-03-16T07:59:02Z</time>
      </trkpt>
      <trkpt lat="43.52794" lon="5.64361">
        <ele>406</ele>
        <time>2025-03-16T07:59:08Z</time>
      </trkpt>
      <trkpt lat="43.52794" lon="5.64362">
        <ele>406</ele>
        <time>2025-03-16T07:59:10Z</time>
      </trkpt>
      <trkpt lat="43.52794" lon="5.64362">
        <ele>406</ele>
        <time>2025-03-16T07:59:11Z</time>
      </trkpt>
      <trkpt lat="43.52794" lon="5.64362">
        <ele>406.1</ele>
        <time>2025-03-16T07:59:15Z</time>
      </trkpt>
      <trkpt lat="43.52794" lon="5.64362">
        <ele>406.1</ele>
        <time>2025-03-16T07:59:16Z</time>
      </trkpt>
      <trkpt lat="43.52794" lon="5.64362">
        <ele>406.1</ele>
        <time>2025-03-16T07:59:17Z</time>
      </trkpt>
      <trkpt lat="43.52794" lon="5.64363">
        <ele>406.2</ele>
        <time>2025-03-16T07:59:19Z</time>
      </trkpt>
      <trkpt lat="43.52794" lon="5.64363">
        <ele>406.3</ele>
        <time>2025-03-16T07:59:21Z</time>
      </trkpt>
      <trkpt lat="43.52794" lon="5.64363">
        <ele>406.3</ele>
        <time>2025-03-16T07:59:22Z</time>
      </trkpt>
      <trkpt lat="43.52794" lon="5.64363">
        <ele>406.3</ele>
        <time>2025-03-16T07:59:24Z</time>
      </trkpt>
      <trkpt lat="43.52794" lon="5.64363">
        <ele>406.4</ele>
        <time>2025-03-16T07:59:25Z</time>
      </trkpt>
      <trkpt lat="43.52794" lon="5.64364">
        <ele>406.4</ele>
        <time>2025-03-16T07:59:28Z</time>
      </trkpt>
      <trkpt lat="43.52794" lon="5.64364">
        <ele>406.4</ele>
        <time>2025-03-16T07:59:31Z</time>
      </trkpt>
      <trkpt lat="43.52793" lon="5.64364">
        <ele>406.2</ele>
        <time>2025-03-16T07:59:37Z</time>
      </trkpt>
      <trkpt lat="43.52793" lon="5.64364">
        <ele>406.1</ele>
        <time>2025-03-16T07:59:44Z</time>
      </trkpt>
      <trkpt lat="43.52793" lon="5.64364">
        <ele>406.1</ele>
        <time>2025-03-16T07:59:44Z</time>
      </trkpt>
      <trkpt lat="43.52793" lon="5.64364">
        <ele>406</ele>
        <time>2025-03-16T07:59:45Z</time>
      </trkpt>
      <trkpt lat="43.52792" lon="5.64365">
        <ele>405.4</ele>
        <time>2025-03-16T07:59:51Z</time>
      </trkpt>
      <trkpt lat="43.52792" lon="5.64365">
        <ele>405.2</ele>
        <time>2025-03-16T07:59:52Z</time>
      </trkpt>
      <trkpt lat="43.52792" lon="5.64365">
        <ele>405.1</ele>
        <time>2025-03-16T07:59:54Z</time>
      </trkpt>
      <trkpt lat="43.52792" lon="5.64365">
        <ele>405.2</ele>
        <time>2025-03-16T07:59:55Z</time>
      </trkpt>
      <trkpt lat="43.52792" lon="5.64365">
        <ele>405.2</ele>
        <time>2025-03-16T07:59:56Z</time>
      </trkpt>
      <trkpt lat="43.52792" lon="5.64365">
        <ele>405.2</ele>
        <time>2025-03-16T07:59:57Z</time>
      </trkpt>
      <trkpt lat="43.52792" lon="5.64365">
        <ele>405.2</ele>
        <time>2025-03-16T07:59:58Z</time>
      </trkpt>
      <trkpt lat="43.52792" lon="5.64365">
        <ele>404.9</ele>
        <time>2025-03-16T08:00:01Z</time>
      </trkpt>
      <trkpt lat="43.52792" lon="5.64365">
        <ele>404.7</ele>
        <time>2025-03-16T08:00:02Z</time>
      </trkpt>
      <trkpt lat="43.52794" lon="5.64364">
        <ele>404.4</ele>
        <time>2025-03-16T08:00:08Z</time>
      </trkpt>
      <trkpt lat="43.52794" lon="5.64364">
        <ele>404.2</ele>
        <time>2025-03-16T08:00:10Z</time>
      </trkpt>
      <trkpt lat="43.52795" lon="5.64364">
        <ele>404</ele>
        <time>2025-03-16T08:00:15Z</time>
      </trkpt>
      <trkpt lat="43.52795" lon="5.64364">
        <ele>404</ele>
        <time>2025-03-16T08:00:16Z</time>
      </trkpt>
      <trkpt lat="43.52795" lon="5.64364">
        <ele>404.1</ele>
        <time>2025-03-16T08:00:18Z</time>
      </trkpt>
      <trkpt lat="43.52795" lon="5.64363">
        <ele>404.1</ele>
        <time>2025-03-16T08:00:19Z</time>
      </trkpt>
      <trkpt lat="43.52795" lon="5.64363">
        <ele>404.2</ele>
        <time>2025-03-16T08:00:20Z</time>
      </trkpt>
      <trkpt lat="43.52795" lon="5.64363">
        <ele>404.5</ele>
        <time>2025-03-16T08:00:23Z</time>
      </trkpt>
      <trkpt lat="43.52795" lon="5.64363">
        <ele>404.6</ele>
        <time>2025-03-16T08:00:24Z</time>
      </trkpt>
      <trkpt lat="43.52795" lon="5.64363">
        <ele>404.7</ele>
        <time>2025-03-16T08:00:25Z</time>
      </trkpt>
      <trkpt lat="43.52795" lon="5.64363">
        <ele>404.8</ele>
        <time>2025-03-16T08:00:26Z</time>
      </trkpt>
      <trkpt lat="43.52795" lon="5.64362">
        <ele>404.9</ele>
        <time>2025-03-16T08:00:27Z</time>
      </trkpt>
      <trkpt lat="43.52795" lon="5.64362">
        <ele>404.9</ele>
        <time>2025-03-16T08:00:28Z</time>
      </trkpt>
      <trkpt lat="43.52795" lon="5.64362">
        <ele>405</ele>
        <time>2025-03-16T08:00:29Z</time>
      </trkpt>
      <trkpt lat="43.52795" lon="5.64362">
        <ele>405.2</ele>
        <time>2025-03-16T08:00:30Z</time>
      </trkpt>
      <trkpt lat="43.52795" lon="5.64362">
        <ele>405.4</ele>
        <time>2025-03-16T08:00:32Z</time>
      </trkpt>
      <trkpt lat="43.52795" lon="5.64362">
        <ele>405.4</ele>
        <time>2025-03-16T08:00:33Z</time>
      </trkpt>
      <trkpt lat="43.52795" lon="5.64362">
        <ele>405.4</ele>
        <time>2025-03-16T08:00:34Z</time>
      </trkpt>
      <trkpt lat="43.52795" lon="5.64362">
        <ele>405.5</ele>
        <time>2025-03-16T08:00:35Z</time>
      </trkpt>
      <trkpt lat="43.52795" lon="5.64362">
        <ele>405.4</ele>
        <time>2025-03-16T08:00:36Z</time>
      </trkpt>
      <trkpt lat="43.52795" lon="5.64362">
        <ele>405.3</ele>
        <time>2025-03-16T08:00:37Z</time>
      </trkpt>
      <trkpt lat="43.52795" lon="5.64362">
        <ele>405.7</ele>
        <time>2025-03-16T08:00:40Z</time>
      </trkpt>
      <trkpt lat="43.52795" lon="5.64362">
        <ele>405.7</ele>
        <time>2025-03-16T08:00:41Z</time>
      </trkpt>
      <trkpt lat="43.52795" lon="5.64362">
        <ele>405.8</ele>
        <time>2025-03-16T08:00:42Z</time>
      </trkpt>
      <trkpt lat="43.52795" lon="5.64362">
        <ele>405.8</ele>
        <time>2025-03-16T08:00:43Z</time>
      </trkpt>
      <trkpt lat="43.52795" lon="5.64363">
        <ele>405.3</ele>
        <time>2025-03-16T08:00:49Z</time>
      </trkpt>
      <trkpt lat="43.52795" lon="5.64363">
        <ele>405.2</ele>
        <time>2025-03-16T08:00:51Z</time>
      </trkpt>
      <trkpt lat="43.52795" lon="5.64363">
        <ele>405.1</ele>
        <time>2025-03-16T08:00:52Z</time>
      </trkpt>
      <trkpt lat="43.52795" lon="5.64363">
        <ele>405</ele>
        <time>2025-03-16T08:00:54Z</time>
      </trkpt>
      <trkpt lat="43.52795" lon="5.64363">
        <ele>405</ele>
        <time>2025-03-16T08:00:55Z</time>
      </trkpt>
      <trkpt lat="43.52795" lon="5.64363">
        <ele>405</ele>
        <time>2025-03-16T08:00:58Z</time>
      </trkpt>
      <trkpt lat="43.52794" lon="5.64363">
        <ele>404.9</ele>
        <time>2025-03-16T08:01:03Z</time>
      </trkpt>
      <trkpt lat="43.52794" lon="5.64363">
        <ele>404.8</ele>
        <time>2025-03-16T08:01:04Z</time>
      </trkpt>
      <trkpt lat="43.52794" lon="5.64363">
        <ele>404.7</ele>
        <time>2025-03-16T08:01:06Z</time>
      </trkpt>
      <trkpt lat="43.52794" lon="5.64363">
        <ele>404.7</ele>
        <time>2025-03-16T08:01:08Z</time>
      </trkpt>
      <trkpt lat="43.52794" lon="5.64363">
        <ele>404.8</ele>
        <time>2025-03-16T08:01:10Z</time>
      </trkpt>
      <trkpt lat="43.52794" lon="5.64363">
        <ele>404.9</ele>
        <time>2025-03-16T08:01:11Z</time>
      </trkpt>
      <trkpt lat="43.52794" lon="5.64362">
        <ele>405.1</ele>
        <time>2025-03-16T08:01:13Z</time>
      </trkpt>
      <trkpt lat="43.52794" lon="5.64362">
        <ele>405.2</ele>
        <time>2025-03-16T08:01:14Z</time>
      </trkpt>
      <trkpt lat="43.52794" lon="5.64362">
        <ele>405</ele>
        <time>2025-03-16T08:01:17Z</time>
      </trkpt>
      <trkpt lat="43.52794" lon="5.64361">
        <ele>404.6</ele>
        <time>2025-03-16T08:01:19Z</time>
      </trkpt>
      <trkpt lat="43.52795" lon="5.64361">
        <ele>404.5</ele>
        <time>2025-03-16T08:01:20Z</time>
      </trkpt>
      <trkpt lat="43.52795" lon="5.64361">
        <ele>404.6</ele>
        <time>2025-03-16T08:01:22Z</time>
      </trkpt>
      <trkpt lat="43.52795" lon="5.64361">
        <ele>404.5</ele>
        <time>2025-03-16T08:01:24Z</time>
      </trkpt>
      <trkpt lat="43.52795" lon="5.64361">
        <ele>404.4</ele>
        <time>2025-03-16T08:01:26Z</time>
      </trkpt>
      <trkpt lat="43.52795" lon="5.64361">
        <ele>404.3</ele>
        <time>2025-03-16T08:01:27Z</time>
      </trkpt>
      <trkpt lat="43.52795" lon="5.64361">
        <ele>404.3</ele>
        <time>2025-03-16T08:01:28Z</time>
      </trkpt>
      <trkpt lat="43.52795" lon="5.64361">
        <ele>404.1</ele>
        <time>2025-03-16T08:01:33Z</time>
      </trkpt>
      <trkpt lat="43.52795" lon="5.64361">
        <ele>404</ele>
        <time>2025-03-16T08:01:34Z</time>
      </trkpt>
      <trkpt lat="43.52795" lon="5.64361">
        <ele>403.3</ele>
        <time>2025-03-16T08:01:40Z</time>
      </trkpt>
      <trkpt lat="43.52795" lon="5.64361">
        <ele>403.2</ele>
        <time>2025-03-16T08:01:41Z</time>
      </trkpt>
      <trkpt lat="43.52795" lon="5.64361">
        <ele>403.4</ele>
        <time>2025-03-16T08:01:42Z</time>
      </trkpt>
      <trkpt lat="43.52795" lon="5.64361">
        <ele>403.3</ele>
        <time>2025-03-16T08:01:45Z</time>
      </trkpt>
      <trkpt lat="43.52795" lon="5.64361">
        <ele>403.1</ele>
        <time>2025-03-16T08:01:48Z</time>
      </trkpt>
      <trkpt lat="43.52795" lon="5.64361">
        <ele>403.2</ele>
        <time>2025-03-16T08:01:50Z</time>
      </trkpt>
      <trkpt lat="43.52795" lon="5.64361">
        <ele>403.2</ele>
        <time>2025-03-16T08:01:51Z</time>
      </trkpt>
      <trkpt lat="43.52795" lon="5.64361">
        <ele>403.3</ele>
        <time>2025-03-16T08:01:52Z</time>
      </trkpt>
      <trkpt lat="43.52795" lon="5.64361">
        <ele>403.4</ele>
        <time>2025-03-16T08:01:53Z</time>
      </trkpt>
      <trkpt lat="43.52795" lon="5.64361">
        <ele>403.6</ele>
        <time>2025-03-16T08:01:55Z</time>
      </trkpt>
      <trkpt lat="43.52795" lon="5.64361">
        <ele>403.5</ele>
        <time>2025-03-16T08:01:57Z</time>
      </trkpt>
      <trkpt lat="43.52795" lon="5.64361">
        <ele>403.6</ele>
        <time>2025-03-16T08:01:58Z</time>
      </trkpt>
      <trkpt lat="43.52795" lon="5.64361">
        <ele>403.4</ele>
        <time>2025-03-16T08:02:00Z</time>
      </trkpt>
      <trkpt lat="43.52795" lon="5.64361">
        <ele>403.3</ele>
        <time>2025-03-16T08:02:01Z</time>
      </trkpt>
      <trkpt lat="43.52796" lon="5.64361">
        <ele>403.3</ele>
        <time>2025-03-16T08:02:02Z</time>
      </trkpt>
      <trkpt lat="43.52796" lon="5.64361">
        <ele>403.4</ele>
        <time>2025-03-16T08:02:03Z</time>
      </trkpt>
      <trkpt lat="43.52796" lon="5.6436">
        <ele>403.3</ele>
        <time>2025-03-16T08:02:04Z</time>
      </trkpt>
      <trkpt lat="43.52796" lon="5.6436">
        <ele>403.4</ele>
        <time>2025-03-16T08:02:06Z</time>
      </trkpt>
      <trkpt lat="43.52796" lon="5.64361">
        <ele>403.5</ele>
        <time>2025-03-16T08:02:07Z</time>
      </trkpt>
      <trkpt lat="43.52796" lon="5.64361">
        <ele>403.7</ele>
        <time>2025-03-16T08:02:10Z</time>
      </trkpt>
      <trkpt lat="43.52796" lon="5.64361">
        <ele>403.1</ele>
        <time>2025-03-16T08:02:16Z</time>
      </trkpt>
      <trkpt lat="43.52796" lon="5.6436">
        <ele>402.9</ele>
        <time>2025-03-16T08:02:17Z</time>
      </trkpt>
      <trkpt lat="43.52796" lon="5.64361">
        <ele>403.1</ele>
        <time>2025-03-16T08:02:25Z</time>
      </trkpt>
      <trkpt lat="43.52796" lon="5.64361">
        <ele>403.1</ele>
        <time>2025-03-16T08:02:26Z</time>
      </trkpt>
      <trkpt lat="43.52796" lon="5.64362">
        <ele>403.2</ele>
        <time>2025-03-16T08:02:30Z</time>
      </trkpt>
      <trkpt lat="43.52796" lon="5.64362">
        <ele>403.3</ele>
        <time>2025-03-16T08:02:31Z</time>
      </trkpt>
      <trkpt lat="43.52795" lon="5.64362">
        <ele>403.2</ele>
        <time>2025-03-16T08:02:32Z</time>
      </trkpt>
      <trkpt lat="43.52795" lon="5.64362">
        <ele>403.2</ele>
        <time>2025-03-16T08:02:33Z</time>
      </trkpt>
      <trkpt lat="43.52796" lon="5.64362">
        <ele>403.6</ele>
        <time>2025-03-16T08:02:37Z</time>
      </trkpt>
      <trkpt lat="43.52796" lon="5.64363">
        <ele>403.7</ele>
        <time>2025-03-16T08:02:39Z</time>
      </trkpt>
      <trkpt lat="43.52796" lon="5.64363">
        <ele>403.7</ele>
        <time>2025-03-16T08:02:40Z</time>
      </trkpt>
      <trkpt lat="43.52796" lon="5.64363">
        <ele>403.7</ele>
        <time>2025-03-16T08:02:41Z</time>
      </trkpt>
      <trkpt lat="43.52795" lon="5.64363">
        <ele>403.6</ele>
        <time>2025-03-16T08:02:42Z</time>
      </trkpt>
      <trkpt lat="43.52796" lon="5.64363">
        <ele>403.9</ele>
        <time>2025-03-16T08:02:44Z</time>
      </trkpt>
      <trkpt lat="43.52795" lon="5.64363">
        <ele>404.3</ele>
        <time>2025-03-16T08:02:46Z</time>
      </trkpt>
      <trkpt lat="43.52795" lon="5.64363">
        <ele>404.6</ele>
        <time>2025-03-16T08:02:48Z</time>
      </trkpt>
      <trkpt lat="43.52795" lon="5.64363">
        <ele>404.6</ele>
        <time>2025-03-16T08:02:49Z</time>
      </trkpt>
      <trkpt lat="43.52795" lon="5.64363">
        <ele>404.5</ele>
        <time>2025-03-16T08:02:51Z</time>
      </trkpt>
      <trkpt lat="43.52795" lon="5.64363">
        <ele>404.3</ele>
        <time>2025-03-16T08:02:52Z</time>
      </trkpt>
      <trkpt lat="43.52795" lon="5.64362">
        <ele>404.3</ele>
        <time>2025-03-16T08:02:55Z</time>
      </trkpt>
      <trkpt lat="43.52795" lon="5.64362">
        <ele>404.2</ele>
        <time>2025-03-16T08:02:56Z</time>
      </trkpt>
      <trkpt lat="43.52795" lon="5.64362">
        <ele>404.3</ele>
        <time>2025-03-16T08:02:57Z</time>
      </trkpt>
      <trkpt lat="43.52795" lon="5.64362">
        <ele>404.9</ele>
        <time>2025-03-16T08:03:01Z</time>
      </trkpt>
      <trkpt lat="43.52795" lon="5.64361">
        <ele>407.1</ele>
        <time>2025-03-16T08:03:10Z</time>
      </trkpt>
      <trkpt lat="43.52795" lon="5.64361">
        <ele>407</ele>
        <time>2025-03-16T08:03:13Z</time>
      </trkpt>
      <trkpt lat="43.52794" lon="5.6436">
        <ele>408.5</ele>
        <time>2025-03-16T08:03:23Z</time>
      </trkpt>
      <trkpt lat="43.52794" lon="5.6436">
        <ele>408.4</ele>
        <time>2025-03-16T08:03:25Z</time>
      </trkpt>
      <trkpt lat="43.52794" lon="5.6436">
        <ele>408.4</ele>
        <time>2025-03-16T08:03:26Z</time>
      </trkpt>
      <trkpt lat="43.52794" lon="5.64361">
        <ele>408.6</ele>
        <time>2025-03-16T08:03:37Z</time>
      </trkpt>
      <trkpt lat="43.52792" lon="5.64365">
        <ele>407.3</ele>
        <time>2025-03-16T08:03:44Z</time>
      </trkpt>
      <trkpt lat="43.52793" lon="5.64365">
        <ele>407.3</ele>
        <time>2025-03-16T08:03:45Z</time>
      </trkpt>
      <trkpt lat="43.52786" lon="5.64356">
        <ele>406.7</ele>
        <time>2025-03-16T08:03:55Z</time>
      </trkpt>
      <trkpt lat="43.52796" lon="5.64353">
        <ele>405.5</ele>
        <time>2025-03-16T08:03:59Z</time>
      </trkpt>
      <trkpt lat="43.52801" lon="5.64342">
        <ele>407.4</ele>
        <time>2025-03-16T08:04:14Z</time>
      </trkpt>
      <trkpt lat="43.52805" lon="5.64341">
        <ele>409.7</ele>
        <time>2025-03-16T08:04:29Z</time>
      </trkpt>
      <trkpt lat="43.52805" lon="5.64341">
        <ele>409.9</ele>
        <time>2025-03-16T08:04:32Z</time>
      </trkpt>
      <trkpt lat="43.52805" lon="5.64341">
        <ele>409.9</ele>
        <time>2025-03-16T08:04:33Z</time>
      </trkpt>
      <trkpt lat="43.52805" lon="5.64341">
        <ele>409.9</ele>
        <time>2025-03-16T08:04:50Z</time>
      </trkpt>
      <trkpt lat="43.52806" lon="5.6434">
        <ele>410</ele>
        <time>2025-03-16T08:04:52Z</time>
      </trkpt>
      <trkpt lat="43.52806" lon="5.6434">
        <ele>409.9</ele>
        <time>2025-03-16T08:04:55Z</time>
      </trkpt>
      <trkpt lat="43.52803" lon="5.64338">
        <ele>410.2</ele>
        <time>2025-03-16T08:05:05Z</time>
      </trkpt>
      <trkpt lat="43.52803" lon="5.64338">
        <ele>410.2</ele>
        <time>2025-03-16T08:05:06Z</time>
      </trkpt>
      <trkpt lat="43.52803" lon="5.64338">
        <ele>410.3</ele>
        <time>2025-03-16T08:05:07Z</time>
      </trkpt>
      <trkpt lat="43.52802" lon="5.64338">
        <ele>410.3</ele>
        <time>2025-03-16T08:05:08Z</time>
      </trkpt>
      <trkpt lat="43.52804" lon="5.64332">
        <ele>408.3</ele>
        <time>2025-03-16T08:05:32Z</time>
      </trkpt>
      <trkpt lat="43.52804" lon="5.64332">
        <ele>408.4</ele>
        <time>2025-03-16T08:05:36Z</time>
      </trkpt>
      <trkpt lat="43.52804" lon="5.64332">
        <ele>408.4</ele>
        <time>2025-03-16T08:05:37Z</time>
      </trkpt>
      <trkpt lat="43.52804" lon="5.64332">
        <ele>408.3</ele>
        <time>2025-03-16T08:06:23Z</time>
      </trkpt>
      <trkpt lat="43.52804" lon="5.64332">
        <ele>408.3</ele>
        <time>2025-03-16T08:06:24Z</time>
      </trkpt>
      <trkpt lat="43.52804" lon="5.64332">
        <ele>408.5</ele>
        <time>2025-03-16T08:06:27Z</time>
      </trkpt>
      <trkpt lat="43.52803" lon="5.64332">
        <ele>409.1</ele>
        <time>2025-03-16T08:06:31Z</time>
      </trkpt>
      <trkpt lat="43.52803" lon="5.64332">
        <ele>409.2</ele>
        <time>2025-03-16T08:06:32Z</time>
      </trkpt>
      <trkpt lat="43.52799" lon="5.64334">
        <ele>409.2</ele>
        <time>2025-03-16T08:06:43Z</time>
      </trkpt>
      <trkpt lat="43.52798" lon="5.64333">
        <ele>408.9</ele>
        <time>2025-03-16T08:06:45Z</time>
      </trkpt>
      <trkpt lat="43.528" lon="5.64332">
        <ele>408</ele>
        <time>2025-03-16T08:06:51Z</time>
      </trkpt>
      <trkpt lat="43.528" lon="5.64333">
        <ele>408.1</ele>
        <time>2025-03-16T08:06:52Z</time>
      </trkpt>
      <trkpt lat="43.528" lon="5.64332">
        <ele>408.3</ele>
        <time>2025-03-16T08:06:54Z</time>
      </trkpt>
      <trkpt lat="43.528" lon="5.64333">
        <ele>408.2</ele>
        <time>2025-03-16T08:06:56Z</time>
      </trkpt>
      <trkpt lat="43.528" lon="5.64333">
        <ele>408.2</ele>
        <time>2025-03-16T08:06:57Z</time>
      </trkpt>
      <trkpt lat="43.528" lon="5.64333">
        <ele>408.2</ele>
        <time>2025-03-16T08:06:59Z</time>
      </trkpt>
      <trkpt lat="43.52806" lon="5.64324">
        <ele>408.3</ele>
        <time>2025-03-16T08:07:15Z</time>
      </trkpt>
      <trkpt lat="43.52811" lon="5.64314">
        <ele>408.9</ele>
        <time>2025-03-16T08:07:30Z</time>
      </trkpt>
      <trkpt lat="43.52811" lon="5.64314">
        <ele>409</ele>
        <time>2025-03-16T08:07:31Z</time>
      </trkpt>
      <trkpt lat="43.52817" lon="5.64302">
        <ele>408.8</ele>
        <time>2025-03-16T08:07:40Z</time>
      </trkpt>
      <trkpt lat="43.52819" lon="5.64289">
        <ele>409.1</ele>
        <time>2025-03-16T08:07:48Z</time>
      </trkpt>
      <trkpt lat="43.52826" lon="5.6428">
        <ele>409.1</ele>
        <time>2025-03-16T08:07:55Z</time>
      </trkpt>
      <trkpt lat="43.52832" lon="5.6427">
        <ele>408.3</ele>
        <time>2025-03-16T08:08:04Z</time>
      </trkpt>
      <trkpt lat="43.52841" lon="5.64265">
        <ele>407.7</ele>
        <time>2025-03-16T08:08:12Z</time>
      </trkpt>
      <trkpt lat="43.5285" lon="5.64261">
        <ele>407.4</ele>
        <time>2025-03-16T08:08:21Z</time>
      </trkpt>
      <trkpt lat="43.52859" lon="5.64259">
        <ele>408.5</ele>
        <time>2025-03-16T08:08:31Z</time>
      </trkpt>
      <trkpt lat="43.52868" lon="5.64258">
        <ele>410</ele>
        <time>2025-03-16T08:08:40Z</time>
      </trkpt>
      <trkpt lat="43.52877" lon="5.64259">
        <ele>411.1</ele>
        <time>2025-03-16T08:08:49Z</time>
      </trkpt>
      <trkpt lat="43.52886" lon="5.64261">
        <ele>411.1</ele>
        <time>2025-03-16T08:09:20Z</time>
      </trkpt>
      <trkpt lat="43.52886" lon="5.64261">
        <ele>410.9</ele>
        <time>2025-03-16T08:09:22Z</time>
      </trkpt>
      <trkpt lat="43.52887" lon="5.64261">
        <ele>411</ele>
        <time>2025-03-16T08:09:23Z</time>
      </trkpt>
      <trkpt lat="43.52886" lon="5.64261">
        <ele>410.8</ele>
        <time>2025-03-16T08:09:30Z</time>
      </trkpt>
      <trkpt lat="43.52885" lon="5.6426">
        <ele>410.8</ele>
        <time>2025-03-16T08:09:31Z</time>
      </trkpt>
      <trkpt lat="43.52895" lon="5.6426">
        <ele>412.1</ele>
        <time>2025-03-16T08:09:43Z</time>
      </trkpt>
      <trkpt lat="43.52904" lon="5.64258">
        <ele>412.6</ele>
        <time>2025-03-16T08:09:53Z</time>
      </trkpt>
      <trkpt lat="43.52914" lon="5.64257">
        <ele>414.1</ele>
        <time>2025-03-16T08:10:01Z</time>
      </trkpt>
      <trkpt lat="43.52923" lon="5.64255">
        <ele>417.6</ele>
        <time>2025-03-16T08:10:11Z</time>
      </trkpt>
      <trkpt lat="43.52932" lon="5.64259">
        <ele>421.1</ele>
        <time>2025-03-16T08:10:23Z</time>
      </trkpt>
      <trkpt lat="43.52939" lon="5.64267">
        <ele>421.7</ele>
        <time>2025-03-16T08:10:33Z</time>
      </trkpt>
      <trkpt lat="43.52948" lon="5.64265">
        <ele>421.5</ele>
        <time>2025-03-16T08:10:47Z</time>
      </trkpt>
      <trkpt lat="43.52957" lon="5.64263">
        <ele>421.5</ele>
        <time>2025-03-16T08:11:00Z</time>
      </trkpt>
      <trkpt lat="43.52963" lon="5.64253">
        <ele>422.7</ele>
        <time>2025-03-16T08:11:10Z</time>
      </trkpt>
      <trkpt lat="43.52972" lon="5.64257">
        <ele>423.7</ele>
        <time>2025-03-16T08:11:22Z</time>
      </trkpt>
      <trkpt lat="43.52975" lon="5.6427">
        <ele>425.4</ele>
        <time>2025-03-16T08:11:33Z</time>
      </trkpt>
      <trkpt lat="43.52984" lon="5.64276">
        <ele>427.9</ele>
        <time>2025-03-16T08:11:45Z</time>
      </trkpt>
      <trkpt lat="43.52993" lon="5.64277">
        <ele>429.4</ele>
        <time>2025-03-16T08:11:54Z</time>
      </trkpt>
      <trkpt lat="43.53001" lon="5.6427">
        <ele>429.9</ele>
        <time>2025-03-16T08:12:06Z</time>
      </trkpt>
      <trkpt lat="43.53009" lon="5.64264">
        <ele>431.3</ele>
        <time>2025-03-16T08:12:14Z</time>
      </trkpt>
      <trkpt lat="43.53016" lon="5.64255">
        <ele>433.9</ele>
        <time>2025-03-16T08:12:24Z</time>
      </trkpt>
      <trkpt lat="43.53024" lon="5.64249">
        <ele>436.5</ele>
        <time>2025-03-16T08:12:34Z</time>
      </trkpt>
      <trkpt lat="43.53032" lon="5.6425">
        <ele>441.3</ele>
        <time>2025-03-16T08:12:50Z</time>
      </trkpt>
      <trkpt lat="43.53032" lon="5.64249">
        <ele>441.3</ele>
        <time>2025-03-16T08:12:51Z</time>
      </trkpt>
      <trkpt lat="43.53042" lon="5.64248">
        <ele>443</ele>
        <time>2025-03-16T08:13:03Z</time>
      </trkpt>
      <trkpt lat="43.53051" lon="5.64247">
        <ele>443.9</ele>
        <time>2025-03-16T08:13:14Z</time>
      </trkpt>
      <trkpt lat="43.5306" lon="5.64244">
        <ele>444.5</ele>
        <time>2025-03-16T08:13:25Z</time>
      </trkpt>
      <trkpt lat="43.53069" lon="5.6424">
        <ele>445</ele>
        <time>2025-03-16T08:13:33Z</time>
      </trkpt>
      <trkpt lat="43.53076" lon="5.6423">
        <ele>444.6</ele>
        <time>2025-03-16T08:13:43Z</time>
      </trkpt>
      <trkpt lat="43.5308" lon="5.64218">
        <ele>444.1</ele>
        <time>2025-03-16T08:14:00Z</time>
      </trkpt>
      <trkpt lat="43.5309" lon="5.64213">
        <ele>444.1</ele>
        <time>2025-03-16T08:14:08Z</time>
      </trkpt>
      <trkpt lat="43.53098" lon="5.64207">
        <ele>444.1</ele>
        <time>2025-03-16T08:14:18Z</time>
      </trkpt>
      <trkpt lat="43.53105" lon="5.64198">
        <ele>445.8</ele>
        <time>2025-03-16T08:14:29Z</time>
      </trkpt>
      <trkpt lat="43.53114" lon="5.64192">
        <ele>447.6</ele>
        <time>2025-03-16T08:14:37Z</time>
      </trkpt>
      <trkpt lat="43.5312" lon="5.64183">
        <ele>449.7</ele>
        <time>2025-03-16T08:14:43Z</time>
      </trkpt>
      <trkpt lat="43.53128" lon="5.64175">
        <ele>449.4</ele>
        <time>2025-03-16T08:14:54Z</time>
      </trkpt>
      <trkpt lat="43.53137" lon="5.64175">
        <ele>450.3</ele>
        <time>2025-03-16T08:15:01Z</time>
      </trkpt>
      <trkpt lat="43.53147" lon="5.64175">
        <ele>451.2</ele>
        <time>2025-03-16T08:15:11Z</time>
      </trkpt>
      <trkpt lat="43.53156" lon="5.64172">
        <ele>452.7</ele>
        <time>2025-03-16T08:15:19Z</time>
      </trkpt>
      <trkpt lat="43.53163" lon="5.64162">
        <ele>453.8</ele>
        <time>2025-03-16T08:15:29Z</time>
      </trkpt>
      <trkpt lat="43.53168" lon="5.6415">
        <ele>453.8</ele>
        <time>2025-03-16T08:15:36Z</time>
      </trkpt>
      <trkpt lat="43.53171" lon="5.64138">
        <ele>454.3</ele>
        <time>2025-03-16T08:15:43Z</time>
      </trkpt>
      <trkpt lat="43.53169" lon="5.64125">
        <ele>456.3</ele>
        <time>2025-03-16T08:15:51Z</time>
      </trkpt>
      <trkpt lat="43.53167" lon="5.64111">
        <ele>457.8</ele>
        <time>2025-03-16T08:16:00Z</time>
      </trkpt>
      <trkpt lat="43.53167" lon="5.64098">
        <ele>459.4</ele>
        <time>2025-03-16T08:16:12Z</time>
      </trkpt>
      <trkpt lat="43.5316" lon="5.64088">
        <ele>458.9</ele>
        <time>2025-03-16T08:16:22Z</time>
      </trkpt>
      <trkpt lat="43.53161" lon="5.64075">
        <ele>459.5</ele>
        <time>2025-03-16T08:16:32Z</time>
      </trkpt>
      <trkpt lat="43.53158" lon="5.64063">
        <ele>461.3</ele>
        <time>2025-03-16T08:16:41Z</time>
      </trkpt>
      <trkpt lat="43.5316" lon="5.6405">
        <ele>462.9</ele>
        <time>2025-03-16T08:16:51Z</time>
      </trkpt>
      <trkpt lat="43.53162" lon="5.64037">
        <ele>463.7</ele>
        <time>2025-03-16T08:17:01Z</time>
      </trkpt>
      <trkpt lat="43.53165" lon="5.64025">
        <ele>465.1</ele>
        <time>2025-03-16T08:17:12Z</time>
      </trkpt>
      <trkpt lat="43.53165" lon="5.64012">
        <ele>464.4</ele>
        <time>2025-03-16T08:17:23Z</time>
      </trkpt>
      <trkpt lat="43.53164" lon="5.63999">
        <ele>467.7</ele>
        <time>2025-03-16T08:17:36Z</time>
      </trkpt>
      <trkpt lat="43.53171" lon="5.64008">
        <ele>477.5</ele>
        <time>2025-03-16T08:18:07Z</time>
      </trkpt>
      <trkpt lat="43.53176" lon="5.64019">
        <ele>477.2</ele>
        <time>2025-03-16T08:18:22Z</time>
      </trkpt>
      <trkpt lat="43.53178" lon="5.64022">
        <ele>479</ele>
        <time>2025-03-16T08:18:29Z</time>
      </trkpt>
      <trkpt lat="43.53178" lon="5.64022">
        <ele>479</ele>
        <time>2025-03-16T08:18:30Z</time>
      </trkpt>
      <trkpt lat="43.53178" lon="5.64022">
        <ele>479</ele>
        <time>2025-03-16T08:18:31Z</time>
      </trkpt>
      <trkpt lat="43.53178" lon="5.64022">
        <ele>479</ele>
        <time>2025-03-16T08:18:32Z</time>
      </trkpt>
      <trkpt lat="43.53178" lon="5.64022">
        <ele>479.1</ele>
        <time>2025-03-16T08:18:33Z</time>
      </trkpt>
      <trkpt lat="43.53178" lon="5.64022">
        <ele>479.2</ele>
        <time>2025-03-16T08:18:35Z</time>
      </trkpt>
      <trkpt lat="43.53187" lon="5.64021">
        <ele>483.5</ele>
        <time>2025-03-16T08:18:50Z</time>
      </trkpt>
      <trkpt lat="43.53196" lon="5.64022">
        <ele>489.2</ele>
        <time>2025-03-16T08:19:27Z</time>
      </trkpt>
      <trkpt lat="43.53203" lon="5.64029">
        <ele>492.4</ele>
        <time>2025-03-16T08:19:41Z</time>
      </trkpt>
      <trkpt lat="43.5321" lon="5.64038">
        <ele>495.3</ele>
        <time>2025-03-16T08:20:00Z</time>
      </trkpt>
      <trkpt lat="43.53217" lon="5.64047">
        <ele>498.7</ele>
        <time>2025-03-16T08:20:17Z</time>
      </trkpt>
      <trkpt lat="43.53218" lon="5.64048">
        <ele>499</ele>
        <time>2025-03-16T08:20:22Z</time>
      </trkpt>
      <trkpt lat="43.53218" lon="5.64048">
        <ele>499.1</ele>
        <time>2025-03-16T08:20:23Z</time>
      </trkpt>
      <trkpt lat="43.53224" lon="5.64038">
        <ele>501.1</ele>
        <time>2025-03-16T08:20:42Z</time>
      </trkpt>
      <trkpt lat="43.53227" lon="5.64035">
        <ele>502.9</ele>
        <time>2025-03-16T08:20:50Z</time>
      </trkpt>
      <trkpt lat="43.53227" lon="5.64034">
        <ele>503.1</ele>
        <time>2025-03-16T08:20:51Z</time>
      </trkpt>
      <trkpt lat="43.53229" lon="5.64022">
        <ele>506.9</ele>
        <time>2025-03-16T08:21:10Z</time>
      </trkpt>
      <trkpt lat="43.53225" lon="5.6401">
        <ele>510.4</ele>
        <time>2025-03-16T08:21:26Z</time>
      </trkpt>
      <trkpt lat="43.53224" lon="5.63999">
        <ele>512.5</ele>
        <time>2025-03-16T08:21:41Z</time>
      </trkpt>
      <trkpt lat="43.53224" lon="5.63998">
        <ele>512.8</ele>
        <time>2025-03-16T08:21:43Z</time>
      </trkpt>
      <trkpt lat="43.53224" lon="5.63988">
        <ele>514</ele>
        <time>2025-03-16T08:21:55Z</time>
      </trkpt>
      <trkpt lat="43.53225" lon="5.63988">
        <ele>513.9</ele>
        <time>2025-03-16T08:21:56Z</time>
      </trkpt>
      <trkpt lat="43.53225" lon="5.63988">
        <ele>513.8</ele>
        <time>2025-03-16T08:21:58Z</time>
      </trkpt>
      <trkpt lat="43.53225" lon="5.63988">
        <ele>514.1</ele>
        <time>2025-03-16T08:22:00Z</time>
      </trkpt>
      <trkpt lat="43.53225" lon="5.63988">
        <ele>514.2</ele>
        <time>2025-03-16T08:22:01Z</time>
      </trkpt>
      <trkpt lat="43.53225" lon="5.63988">
        <ele>514.3</ele>
        <time>2025-03-16T08:22:04Z</time>
      </trkpt>
      <trkpt lat="43.53225" lon="5.63988">
        <ele>514.3</ele>
        <time>2025-03-16T08:22:05Z</time>
      </trkpt>
      <trkpt lat="43.53225" lon="5.63989">
        <ele>514.6</ele>
        <time>2025-03-16T08:22:07Z</time>
      </trkpt>
      <trkpt lat="43.53223" lon="5.63987">
        <ele>515.5</ele>
        <time>2025-03-16T08:22:14Z</time>
      </trkpt>
      <trkpt lat="43.53223" lon="5.63987">
        <ele>515.5</ele>
        <time>2025-03-16T08:22:22Z</time>
      </trkpt>
      <trkpt lat="43.53223" lon="5.63987">
        <ele>515.5</ele>
        <time>2025-03-16T08:22:23Z</time>
      </trkpt>
      <trkpt lat="43.53222" lon="5.63987">
        <ele>515.5</ele>
        <time>2025-03-16T08:22:44Z</time>
      </trkpt>
      <trkpt lat="43.53222" lon="5.63987">
        <ele>515.5</ele>
        <time>2025-03-16T08:22:45Z</time>
      </trkpt>
      <trkpt lat="43.53222" lon="5.63987">
        <ele>515.5</ele>
        <time>2025-03-16T08:23:11Z</time>
      </trkpt>
      <trkpt lat="43.53222" lon="5.63987">
        <ele>515.5</ele>
        <time>2025-03-16T08:23:12Z</time>
      </trkpt>
      <trkpt lat="43.53222" lon="5.63987">
        <ele>515.6</ele>
        <time>2025-03-16T08:23:46Z</time>
      </trkpt>
      <trkpt lat="43.53222" lon="5.63987">
        <ele>515.6</ele>
        <time>2025-03-16T08:23:47Z</time>
      </trkpt>
      <trkpt lat="43.53222" lon="5.63987">
        <ele>515.7</ele>
        <time>2025-03-16T08:24:30Z</time>
      </trkpt>
      <trkpt lat="43.53222" lon="5.63987">
        <ele>515.9</ele>
        <time>2025-03-16T08:24:33Z</time>
      </trkpt>
      <trkpt lat="43.53221" lon="5.63988">
        <ele>515.9</ele>
        <time>2025-03-16T08:24:58Z</time>
      </trkpt>
      <trkpt lat="43.53222" lon="5.63988">
        <ele>515.8</ele>
        <time>2025-03-16T08:25:00Z</time>
      </trkpt>
      <trkpt lat="43.53223" lon="5.63988">
        <ele>516</ele>
        <time>2025-03-16T08:25:01Z</time>
      </trkpt>
      <trkpt lat="43.53224" lon="5.63987">
        <ele>516.4</ele>
        <time>2025-03-16T08:25:04Z</time>
      </trkpt>
      <trkpt lat="43.53224" lon="5.63987">
        <ele>516.4</ele>
        <time>2025-03-16T08:25:05Z</time>
      </trkpt>
      <trkpt lat="43.53224" lon="5.63987">
        <ele>516.3</ele>
        <time>2025-03-16T08:25:06Z</time>
      </trkpt>
      <trkpt lat="43.53223" lon="5.63987">
        <ele>516.4</ele>
        <time>2025-03-16T08:25:28Z</time>
      </trkpt>
      <trkpt lat="43.53223" lon="5.63987">
        <ele>516.5</ele>
        <time>2025-03-16T08:25:31Z</time>
      </trkpt>
      <trkpt lat="43.53223" lon="5.63987">
        <ele>516.7</ele>
        <time>2025-03-16T08:25:33Z</time>
      </trkpt>
      <trkpt lat="43.53223" lon="5.63981">
        <ele>517.4</ele>
        <time>2025-03-16T08:25:48Z</time>
      </trkpt>
      <trkpt lat="43.53223" lon="5.63981">
        <ele>517.4</ele>
        <time>2025-03-16T08:25:54Z</time>
      </trkpt>
      <trkpt lat="43.53229" lon="5.6397">
        <ele>520.1</ele>
        <time>2025-03-16T08:26:11Z</time>
      </trkpt>
      <trkpt lat="43.53232" lon="5.63957">
        <ele>520.9</ele>
        <time>2025-03-16T08:26:23Z</time>
      </trkpt>
      <trkpt lat="43.53234" lon="5.63944">
        <ele>521.5</ele>
        <time>2025-03-16T08:26:34Z</time>
      </trkpt>
      <trkpt lat="43.53238" lon="5.63941">
        <ele>522.5</ele>
        <time>2025-03-16T08:26:43Z</time>
      </trkpt>
      <trkpt lat="43.53238" lon="5.63941">
        <ele>522.7</ele>
        <time>2025-03-16T08:26:44Z</time>
      </trkpt>
      <trkpt lat="43.53245" lon="5.63931">
        <ele>523.3</ele>
        <time>2025-03-16T08:26:57Z</time>
      </trkpt>
      <trkpt lat="43.53252" lon="5.63922">
        <ele>524</ele>
        <time>2025-03-16T08:27:06Z</time>
      </trkpt>
      <trkpt lat="43.53259" lon="5.63913">
        <ele>524.3</ele>
        <time>2025-03-16T08:27:15Z</time>
      </trkpt>
      <trkpt lat="43.53265" lon="5.63904">
        <ele>524.6</ele>
        <time>2025-03-16T08:27:24Z</time>
      </trkpt>
      <trkpt lat="43.53272" lon="5.63895">
        <ele>524.6</ele>
        <time>2025-03-16T08:27:34Z</time>
      </trkpt>
      <trkpt lat="43.53274" lon="5.63884">
        <ele>525.2</ele>
        <time>2025-03-16T08:27:43Z</time>
      </trkpt>
      <trkpt lat="43.53274" lon="5.63883">
        <ele>525.3</ele>
        <time>2025-03-16T08:27:44Z</time>
      </trkpt>
      <trkpt lat="43.53276" lon="5.6387">
        <ele>527.6</ele>
        <time>2025-03-16T08:27:54Z</time>
      </trkpt>
      <trkpt lat="43.53278" lon="5.63857">
        <ele>527.5</ele>
        <time>2025-03-16T08:28:02Z</time>
      </trkpt>
      <trkpt lat="43.53279" lon="5.63843">
        <ele>527.6</ele>
        <time>2025-03-16T08:28:12Z</time>
      </trkpt>
      <trkpt lat="43.53277" lon="5.63831">
        <ele>526.9</ele>
        <time>2025-03-16T08:28:19Z</time>
      </trkpt>
      <trkpt lat="43.53274" lon="5.63818">
        <ele>527.5</ele>
        <time>2025-03-16T08:28:29Z</time>
      </trkpt>
      <trkpt lat="43.53276" lon="5.63804">
        <ele>527.8</ele>
        <time>2025-03-16T08:28:40Z</time>
      </trkpt>
      <trkpt lat="43.53279" lon="5.63791">
        <ele>528.9</ele>
        <time>2025-03-16T08:28:54Z</time>
      </trkpt>
      <trkpt lat="43.53284" lon="5.63781">
        <ele>529.9</ele>
        <time>2025-03-16T08:29:08Z</time>
      </trkpt>
      <trkpt lat="43.53294" lon="5.63784">
        <ele>532.3</ele>
        <time>2025-03-16T08:29:39Z</time>
      </trkpt>
      <trkpt lat="43.53295" lon="5.63784">
        <ele>532.1</ele>
        <time>2025-03-16T08:29:42Z</time>
      </trkpt>
      <trkpt lat="43.53295" lon="5.63784">
        <ele>532.3</ele>
        <time>2025-03-16T08:29:45Z</time>
      </trkpt>
      <trkpt lat="43.533" lon="5.63773">
        <ele>533.1</ele>
        <time>2025-03-16T08:29:59Z</time>
      </trkpt>
      <trkpt lat="43.53304" lon="5.63762">
        <ele>537</ele>
        <time>2025-03-16T08:30:16Z</time>
      </trkpt>
      <trkpt lat="43.53304" lon="5.63749">
        <ele>540.4</ele>
        <time>2025-03-16T08:30:30Z</time>
      </trkpt>
      <trkpt lat="43.53305" lon="5.63736">
        <ele>541.3</ele>
        <time>2025-03-16T08:30:42Z</time>
      </trkpt>
      <trkpt lat="43.53304" lon="5.63723">
        <ele>543</ele>
        <time>2025-03-16T08:30:54Z</time>
      </trkpt>
      <trkpt lat="43.53301" lon="5.6371">
        <ele>543.4</ele>
        <time>2025-03-16T08:31:06Z</time>
      </trkpt>
      <trkpt lat="43.53299" lon="5.63698">
        <ele>542.3</ele>
        <time>2025-03-16T08:31:16Z</time>
      </trkpt>
      <trkpt lat="43.53294" lon="5.63687">
        <ele>542.9</ele>
        <time>2025-03-16T08:31:29Z</time>
      </trkpt>
      <trkpt lat="43.53289" lon="5.63676">
        <ele>543.9</ele>
        <time>2025-03-16T08:31:41Z</time>
      </trkpt>
      <trkpt lat="43.53288" lon="5.63663">
        <ele>546.8</ele>
        <time>2025-03-16T08:31:56Z</time>
      </trkpt>
      <trkpt lat="43.53289" lon="5.6365">
        <ele>549.8</ele>
        <time>2025-03-16T08:32:12Z</time>
      </trkpt>
      <trkpt lat="43.53297" lon="5.63646">
        <ele>553</ele>
        <time>2025-03-16T08:32:33Z</time>
      </trkpt>
      <trkpt lat="43.53303" lon="5.63636">
        <ele>555.8</ele>
        <time>2025-03-16T08:32:46Z</time>
      </trkpt>
      <trkpt lat="43.53309" lon="5.63626">
        <ele>557.1</ele>
        <time>2025-03-16T08:32:58Z</time>
      </trkpt>
      <trkpt lat="43.53316" lon="5.6362">
        <ele>560.5</ele>
        <time>2025-03-16T08:33:21Z</time>
      </trkpt>
      <trkpt lat="43.53315" lon="5.6362">
        <ele>560.5</ele>
        <time>2025-03-16T08:33:22Z</time>
      </trkpt>
      <trkpt lat="43.53315" lon="5.63621">
        <ele>560.6</ele>
        <time>2025-03-16T08:33:26Z</time>
      </trkpt>
      <trkpt lat="43.53315" lon="5.63621">
        <ele>560.6</ele>
        <time>2025-03-16T08:33:27Z</time>
      </trkpt>
      <trkpt lat="43.53321" lon="5.63631">
        <ele>561.3</ele>
        <time>2025-03-16T08:33:43Z</time>
      </trkpt>
      <trkpt lat="43.53321" lon="5.63644">
        <ele>564.6</ele>
        <time>2025-03-16T08:33:58Z</time>
      </trkpt>
      <trkpt lat="43.53323" lon="5.63657">
        <ele>566</ele>
        <time>2025-03-16T08:34:09Z</time>
      </trkpt>
      <trkpt lat="43.53323" lon="5.63658">
        <ele>566.3</ele>
        <time>2025-03-16T08:34:12Z</time>
      </trkpt>
      <trkpt lat="43.53324" lon="5.63659">
        <ele>566.5</ele>
        <time>2025-03-16T08:34:14Z</time>
      </trkpt>
      <trkpt lat="43.53328" lon="5.63671">
        <ele>566.2</ele>
        <time>2025-03-16T08:34:24Z</time>
      </trkpt>
      <trkpt lat="43.53333" lon="5.63681">
        <ele>566.9</ele>
        <time>2025-03-16T08:34:33Z</time>
      </trkpt>
      <trkpt lat="43.53336" lon="5.63692">
        <ele>568</ele>
        <time>2025-03-16T08:34:46Z</time>
      </trkpt>
      <trkpt lat="43.53336" lon="5.63692">
        <ele>568.2</ele>
        <time>2025-03-16T08:34:49Z</time>
      </trkpt>
      <trkpt lat="43.53337" lon="5.63705">
        <ele>570.1</ele>
        <time>2025-03-16T08:35:09Z</time>
      </trkpt>
      <trkpt lat="43.53342" lon="5.63716">
        <ele>570.4</ele>
        <time>2025-03-16T08:35:23Z</time>
      </trkpt>
      <trkpt lat="43.53343" lon="5.63727">
        <ele>572.1</ele>
        <time>2025-03-16T08:35:40Z</time>
      </trkpt>
      <trkpt lat="43.53343" lon="5.63727">
        <ele>572.3</ele>
        <time>2025-03-16T08:35:42Z</time>
      </trkpt>
      <trkpt lat="43.53346" lon="5.63739">
        <ele>574.5</ele>
        <time>2025-03-16T08:35:56Z</time>
      </trkpt>
      <trkpt lat="43.53352" lon="5.63741">
        <ele>576.5</ele>
        <time>2025-03-16T08:36:14Z</time>
      </trkpt>
      <trkpt lat="43.53352" lon="5.63741">
        <ele>576.6</ele>
        <time>2025-03-16T08:36:15Z</time>
      </trkpt>
      <trkpt lat="43.53355" lon="5.63728">
        <ele>582</ele>
        <time>2025-03-16T08:36:37Z</time>
      </trkpt>
      <trkpt lat="43.53356" lon="5.63715">
        <ele>586.5</ele>
        <time>2025-03-16T08:36:51Z</time>
      </trkpt>
      <trkpt lat="43.53356" lon="5.63702">
        <ele>589.7</ele>
        <time>2025-03-16T08:37:06Z</time>
      </trkpt>
      <trkpt lat="43.53356" lon="5.63689">
        <ele>591.8</ele>
        <time>2025-03-16T08:37:19Z</time>
      </trkpt>
      <trkpt lat="43.53354" lon="5.63676">
        <ele>595.7</ele>
        <time>2025-03-16T08:37:35Z</time>
      </trkpt>
      <trkpt lat="43.53355" lon="5.63663">
        <ele>598.8</ele>
        <time>2025-03-16T08:37:50Z</time>
      </trkpt>
      <trkpt lat="43.53361" lon="5.63673">
        <ele>598.8</ele>
        <time>2025-03-16T08:38:26Z</time>
      </trkpt>
      <trkpt lat="43.53366" lon="5.63684">
        <ele>598.6</ele>
        <time>2025-03-16T08:38:37Z</time>
      </trkpt>
      <trkpt lat="43.5337" lon="5.63695">
        <ele>600.6</ele>
        <time>2025-03-16T08:38:54Z</time>
      </trkpt>
      <trkpt lat="43.53373" lon="5.63708">
        <ele>601.2</ele>
        <time>2025-03-16T08:39:07Z</time>
      </trkpt>
      <trkpt lat="43.53374" lon="5.6371">
        <ele>601.3</ele>
        <time>2025-03-16T08:39:12Z</time>
      </trkpt>
      <trkpt lat="43.53375" lon="5.6371">
        <ele>601.4</ele>
        <time>2025-03-16T08:39:13Z</time>
      </trkpt>
      <trkpt lat="43.53375" lon="5.6371">
        <ele>601.5</ele>
        <time>2025-03-16T08:39:14Z</time>
      </trkpt>
      <trkpt lat="43.53375" lon="5.6371">
        <ele>601.6</ele>
        <time>2025-03-16T08:39:15Z</time>
      </trkpt>
      <trkpt lat="43.53375" lon="5.63711">
        <ele>601.8</ele>
        <time>2025-03-16T08:39:16Z</time>
      </trkpt>
      <trkpt lat="43.53375" lon="5.63711">
        <ele>601.8</ele>
        <time>2025-03-16T08:39:17Z</time>
      </trkpt>
      <trkpt lat="43.53377" lon="5.63717">
        <ele>603.2</ele>
        <time>2025-03-16T08:39:31Z</time>
      </trkpt>
      <trkpt lat="43.53377" lon="5.63718">
        <ele>603.3</ele>
        <time>2025-03-16T08:39:32Z</time>
      </trkpt>
      <trkpt lat="43.53377" lon="5.63718">
        <ele>603.3</ele>
        <time>2025-03-16T08:39:33Z</time>
      </trkpt>
      <trkpt lat="43.53377" lon="5.63717">
        <ele>603.4</ele>
        <time>2025-03-16T08:39:34Z</time>
      </trkpt>
      <trkpt lat="43.53375" lon="5.6373">
        <ele>605.7</ele>
        <time>2025-03-16T08:39:50Z</time>
      </trkpt>
      <trkpt lat="43.53375" lon="5.63737">
        <ele>607</ele>
        <time>2025-03-16T08:40:03Z</time>
      </trkpt>
      <trkpt lat="43.53374" lon="5.63738">
        <ele>607</ele>
        <time>2025-03-16T08:40:04Z</time>
      </trkpt>
      <trkpt lat="43.53375" lon="5.63744">
        <ele>607.2</ele>
        <time>2025-03-16T08:40:12Z</time>
      </trkpt>
      <trkpt lat="43.53375" lon="5.63744">
        <ele>607.3</ele>
        <time>2025-03-16T08:40:13Z</time>
      </trkpt>
      <trkpt lat="43.53375" lon="5.63756">
        <ele>610</ele>
        <time>2025-03-16T08:40:29Z</time>
      </trkpt>
      <trkpt lat="43.53375" lon="5.63765">
        <ele>609.9</ele>
        <time>2025-03-16T08:40:42Z</time>
      </trkpt>
      <trkpt lat="43.53375" lon="5.63765">
        <ele>610</ele>
        <time>2025-03-16T08:40:43Z</time>
      </trkpt>
      <trkpt lat="43.53375" lon="5.63765">
        <ele>609.9</ele>
        <time>2025-03-16T08:40:45Z</time>
      </trkpt>
      <trkpt lat="43.53375" lon="5.63766">
        <ele>610</ele>
        <time>2025-03-16T08:40:52Z</time>
      </trkpt>
      <trkpt lat="43.53374" lon="5.63766">
        <ele>610.4</ele>
        <time>2025-03-16T08:40:57Z</time>
      </trkpt>
      <trkpt lat="43.53374" lon="5.63766">
        <ele>610.4</ele>
        <time>2025-03-16T08:40:58Z</time>
      </trkpt>
      <trkpt lat="43.53374" lon="5.63766">
        <ele>610.5</ele>
        <time>2025-03-16T08:40:59Z</time>
      </trkpt>
      <trkpt lat="43.53374" lon="5.63766">
        <ele>610.7</ele>
        <time>2025-03-16T08:41:00Z</time>
      </trkpt>
      <trkpt lat="43.53373" lon="5.63765">
        <ele>610.8</ele>
        <time>2025-03-16T08:41:04Z</time>
      </trkpt>
      <trkpt lat="43.53373" lon="5.63765">
        <ele>610.6</ele>
        <time>2025-03-16T08:41:05Z</time>
      </trkpt>
      <trkpt lat="43.53373" lon="5.63768">
        <ele>609.9</ele>
        <time>2025-03-16T08:41:13Z</time>
      </trkpt>
      <trkpt lat="43.53373" lon="5.63768">
        <ele>610.1</ele>
        <time>2025-03-16T08:41:14Z</time>
      </trkpt>
      <trkpt lat="43.53375" lon="5.63769">
        <ele>610.7</ele>
        <time>2025-03-16T08:41:23Z</time>
      </trkpt>
      <trkpt lat="43.53375" lon="5.63769">
        <ele>610.7</ele>
        <time>2025-03-16T08:41:25Z</time>
      </trkpt>
      <trkpt lat="43.53375" lon="5.63769">
        <ele>610.4</ele>
        <time>2025-03-16T08:41:28Z</time>
      </trkpt>
      <trkpt lat="43.53375" lon="5.6377">
        <ele>610.3</ele>
        <time>2025-03-16T08:41:29Z</time>
      </trkpt>
      <trkpt lat="43.53374" lon="5.6377">
        <ele>609.8</ele>
        <time>2025-03-16T08:41:34Z</time>
      </trkpt>
      <trkpt lat="43.53374" lon="5.6377">
        <ele>609.7</ele>
        <time>2025-03-16T08:41:36Z</time>
      </trkpt>
      <trkpt lat="43.53374" lon="5.6377">
        <ele>609.6</ele>
        <time>2025-03-16T08:41:38Z</time>
      </trkpt>
      <trkpt lat="43.53374" lon="5.63771">
        <ele>609.7</ele>
        <time>2025-03-16T08:41:40Z</time>
      </trkpt>
      <trkpt lat="43.53374" lon="5.63771">
        <ele>609.7</ele>
        <time>2025-03-16T08:41:43Z</time>
      </trkpt>
      <trkpt lat="43.53374" lon="5.63771">
        <ele>609.7</ele>
        <time>2025-03-16T08:41:46Z</time>
      </trkpt>
      <trkpt lat="43.53374" lon="5.63771">
        <ele>609.6</ele>
        <time>2025-03-16T08:41:48Z</time>
      </trkpt>
      <trkpt lat="43.53374" lon="5.6377">
        <ele>609.5</ele>
        <time>2025-03-16T08:41:56Z</time>
      </trkpt>
      <trkpt lat="43.53374" lon="5.6377">
        <ele>610.4</ele>
        <time>2025-03-16T08:42:01Z</time>
      </trkpt>
      <trkpt lat="43.53374" lon="5.6377">
        <ele>610.5</ele>
        <time>2025-03-16T08:42:04Z</time>
      </trkpt>
      <trkpt lat="43.53374" lon="5.6377">
        <ele>610.9</ele>
        <time>2025-03-16T08:42:07Z</time>
      </trkpt>
      <trkpt lat="43.53374" lon="5.6377">
        <ele>611</ele>
        <time>2025-03-16T08:42:10Z</time>
      </trkpt>
      <trkpt lat="43.53383" lon="5.63773">
        <ele>611.5</ele>
        <time>2025-03-16T08:42:27Z</time>
      </trkpt>
      <trkpt lat="43.53392" lon="5.63777">
        <ele>613</ele>
        <time>2025-03-16T08:42:42Z</time>
      </trkpt>
      <trkpt lat="43.53401" lon="5.6378">
        <ele>614.5</ele>
        <time>2025-03-16T08:42:55Z</time>
      </trkpt>
      <trkpt lat="43.53408" lon="5.63781">
        <ele>616.4</ele>
        <time>2025-03-16T08:43:10Z</time>
      </trkpt>
      <trkpt lat="43.53409" lon="5.63781">
        <ele>616.7</ele>
        <time>2025-03-16T08:43:21Z</time>
      </trkpt>
      <trkpt lat="43.53409" lon="5.63781">
        <ele>616.8</ele>
        <time>2025-03-16T08:43:22Z</time>
      </trkpt>
      <trkpt lat="43.53409" lon="5.63781">
        <ele>617</ele>
        <time>2025-03-16T08:43:24Z</time>
      </trkpt>
      <trkpt lat="43.53407" lon="5.6378">
        <ele>618.6</ele>
        <time>2025-03-16T08:43:35Z</time>
      </trkpt>
      <trkpt lat="43.53407" lon="5.63781">
        <ele>618.7</ele>
        <time>2025-03-16T08:43:36Z</time>
      </trkpt>
      <trkpt lat="43.53408" lon="5.6378">
        <ele>620.3</ele>
        <time>2025-03-16T08:43:40Z</time>
      </trkpt>
      <trkpt lat="43.53408" lon="5.63781">
        <ele>620.4</ele>
        <time>2025-03-16T08:43:44Z</time>
      </trkpt>
      <trkpt lat="43.53408" lon="5.63781">
        <ele>620.4</ele>
        <time>2025-03-16T08:43:45Z</time>
      </trkpt>
      <trkpt lat="43.53408" lon="5.6378">
        <ele>621.2</ele>
        <time>2025-03-16T08:44:01Z</time>
      </trkpt>
      <trkpt lat="43.53409" lon="5.63771">
        <ele>623.1</ele>
        <time>2025-03-16T08:44:23Z</time>
      </trkpt>
      <trkpt lat="43.53409" lon="5.63771">
        <ele>623.3</ele>
        <time>2025-03-16T08:44:24Z</time>
      </trkpt>
      <trkpt lat="43.53412" lon="5.63773">
        <ele>624.7</ele>
        <time>2025-03-16T08:44:38Z</time>
      </trkpt>
      <trkpt lat="43.53411" lon="5.63773">
        <ele>624.8</ele>
        <time>2025-03-16T08:44:41Z</time>
      </trkpt>
      <trkpt lat="43.53411" lon="5.63773">
        <ele>624.9</ele>
        <time>2025-03-16T08:44:42Z</time>
      </trkpt>
      <trkpt lat="43.53411" lon="5.63773">
        <ele>624.9</ele>
        <time>2025-03-16T08:44:43Z</time>
      </trkpt>
      <trkpt lat="43.53422" lon="5.63772">
        <ele>626</ele>
        <time>2025-03-16T08:45:04Z</time>
      </trkpt>
      <trkpt lat="43.5342" lon="5.63777">
        <ele>627.9</ele>
        <time>2025-03-16T08:45:22Z</time>
      </trkpt>
      <trkpt lat="43.5342" lon="5.63777">
        <ele>628</ele>
        <time>2025-03-16T08:45:23Z</time>
      </trkpt>
      <trkpt lat="43.53424" lon="5.6377">
        <ele>628.5</ele>
        <time>2025-03-16T08:45:39Z</time>
      </trkpt>
      <trkpt lat="43.53424" lon="5.6377">
        <ele>628.5</ele>
        <time>2025-03-16T08:45:40Z</time>
      </trkpt>
      <trkpt lat="43.53416" lon="5.63776">
        <ele>629.1</ele>
        <time>2025-03-16T08:45:50Z</time>
      </trkpt>
      <trkpt lat="43.53412" lon="5.63788">
        <ele>629.4</ele>
        <time>2025-03-16T08:45:54Z</time>
      </trkpt>
      <trkpt lat="43.53416" lon="5.63775">
        <ele>630.4</ele>
        <time>2025-03-16T08:46:03Z</time>
      </trkpt>
      <trkpt lat="43.53425" lon="5.63773">
        <ele>631.8</ele>
        <time>2025-03-16T08:46:06Z</time>
      </trkpt>
      <trkpt lat="43.53418" lon="5.63778">
        <ele>634.1</ele>
        <time>2025-03-16T08:46:13Z</time>
      </trkpt>
      <trkpt lat="43.53418" lon="5.63778">
        <ele>634.1</ele>
        <time>2025-03-16T08:46:14Z</time>
      </trkpt>
      <trkpt lat="43.53421" lon="5.63766">
        <ele>635</ele>
        <time>2025-03-16T08:46:28Z</time>
      </trkpt>
      <trkpt lat="43.53418" lon="5.63764">
        <ele>636.8</ele>
        <time>2025-03-16T08:46:39Z</time>
      </trkpt>
      <trkpt lat="43.53418" lon="5.63764">
        <ele>637</ele>
        <time>2025-03-16T08:46:42Z</time>
      </trkpt>
      <trkpt lat="43.53416" lon="5.63766">
        <ele>639</ele>
        <time>2025-03-16T08:47:02Z</time>
      </trkpt>
      <trkpt lat="43.53416" lon="5.63767">
        <ele>639</ele>
        <time>2025-03-16T08:47:03Z</time>
      </trkpt>
      <trkpt lat="43.53414" lon="5.6377">
        <ele>639.4</ele>
        <time>2025-03-16T08:47:06Z</time>
      </trkpt>
      <trkpt lat="43.53414" lon="5.63771">
        <ele>639.5</ele>
        <time>2025-03-16T08:47:08Z</time>
      </trkpt>
      <trkpt lat="43.53414" lon="5.63771">
        <ele>639.6</ele>
        <time>2025-03-16T08:47:09Z</time>
      </trkpt>
      <trkpt lat="43.53414" lon="5.63771">
        <ele>639.9</ele>
        <time>2025-03-16T08:47:11Z</time>
      </trkpt>
      <trkpt lat="43.53414" lon="5.63771">
        <ele>640</ele>
        <time>2025-03-16T08:47:12Z</time>
      </trkpt>
      <trkpt lat="43.53415" lon="5.63772">
        <ele>639.7</ele>
        <time>2025-03-16T08:47:14Z</time>
      </trkpt>
      <trkpt lat="43.53415" lon="5.63772">
        <ele>639.6</ele>
        <time>2025-03-16T08:47:15Z</time>
      </trkpt>
      <trkpt lat="43.53415" lon="5.63771">
        <ele>639.5</ele>
        <time>2025-03-16T08:47:17Z</time>
      </trkpt>
      <trkpt lat="43.53415" lon="5.63771">
        <ele>639.4</ele>
        <time>2025-03-16T08:47:18Z</time>
      </trkpt>
      <trkpt lat="43.53415" lon="5.63771">
        <ele>639.4</ele>
        <time>2025-03-16T08:47:19Z</time>
      </trkpt>
      <trkpt lat="43.53415" lon="5.63771">
        <ele>639.4</ele>
        <time>2025-03-16T08:47:20Z</time>
      </trkpt>
      <trkpt lat="43.53416" lon="5.63771">
        <ele>639.4</ele>
        <time>2025-03-16T08:47:21Z</time>
      </trkpt>
      <trkpt lat="43.53416" lon="5.63771">
        <ele>639.4</ele>
        <time>2025-03-16T08:47:22Z</time>
      </trkpt>
      <trkpt lat="43.53415" lon="5.63771">
        <ele>639.5</ele>
        <time>2025-03-16T08:47:28Z</time>
      </trkpt>
      <trkpt lat="43.53416" lon="5.63771">
        <ele>639.7</ele>
        <time>2025-03-16T08:47:31Z</time>
      </trkpt>
      <trkpt lat="43.53416" lon="5.63771">
        <ele>639.8</ele>
        <time>2025-03-16T08:47:32Z</time>
      </trkpt>
      <trkpt lat="43.53416" lon="5.63772">
        <ele>639.8</ele>
        <time>2025-03-16T08:47:34Z</time>
      </trkpt>
      <trkpt lat="43.53416" lon="5.63772">
        <ele>639.7</ele>
        <time>2025-03-16T08:47:39Z</time>
      </trkpt>
      <trkpt lat="43.53416" lon="5.63772">
        <ele>639.7</ele>
        <time>2025-03-16T08:47:40Z</time>
      </trkpt>
      <trkpt lat="43.53416" lon="5.63772">
        <ele>639.7</ele>
        <time>2025-03-16T08:47:44Z</time>
      </trkpt>
      <trkpt lat="43.53416" lon="5.63772">
        <ele>639.7</ele>
        <time>2025-03-16T08:47:45Z</time>
      </trkpt>
      <trkpt lat="43.53415" lon="5.63772">
        <ele>640.2</ele>
        <time>2025-03-16T08:47:53Z</time>
      </trkpt>
      <trkpt lat="43.53415" lon="5.63772">
        <ele>640.3</ele>
        <time>2025-03-16T08:47:54Z</time>
      </trkpt>
      <trkpt lat="43.53415" lon="5.63772">
        <ele>640.4</ele>
        <time>2025-03-16T08:48:01Z</time>
      </trkpt>
      <trkpt lat="43.53415" lon="5.63772">
        <ele>640.4</ele>
        <time>2025-03-16T08:48:02Z</time>
      </trkpt>
      <trkpt lat="43.53416" lon="5.63772">
        <ele>640.5</ele>
        <time>2025-03-16T08:48:06Z</time>
      </trkpt>
      <trkpt lat="43.53416" lon="5.63772">
        <ele>640.5</ele>
        <time>2025-03-16T08:48:07Z</time>
      </trkpt>
      <trkpt lat="43.53416" lon="5.63771">
        <ele>640.6</ele>
        <time>2025-03-16T08:48:44Z</time>
      </trkpt>
      <trkpt lat="43.53416" lon="5.63771">
        <ele>640.6</ele>
        <time>2025-03-16T08:48:45Z</time>
      </trkpt>
      <trkpt lat="43.53416" lon="5.63771">
        <ele>641.2</ele>
        <time>2025-03-16T08:48:58Z</time>
      </trkpt>
      <trkpt lat="43.53416" lon="5.63771">
        <ele>641.3</ele>
        <time>2025-03-16T08:48:59Z</time>
      </trkpt>
      <trkpt lat="43.53416" lon="5.63771">
        <ele>641.4</ele>
        <time>2025-03-16T08:49:00Z</time>
      </trkpt>
      <trkpt lat="43.53416" lon="5.63771">
        <ele>641.4</ele>
        <time>2025-03-16T08:49:01Z</time>
      </trkpt>
      <trkpt lat="43.53416" lon="5.6377">
        <ele>641.7</ele>
        <time>2025-03-16T08:49:17Z</time>
      </trkpt>
      <trkpt lat="43.53416" lon="5.6377">
        <ele>641.8</ele>
        <time>2025-03-16T08:49:18Z</time>
      </trkpt>
      <trkpt lat="43.53416" lon="5.6377">
        <ele>641.7</ele>
        <time>2025-03-16T08:49:32Z</time>
      </trkpt>
      <trkpt lat="43.53416" lon="5.6377">
        <ele>641.6</ele>
        <time>2025-03-16T08:49:33Z</time>
      </trkpt>
      <trkpt lat="43.53417" lon="5.6377">
        <ele>641.5</ele>
        <time>2025-03-16T08:49:37Z</time>
      </trkpt>
      <trkpt lat="43.53417" lon="5.6377">
        <ele>641.4</ele>
        <time>2025-03-16T08:49:38Z</time>
      </trkpt>
      <trkpt lat="43.53417" lon="5.6377">
        <ele>641.3</ele>
        <time>2025-03-16T08:49:39Z</time>
      </trkpt>
      <trkpt lat="43.53418" lon="5.6377">
        <ele>639.8</ele>
        <time>2025-03-16T08:49:42Z</time>
      </trkpt>
      <trkpt lat="43.53418" lon="5.6377">
        <ele>639.6</ele>
        <time>2025-03-16T08:49:45Z</time>
      </trkpt>
      <trkpt lat="43.53417" lon="5.63771">
        <ele>639.7</ele>
        <time>2025-03-16T08:49:48Z</time>
      </trkpt>
      <trkpt lat="43.53417" lon="5.63771">
        <ele>639.7</ele>
        <time>2025-03-16T08:49:50Z</time>
      </trkpt>
      <trkpt lat="43.53417" lon="5.63771">
        <ele>639.7</ele>
        <time>2025-03-16T08:49:51Z</time>
      </trkpt>
      <trkpt lat="43.53417" lon="5.63771">
        <ele>639.8</ele>
        <time>2025-03-16T08:49:52Z</time>
      </trkpt>
      <trkpt lat="43.53418" lon="5.63772">
        <ele>639.8</ele>
        <time>2025-03-16T08:49:59Z</time>
      </trkpt>
      <trkpt lat="43.53418" lon="5.63772">
        <ele>640</ele>
        <time>2025-03-16T08:50:02Z</time>
      </trkpt>
      <trkpt lat="43.53418" lon="5.63772">
        <ele>640.2</ele>
        <time>2025-03-16T08:50:06Z</time>
      </trkpt>
      <trkpt lat="43.53418" lon="5.63772">
        <ele>640.2</ele>
        <time>2025-03-16T08:50:09Z</time>
      </trkpt>
      <trkpt lat="43.53418" lon="5.63773">
        <ele>640.1</ele>
        <time>2025-03-16T08:50:12Z</time>
      </trkpt>
      <trkpt lat="43.53418" lon="5.63773">
        <ele>640</ele>
        <time>2025-03-16T08:50:14Z</time>
      </trkpt>
      <trkpt lat="43.53418" lon="5.63772">
        <ele>640</ele>
        <time>2025-03-16T08:50:18Z</time>
      </trkpt>
      <trkpt lat="43.53418" lon="5.63771">
        <ele>640</ele>
        <time>2025-03-16T08:50:19Z</time>
      </trkpt>
      <trkpt lat="43.53414" lon="5.63774">
        <ele>640.7</ele>
        <time>2025-03-16T08:50:28Z</time>
      </trkpt>
      <trkpt lat="43.53414" lon="5.63774">
        <ele>640.8</ele>
        <time>2025-03-16T08:50:30Z</time>
      </trkpt>
      <trkpt lat="43.53413" lon="5.63775">
        <ele>641</ele>
        <time>2025-03-16T08:50:33Z</time>
      </trkpt>
      <trkpt lat="43.53413" lon="5.63775">
        <ele>641</ele>
        <time>2025-03-16T08:50:34Z</time>
      </trkpt>
      <trkpt lat="43.53412" lon="5.63774">
        <ele>641</ele>
        <time>2025-03-16T08:50:41Z</time>
      </trkpt>
      <trkpt lat="43.53412" lon="5.63774">
        <ele>640.8</ele>
        <time>2025-03-16T08:50:43Z</time>
      </trkpt>
      <trkpt lat="43.53413" lon="5.63774">
        <ele>640.7</ele>
        <time>2025-03-16T08:50:45Z</time>
      </trkpt>
      <trkpt lat="43.53413" lon="5.63774">
        <ele>640.7</ele>
        <time>2025-03-16T08:50:47Z</time>
      </trkpt>
      <trkpt lat="43.53414" lon="5.63775">
        <ele>640.7</ele>
        <time>2025-03-16T08:50:53Z</time>
      </trkpt>
      <trkpt lat="43.53414" lon="5.63776">
        <ele>640.7</ele>
        <time>2025-03-16T08:50:54Z</time>
      </trkpt>
      <trkpt lat="43.53414" lon="5.63776">
        <ele>640.6</ele>
        <time>2025-03-16T08:50:57Z</time>
      </trkpt>
      <trkpt lat="43.53414" lon="5.63776">
        <ele>640.7</ele>
        <time>2025-03-16T08:51:04Z</time>
      </trkpt>
      <trkpt lat="43.53413" lon="5.63777">
        <ele>640.7</ele>
        <time>2025-03-16T08:51:08Z</time>
      </trkpt>
      <trkpt lat="43.53413" lon="5.63776">
        <ele>640.6</ele>
        <time>2025-03-16T08:51:18Z</time>
      </trkpt>
      <trkpt lat="43.53414" lon="5.63776">
        <ele>640.2</ele>
        <time>2025-03-16T08:51:22Z</time>
      </trkpt>
      <trkpt lat="43.53414" lon="5.63776">
        <ele>640.2</ele>
        <time>2025-03-16T08:51:27Z</time>
      </trkpt>
      <trkpt lat="43.53414" lon="5.63776">
        <ele>640.2</ele>
        <time>2025-03-16T08:51:28Z</time>
      </trkpt>
      <trkpt lat="43.53414" lon="5.63776">
        <ele>640.1</ele>
        <time>2025-03-16T08:51:37Z</time>
      </trkpt>
      <trkpt lat="43.53415" lon="5.63776">
        <ele>639.9</ele>
        <time>2025-03-16T08:51:39Z</time>
      </trkpt>
      <trkpt lat="43.53414" lon="5.63776">
        <ele>640</ele>
        <time>2025-03-16T08:51:56Z</time>
      </trkpt>
      <trkpt lat="43.53413" lon="5.63774">
        <ele>639.9</ele>
        <time>2025-03-16T08:52:12Z</time>
      </trkpt>
      <trkpt lat="43.53413" lon="5.63774">
        <ele>639.9</ele>
        <time>2025-03-16T08:52:21Z</time>
      </trkpt>
      <trkpt lat="43.53413" lon="5.63774">
        <ele>639.9</ele>
        <time>2025-03-16T08:52:22Z</time>
      </trkpt>
      <trkpt lat="43.53413" lon="5.63774">
        <ele>639.9</ele>
        <time>2025-03-16T08:52:43Z</time>
      </trkpt>
      <trkpt lat="43.53421" lon="5.63767">
        <ele>639.7</ele>
        <time>2025-03-16T08:53:02Z</time>
      </trkpt>
      <trkpt lat="43.53414" lon="5.6377">
        <ele>639</ele>
        <time>2025-03-16T08:53:13Z</time>
      </trkpt>
      <trkpt lat="43.53414" lon="5.6377">
        <ele>638.9</ele>
        <time>2025-03-16T08:53:18Z</time>
      </trkpt>
      <trkpt lat="43.53421" lon="5.6376">
        <ele>638.4</ele>
        <time>2025-03-16T08:53:28Z</time>
      </trkpt>
      <trkpt lat="43.53429" lon="5.63752">
        <ele>637.3</ele>
        <time>2025-03-16T08:53:40Z</time>
      </trkpt>
      <trkpt lat="43.53423" lon="5.6376">
        <ele>637.5</ele>
        <time>2025-03-16T08:53:51Z</time>
      </trkpt>
      <trkpt lat="43.53422" lon="5.63761">
        <ele>637.4</ele>
        <time>2025-03-16T08:53:55Z</time>
      </trkpt>
      <trkpt lat="43.53419" lon="5.63774">
        <ele>636.8</ele>
        <time>2025-03-16T08:54:11Z</time>
      </trkpt>
      <trkpt lat="43.53418" lon="5.63776">
        <ele>637</ele>
        <time>2025-03-16T08:54:29Z</time>
      </trkpt>
      <trkpt lat="43.53417" lon="5.63777">
        <ele>637</ele>
        <time>2025-03-16T08:54:30Z</time>
      </trkpt>
      <trkpt lat="43.53413" lon="5.63778">
        <ele>635.6</ele>
        <time>2025-03-16T08:54:42Z</time>
      </trkpt>
      <trkpt lat="43.53413" lon="5.63779">
        <ele>635.8</ele>
        <time>2025-03-16T08:54:43Z</time>
      </trkpt>
      <trkpt lat="43.53414" lon="5.63781">
        <ele>635</ele>
        <time>2025-03-16T08:54:56Z</time>
      </trkpt>
      <trkpt lat="43.53414" lon="5.63781">
        <ele>634.8</ele>
        <time>2025-03-16T08:54:57Z</time>
      </trkpt>
      <trkpt lat="43.53419" lon="5.6378">
        <ele>635.1</ele>
        <time>2025-03-16T08:55:33Z</time>
      </trkpt>
      <trkpt lat="43.53419" lon="5.6378">
        <ele>635.1</ele>
        <time>2025-03-16T08:55:34Z</time>
      </trkpt>
      <trkpt lat="43.5342" lon="5.63789">
        <ele>637.2</ele>
        <time>2025-03-16T08:56:18Z</time>
      </trkpt>
      <trkpt lat="43.5342" lon="5.6379">
        <ele>637.3</ele>
        <time>2025-03-16T08:56:19Z</time>
      </trkpt>
      <trkpt lat="43.53426" lon="5.6379">
        <ele>638</ele>
        <time>2025-03-16T08:56:31Z</time>
      </trkpt>
      <trkpt lat="43.53426" lon="5.6379">
        <ele>638</ele>
        <time>2025-03-16T08:56:32Z</time>
      </trkpt>
      <trkpt lat="43.53435" lon="5.63793">
        <ele>637.4</ele>
        <time>2025-03-16T08:56:54Z</time>
      </trkpt>
      <trkpt lat="43.53426" lon="5.63799">
        <ele>636.5</ele>
        <time>2025-03-16T08:57:14Z</time>
      </trkpt>
      <trkpt lat="43.53427" lon="5.638">
        <ele>635.3</ele>
        <time>2025-03-16T08:58:45Z</time>
      </trkpt>
      <trkpt lat="43.53427" lon="5.638">
        <ele>635.2</ele>
        <time>2025-03-16T08:58:46Z</time>
      </trkpt>
      <trkpt lat="43.53432" lon="5.63801">
        <ele>634.8</ele>
        <time>2025-03-16T08:58:57Z</time>
      </trkpt>
      <trkpt lat="43.53432" lon="5.63801">
        <ele>634.8</ele>
        <time>2025-03-16T08:58:58Z</time>
      </trkpt>
      <trkpt lat="43.53432" lon="5.63804">
        <ele>635.4</ele>
        <time>2025-03-16T08:59:10Z</time>
      </trkpt>
      <trkpt lat="43.53432" lon="5.63804">
        <ele>635.5</ele>
        <time>2025-03-16T08:59:11Z</time>
      </trkpt>
      <trkpt lat="43.53432" lon="5.63804">
        <ele>636.1</ele>
        <time>2025-03-16T08:59:13Z</time>
      </trkpt>
      <trkpt lat="43.53432" lon="5.63805">
        <ele>636.3</ele>
        <time>2025-03-16T08:59:14Z</time>
      </trkpt>
      <trkpt lat="43.53434" lon="5.63809">
        <ele>637.4</ele>
        <time>2025-03-16T08:59:28Z</time>
      </trkpt>
      <trkpt lat="43.53434" lon="5.63809">
        <ele>637.3</ele>
        <time>2025-03-16T08:59:30Z</time>
      </trkpt>
      <trkpt lat="43.53437" lon="5.6381">
        <ele>640.2</ele>
        <time>2025-03-16T08:59:52Z</time>
      </trkpt>
      <trkpt lat="43.53437" lon="5.6381">
        <ele>640.3</ele>
        <time>2025-03-16T08:59:53Z</time>
      </trkpt>
      <trkpt lat="43.53441" lon="5.63807">
        <ele>641.3</ele>
        <time>2025-03-16T09:00:05Z</time>
      </trkpt>
      <trkpt lat="43.53441" lon="5.63807">
        <ele>641.4</ele>
        <time>2025-03-16T09:00:07Z</time>
      </trkpt>
      <trkpt lat="43.53444" lon="5.63819">
        <ele>647.3</ele>
        <time>2025-03-16T09:00:54Z</time>
      </trkpt>
      <trkpt lat="43.53449" lon="5.63819">
        <ele>646.1</ele>
        <time>2025-03-16T09:01:05Z</time>
      </trkpt>
      <trkpt lat="43.53448" lon="5.63819">
        <ele>646.1</ele>
        <time>2025-03-16T09:01:06Z</time>
      </trkpt>
      <trkpt lat="43.53448" lon="5.63819">
        <ele>646.1</ele>
        <time>2025-03-16T09:01:07Z</time>
      </trkpt>
      <trkpt lat="43.53449" lon="5.63819">
        <ele>646.1</ele>
        <time>2025-03-16T09:01:11Z</time>
      </trkpt>
      <trkpt lat="43.53449" lon="5.63819">
        <ele>646.1</ele>
        <time>2025-03-16T09:01:12Z</time>
      </trkpt>
      <trkpt lat="43.53449" lon="5.63818">
        <ele>646.1</ele>
        <time>2025-03-16T09:01:16Z</time>
      </trkpt>
      <trkpt lat="43.53452" lon="5.63817">
        <ele>646.7</ele>
        <time>2025-03-16T09:01:25Z</time>
      </trkpt>
      <trkpt lat="43.53452" lon="5.63817">
        <ele>646.8</ele>
        <time>2025-03-16T09:01:26Z</time>
      </trkpt>
      <trkpt lat="43.53453" lon="5.63817">
        <ele>647.1</ele>
        <time>2025-03-16T09:01:29Z</time>
      </trkpt>
      <trkpt lat="43.53453" lon="5.63817">
        <ele>647.2</ele>
        <time>2025-03-16T09:01:31Z</time>
      </trkpt>
      <trkpt lat="43.53455" lon="5.63816">
        <ele>648.4</ele>
        <time>2025-03-16T09:01:43Z</time>
      </trkpt>
      <trkpt lat="43.53455" lon="5.63816">
        <ele>648.4</ele>
        <time>2025-03-16T09:01:44Z</time>
      </trkpt>
      <trkpt lat="43.53458" lon="5.63823">
        <ele>651.1</ele>
        <time>2025-03-16T09:02:03Z</time>
      </trkpt>
      <trkpt lat="43.53458" lon="5.63822">
        <ele>651.1</ele>
        <time>2025-03-16T09:02:04Z</time>
      </trkpt>
      <trkpt lat="43.53458" lon="5.63822">
        <ele>651.2</ele>
        <time>2025-03-16T09:02:05Z</time>
      </trkpt>
      <trkpt lat="43.53458" lon="5.63823">
        <ele>651.3</ele>
        <time>2025-03-16T09:02:06Z</time>
      </trkpt>
      <trkpt lat="43.53461" lon="5.63825">
        <ele>653</ele>
        <time>2025-03-16T09:02:30Z</time>
      </trkpt>
      <trkpt lat="43.53461" lon="5.63825">
        <ele>653.3</ele>
        <time>2025-03-16T09:02:31Z</time>
      </trkpt>
      <trkpt lat="43.5346" lon="5.63818">
        <ele>657.2</ele>
        <time>2025-03-16T09:02:47Z</time>
      </trkpt>
      <trkpt lat="43.53459" lon="5.63818">
        <ele>657.6</ele>
        <time>2025-03-16T09:02:48Z</time>
      </trkpt>
      <trkpt lat="43.5345" lon="5.63824">
        <ele>660.1</ele>
        <time>2025-03-16T09:03:11Z</time>
      </trkpt>
      <trkpt lat="43.53447" lon="5.63836">
        <ele>663.7</ele>
        <time>2025-03-16T09:03:29Z</time>
      </trkpt>
      <trkpt lat="43.53447" lon="5.63841">
        <ele>664.9</ele>
        <time>2025-03-16T09:03:37Z</time>
      </trkpt>
      <trkpt lat="43.53448" lon="5.63841">
        <ele>665</ele>
        <time>2025-03-16T09:03:38Z</time>
      </trkpt>
      <trkpt lat="43.53453" lon="5.63849">
        <ele>664.8</ele>
        <time>2025-03-16T09:03:54Z</time>
      </trkpt>
      <trkpt lat="43.53453" lon="5.6385">
        <ele>664.8</ele>
        <time>2025-03-16T09:03:55Z</time>
      </trkpt>
      <trkpt lat="43.53457" lon="5.63856">
        <ele>670.5</ele>
        <time>2025-03-16T09:04:41Z</time>
      </trkpt>
      <trkpt lat="43.53457" lon="5.63856">
        <ele>670.7</ele>
        <time>2025-03-16T09:04:42Z</time>
      </trkpt>
      <trkpt lat="43.53457" lon="5.63868">
        <ele>670.2</ele>
        <time>2025-03-16T09:05:08Z</time>
      </trkpt>
      <trkpt lat="43.53464" lon="5.63877">
        <ele>670</ele>
        <time>2025-03-16T09:05:31Z</time>
      </trkpt>
      <trkpt lat="43.53471" lon="5.63878">
        <ele>670.6</ele>
        <time>2025-03-16T09:05:46Z</time>
      </trkpt>
      <trkpt lat="43.53472" lon="5.63878">
        <ele>670.8</ele>
        <time>2025-03-16T09:05:47Z</time>
      </trkpt>
      <trkpt lat="43.53476" lon="5.63878">
        <ele>673.1</ele>
        <time>2025-03-16T09:06:01Z</time>
      </trkpt>
      <trkpt lat="43.53477" lon="5.63878">
        <ele>673.1</ele>
        <time>2025-03-16T09:06:02Z</time>
      </trkpt>
      <trkpt lat="43.53477" lon="5.63876">
        <ele>673.4</ele>
        <time>2025-03-16T09:06:09Z</time>
      </trkpt>
      <trkpt lat="43.53477" lon="5.63876">
        <ele>673.4</ele>
        <time>2025-03-16T09:06:11Z</time>
      </trkpt>
      <trkpt lat="43.53476" lon="5.63876">
        <ele>673.1</ele>
        <time>2025-03-16T09:06:14Z</time>
      </trkpt>
      <trkpt lat="43.53476" lon="5.63876">
        <ele>673.3</ele>
        <time>2025-03-16T09:06:16Z</time>
      </trkpt>
      <trkpt lat="43.53476" lon="5.63877">
        <ele>674.2</ele>
        <time>2025-03-16T09:06:21Z</time>
      </trkpt>
      <trkpt lat="43.53476" lon="5.63877">
        <ele>674.5</ele>
        <time>2025-03-16T09:06:22Z</time>
      </trkpt>
      <trkpt lat="43.53476" lon="5.63878">
        <ele>675.3</ele>
        <time>2025-03-16T09:06:25Z</time>
      </trkpt>
      <trkpt lat="43.53476" lon="5.63878">
        <ele>675.3</ele>
        <time>2025-03-16T09:06:27Z</time>
      </trkpt>
      <trkpt lat="43.53476" lon="5.63878">
        <ele>675.2</ele>
        <time>2025-03-16T09:06:28Z</time>
      </trkpt>
      <trkpt lat="43.53476" lon="5.63878">
        <ele>675.2</ele>
        <time>2025-03-16T09:06:29Z</time>
      </trkpt>
      <trkpt lat="43.53477" lon="5.63878">
        <ele>675.8</ele>
        <time>2025-03-16T09:06:35Z</time>
      </trkpt>
      <trkpt lat="43.53478" lon="5.63878">
        <ele>675.9</ele>
        <time>2025-03-16T09:06:37Z</time>
      </trkpt>
      <trkpt lat="43.53477" lon="5.63881">
        <ele>678.2</ele>
        <time>2025-03-16T09:06:43Z</time>
      </trkpt>
      <trkpt lat="43.53477" lon="5.63881">
        <ele>678.4</ele>
        <time>2025-03-16T09:06:44Z</time>
      </trkpt>
      <trkpt lat="43.53476" lon="5.63881">
        <ele>679.9</ele>
        <time>2025-03-16T09:06:49Z</time>
      </trkpt>
      <trkpt lat="43.53476" lon="5.6388">
        <ele>680</ele>
        <time>2025-03-16T09:06:53Z</time>
      </trkpt>
      <trkpt lat="43.53479" lon="5.63883">
        <ele>680.5</ele>
        <time>2025-03-16T09:07:03Z</time>
      </trkpt>
      <trkpt lat="43.53479" lon="5.63883">
        <ele>680.9</ele>
        <time>2025-03-16T09:07:04Z</time>
      </trkpt>
      <trkpt lat="43.53479" lon="5.63884">
        <ele>681.7</ele>
        <time>2025-03-16T09:07:08Z</time>
      </trkpt>
      <trkpt lat="43.53479" lon="5.63884">
        <ele>681.8</ele>
        <time>2025-03-16T09:07:10Z</time>
      </trkpt>
      <trkpt lat="43.53478" lon="5.63885">
        <ele>681.7</ele>
        <time>2025-03-16T09:07:15Z</time>
      </trkpt>
      <trkpt lat="43.53478" lon="5.63886">
        <ele>681.4</ele>
        <time>2025-03-16T09:07:17Z</time>
      </trkpt>
      <trkpt lat="43.53477" lon="5.63887">
        <ele>680.5</ele>
        <time>2025-03-16T09:07:20Z</time>
      </trkpt>
      <trkpt lat="43.53477" lon="5.63886">
        <ele>680.4</ele>
        <time>2025-03-16T09:07:21Z</time>
      </trkpt>
      <trkpt lat="43.53477" lon="5.63887">
        <ele>680.6</ele>
        <time>2025-03-16T09:07:25Z</time>
      </trkpt>
      <trkpt lat="43.53478" lon="5.63887">
        <ele>680.6</ele>
        <time>2025-03-16T09:07:26Z</time>
      </trkpt>
      <trkpt lat="43.53479" lon="5.63885">
        <ele>680.2</ele>
        <time>2025-03-16T09:07:30Z</time>
      </trkpt>
      <trkpt lat="43.5348" lon="5.63885">
        <ele>680.2</ele>
        <time>2025-03-16T09:07:33Z</time>
      </trkpt>
      <trkpt lat="43.5348" lon="5.63886">
        <ele>679.7</ele>
        <time>2025-03-16T09:07:39Z</time>
      </trkpt>
      <trkpt lat="43.5348" lon="5.63886">
        <ele>679.9</ele>
        <time>2025-03-16T09:07:42Z</time>
      </trkpt>
      <trkpt lat="43.5348" lon="5.63885">
        <ele>680.1</ele>
        <time>2025-03-16T09:07:44Z</time>
      </trkpt>
      <trkpt lat="43.53481" lon="5.63885">
        <ele>680.2</ele>
        <time>2025-03-16T09:07:48Z</time>
      </trkpt>
      <trkpt lat="43.53481" lon="5.63885">
        <ele>680.3</ele>
        <time>2025-03-16T09:07:49Z</time>
      </trkpt>
      <trkpt lat="43.53481" lon="5.63886">
        <ele>680.3</ele>
        <time>2025-03-16T09:07:50Z</time>
      </trkpt>
      <trkpt lat="43.53482" lon="5.63887">
        <ele>680.7</ele>
        <time>2025-03-16T09:07:59Z</time>
      </trkpt>
      <trkpt lat="43.53482" lon="5.63888">
        <ele>680.6</ele>
        <time>2025-03-16T09:08:19Z</time>
      </trkpt>
      <trkpt lat="43.53483" lon="5.63889">
        <ele>680.5</ele>
        <time>2025-03-16T09:08:22Z</time>
      </trkpt>
      <trkpt lat="43.53483" lon="5.63888">
        <ele>680.6</ele>
        <time>2025-03-16T09:08:35Z</time>
      </trkpt>
      <trkpt lat="43.53484" lon="5.63886">
        <ele>681.9</ele>
        <time>2025-03-16T09:08:42Z</time>
      </trkpt>
      <trkpt lat="43.53485" lon="5.63885">
        <ele>682.3</ele>
        <time>2025-03-16T09:08:44Z</time>
      </trkpt>
      <trkpt lat="43.53485" lon="5.63885">
        <ele>682.3</ele>
        <time>2025-03-16T09:08:45Z</time>
      </trkpt>
      <trkpt lat="43.53485" lon="5.63885">
        <ele>682.3</ele>
        <time>2025-03-16T09:08:47Z</time>
      </trkpt>
      <trkpt lat="43.53485" lon="5.63884">
        <ele>682.4</ele>
        <time>2025-03-16T09:08:49Z</time>
      </trkpt>
      <trkpt lat="43.53485" lon="5.63883">
        <ele>682.5</ele>
        <time>2025-03-16T09:08:51Z</time>
      </trkpt>
      <trkpt lat="43.53486" lon="5.63882">
        <ele>683</ele>
        <time>2025-03-16T09:08:54Z</time>
      </trkpt>
      <trkpt lat="43.53486" lon="5.63882">
        <ele>682.9</ele>
        <time>2025-03-16T09:08:56Z</time>
      </trkpt>
      <trkpt lat="43.53486" lon="5.63882">
        <ele>683.2</ele>
        <time>2025-03-16T09:09:02Z</time>
      </trkpt>
      <trkpt lat="43.53486" lon="5.63882">
        <ele>683.3</ele>
        <time>2025-03-16T09:09:04Z</time>
      </trkpt>
      <trkpt lat="43.53487" lon="5.63882">
        <ele>683.2</ele>
        <time>2025-03-16T09:09:07Z</time>
      </trkpt>
      <trkpt lat="43.53487" lon="5.63883">
        <ele>683.4</ele>
        <time>2025-03-16T09:09:09Z</time>
      </trkpt>
      <trkpt lat="43.53487" lon="5.63883">
        <ele>683.5</ele>
        <time>2025-03-16T09:09:11Z</time>
      </trkpt>
      <trkpt lat="43.53487" lon="5.63883">
        <ele>683.6</ele>
        <time>2025-03-16T09:09:12Z</time>
      </trkpt>
      <trkpt lat="43.53487" lon="5.63883">
        <ele>683.8</ele>
        <time>2025-03-16T09:09:14Z</time>
      </trkpt>
      <trkpt lat="43.53488" lon="5.63884">
        <ele>684</ele>
        <time>2025-03-16T09:09:16Z</time>
      </trkpt>
      <trkpt lat="43.53489" lon="5.63885">
        <ele>684</ele>
        <time>2025-03-16T09:09:21Z</time>
      </trkpt>
      <trkpt lat="43.53489" lon="5.63884">
        <ele>684</ele>
        <time>2025-03-16T09:09:28Z</time>
      </trkpt>
      <trkpt lat="43.53489" lon="5.63884">
        <ele>684</ele>
        <time>2025-03-16T09:09:30Z</time>
      </trkpt>
      <trkpt lat="43.53489" lon="5.63883">
        <ele>683.9</ele>
        <time>2025-03-16T09:09:33Z</time>
      </trkpt>
      <trkpt lat="43.53488" lon="5.63882">
        <ele>684.1</ele>
        <time>2025-03-16T09:09:37Z</time>
      </trkpt>
      <trkpt lat="43.53487" lon="5.63882">
        <ele>684.2</ele>
        <time>2025-03-16T09:10:01Z</time>
      </trkpt>
      <trkpt lat="43.53487" lon="5.63881">
        <ele>684.4</ele>
        <time>2025-03-16T09:10:05Z</time>
      </trkpt>
      <trkpt lat="43.53487" lon="5.63882">
        <ele>684.5</ele>
        <time>2025-03-16T09:10:08Z</time>
      </trkpt>
      <trkpt lat="43.53487" lon="5.63882">
        <ele>684.4</ele>
        <time>2025-03-16T09:10:09Z</time>
      </trkpt>
      <trkpt lat="43.53487" lon="5.63882">
        <ele>684.4</ele>
        <time>2025-03-16T09:10:10Z</time>
      </trkpt>
      <trkpt lat="43.53489" lon="5.63882">
        <ele>685.4</ele>
        <time>2025-03-16T09:10:15Z</time>
      </trkpt>
      <trkpt lat="43.53489" lon="5.63882">
        <ele>685.5</ele>
        <time>2025-03-16T09:10:16Z</time>
      </trkpt>
      <trkpt lat="43.53489" lon="5.63882">
        <ele>685.7</ele>
        <time>2025-03-16T09:10:17Z</time>
      </trkpt>
      <trkpt lat="43.53489" lon="5.63882">
        <ele>686.1</ele>
        <time>2025-03-16T09:10:18Z</time>
      </trkpt>
      <trkpt lat="43.53489" lon="5.63882">
        <ele>686.3</ele>
        <time>2025-03-16T09:10:19Z</time>
      </trkpt>
      <trkpt lat="43.53488" lon="5.63882">
        <ele>686.5</ele>
        <time>2025-03-16T09:10:20Z</time>
      </trkpt>
      <trkpt lat="43.53489" lon="5.63881">
        <ele>687.7</ele>
        <time>2025-03-16T09:10:25Z</time>
      </trkpt>
      <trkpt lat="43.53489" lon="5.63881">
        <ele>687.7</ele>
        <time>2025-03-16T09:10:26Z</time>
      </trkpt>
      <trkpt lat="43.53489" lon="5.63881">
        <ele>687.7</ele>
        <time>2025-03-16T09:10:27Z</time>
      </trkpt>
      <trkpt lat="43.53489" lon="5.63881">
        <ele>687.9</ele>
        <time>2025-03-16T09:10:32Z</time>
      </trkpt>
      <trkpt lat="43.53489" lon="5.63881">
        <ele>688.5</ele>
        <time>2025-03-16T09:10:38Z</time>
      </trkpt>
      <trkpt lat="43.53489" lon="5.63881">
        <ele>688.5</ele>
        <time>2025-03-16T09:10:41Z</time>
      </trkpt>
      <trkpt lat="43.53489" lon="5.63881">
        <ele>688.5</ele>
        <time>2025-03-16T09:10:43Z</time>
      </trkpt>
      <trkpt lat="43.5349" lon="5.63881">
        <ele>688.8</ele>
        <time>2025-03-16T09:10:46Z</time>
      </trkpt>
      <trkpt lat="43.53489" lon="5.6388">
        <ele>690.6</ele>
        <time>2025-03-16T09:10:55Z</time>
      </trkpt>
      <trkpt lat="43.53489" lon="5.6388">
        <ele>690.8</ele>
        <time>2025-03-16T09:10:57Z</time>
      </trkpt>
      <trkpt lat="43.53489" lon="5.6388">
        <ele>690.8</ele>
        <time>2025-03-16T09:10:58Z</time>
      </trkpt>
      <trkpt lat="43.53489" lon="5.6388">
        <ele>690.8</ele>
        <time>2025-03-16T09:11:03Z</time>
      </trkpt>
      <trkpt lat="43.53489" lon="5.6388">
        <ele>690.8</ele>
        <time>2025-03-16T09:11:05Z</time>
      </trkpt>
      <trkpt lat="43.53489" lon="5.6388">
        <ele>690.8</ele>
        <time>2025-03-16T09:11:20Z</time>
      </trkpt>
      <trkpt lat="43.53494" lon="5.6388">
        <ele>689.1</ele>
        <time>2025-03-16T09:11:27Z</time>
      </trkpt>
      <trkpt lat="43.53494" lon="5.6388">
        <ele>689.1</ele>
        <time>2025-03-16T09:11:35Z</time>
      </trkpt>
      <trkpt lat="43.53494" lon="5.6388">
        <ele>689.1</ele>
        <time>2025-03-16T09:11:36Z</time>
      </trkpt>
      <trkpt lat="43.53493" lon="5.6388">
        <ele>689.1</ele>
        <time>2025-03-16T09:11:46Z</time>
      </trkpt>
      <trkpt lat="43.53494" lon="5.6388">
        <ele>689</ele>
        <time>2025-03-16T09:11:48Z</time>
      </trkpt>
      <trkpt lat="43.53494" lon="5.63879">
        <ele>689.2</ele>
        <time>2025-03-16T09:11:54Z</time>
      </trkpt>
      <trkpt lat="43.53488" lon="5.63878">
        <ele>690.4</ele>
        <time>2025-03-16T09:12:12Z</time>
      </trkpt>
      <trkpt lat="43.53488" lon="5.63878">
        <ele>690.5</ele>
        <time>2025-03-16T09:12:13Z</time>
      </trkpt>
      <trkpt lat="43.53488" lon="5.63878">
        <ele>690.4</ele>
        <time>2025-03-16T09:12:15Z</time>
      </trkpt>
      <trkpt lat="43.53488" lon="5.63878">
        <ele>690.3</ele>
        <time>2025-03-16T09:12:16Z</time>
      </trkpt>
      <trkpt lat="43.53491" lon="5.63872">
        <ele>689.2</ele>
        <time>2025-03-16T09:12:27Z</time>
      </trkpt>
      <trkpt lat="43.53491" lon="5.63871">
        <ele>689.1</ele>
        <time>2025-03-16T09:12:38Z</time>
      </trkpt>
      <trkpt lat="43.53493" lon="5.63872">
        <ele>688.1</ele>
        <time>2025-03-16T09:12:42Z</time>
      </trkpt>
      <trkpt lat="43.53493" lon="5.63872">
        <ele>688</ele>
        <time>2025-03-16T09:12:47Z</time>
      </trkpt>
      <trkpt lat="43.53492" lon="5.63873">
        <ele>687.7</ele>
        <time>2025-03-16T09:12:50Z</time>
      </trkpt>
      <trkpt lat="43.53492" lon="5.63873">
        <ele>687.8</ele>
        <time>2025-03-16T09:13:03Z</time>
      </trkpt>
      <trkpt lat="43.53493" lon="5.63877">
        <ele>688.4</ele>
        <time>2025-03-16T09:13:13Z</time>
      </trkpt>
      <trkpt lat="43.53493" lon="5.63877">
        <ele>688.4</ele>
        <time>2025-03-16T09:13:17Z</time>
      </trkpt>
      <trkpt lat="43.53493" lon="5.63877">
        <ele>688.4</ele>
        <time>2025-03-16T09:13:18Z</time>
      </trkpt>
      <trkpt lat="43.53493" lon="5.63878">
        <ele>688.7</ele>
        <time>2025-03-16T09:13:24Z</time>
      </trkpt>
      <trkpt lat="43.53493" lon="5.63878">
        <ele>688.8</ele>
        <time>2025-03-16T09:13:25Z</time>
      </trkpt>
      <trkpt lat="43.53492" lon="5.63878">
        <ele>688.9</ele>
        <time>2025-03-16T09:13:35Z</time>
      </trkpt>
      <trkpt lat="43.53492" lon="5.63878">
        <ele>688.9</ele>
        <time>2025-03-16T09:13:36Z</time>
      </trkpt>
      <trkpt lat="43.53492" lon="5.63878">
        <ele>688.9</ele>
        <time>2025-03-16T09:13:38Z</time>
      </trkpt>
      <trkpt lat="43.53492" lon="5.63878">
        <ele>688.9</ele>
        <time>2025-03-16T09:13:39Z</time>
      </trkpt>
      <trkpt lat="43.53492" lon="5.63878">
        <ele>689</ele>
        <time>2025-03-16T09:13:48Z</time>
      </trkpt>
      <trkpt lat="43.53492" lon="5.63878">
        <ele>689.2</ele>
        <time>2025-03-16T09:13:50Z</time>
      </trkpt>
      <trkpt lat="43.53491" lon="5.63878">
        <ele>689.4</ele>
        <time>2025-03-16T09:13:53Z</time>
      </trkpt>
      <trkpt lat="43.53487" lon="5.63881">
        <ele>690.8</ele>
        <time>2025-03-16T09:14:04Z</time>
      </trkpt>
      <trkpt lat="43.53487" lon="5.63881">
        <ele>690.8</ele>
        <time>2025-03-16T09:14:05Z</time>
      </trkpt>
      <trkpt lat="43.53491" lon="5.63888">
        <ele>691.7</ele>
        <time>2025-03-16T09:14:17Z</time>
      </trkpt>
      <trkpt lat="43.53491" lon="5.63887">
        <ele>691.9</ele>
        <time>2025-03-16T09:14:24Z</time>
      </trkpt>
      <trkpt lat="43.53491" lon="5.63887">
        <ele>691.9</ele>
        <time>2025-03-16T09:14:25Z</time>
      </trkpt>
      <trkpt lat="43.53491" lon="5.63887">
        <ele>691.7</ele>
        <time>2025-03-16T09:14:27Z</time>
      </trkpt>
      <trkpt lat="43.53492" lon="5.63888">
        <ele>691.6</ele>
        <time>2025-03-16T09:14:36Z</time>
      </trkpt>
      <trkpt lat="43.5349" lon="5.63887">
        <ele>691.9</ele>
        <time>2025-03-16T09:14:37Z</time>
      </trkpt>
      <trkpt lat="43.53491" lon="5.6388">
        <ele>692.6</ele>
        <time>2025-03-16T09:14:56Z</time>
      </trkpt>
      <trkpt lat="43.53491" lon="5.6388">
        <ele>692.6</ele>
        <time>2025-03-16T09:15:28Z</time>
      </trkpt>
      <trkpt lat="43.53489" lon="5.63879">
        <ele>692.6</ele>
        <time>2025-03-16T09:15:32Z</time>
      </trkpt>
      <trkpt lat="43.53489" lon="5.63879">
        <ele>692.6</ele>
        <time>2025-03-16T09:15:33Z</time>
      </trkpt>
      <trkpt lat="43.53487" lon="5.63879">
        <ele>692.7</ele>
        <time>2025-03-16T09:15:38Z</time>
      </trkpt>
      <trkpt lat="43.53487" lon="5.63879">
        <ele>692.6</ele>
        <time>2025-03-16T09:15:42Z</time>
      </trkpt>
      <trkpt lat="43.53479" lon="5.63872">
        <ele>691.7</ele>
        <time>2025-03-16T09:16:01Z</time>
      </trkpt>
      <trkpt lat="43.53486" lon="5.63869">
        <ele>692.1</ele>
        <time>2025-03-16T09:16:06Z</time>
      </trkpt>
      <trkpt lat="43.53486" lon="5.6387">
        <ele>692</ele>
        <time>2025-03-16T09:16:07Z</time>
      </trkpt>
      <trkpt lat="43.53485" lon="5.63875">
        <ele>691.3</ele>
        <time>2025-03-16T09:16:20Z</time>
      </trkpt>
      <trkpt lat="43.53485" lon="5.63875">
        <ele>691.1</ele>
        <time>2025-03-16T09:16:21Z</time>
      </trkpt>
      <trkpt lat="43.53487" lon="5.63876">
        <ele>694.6</ele>
        <time>2025-03-16T09:16:41Z</time>
      </trkpt>
      <trkpt lat="43.53487" lon="5.63876">
        <ele>694.7</ele>
        <time>2025-03-16T09:16:47Z</time>
      </trkpt>
      <trkpt lat="43.53487" lon="5.63876">
        <ele>694.7</ele>
        <time>2025-03-16T09:16:48Z</time>
      </trkpt>
      <trkpt lat="43.53487" lon="5.63877">
        <ele>694.7</ele>
        <time>2025-03-16T09:16:50Z</time>
      </trkpt>
      <trkpt lat="43.53486" lon="5.63877">
        <ele>694.4</ele>
        <time>2025-03-16T09:16:53Z</time>
      </trkpt>
      <trkpt lat="43.53486" lon="5.63878">
        <ele>694.3</ele>
        <time>2025-03-16T09:16:58Z</time>
      </trkpt>
      <trkpt lat="43.53488" lon="5.63875">
        <ele>693.6</ele>
        <time>2025-03-16T09:17:16Z</time>
      </trkpt>
      <trkpt lat="43.53488" lon="5.63875">
        <ele>693.7</ele>
        <time>2025-03-16T09:17:19Z</time>
      </trkpt>
      <trkpt lat="43.53481" lon="5.63873">
        <ele>695.1</ele>
        <time>2025-03-16T09:17:33Z</time>
      </trkpt>
      <trkpt lat="43.53482" lon="5.63873">
        <ele>695.2</ele>
        <time>2025-03-16T09:17:34Z</time>
      </trkpt>
      <trkpt lat="43.53489" lon="5.63881">
        <ele>695</ele>
        <time>2025-03-16T09:17:46Z</time>
      </trkpt>
      <trkpt lat="43.53491" lon="5.63889">
        <ele>693.3</ele>
        <time>2025-03-16T09:17:58Z</time>
      </trkpt>
      <trkpt lat="43.53491" lon="5.63889">
        <ele>693.3</ele>
        <time>2025-03-16T09:18:03Z</time>
      </trkpt>
      <trkpt lat="43.53492" lon="5.6389">
        <ele>693.5</ele>
        <time>2025-03-16T09:18:11Z</time>
      </trkpt>
      <trkpt lat="43.53492" lon="5.6389">
        <ele>693.6</ele>
        <time>2025-03-16T09:18:12Z</time>
      </trkpt>
      <trkpt lat="43.53492" lon="5.6389">
        <ele>693.6</ele>
        <time>2025-03-16T09:18:15Z</time>
      </trkpt>
      <trkpt lat="43.53491" lon="5.6389">
        <ele>694</ele>
        <time>2025-03-16T09:18:16Z</time>
      </trkpt>
      <trkpt lat="43.5349" lon="5.63891">
        <ele>695</ele>
        <time>2025-03-16T09:18:19Z</time>
      </trkpt>
      <trkpt lat="43.5349" lon="5.6389">
        <ele>695.4</ele>
        <time>2025-03-16T09:18:20Z</time>
      </trkpt>
      <trkpt lat="43.5349" lon="5.63891">
        <ele>695.7</ele>
        <time>2025-03-16T09:18:21Z</time>
      </trkpt>
      <trkpt lat="43.53491" lon="5.6389">
        <ele>696.1</ele>
        <time>2025-03-16T09:18:23Z</time>
      </trkpt>
      <trkpt lat="43.53498" lon="5.63894">
        <ele>696.3</ele>
        <time>2025-03-16T09:18:38Z</time>
      </trkpt>
      <trkpt lat="43.53499" lon="5.63894">
        <ele>696.2</ele>
        <time>2025-03-16T09:18:40Z</time>
      </trkpt>
      <trkpt lat="43.53499" lon="5.63894">
        <ele>696.4</ele>
        <time>2025-03-16T09:18:44Z</time>
      </trkpt>
      <trkpt lat="43.53499" lon="5.63894">
        <ele>696.7</ele>
        <time>2025-03-16T09:18:51Z</time>
      </trkpt>
      <trkpt lat="43.535" lon="5.63895">
        <ele>696.4</ele>
        <time>2025-03-16T09:18:54Z</time>
      </trkpt>
      <trkpt lat="43.535" lon="5.63896">
        <ele>696.3</ele>
        <time>2025-03-16T09:18:56Z</time>
      </trkpt>
      <trkpt lat="43.53501" lon="5.63896">
        <ele>694.8</ele>
        <time>2025-03-16T09:19:02Z</time>
      </trkpt>
      <trkpt lat="43.53501" lon="5.63896">
        <ele>694.7</ele>
        <time>2025-03-16T09:19:04Z</time>
      </trkpt>
      <trkpt lat="43.53504" lon="5.63896">
        <ele>693.3</ele>
        <time>2025-03-16T09:19:14Z</time>
      </trkpt>
      <trkpt lat="43.53504" lon="5.63896">
        <ele>693.3</ele>
        <time>2025-03-16T09:19:15Z</time>
      </trkpt>
      <trkpt lat="43.53507" lon="5.63895">
        <ele>693.5</ele>
        <time>2025-03-16T09:19:23Z</time>
      </trkpt>
      <trkpt lat="43.53507" lon="5.63896">
        <ele>694</ele>
        <time>2025-03-16T09:19:26Z</time>
      </trkpt>
      <trkpt lat="43.53507" lon="5.63896">
        <ele>694.1</ele>
        <time>2025-03-16T09:19:27Z</time>
      </trkpt>
      <trkpt lat="43.53507" lon="5.63896">
        <ele>694</ele>
        <time>2025-03-16T09:19:31Z</time>
      </trkpt>
      <trkpt lat="43.53507" lon="5.63897">
        <ele>694</ele>
        <time>2025-03-16T09:19:33Z</time>
      </trkpt>
      <trkpt lat="43.53506" lon="5.63897">
        <ele>694.1</ele>
        <time>2025-03-16T09:19:34Z</time>
      </trkpt>
      <trkpt lat="43.53506" lon="5.63897">
        <ele>694.1</ele>
        <time>2025-03-16T09:19:35Z</time>
      </trkpt>
      <trkpt lat="43.53507" lon="5.63897">
        <ele>693.9</ele>
        <time>2025-03-16T09:19:41Z</time>
      </trkpt>
      <trkpt lat="43.53507" lon="5.63895">
        <ele>693.4</ele>
        <time>2025-03-16T09:19:49Z</time>
      </trkpt>
      <trkpt lat="43.53507" lon="5.63895">
        <ele>693.3</ele>
        <time>2025-03-16T09:19:53Z</time>
      </trkpt>
      <trkpt lat="43.53507" lon="5.63895">
        <ele>693.2</ele>
        <time>2025-03-16T09:19:54Z</time>
      </trkpt>
      <trkpt lat="43.53507" lon="5.63894">
        <ele>693.2</ele>
        <time>2025-03-16T09:19:57Z</time>
      </trkpt>
      <trkpt lat="43.53507" lon="5.63893">
        <ele>693.2</ele>
        <time>2025-03-16T09:19:59Z</time>
      </trkpt>
      <trkpt lat="43.53507" lon="5.63893">
        <ele>693.1</ele>
        <time>2025-03-16T09:20:00Z</time>
      </trkpt>
      <trkpt lat="43.53507" lon="5.63892">
        <ele>692.9</ele>
        <time>2025-03-16T09:20:06Z</time>
      </trkpt>
      <trkpt lat="43.53507" lon="5.63891">
        <ele>693.2</ele>
        <time>2025-03-16T09:20:18Z</time>
      </trkpt>
      <trkpt lat="43.53507" lon="5.63891">
        <ele>693.6</ele>
        <time>2025-03-16T09:20:21Z</time>
      </trkpt>
      <trkpt lat="43.53506" lon="5.63891">
        <ele>693.6</ele>
        <time>2025-03-16T09:20:24Z</time>
      </trkpt>
      <trkpt lat="43.53506" lon="5.63891">
        <ele>694.1</ele>
        <time>2025-03-16T09:20:26Z</time>
      </trkpt>
      <trkpt lat="43.53506" lon="5.63891">
        <ele>694.4</ele>
        <time>2025-03-16T09:20:27Z</time>
      </trkpt>
      <trkpt lat="43.53505" lon="5.63892">
        <ele>694.9</ele>
        <time>2025-03-16T09:20:31Z</time>
      </trkpt>
      <trkpt lat="43.53505" lon="5.63892">
        <ele>695</ele>
        <time>2025-03-16T09:20:33Z</time>
      </trkpt>
      <trkpt lat="43.53511" lon="5.63897">
        <ele>696.8</ele>
        <time>2025-03-16T09:20:54Z</time>
      </trkpt>
      <trkpt lat="43.53511" lon="5.63898">
        <ele>696.9</ele>
        <time>2025-03-16T09:20:55Z</time>
      </trkpt>
      <trkpt lat="43.53517" lon="5.63905">
        <ele>697.8</ele>
        <time>2025-03-16T09:21:19Z</time>
      </trkpt>
      <trkpt lat="43.53517" lon="5.63905">
        <ele>697.8</ele>
        <time>2025-03-16T09:21:20Z</time>
      </trkpt>
      <trkpt lat="43.53519" lon="5.63909">
        <ele>697.9</ele>
        <time>2025-03-16T09:21:26Z</time>
      </trkpt>
      <trkpt lat="43.53519" lon="5.63908">
        <ele>697.9</ele>
        <time>2025-03-16T09:21:27Z</time>
      </trkpt>
      <trkpt lat="43.53519" lon="5.63908">
        <ele>697.8</ele>
        <time>2025-03-16T09:21:29Z</time>
      </trkpt>
      <trkpt lat="43.53519" lon="5.63908">
        <ele>697.7</ele>
        <time>2025-03-16T09:21:30Z</time>
      </trkpt>
      <trkpt lat="43.53519" lon="5.63908">
        <ele>697.7</ele>
        <time>2025-03-16T09:21:33Z</time>
      </trkpt>
      <trkpt lat="43.53519" lon="5.63908">
        <ele>697.7</ele>
        <time>2025-03-16T09:21:34Z</time>
      </trkpt>
      <trkpt lat="43.53519" lon="5.63908">
        <ele>697.7</ele>
        <time>2025-03-16T09:21:35Z</time>
      </trkpt>
      <trkpt lat="43.53519" lon="5.63908">
        <ele>697.8</ele>
        <time>2025-03-16T09:21:36Z</time>
      </trkpt>
      <trkpt lat="43.53519" lon="5.63907">
        <ele>697.8</ele>
        <time>2025-03-16T09:21:37Z</time>
      </trkpt>
      <trkpt lat="43.53519" lon="5.63907">
        <ele>697.8</ele>
        <time>2025-03-16T09:21:39Z</time>
      </trkpt>
      <trkpt lat="43.53521" lon="5.63906">
        <ele>697.9</ele>
        <time>2025-03-16T09:21:43Z</time>
      </trkpt>
      <trkpt lat="43.53521" lon="5.63907">
        <ele>697.8</ele>
        <time>2025-03-16T09:21:44Z</time>
      </trkpt>
      <trkpt lat="43.53525" lon="5.63909">
        <ele>696.1</ele>
        <time>2025-03-16T09:21:48Z</time>
      </trkpt>
      <trkpt lat="43.53525" lon="5.63909">
        <ele>696</ele>
        <time>2025-03-16T09:21:49Z</time>
      </trkpt>
      <trkpt lat="43.53524" lon="5.63902">
        <ele>697.7</ele>
        <time>2025-03-16T09:22:12Z</time>
      </trkpt>
      <trkpt lat="43.53524" lon="5.63903">
        <ele>697.9</ele>
        <time>2025-03-16T09:22:13Z</time>
      </trkpt>
      <trkpt lat="43.5353" lon="5.63893">
        <ele>701.7</ele>
        <time>2025-03-16T09:22:33Z</time>
      </trkpt>
      <trkpt lat="43.5353" lon="5.63881">
        <ele>703.1</ele>
        <time>2025-03-16T09:23:05Z</time>
      </trkpt>
      <trkpt lat="43.53529" lon="5.63882">
        <ele>703.3</ele>
        <time>2025-03-16T09:23:06Z</time>
      </trkpt>
      <trkpt lat="43.53527" lon="5.6387">
        <ele>705.1</ele>
        <time>2025-03-16T09:23:27Z</time>
      </trkpt>
      <trkpt lat="43.53527" lon="5.63862">
        <ele>709.7</ele>
        <time>2025-03-16T09:23:46Z</time>
      </trkpt>
      <trkpt lat="43.53527" lon="5.63862">
        <ele>710.1</ele>
        <time>2025-03-16T09:23:47Z</time>
      </trkpt>
      <trkpt lat="43.53527" lon="5.63861">
        <ele>710.3</ele>
        <time>2025-03-16T09:23:50Z</time>
      </trkpt>
      <trkpt lat="43.53527" lon="5.63861">
        <ele>710.4</ele>
        <time>2025-03-16T09:23:51Z</time>
      </trkpt>
      <trkpt lat="43.53531" lon="5.6385">
        <ele>716.8</ele>
        <time>2025-03-16T09:24:13Z</time>
      </trkpt>
      <trkpt lat="43.5353" lon="5.63851">
        <ele>717</ele>
        <time>2025-03-16T09:24:14Z</time>
      </trkpt>
      <trkpt lat="43.53533" lon="5.63853">
        <ele>718.6</ele>
        <time>2025-03-16T09:24:29Z</time>
      </trkpt>
      <trkpt lat="43.53533" lon="5.63852">
        <ele>718.7</ele>
        <time>2025-03-16T09:24:30Z</time>
      </trkpt>
      <trkpt lat="43.53537" lon="5.63849">
        <ele>721.6</ele>
        <time>2025-03-16T09:24:45Z</time>
      </trkpt>
      <trkpt lat="43.53536" lon="5.63849">
        <ele>721.5</ele>
        <time>2025-03-16T09:24:46Z</time>
      </trkpt>
      <trkpt lat="43.53537" lon="5.6385">
        <ele>722.4</ele>
        <time>2025-03-16T09:24:51Z</time>
      </trkpt>
      <trkpt lat="43.53537" lon="5.6385">
        <ele>722.5</ele>
        <time>2025-03-16T09:24:58Z</time>
      </trkpt>
      <trkpt lat="43.53537" lon="5.63851">
        <ele>722.8</ele>
        <time>2025-03-16T09:25:00Z</time>
      </trkpt>
      <trkpt lat="43.53537" lon="5.63851">
        <ele>722.9</ele>
        <time>2025-03-16T09:25:01Z</time>
      </trkpt>
      <trkpt lat="43.53537" lon="5.63851">
        <ele>722.9</ele>
        <time>2025-03-16T09:25:03Z</time>
      </trkpt>
      <trkpt lat="43.53537" lon="5.63851">
        <ele>723</ele>
        <time>2025-03-16T09:25:05Z</time>
      </trkpt>
      <trkpt lat="43.53537" lon="5.63851">
        <ele>723.1</ele>
        <time>2025-03-16T09:25:07Z</time>
      </trkpt>
      <trkpt lat="43.53537" lon="5.63852">
        <ele>723.2</ele>
        <time>2025-03-16T09:25:08Z</time>
      </trkpt>
      <trkpt lat="43.53537" lon="5.63852">
        <ele>723.3</ele>
        <time>2025-03-16T09:25:09Z</time>
      </trkpt>
      <trkpt lat="43.53538" lon="5.63852">
        <ele>723.1</ele>
        <time>2025-03-16T09:25:15Z</time>
      </trkpt>
      <trkpt lat="43.53538" lon="5.63852">
        <ele>723.1</ele>
        <time>2025-03-16T09:25:16Z</time>
      </trkpt>
      <trkpt lat="43.53538" lon="5.63852">
        <ele>723.1</ele>
        <time>2025-03-16T09:25:18Z</time>
      </trkpt>
      <trkpt lat="43.5354" lon="5.63853">
        <ele>723.2</ele>
        <time>2025-03-16T09:25:25Z</time>
      </trkpt>
      <trkpt lat="43.5354" lon="5.63854">
        <ele>723.3</ele>
        <time>2025-03-16T09:25:26Z</time>
      </trkpt>
      <trkpt lat="43.53543" lon="5.63854">
        <ele>723.7</ele>
        <time>2025-03-16T09:25:38Z</time>
      </trkpt>
      <trkpt lat="43.53543" lon="5.63854">
        <ele>723.7</ele>
        <time>2025-03-16T09:25:39Z</time>
      </trkpt>
      <trkpt lat="43.53548" lon="5.63849">
        <ele>728.5</ele>
        <time>2025-03-16T09:26:21Z</time>
      </trkpt>
      <trkpt lat="43.53548" lon="5.6385">
        <ele>728.6</ele>
        <time>2025-03-16T09:26:22Z</time>
      </trkpt>
      <trkpt lat="43.5355" lon="5.63848">
        <ele>729.2</ele>
        <time>2025-03-16T09:26:51Z</time>
      </trkpt>
      <trkpt lat="43.5355" lon="5.63848">
        <ele>729.4</ele>
        <time>2025-03-16T09:26:53Z</time>
      </trkpt>
      <trkpt lat="43.53552" lon="5.63851">
        <ele>729.2</ele>
        <time>2025-03-16T09:26:58Z</time>
      </trkpt>
      <trkpt lat="43.53552" lon="5.63851">
        <ele>729.2</ele>
        <time>2025-03-16T09:26:59Z</time>
      </trkpt>
      <trkpt lat="43.53552" lon="5.6385">
        <ele>729.5</ele>
        <time>2025-03-16T09:27:01Z</time>
      </trkpt>
      <trkpt lat="43.53551" lon="5.6385">
        <ele>729.5</ele>
        <time>2025-03-16T09:27:02Z</time>
      </trkpt>
      <trkpt lat="43.53551" lon="5.63849">
        <ele>729.7</ele>
        <time>2025-03-16T09:27:04Z</time>
      </trkpt>
      <trkpt lat="43.53551" lon="5.6385">
        <ele>729.8</ele>
        <time>2025-03-16T09:27:05Z</time>
      </trkpt>
      <trkpt lat="43.53554" lon="5.63854">
        <ele>731</ele>
        <time>2025-03-16T09:27:27Z</time>
      </trkpt>
      <trkpt lat="43.53554" lon="5.63853">
        <ele>730.9</ele>
        <time>2025-03-16T09:27:29Z</time>
      </trkpt>
      <trkpt lat="43.53554" lon="5.63853">
        <ele>730.9</ele>
        <time>2025-03-16T09:27:30Z</time>
      </trkpt>
      <trkpt lat="43.53553" lon="5.63853">
        <ele>730.8</ele>
        <time>2025-03-16T09:27:32Z</time>
      </trkpt>
      <trkpt lat="43.53553" lon="5.63853">
        <ele>730.9</ele>
        <time>2025-03-16T09:27:33Z</time>
      </trkpt>
      <trkpt lat="43.53554" lon="5.63852">
        <ele>730.9</ele>
        <time>2025-03-16T09:27:34Z</time>
      </trkpt>
      <trkpt lat="43.53554" lon="5.63853">
        <ele>731.6</ele>
        <time>2025-03-16T09:27:39Z</time>
      </trkpt>
      <trkpt lat="43.53555" lon="5.63853">
        <ele>731.8</ele>
        <time>2025-03-16T09:27:40Z</time>
      </trkpt>
      <trkpt lat="43.53552" lon="5.63855">
        <ele>732.2</ele>
        <time>2025-03-16T09:27:49Z</time>
      </trkpt>
      <trkpt lat="43.53552" lon="5.63854">
        <ele>732.2</ele>
        <time>2025-03-16T09:27:50Z</time>
      </trkpt>
      <trkpt lat="43.53553" lon="5.63853">
        <ele>732.8</ele>
        <time>2025-03-16T09:28:00Z</time>
      </trkpt>
      <trkpt lat="43.53553" lon="5.63853">
        <ele>732.9</ele>
        <time>2025-03-16T09:28:01Z</time>
      </trkpt>
      <trkpt lat="43.53553" lon="5.63851">
        <ele>733.5</ele>
        <time>2025-03-16T09:28:08Z</time>
      </trkpt>
      <trkpt lat="43.53553" lon="5.6385">
        <ele>733.3</ele>
        <time>2025-03-16T09:28:09Z</time>
      </trkpt>
      <trkpt lat="43.53553" lon="5.63846">
        <ele>733.9</ele>
        <time>2025-03-16T09:28:19Z</time>
      </trkpt>
      <trkpt lat="43.53553" lon="5.63846">
        <ele>734</ele>
        <time>2025-03-16T09:28:20Z</time>
      </trkpt>
      <trkpt lat="43.53554" lon="5.63846">
        <ele>733.8</ele>
        <time>2025-03-16T09:28:28Z</time>
      </trkpt>
      <trkpt lat="43.53554" lon="5.63845">
        <ele>733.8</ele>
        <time>2025-03-16T09:28:29Z</time>
      </trkpt>
      <trkpt lat="43.53554" lon="5.63846">
        <ele>733.6</ele>
        <time>2025-03-16T09:28:31Z</time>
      </trkpt>
      <trkpt lat="43.53554" lon="5.63846">
        <ele>733.7</ele>
        <time>2025-03-16T09:28:33Z</time>
      </trkpt>
      <trkpt lat="43.53554" lon="5.63845">
        <ele>734.2</ele>
        <time>2025-03-16T09:28:35Z</time>
      </trkpt>
      <trkpt lat="43.53554" lon="5.63845">
        <ele>734.3</ele>
        <time>2025-03-16T09:28:43Z</time>
      </trkpt>
      <trkpt lat="43.53554" lon="5.63845">
        <ele>734.4</ele>
        <time>2025-03-16T09:28:44Z</time>
      </trkpt>
      <trkpt lat="43.53554" lon="5.63845">
        <ele>734.5</ele>
        <time>2025-03-16T09:28:45Z</time>
      </trkpt>
      <trkpt lat="43.53555" lon="5.63845">
        <ele>734.7</ele>
        <time>2025-03-16T09:28:51Z</time>
      </trkpt>
      <trkpt lat="43.53555" lon="5.63845">
        <ele>734.8</ele>
        <time>2025-03-16T09:28:54Z</time>
      </trkpt>
      <trkpt lat="43.53555" lon="5.63845">
        <ele>735</ele>
        <time>2025-03-16T09:28:56Z</time>
      </trkpt>
      <trkpt lat="43.53555" lon="5.63845">
        <ele>735.1</ele>
        <time>2025-03-16T09:28:57Z</time>
      </trkpt>
      <trkpt lat="43.53555" lon="5.63845">
        <ele>735.1</ele>
        <time>2025-03-16T09:28:58Z</time>
      </trkpt>
      <trkpt lat="43.53555" lon="5.63845">
        <ele>735</ele>
        <time>2025-03-16T09:28:59Z</time>
      </trkpt>
      <trkpt lat="43.53556" lon="5.63844">
        <ele>736.1</ele>
        <time>2025-03-16T09:29:13Z</time>
      </trkpt>
      <trkpt lat="43.53557" lon="5.63844">
        <ele>736.3</ele>
        <time>2025-03-16T09:29:14Z</time>
      </trkpt>
      <trkpt lat="43.53557" lon="5.63845">
        <ele>737.1</ele>
        <time>2025-03-16T09:29:17Z</time>
      </trkpt>
      <trkpt lat="43.53557" lon="5.63844">
        <ele>737.5</ele>
        <time>2025-03-16T09:29:18Z</time>
      </trkpt>
      <trkpt lat="43.53557" lon="5.63843">
        <ele>739.8</ele>
        <time>2025-03-16T09:29:30Z</time>
      </trkpt>
      <trkpt lat="43.53557" lon="5.63843">
        <ele>739.8</ele>
        <time>2025-03-16T09:29:32Z</time>
      </trkpt>
      <trkpt lat="43.53558" lon="5.63844">
        <ele>739.7</ele>
        <time>2025-03-16T09:29:39Z</time>
      </trkpt>
      <trkpt lat="43.53558" lon="5.63845">
        <ele>739.8</ele>
        <time>2025-03-16T09:29:41Z</time>
      </trkpt>
      <trkpt lat="43.53559" lon="5.63847">
        <ele>739.7</ele>
        <time>2025-03-16T09:29:53Z</time>
      </trkpt>
      <trkpt lat="43.53559" lon="5.63847">
        <ele>739.9</ele>
        <time>2025-03-16T09:29:55Z</time>
      </trkpt>
      <trkpt lat="43.5356" lon="5.63847">
        <ele>739.8</ele>
        <time>2025-03-16T09:29:58Z</time>
      </trkpt>
      <trkpt lat="43.5356" lon="5.63847">
        <ele>740</ele>
        <time>2025-03-16T09:30:02Z</time>
      </trkpt>
      <trkpt lat="43.53565" lon="5.63843">
        <ele>739.6</ele>
        <time>2025-03-16T09:30:25Z</time>
      </trkpt>
      <trkpt lat="43.53565" lon="5.63843">
        <ele>739.7</ele>
        <time>2025-03-16T09:30:30Z</time>
      </trkpt>
      <trkpt lat="43.53565" lon="5.63844">
        <ele>739.9</ele>
        <time>2025-03-16T09:30:42Z</time>
      </trkpt>
      <trkpt lat="43.53566" lon="5.63844">
        <ele>739.8</ele>
        <time>2025-03-16T09:30:43Z</time>
      </trkpt>
      <trkpt lat="43.53565" lon="5.63844">
        <ele>740.6</ele>
        <time>2025-03-16T09:30:46Z</time>
      </trkpt>
      <trkpt lat="43.53565" lon="5.63843">
        <ele>740.7</ele>
        <time>2025-03-16T09:30:47Z</time>
      </trkpt>
      <trkpt lat="43.53563" lon="5.63845">
        <ele>742.1</ele>
        <time>2025-03-16T09:30:56Z</time>
      </trkpt>
      <trkpt lat="43.53563" lon="5.63845">
        <ele>742.2</ele>
        <time>2025-03-16T09:30:57Z</time>
      </trkpt>
      <trkpt lat="43.53563" lon="5.63844">
        <ele>742.5</ele>
        <time>2025-03-16T09:30:59Z</time>
      </trkpt>
      <trkpt lat="43.53563" lon="5.63844">
        <ele>742.4</ele>
        <time>2025-03-16T09:31:00Z</time>
      </trkpt>
      <trkpt lat="43.53564" lon="5.63843">
        <ele>743.3</ele>
        <time>2025-03-16T09:31:07Z</time>
      </trkpt>
      <trkpt lat="43.53564" lon="5.63842">
        <ele>743.3</ele>
        <time>2025-03-16T09:31:08Z</time>
      </trkpt>
      <trkpt lat="43.53564" lon="5.63842">
        <ele>743.8</ele>
        <time>2025-03-16T09:31:11Z</time>
      </trkpt>
      <trkpt lat="43.53565" lon="5.63843">
        <ele>744</ele>
        <time>2025-03-16T09:31:12Z</time>
      </trkpt>
      <trkpt lat="43.53564" lon="5.63843">
        <ele>744.3</ele>
        <time>2025-03-16T09:31:14Z</time>
      </trkpt>
      <trkpt lat="43.53565" lon="5.63843">
        <ele>744.4</ele>
        <time>2025-03-16T09:31:16Z</time>
      </trkpt>
      <trkpt lat="43.53565" lon="5.63843">
        <ele>744.4</ele>
        <time>2025-03-16T09:31:17Z</time>
      </trkpt>
      <trkpt lat="43.53565" lon="5.63844">
        <ele>744.5</ele>
        <time>2025-03-16T09:31:32Z</time>
      </trkpt>
      <trkpt lat="43.53565" lon="5.63844">
        <ele>744.5</ele>
        <time>2025-03-16T09:31:36Z</time>
      </trkpt>
      <trkpt lat="43.53566" lon="5.63845">
        <ele>744.8</ele>
        <time>2025-03-16T09:31:39Z</time>
      </trkpt>
      <trkpt lat="43.53566" lon="5.63845">
        <ele>744.9</ele>
        <time>2025-03-16T09:31:41Z</time>
      </trkpt>
      <trkpt lat="43.53566" lon="5.63845">
        <ele>744.9</ele>
        <time>2025-03-16T09:31:43Z</time>
      </trkpt>
      <trkpt lat="43.53566" lon="5.63845">
        <ele>745.5</ele>
        <time>2025-03-16T09:31:45Z</time>
      </trkpt>
      <trkpt lat="43.53566" lon="5.63845">
        <ele>745.8</ele>
        <time>2025-03-16T09:31:49Z</time>
      </trkpt>
      <trkpt lat="43.53566" lon="5.63845">
        <ele>745.8</ele>
        <time>2025-03-16T09:31:50Z</time>
      </trkpt>
      <trkpt lat="43.53566" lon="5.63845">
        <ele>746.1</ele>
        <time>2025-03-16T09:31:53Z</time>
      </trkpt>
      <trkpt lat="43.53567" lon="5.63845">
        <ele>746.3</ele>
        <time>2025-03-16T09:31:59Z</time>
      </trkpt>
      <trkpt lat="43.53567" lon="5.63845">
        <ele>746.4</ele>
        <time>2025-03-16T09:32:01Z</time>
      </trkpt>
      <trkpt lat="43.53568" lon="5.63844">
        <ele>747</ele>
        <time>2025-03-16T09:32:05Z</time>
      </trkpt>
      <trkpt lat="43.53567" lon="5.63843">
        <ele>747.1</ele>
        <time>2025-03-16T09:32:07Z</time>
      </trkpt>
      <trkpt lat="43.53567" lon="5.63843">
        <ele>747.2</ele>
        <time>2025-03-16T09:32:08Z</time>
      </trkpt>
      <trkpt lat="43.53568" lon="5.63843">
        <ele>747.7</ele>
        <time>2025-03-16T09:32:10Z</time>
      </trkpt>
      <trkpt lat="43.53568" lon="5.63843">
        <ele>747.9</ele>
        <time>2025-03-16T09:32:11Z</time>
      </trkpt>
      <trkpt lat="43.53567" lon="5.63843">
        <ele>748.1</ele>
        <time>2025-03-16T09:32:12Z</time>
      </trkpt>
      <trkpt lat="43.53568" lon="5.63844">
        <ele>748.6</ele>
        <time>2025-03-16T09:32:15Z</time>
      </trkpt>
      <trkpt lat="43.53568" lon="5.63844">
        <ele>748.6</ele>
        <time>2025-03-16T09:32:16Z</time>
      </trkpt>
      <trkpt lat="43.53571" lon="5.63846">
        <ele>750.1</ele>
        <time>2025-03-16T09:32:33Z</time>
      </trkpt>
      <trkpt lat="43.53571" lon="5.63846">
        <ele>750.1</ele>
        <time>2025-03-16T09:32:35Z</time>
      </trkpt>
      <trkpt lat="43.5358" lon="5.63848">
        <ele>753.2</ele>
        <time>2025-03-16T09:33:03Z</time>
      </trkpt>
      <trkpt lat="43.53582" lon="5.63846">
        <ele>753.9</ele>
        <time>2025-03-16T09:33:08Z</time>
      </trkpt>
      <trkpt lat="43.53582" lon="5.63846">
        <ele>754.3</ele>
        <time>2025-03-16T09:33:09Z</time>
      </trkpt>
      <trkpt lat="43.53582" lon="5.63846">
        <ele>754.5</ele>
        <time>2025-03-16T09:33:11Z</time>
      </trkpt>
      <trkpt lat="43.53582" lon="5.63846">
        <ele>754.5</ele>
        <time>2025-03-16T09:33:12Z</time>
      </trkpt>
      <trkpt lat="43.5358" lon="5.63845">
        <ele>755.3</ele>
        <time>2025-03-16T09:33:23Z</time>
      </trkpt>
      <trkpt lat="43.5358" lon="5.63844">
        <ele>755.3</ele>
        <time>2025-03-16T09:33:24Z</time>
      </trkpt>
      <trkpt lat="43.53579" lon="5.63842">
        <ele>756.2</ele>
        <time>2025-03-16T09:33:54Z</time>
      </trkpt>
      <trkpt lat="43.53579" lon="5.63842">
        <ele>756.3</ele>
        <time>2025-03-16T09:33:56Z</time>
      </trkpt>
      <trkpt lat="43.53583" lon="5.63841">
        <ele>756.1</ele>
        <time>2025-03-16T09:34:10Z</time>
      </trkpt>
      <trkpt lat="43.53583" lon="5.63841">
        <ele>756.3</ele>
        <time>2025-03-16T09:34:12Z</time>
      </trkpt>
      <trkpt lat="43.53583" lon="5.63841">
        <ele>756.8</ele>
        <time>2025-03-16T09:34:16Z</time>
      </trkpt>
      <trkpt lat="43.53583" lon="5.63841">
        <ele>756.9</ele>
        <time>2025-03-16T09:34:17Z</time>
      </trkpt>
      <trkpt lat="43.53584" lon="5.63839">
        <ele>757.3</ele>
        <time>2025-03-16T09:34:21Z</time>
      </trkpt>
      <trkpt lat="43.53584" lon="5.63839">
        <ele>757.5</ele>
        <time>2025-03-16T09:34:22Z</time>
      </trkpt>
      <trkpt lat="43.53585" lon="5.63838">
        <ele>757.8</ele>
        <time>2025-03-16T09:34:24Z</time>
      </trkpt>
      <trkpt lat="43.53585" lon="5.63838">
        <ele>757.9</ele>
        <time>2025-03-16T09:34:25Z</time>
      </trkpt>
      <trkpt lat="43.53585" lon="5.63838">
        <ele>758.1</ele>
        <time>2025-03-16T09:34:27Z</time>
      </trkpt>
      <trkpt lat="43.53585" lon="5.63838">
        <ele>758.2</ele>
        <time>2025-03-16T09:34:28Z</time>
      </trkpt>
      <trkpt lat="43.53584" lon="5.63839">
        <ele>759.3</ele>
        <time>2025-03-16T09:34:35Z</time>
      </trkpt>
      <trkpt lat="43.53584" lon="5.63839">
        <ele>759.5</ele>
        <time>2025-03-16T09:34:36Z</time>
      </trkpt>
      <trkpt lat="43.53584" lon="5.63838">
        <ele>759.7</ele>
        <time>2025-03-16T09:34:39Z</time>
      </trkpt>
      <trkpt lat="43.53584" lon="5.63838">
        <ele>759.8</ele>
        <time>2025-03-16T09:34:40Z</time>
      </trkpt>
      <trkpt lat="43.53576" lon="5.63845">
        <ele>761.2</ele>
        <time>2025-03-16T09:34:46Z</time>
      </trkpt>
      <trkpt lat="43.53573" lon="5.63849">
        <ele>762.3</ele>
        <time>2025-03-16T09:34:52Z</time>
      </trkpt>
      <trkpt lat="43.53573" lon="5.63849">
        <ele>762.4</ele>
        <time>2025-03-16T09:34:53Z</time>
      </trkpt>
      <trkpt lat="43.53573" lon="5.63847">
        <ele>762.8</ele>
        <time>2025-03-16T09:34:56Z</time>
      </trkpt>
      <trkpt lat="43.53573" lon="5.63847">
        <ele>763.3</ele>
        <time>2025-03-16T09:34:57Z</time>
      </trkpt>
      <trkpt lat="43.53574" lon="5.63847">
        <ele>764.3</ele>
        <time>2025-03-16T09:35:00Z</time>
      </trkpt>
      <trkpt lat="43.53574" lon="5.63847">
        <ele>764.7</ele>
        <time>2025-03-16T09:35:02Z</time>
      </trkpt>
      <trkpt lat="43.53578" lon="5.63846">
        <ele>762.8</ele>
        <time>2025-03-16T09:35:16Z</time>
      </trkpt>
      <trkpt lat="43.53578" lon="5.63846">
        <ele>762.7</ele>
        <time>2025-03-16T09:35:17Z</time>
      </trkpt>
      <trkpt lat="43.53581" lon="5.63843">
        <ele>762.3</ele>
        <time>2025-03-16T09:35:30Z</time>
      </trkpt>
      <trkpt lat="43.5358" lon="5.63843">
        <ele>762.3</ele>
        <time>2025-03-16T09:35:31Z</time>
      </trkpt>
      <trkpt lat="43.53581" lon="5.63844">
        <ele>762</ele>
        <time>2025-03-16T09:35:39Z</time>
      </trkpt>
      <trkpt lat="43.53581" lon="5.63844">
        <ele>761.9</ele>
        <time>2025-03-16T09:35:40Z</time>
      </trkpt>
      <trkpt lat="43.53583" lon="5.63836">
        <ele>761.5</ele>
        <time>2025-03-16T09:36:01Z</time>
      </trkpt>
      <trkpt lat="43.53583" lon="5.63835">
        <ele>761.3</ele>
        <time>2025-03-16T09:36:02Z</time>
      </trkpt>
      <trkpt lat="43.53579" lon="5.6384">
        <ele>761.8</ele>
        <time>2025-03-16T09:36:11Z</time>
      </trkpt>
      <trkpt lat="43.53579" lon="5.6384">
        <ele>762.2</ele>
        <time>2025-03-16T09:36:12Z</time>
      </trkpt>
      <trkpt lat="43.53581" lon="5.63844">
        <ele>763.9</ele>
        <time>2025-03-16T09:36:26Z</time>
      </trkpt>
      <trkpt lat="43.5358" lon="5.63844">
        <ele>764</ele>
        <time>2025-03-16T09:36:27Z</time>
      </trkpt>
      <trkpt lat="43.5358" lon="5.63845">
        <ele>764.8</ele>
        <time>2025-03-16T09:36:29Z</time>
      </trkpt>
      <trkpt lat="43.5358" lon="5.63845">
        <ele>765</ele>
        <time>2025-03-16T09:36:30Z</time>
      </trkpt>
      <trkpt lat="43.5358" lon="5.63848">
        <ele>766.2</ele>
        <time>2025-03-16T09:36:36Z</time>
      </trkpt>
      <trkpt lat="43.5358" lon="5.63848">
        <ele>766.3</ele>
        <time>2025-03-16T09:36:37Z</time>
      </trkpt>
      <trkpt lat="43.53578" lon="5.63854">
        <ele>767.1</ele>
        <time>2025-03-16T09:36:51Z</time>
      </trkpt>
      <trkpt lat="43.53578" lon="5.63854">
        <ele>766.9</ele>
        <time>2025-03-16T09:36:53Z</time>
      </trkpt>
      <trkpt lat="43.53578" lon="5.63856">
        <ele>766.5</ele>
        <time>2025-03-16T09:37:03Z</time>
      </trkpt>
      <trkpt lat="43.53577" lon="5.63856">
        <ele>766.6</ele>
        <time>2025-03-16T09:37:05Z</time>
      </trkpt>
      <trkpt lat="43.53578" lon="5.63861">
        <ele>767.5</ele>
        <time>2025-03-16T09:37:14Z</time>
      </trkpt>
      <trkpt lat="43.53578" lon="5.63861">
        <ele>767.6</ele>
        <time>2025-03-16T09:37:15Z</time>
      </trkpt>
      <trkpt lat="43.53574" lon="5.63865">
        <ele>769.4</ele>
        <time>2025-03-16T09:37:26Z</time>
      </trkpt>
      <trkpt lat="43.53574" lon="5.63865">
        <ele>769.4</ele>
        <time>2025-03-16T09:37:29Z</time>
      </trkpt>
      <trkpt lat="43.53574" lon="5.63865">
        <ele>769.5</ele>
        <time>2025-03-16T09:37:30Z</time>
      </trkpt>
      <trkpt lat="43.53574" lon="5.63865">
        <ele>769.9</ele>
        <time>2025-03-16T09:37:31Z</time>
      </trkpt>
      <trkpt lat="43.53577" lon="5.63865">
        <ele>771.1</ele>
        <time>2025-03-16T09:37:48Z</time>
      </trkpt>
      <trkpt lat="43.53578" lon="5.63865">
        <ele>771.1</ele>
        <time>2025-03-16T09:37:49Z</time>
      </trkpt>
      <trkpt lat="43.53587" lon="5.63866">
        <ele>770.4</ele>
        <time>2025-03-16T09:38:13Z</time>
      </trkpt>
      <trkpt lat="43.5359" lon="5.63867">
        <ele>769.5</ele>
        <time>2025-03-16T09:38:18Z</time>
      </trkpt>
      <trkpt lat="43.5359" lon="5.63867">
        <ele>769.5</ele>
        <time>2025-03-16T09:38:19Z</time>
      </trkpt>
      <trkpt lat="43.53592" lon="5.63868">
        <ele>769.7</ele>
        <time>2025-03-16T09:38:32Z</time>
      </trkpt>
      <trkpt lat="43.53593" lon="5.63867">
        <ele>769.6</ele>
        <time>2025-03-16T09:38:33Z</time>
      </trkpt>
      <trkpt lat="43.53597" lon="5.63869">
        <ele>769.9</ele>
        <time>2025-03-16T09:38:47Z</time>
      </trkpt>
      <trkpt lat="43.53598" lon="5.63869">
        <ele>770.3</ele>
        <time>2025-03-16T09:38:48Z</time>
      </trkpt>
      <trkpt lat="43.53598" lon="5.63869">
        <ele>770.9</ele>
        <time>2025-03-16T09:38:52Z</time>
      </trkpt>
      <trkpt lat="43.53598" lon="5.63869">
        <ele>771.2</ele>
        <time>2025-03-16T09:38:56Z</time>
      </trkpt>
      <trkpt lat="43.53598" lon="5.63869">
        <ele>771.4</ele>
        <time>2025-03-16T09:38:57Z</time>
      </trkpt>
      <trkpt lat="43.53598" lon="5.63869">
        <ele>771.6</ele>
        <time>2025-03-16T09:38:58Z</time>
      </trkpt>
      <trkpt lat="43.53598" lon="5.63869">
        <ele>772.4</ele>
        <time>2025-03-16T09:39:03Z</time>
      </trkpt>
      <trkpt lat="43.53597" lon="5.63869">
        <ele>773.1</ele>
        <time>2025-03-16T09:39:06Z</time>
      </trkpt>
      <trkpt lat="43.53597" lon="5.63869">
        <ele>773.5</ele>
        <time>2025-03-16T09:39:07Z</time>
      </trkpt>
      <trkpt lat="43.53598" lon="5.63869">
        <ele>773.4</ele>
        <time>2025-03-16T09:39:08Z</time>
      </trkpt>
      <trkpt lat="43.53598" lon="5.63869">
        <ele>773.4</ele>
        <time>2025-03-16T09:39:09Z</time>
      </trkpt>
      <trkpt lat="43.53598" lon="5.63869">
        <ele>773.5</ele>
        <time>2025-03-16T09:39:29Z</time>
      </trkpt>
      <trkpt lat="43.53597" lon="5.6387">
        <ele>773.7</ele>
        <time>2025-03-16T09:39:32Z</time>
      </trkpt>
      <trkpt lat="43.53597" lon="5.6387">
        <ele>773.9</ele>
        <time>2025-03-16T09:39:34Z</time>
      </trkpt>
      <trkpt lat="43.536" lon="5.63869">
        <ele>774.5</ele>
        <time>2025-03-16T09:39:52Z</time>
      </trkpt>
      <trkpt lat="43.536" lon="5.63869">
        <ele>774.8</ele>
        <time>2025-03-16T09:39:56Z</time>
      </trkpt>
      <trkpt lat="43.53597" lon="5.63871">
        <ele>774.7</ele>
        <time>2025-03-16T09:40:13Z</time>
      </trkpt>
      <trkpt lat="43.53596" lon="5.63871">
        <ele>774.8</ele>
        <time>2025-03-16T09:40:14Z</time>
      </trkpt>
      <trkpt lat="43.53595" lon="5.63871">
        <ele>775.6</ele>
        <time>2025-03-16T09:40:21Z</time>
      </trkpt>
      <trkpt lat="43.53595" lon="5.63871">
        <ele>775.7</ele>
        <time>2025-03-16T09:40:22Z</time>
      </trkpt>
      <trkpt lat="43.53595" lon="5.63871">
        <ele>775.5</ele>
        <time>2025-03-16T09:40:23Z</time>
      </trkpt>
      <trkpt lat="43.53595" lon="5.63871">
        <ele>775.5</ele>
        <time>2025-03-16T09:40:24Z</time>
      </trkpt>
      <trkpt lat="43.53596" lon="5.63873">
        <ele>777.5</ele>
        <time>2025-03-16T09:40:32Z</time>
      </trkpt>
      <trkpt lat="43.53596" lon="5.63873">
        <ele>778</ele>
        <time>2025-03-16T09:40:33Z</time>
      </trkpt>
      <trkpt lat="43.53589" lon="5.63877">
        <ele>779.5</ele>
        <time>2025-03-16T09:40:52Z</time>
      </trkpt>
      <trkpt lat="43.53589" lon="5.63877">
        <ele>779.4</ele>
        <time>2025-03-16T09:40:53Z</time>
      </trkpt>
      <trkpt lat="43.53589" lon="5.63877">
        <ele>779.4</ele>
        <time>2025-03-16T09:40:54Z</time>
      </trkpt>
      <trkpt lat="43.53589" lon="5.63877">
        <ele>779.4</ele>
        <time>2025-03-16T09:40:55Z</time>
      </trkpt>
      <trkpt lat="43.53598" lon="5.63872">
        <ele>780.2</ele>
        <time>2025-03-16T09:41:25Z</time>
      </trkpt>
      <trkpt lat="43.53602" lon="5.63873">
        <ele>779.5</ele>
        <time>2025-03-16T09:41:36Z</time>
      </trkpt>
      <trkpt lat="43.53602" lon="5.63873">
        <ele>779.5</ele>
        <time>2025-03-16T09:41:37Z</time>
      </trkpt>
      <trkpt lat="43.53603" lon="5.63872">
        <ele>779.8</ele>
        <time>2025-03-16T09:41:41Z</time>
      </trkpt>
      <trkpt lat="43.53603" lon="5.63872">
        <ele>779.7</ele>
        <time>2025-03-16T09:41:42Z</time>
      </trkpt>
      <trkpt lat="43.53602" lon="5.63871">
        <ele>779.7</ele>
        <time>2025-03-16T09:41:45Z</time>
      </trkpt>
      <trkpt lat="43.53602" lon="5.63871">
        <ele>779.7</ele>
        <time>2025-03-16T09:41:46Z</time>
      </trkpt>
      <trkpt lat="43.53602" lon="5.63871">
        <ele>780</ele>
        <time>2025-03-16T09:41:49Z</time>
      </trkpt>
      <trkpt lat="43.53603" lon="5.63871">
        <ele>780.1</ele>
        <time>2025-03-16T09:41:50Z</time>
      </trkpt>
      <trkpt lat="43.53606" lon="5.63869">
        <ele>780.4</ele>
        <time>2025-03-16T09:42:01Z</time>
      </trkpt>
      <trkpt lat="43.53605" lon="5.63869">
        <ele>780.2</ele>
        <time>2025-03-16T09:42:03Z</time>
      </trkpt>
      <trkpt lat="43.53605" lon="5.63869">
        <ele>780.3</ele>
        <time>2025-03-16T09:42:04Z</time>
      </trkpt>
      <trkpt lat="43.53606" lon="5.63869">
        <ele>780.4</ele>
        <time>2025-03-16T09:42:05Z</time>
      </trkpt>
      <trkpt lat="43.53611" lon="5.63864">
        <ele>782.3</ele>
        <time>2025-03-16T09:42:21Z</time>
      </trkpt>
      <trkpt lat="43.53611" lon="5.63863">
        <ele>782.7</ele>
        <time>2025-03-16T09:42:23Z</time>
      </trkpt>
      <trkpt lat="43.53609" lon="5.6386">
        <ele>786.1</ele>
        <time>2025-03-16T09:42:31Z</time>
      </trkpt>
      <trkpt lat="43.53609" lon="5.6386">
        <ele>786.2</ele>
        <time>2025-03-16T09:42:32Z</time>
      </trkpt>
      <trkpt lat="43.53611" lon="5.63855">
        <ele>785.4</ele>
        <time>2025-03-16T09:42:43Z</time>
      </trkpt>
      <trkpt lat="43.53611" lon="5.63855">
        <ele>785.4</ele>
        <time>2025-03-16T09:42:44Z</time>
      </trkpt>
      <trkpt lat="43.53611" lon="5.63855">
        <ele>785.3</ele>
        <time>2025-03-16T09:42:45Z</time>
      </trkpt>
      <trkpt lat="43.53611" lon="5.63856">
        <ele>785.1</ele>
        <time>2025-03-16T09:42:47Z</time>
      </trkpt>
      <trkpt lat="43.53611" lon="5.63856">
        <ele>785.4</ele>
        <time>2025-03-16T09:42:51Z</time>
      </trkpt>
      <trkpt lat="43.53611" lon="5.63856">
        <ele>785.4</ele>
        <time>2025-03-16T09:42:52Z</time>
      </trkpt>
      <trkpt lat="43.5361" lon="5.63863">
        <ele>787.4</ele>
        <time>2025-03-16T09:43:01Z</time>
      </trkpt>
      <trkpt lat="43.5361" lon="5.63863">
        <ele>787.6</ele>
        <time>2025-03-16T09:43:02Z</time>
      </trkpt>
      <trkpt lat="43.53615" lon="5.63856">
        <ele>788.8</ele>
        <time>2025-03-16T09:43:23Z</time>
      </trkpt>
      <trkpt lat="43.53616" lon="5.63856">
        <ele>788.9</ele>
        <time>2025-03-16T09:43:24Z</time>
      </trkpt>
      <trkpt lat="43.53619" lon="5.63849">
        <ele>789.3</ele>
        <time>2025-03-16T09:44:13Z</time>
      </trkpt>
      <trkpt lat="43.53619" lon="5.63849">
        <ele>789.2</ele>
        <time>2025-03-16T09:44:14Z</time>
      </trkpt>
      <trkpt lat="43.53619" lon="5.63848">
        <ele>789.4</ele>
        <time>2025-03-16T09:44:16Z</time>
      </trkpt>
      <trkpt lat="43.53619" lon="5.63848">
        <ele>789.4</ele>
        <time>2025-03-16T09:44:19Z</time>
      </trkpt>
      <trkpt lat="43.53628" lon="5.63845">
        <ele>790.9</ele>
        <time>2025-03-16T09:45:10Z</time>
      </trkpt>
      <trkpt lat="43.53634" lon="5.63856">
        <ele>790.8</ele>
        <time>2025-03-16T09:45:21Z</time>
      </trkpt>
      <trkpt lat="43.53632" lon="5.63869">
        <ele>790.7</ele>
        <time>2025-03-16T09:45:25Z</time>
      </trkpt>
      <trkpt lat="43.53626" lon="5.63878">
        <ele>790.9</ele>
        <time>2025-03-16T09:45:31Z</time>
      </trkpt>
      <trkpt lat="43.53625" lon="5.63866">
        <ele>792.5</ele>
        <time>2025-03-16T09:45:42Z</time>
      </trkpt>
      <trkpt lat="43.53622" lon="5.63853">
        <ele>793.9</ele>
        <time>2025-03-16T09:45:56Z</time>
      </trkpt>
      <trkpt lat="43.53617" lon="5.63854">
        <ele>794.7</ele>
        <time>2025-03-16T09:46:04Z</time>
      </trkpt>
      <trkpt lat="43.53617" lon="5.63852">
        <ele>794.7</ele>
        <time>2025-03-16T09:46:05Z</time>
      </trkpt>
      <trkpt lat="43.53611" lon="5.63839">
        <ele>795.2</ele>
        <time>2025-03-16T09:46:10Z</time>
      </trkpt>
      <trkpt lat="43.53618" lon="5.63846">
        <ele>795.4</ele>
        <time>2025-03-16T09:46:50Z</time>
      </trkpt>
      <trkpt lat="43.53622" lon="5.63841">
        <ele>796</ele>
        <time>2025-03-16T09:47:20Z</time>
      </trkpt>
      <trkpt lat="43.53622" lon="5.63842">
        <ele>795.9</ele>
        <time>2025-03-16T09:47:21Z</time>
      </trkpt>
      <trkpt lat="43.53627" lon="5.63853">
        <ele>794.7</ele>
        <time>2025-03-16T09:47:43Z</time>
      </trkpt>
      <trkpt lat="43.53618" lon="5.63858">
        <ele>796.5</ele>
        <time>2025-03-16T09:48:17Z</time>
      </trkpt>
      <trkpt lat="43.53623" lon="5.63869">
        <ele>800.9</ele>
        <time>2025-03-16T09:48:51Z</time>
      </trkpt>
      <trkpt lat="43.53623" lon="5.63869">
        <ele>800.9</ele>
        <time>2025-03-16T09:48:52Z</time>
      </trkpt>
      <trkpt lat="43.53622" lon="5.63869">
        <ele>801</ele>
        <time>2025-03-16T09:48:53Z</time>
      </trkpt>
      <trkpt lat="43.53622" lon="5.63873">
        <ele>803</ele>
        <time>2025-03-16T09:49:04Z</time>
      </trkpt>
      <trkpt lat="43.53622" lon="5.63874">
        <ele>803</ele>
        <time>2025-03-16T09:49:05Z</time>
      </trkpt>
      <trkpt lat="43.53621" lon="5.63874">
        <ele>803.4</ele>
        <time>2025-03-16T09:49:08Z</time>
      </trkpt>
      <trkpt lat="43.53621" lon="5.63875">
        <ele>804</ele>
        <time>2025-03-16T09:49:11Z</time>
      </trkpt>
      <trkpt lat="43.53621" lon="5.63875">
        <ele>804.3</ele>
        <time>2025-03-16T09:49:13Z</time>
      </trkpt>
      <trkpt lat="43.53622" lon="5.63875">
        <ele>804.3</ele>
        <time>2025-03-16T09:49:14Z</time>
      </trkpt>
      <trkpt lat="43.53622" lon="5.63875">
        <ele>804.3</ele>
        <time>2025-03-16T09:49:15Z</time>
      </trkpt>
      <trkpt lat="43.53622" lon="5.63876">
        <ele>804.3</ele>
        <time>2025-03-16T09:49:17Z</time>
      </trkpt>
      <trkpt lat="43.53623" lon="5.63877">
        <ele>803.5</ele>
        <time>2025-03-16T09:49:22Z</time>
      </trkpt>
      <trkpt lat="43.53623" lon="5.63877">
        <ele>803.7</ele>
        <time>2025-03-16T09:49:24Z</time>
      </trkpt>
      <trkpt lat="43.53629" lon="5.63877">
        <ele>804.7</ele>
        <time>2025-03-16T09:49:38Z</time>
      </trkpt>
      <trkpt lat="43.53629" lon="5.63877">
        <ele>804.8</ele>
        <time>2025-03-16T09:49:39Z</time>
      </trkpt>
      <trkpt lat="43.53631" lon="5.63879">
        <ele>807.6</ele>
        <time>2025-03-16T09:49:45Z</time>
      </trkpt>
      <trkpt lat="43.53631" lon="5.6388">
        <ele>807.7</ele>
        <time>2025-03-16T09:49:47Z</time>
      </trkpt>
      <trkpt lat="43.53632" lon="5.63879">
        <ele>806.2</ele>
        <time>2025-03-16T09:50:00Z</time>
      </trkpt>
      <trkpt lat="43.53632" lon="5.63879">
        <ele>806.1</ele>
        <time>2025-03-16T09:50:01Z</time>
      </trkpt>
      <trkpt lat="43.53632" lon="5.6388">
        <ele>806.6</ele>
        <time>2025-03-16T09:50:06Z</time>
      </trkpt>
      <trkpt lat="43.53632" lon="5.6388">
        <ele>806.8</ele>
        <time>2025-03-16T09:50:07Z</time>
      </trkpt>
      <trkpt lat="43.53635" lon="5.63886">
        <ele>808.4</ele>
        <time>2025-03-16T09:50:28Z</time>
      </trkpt>
      <trkpt lat="43.53635" lon="5.63886">
        <ele>808.6</ele>
        <time>2025-03-16T09:50:32Z</time>
      </trkpt>
      <trkpt lat="43.53636" lon="5.63885">
        <ele>808.8</ele>
        <time>2025-03-16T09:50:34Z</time>
      </trkpt>
      <trkpt lat="43.53637" lon="5.63885">
        <ele>808.3</ele>
        <time>2025-03-16T09:50:35Z</time>
      </trkpt>
      <trkpt lat="43.53646" lon="5.63884">
        <ele>809.8</ele>
        <time>2025-03-16T09:51:05Z</time>
      </trkpt>
      <trkpt lat="43.53648" lon="5.63871">
        <ele>813.6</ele>
        <time>2025-03-16T09:51:26Z</time>
      </trkpt>
      <trkpt lat="43.53653" lon="5.63875">
        <ele>814.5</ele>
        <time>2025-03-16T09:51:45Z</time>
      </trkpt>
      <trkpt lat="43.53653" lon="5.63875">
        <ele>814.5</ele>
        <time>2025-03-16T09:51:46Z</time>
      </trkpt>
      <trkpt lat="43.53653" lon="5.63862">
        <ele>815.7</ele>
        <time>2025-03-16T09:52:04Z</time>
      </trkpt>
      <trkpt lat="43.53661" lon="5.6386">
        <ele>816.2</ele>
        <time>2025-03-16T09:52:11Z</time>
      </trkpt>
      <trkpt lat="43.53661" lon="5.6386">
        <ele>816.3</ele>
        <time>2025-03-16T09:52:12Z</time>
      </trkpt>
      <trkpt lat="43.53663" lon="5.63858">
        <ele>816.1</ele>
        <time>2025-03-16T09:52:17Z</time>
      </trkpt>
      <trkpt lat="43.53662" lon="5.63859">
        <ele>816.2</ele>
        <time>2025-03-16T09:52:18Z</time>
      </trkpt>
      <trkpt lat="43.53663" lon="5.63863">
        <ele>817.6</ele>
        <time>2025-03-16T09:52:29Z</time>
      </trkpt>
      <trkpt lat="43.53664" lon="5.63863">
        <ele>817.6</ele>
        <time>2025-03-16T09:52:31Z</time>
      </trkpt>
      <trkpt lat="43.53665" lon="5.63867">
        <ele>815.8</ele>
        <time>2025-03-16T09:52:44Z</time>
      </trkpt>
      <trkpt lat="43.53665" lon="5.63867">
        <ele>815.8</ele>
        <time>2025-03-16T09:52:45Z</time>
      </trkpt>
      <trkpt lat="43.53662" lon="5.63863">
        <ele>814.2</ele>
        <time>2025-03-16T09:53:06Z</time>
      </trkpt>
      <trkpt lat="43.53661" lon="5.63863">
        <ele>814.2</ele>
        <time>2025-03-16T09:53:07Z</time>
      </trkpt>
      <trkpt lat="43.5366" lon="5.6386">
        <ele>815</ele>
        <time>2025-03-16T09:53:14Z</time>
      </trkpt>
      <trkpt lat="43.5366" lon="5.63861">
        <ele>815.4</ele>
        <time>2025-03-16T09:53:16Z</time>
      </trkpt>
      <trkpt lat="43.53651" lon="5.6386">
        <ele>817.5</ele>
        <time>2025-03-16T09:53:34Z</time>
      </trkpt>
      <trkpt lat="43.53644" lon="5.6387">
        <ele>818.9</ele>
        <time>2025-03-16T09:53:45Z</time>
      </trkpt>
      <trkpt lat="43.53641" lon="5.63876">
        <ele>819.9</ele>
        <time>2025-03-16T09:54:05Z</time>
      </trkpt>
      <trkpt lat="43.53642" lon="5.63876">
        <ele>819.7</ele>
        <time>2025-03-16T09:54:06Z</time>
      </trkpt>
      <trkpt lat="43.53643" lon="5.63888">
        <ele>821.8</ele>
        <time>2025-03-16T09:54:28Z</time>
      </trkpt>
      <trkpt lat="43.53648" lon="5.63898">
        <ele>822.3</ele>
        <time>2025-03-16T09:54:48Z</time>
      </trkpt>
      <trkpt lat="43.53657" lon="5.63902">
        <ele>821.2</ele>
        <time>2025-03-16T09:55:02Z</time>
      </trkpt>
      <trkpt lat="43.5366" lon="5.63909">
        <ele>822.1</ele>
        <time>2025-03-16T09:55:11Z</time>
      </trkpt>
      <trkpt lat="43.53659" lon="5.63909">
        <ele>822.1</ele>
        <time>2025-03-16T09:55:12Z</time>
      </trkpt>
      <trkpt lat="43.53658" lon="5.63909">
        <ele>821.8</ele>
        <time>2025-03-16T09:55:14Z</time>
      </trkpt>
      <trkpt lat="43.53658" lon="5.63909">
        <ele>821.7</ele>
        <time>2025-03-16T09:55:15Z</time>
      </trkpt>
      <trkpt lat="43.53661" lon="5.63908">
        <ele>822</ele>
        <time>2025-03-16T09:55:22Z</time>
      </trkpt>
      <trkpt lat="43.53661" lon="5.63908">
        <ele>822.1</ele>
        <time>2025-03-16T09:55:23Z</time>
      </trkpt>
      <trkpt lat="43.53652" lon="5.63907">
        <ele>824.1</ele>
        <time>2025-03-16T09:55:52Z</time>
      </trkpt>
      <trkpt lat="43.53656" lon="5.63918">
        <ele>823.4</ele>
        <time>2025-03-16T09:56:20Z</time>
      </trkpt>
      <trkpt lat="43.53658" lon="5.63918">
        <ele>823.5</ele>
        <time>2025-03-16T09:56:26Z</time>
      </trkpt>
      <trkpt lat="43.53658" lon="5.63918">
        <ele>823.5</ele>
        <time>2025-03-16T09:56:29Z</time>
      </trkpt>
      <trkpt lat="43.53657" lon="5.63918">
        <ele>823.4</ele>
        <time>2025-03-16T09:56:32Z</time>
      </trkpt>
      <trkpt lat="43.53657" lon="5.63918">
        <ele>823.3</ele>
        <time>2025-03-16T09:56:41Z</time>
      </trkpt>
      <trkpt lat="43.53657" lon="5.63918">
        <ele>823.3</ele>
        <time>2025-03-16T09:56:42Z</time>
      </trkpt>
      <trkpt lat="43.53657" lon="5.63918">
        <ele>823.3</ele>
        <time>2025-03-16T09:56:43Z</time>
      </trkpt>
      <trkpt lat="43.53657" lon="5.63918">
        <ele>823.3</ele>
        <time>2025-03-16T09:56:44Z</time>
      </trkpt>
      <trkpt lat="43.53657" lon="5.63919">
        <ele>823.8</ele>
        <time>2025-03-16T09:56:48Z</time>
      </trkpt>
      <trkpt lat="43.53659" lon="5.6392">
        <ele>823.4</ele>
        <time>2025-03-16T09:56:56Z</time>
      </trkpt>
      <trkpt lat="43.53659" lon="5.6392">
        <ele>823.5</ele>
        <time>2025-03-16T09:56:57Z</time>
      </trkpt>
      <trkpt lat="43.53659" lon="5.6392">
        <ele>823.9</ele>
        <time>2025-03-16T09:57:02Z</time>
      </trkpt>
      <trkpt lat="43.53658" lon="5.63921">
        <ele>823.8</ele>
        <time>2025-03-16T09:57:03Z</time>
      </trkpt>
      <trkpt lat="43.53658" lon="5.63921">
        <ele>823.8</ele>
        <time>2025-03-16T09:57:06Z</time>
      </trkpt>
      <trkpt lat="43.53658" lon="5.63921">
        <ele>824</ele>
        <time>2025-03-16T09:57:09Z</time>
      </trkpt>
      <trkpt lat="43.53657" lon="5.63922">
        <ele>825.2</ele>
        <time>2025-03-16T09:57:26Z</time>
      </trkpt>
      <trkpt lat="43.53657" lon="5.63922">
        <ele>825.1</ele>
        <time>2025-03-16T09:57:28Z</time>
      </trkpt>
      <trkpt lat="43.53656" lon="5.63917">
        <ele>827.8</ele>
        <time>2025-03-16T09:57:40Z</time>
      </trkpt>
      <trkpt lat="43.53656" lon="5.63917">
        <ele>828.2</ele>
        <time>2025-03-16T09:57:41Z</time>
      </trkpt>
      <trkpt lat="43.53656" lon="5.63917">
        <ele>828.5</ele>
        <time>2025-03-16T09:57:43Z</time>
      </trkpt>
      <trkpt lat="43.53657" lon="5.63917">
        <ele>828.6</ele>
        <time>2025-03-16T09:57:44Z</time>
      </trkpt>
      <trkpt lat="43.53657" lon="5.63918">
        <ele>829.1</ele>
        <time>2025-03-16T09:57:49Z</time>
      </trkpt>
      <trkpt lat="43.53657" lon="5.63919">
        <ele>829.2</ele>
        <time>2025-03-16T09:57:50Z</time>
      </trkpt>
      <trkpt lat="43.53659" lon="5.63921">
        <ele>830.1</ele>
        <time>2025-03-16T09:58:04Z</time>
      </trkpt>
      <trkpt lat="43.53659" lon="5.63922">
        <ele>830</ele>
        <time>2025-03-16T09:58:05Z</time>
      </trkpt>
      <trkpt lat="43.53654" lon="5.63932">
        <ele>832.4</ele>
        <time>2025-03-16T09:58:34Z</time>
      </trkpt>
      <trkpt lat="43.53662" lon="5.63939">
        <ele>835.5</ele>
        <time>2025-03-16T09:59:02Z</time>
      </trkpt>
      <trkpt lat="43.53661" lon="5.63938">
        <ele>836.1</ele>
        <time>2025-03-16T09:59:11Z</time>
      </trkpt>
      <trkpt lat="43.53662" lon="5.63939">
        <ele>836.2</ele>
        <time>2025-03-16T09:59:12Z</time>
      </trkpt>
      <trkpt lat="43.53664" lon="5.63945">
        <ele>836.9</ele>
        <time>2025-03-16T09:59:20Z</time>
      </trkpt>
      <trkpt lat="43.53664" lon="5.63944">
        <ele>837</ele>
        <time>2025-03-16T09:59:21Z</time>
      </trkpt>
      <trkpt lat="43.53661" lon="5.63938">
        <ele>841.4</ele>
        <time>2025-03-16T09:59:43Z</time>
      </trkpt>
      <trkpt lat="43.53661" lon="5.63939">
        <ele>841.5</ele>
        <time>2025-03-16T09:59:44Z</time>
      </trkpt>
      <trkpt lat="43.53659" lon="5.63951">
        <ele>843</ele>
        <time>2025-03-16T10:00:00Z</time>
      </trkpt>
      <trkpt lat="43.5366" lon="5.63951">
        <ele>843.1</ele>
        <time>2025-03-16T10:00:01Z</time>
      </trkpt>
      <trkpt lat="43.5366" lon="5.6395">
        <ele>843.7</ele>
        <time>2025-03-16T10:00:05Z</time>
      </trkpt>
      <trkpt lat="43.5366" lon="5.6395">
        <ele>843.9</ele>
        <time>2025-03-16T10:00:14Z</time>
      </trkpt>
      <trkpt lat="43.5366" lon="5.63949">
        <ele>844</ele>
        <time>2025-03-16T10:00:17Z</time>
      </trkpt>
      <trkpt lat="43.5366" lon="5.63949">
        <ele>844</ele>
        <time>2025-03-16T10:00:32Z</time>
      </trkpt>
      <trkpt lat="43.5366" lon="5.63949">
        <ele>844</ele>
        <time>2025-03-16T10:00:33Z</time>
      </trkpt>
      <trkpt lat="43.5366" lon="5.63949">
        <ele>843.9</ele>
        <time>2025-03-16T10:00:51Z</time>
      </trkpt>
      <trkpt lat="43.5366" lon="5.63949">
        <ele>843.9</ele>
        <time>2025-03-16T10:00:52Z</time>
      </trkpt>
      <trkpt lat="43.53661" lon="5.63949">
        <ele>843.8</ele>
        <time>2025-03-16T10:00:54Z</time>
      </trkpt>
      <trkpt lat="43.53661" lon="5.63949">
        <ele>843.8</ele>
        <time>2025-03-16T10:00:55Z</time>
      </trkpt>
      <trkpt lat="43.53661" lon="5.63949">
        <ele>843.8</ele>
        <time>2025-03-16T10:00:57Z</time>
      </trkpt>
      <trkpt lat="43.53661" lon="5.63949">
        <ele>843.8</ele>
        <time>2025-03-16T10:00:58Z</time>
      </trkpt>
      <trkpt lat="43.53661" lon="5.63949">
        <ele>844.1</ele>
        <time>2025-03-16T10:01:08Z</time>
      </trkpt>
      <trkpt lat="43.53661" lon="5.63949">
        <ele>844.3</ele>
        <time>2025-03-16T10:01:11Z</time>
      </trkpt>
      <trkpt lat="43.53661" lon="5.63949">
        <ele>844.4</ele>
        <time>2025-03-16T10:01:12Z</time>
      </trkpt>
      <trkpt lat="43.53661" lon="5.63949">
        <ele>844.5</ele>
        <time>2025-03-16T10:01:13Z</time>
      </trkpt>
      <trkpt lat="43.53662" lon="5.63949">
        <ele>844.5</ele>
        <time>2025-03-16T10:01:14Z</time>
      </trkpt>
      <trkpt lat="43.53662" lon="5.63949">
        <ele>844.5</ele>
        <time>2025-03-16T10:01:15Z</time>
      </trkpt>
      <trkpt lat="43.53662" lon="5.63949">
        <ele>844.4</ele>
        <time>2025-03-16T10:01:18Z</time>
      </trkpt>
      <trkpt lat="43.53665" lon="5.63947">
        <ele>843.8</ele>
        <time>2025-03-16T10:01:28Z</time>
      </trkpt>
      <trkpt lat="43.53665" lon="5.63947">
        <ele>844</ele>
        <time>2025-03-16T10:01:29Z</time>
      </trkpt>
      <trkpt lat="43.53665" lon="5.63947">
        <ele>844</ele>
        <time>2025-03-16T10:01:30Z</time>
      </trkpt>
      <trkpt lat="43.53666" lon="5.63947">
        <ele>844</ele>
        <time>2025-03-16T10:01:34Z</time>
      </trkpt>
      <trkpt lat="43.53666" lon="5.63947">
        <ele>844</ele>
        <time>2025-03-16T10:01:35Z</time>
      </trkpt>
      <trkpt lat="43.53666" lon="5.63947">
        <ele>844.2</ele>
        <time>2025-03-16T10:01:45Z</time>
      </trkpt>
      <trkpt lat="43.5366" lon="5.63957">
        <ele>845.2</ele>
        <time>2025-03-16T10:02:09Z</time>
      </trkpt>
      <trkpt lat="43.53663" lon="5.63966">
        <ele>846.4</ele>
        <time>2025-03-16T10:02:24Z</time>
      </trkpt>
      <trkpt lat="43.53663" lon="5.63966">
        <ele>846.4</ele>
        <time>2025-03-16T10:02:25Z</time>
      </trkpt>
      <trkpt lat="43.53663" lon="5.63967">
        <ele>846.6</ele>
        <time>2025-03-16T10:02:29Z</time>
      </trkpt>
      <trkpt lat="43.53663" lon="5.63967">
        <ele>846.8</ele>
        <time>2025-03-16T10:02:30Z</time>
      </trkpt>
      <trkpt lat="43.53661" lon="5.63971">
        <ele>847.8</ele>
        <time>2025-03-16T10:02:40Z</time>
      </trkpt>
      <trkpt lat="43.53661" lon="5.63972">
        <ele>847.8</ele>
        <time>2025-03-16T10:02:41Z</time>
      </trkpt>
      <trkpt lat="43.5366" lon="5.63973">
        <ele>848</ele>
        <time>2025-03-16T10:02:47Z</time>
      </trkpt>
      <trkpt lat="43.5366" lon="5.63974">
        <ele>848</ele>
        <time>2025-03-16T10:02:48Z</time>
      </trkpt>
      <trkpt lat="43.53662" lon="5.63974">
        <ele>848.1</ele>
        <time>2025-03-16T10:02:52Z</time>
      </trkpt>
      <trkpt lat="43.53662" lon="5.63974">
        <ele>848.2</ele>
        <time>2025-03-16T10:02:53Z</time>
      </trkpt>
      <trkpt lat="43.53664" lon="5.63976">
        <ele>849.3</ele>
        <time>2025-03-16T10:03:03Z</time>
      </trkpt>
      <trkpt lat="43.53664" lon="5.63975">
        <ele>849.3</ele>
        <time>2025-03-16T10:03:04Z</time>
      </trkpt>
      <trkpt lat="43.53666" lon="5.63986">
        <ele>851</ele>
        <time>2025-03-16T10:03:35Z</time>
      </trkpt>
      <trkpt lat="43.53666" lon="5.63987">
        <ele>851.1</ele>
        <time>2025-03-16T10:03:36Z</time>
      </trkpt>
      <trkpt lat="43.53672" lon="5.63986">
        <ele>853.5</ele>
        <time>2025-03-16T10:03:55Z</time>
      </trkpt>
      <trkpt lat="43.53672" lon="5.63987">
        <ele>853.7</ele>
        <time>2025-03-16T10:03:56Z</time>
      </trkpt>
      <trkpt lat="43.53675" lon="5.63984">
        <ele>855.2</ele>
        <time>2025-03-16T10:04:05Z</time>
      </trkpt>
      <trkpt lat="43.53674" lon="5.63984">
        <ele>855.3</ele>
        <time>2025-03-16T10:04:06Z</time>
      </trkpt>
      <trkpt lat="43.53673" lon="5.63997">
        <ele>856.6</ele>
        <time>2025-03-16T10:04:25Z</time>
      </trkpt>
      <trkpt lat="43.53665" lon="5.63999">
        <ele>857.8</ele>
        <time>2025-03-16T10:04:35Z</time>
      </trkpt>
      <trkpt lat="43.53667" lon="5.64">
        <ele>858</ele>
        <time>2025-03-16T10:04:36Z</time>
      </trkpt>
      <trkpt lat="43.53671" lon="5.64007">
        <ele>860.2</ele>
        <time>2025-03-16T10:04:49Z</time>
      </trkpt>
      <trkpt lat="43.53671" lon="5.64007">
        <ele>860.4</ele>
        <time>2025-03-16T10:04:50Z</time>
      </trkpt>
      <trkpt lat="43.53676" lon="5.64016">
        <ele>864.3</ele>
        <time>2025-03-16T10:05:25Z</time>
      </trkpt>
      <trkpt lat="43.53676" lon="5.64016">
        <ele>864.4</ele>
        <time>2025-03-16T10:05:26Z</time>
      </trkpt>
      <trkpt lat="43.53676" lon="5.64016">
        <ele>864.5</ele>
        <time>2025-03-16T10:05:28Z</time>
      </trkpt>
      <trkpt lat="43.53676" lon="5.64017">
        <ele>864.6</ele>
        <time>2025-03-16T10:05:29Z</time>
      </trkpt>
      <trkpt lat="43.53675" lon="5.64017">
        <ele>865.1</ele>
        <time>2025-03-16T10:05:32Z</time>
      </trkpt>
      <trkpt lat="43.53675" lon="5.64017">
        <ele>865.2</ele>
        <time>2025-03-16T10:05:33Z</time>
      </trkpt>
      <trkpt lat="43.53675" lon="5.64018">
        <ele>866.2</ele>
        <time>2025-03-16T10:05:36Z</time>
      </trkpt>
      <trkpt lat="43.53675" lon="5.64018">
        <ele>866.4</ele>
        <time>2025-03-16T10:05:37Z</time>
      </trkpt>
      <trkpt lat="43.53676" lon="5.64017">
        <ele>869</ele>
        <time>2025-03-16T10:05:46Z</time>
      </trkpt>
      <trkpt lat="43.53675" lon="5.64018">
        <ele>869.2</ele>
        <time>2025-03-16T10:05:47Z</time>
      </trkpt>
      <trkpt lat="43.53675" lon="5.64023">
        <ele>871.1</ele>
        <time>2025-03-16T10:06:01Z</time>
      </trkpt>
      <trkpt lat="43.53676" lon="5.64023">
        <ele>871.2</ele>
        <time>2025-03-16T10:06:02Z</time>
      </trkpt>
      <trkpt lat="43.53673" lon="5.64035">
        <ele>872.4</ele>
        <time>2025-03-16T10:06:25Z</time>
      </trkpt>
      <trkpt lat="43.53672" lon="5.64048">
        <ele>874.3</ele>
        <time>2025-03-16T10:06:38Z</time>
      </trkpt>
      <trkpt lat="43.5368" lon="5.64053">
        <ele>880</ele>
        <time>2025-03-16T10:07:03Z</time>
      </trkpt>
      <trkpt lat="43.53682" lon="5.64053">
        <ele>880.6</ele>
        <time>2025-03-16T10:07:07Z</time>
      </trkpt>
      <trkpt lat="43.53682" lon="5.64054">
        <ele>881</ele>
        <time>2025-03-16T10:07:08Z</time>
      </trkpt>
      <trkpt lat="43.5369" lon="5.64061">
        <ele>883.6</ele>
        <time>2025-03-16T10:07:30Z</time>
      </trkpt>
      <trkpt lat="43.5369" lon="5.64056">
        <ele>890.3</ele>
        <time>2025-03-16T10:07:46Z</time>
      </trkpt>
      <trkpt lat="43.53689" lon="5.64056">
        <ele>891.1</ele>
        <time>2025-03-16T10:07:48Z</time>
      </trkpt>
      <trkpt lat="43.53693" lon="5.64059">
        <ele>892.6</ele>
        <time>2025-03-16T10:08:01Z</time>
      </trkpt>
      <trkpt lat="43.53693" lon="5.64059">
        <ele>892.5</ele>
        <time>2025-03-16T10:08:02Z</time>
      </trkpt>
      <trkpt lat="43.53702" lon="5.64062">
        <ele>895.7</ele>
        <time>2025-03-16T10:08:28Z</time>
      </trkpt>
      <trkpt lat="43.53706" lon="5.64065">
        <ele>897.8</ele>
        <time>2025-03-16T10:08:41Z</time>
      </trkpt>
      <trkpt lat="43.53706" lon="5.64065">
        <ele>898</ele>
        <time>2025-03-16T10:08:42Z</time>
      </trkpt>
      <trkpt lat="43.53707" lon="5.64055">
        <ele>902</ele>
        <time>2025-03-16T10:09:21Z</time>
      </trkpt>
      <trkpt lat="43.53707" lon="5.64055">
        <ele>901.9</ele>
        <time>2025-03-16T10:09:22Z</time>
      </trkpt>
      <trkpt lat="43.53709" lon="5.64056">
        <ele>903.3</ele>
        <time>2025-03-16T10:09:31Z</time>
      </trkpt>
      <trkpt lat="43.53709" lon="5.64055">
        <ele>903.3</ele>
        <time>2025-03-16T10:09:32Z</time>
      </trkpt>
      <trkpt lat="43.53709" lon="5.64056">
        <ele>903.2</ele>
        <time>2025-03-16T10:09:35Z</time>
      </trkpt>
      <trkpt lat="43.53708" lon="5.64057">
        <ele>903.3</ele>
        <time>2025-03-16T10:09:37Z</time>
      </trkpt>
      <trkpt lat="43.53708" lon="5.64057">
        <ele>903.2</ele>
        <time>2025-03-16T10:09:38Z</time>
      </trkpt>
      <trkpt lat="43.53708" lon="5.64057">
        <ele>903.3</ele>
        <time>2025-03-16T10:09:39Z</time>
      </trkpt>
      <trkpt lat="43.53708" lon="5.64057">
        <ele>903.3</ele>
        <time>2025-03-16T10:09:40Z</time>
      </trkpt>
      <trkpt lat="43.53708" lon="5.64057">
        <ele>903.3</ele>
        <time>2025-03-16T10:09:42Z</time>
      </trkpt>
      <trkpt lat="43.53708" lon="5.64057">
        <ele>903.3</ele>
        <time>2025-03-16T10:09:43Z</time>
      </trkpt>
      <trkpt lat="43.53708" lon="5.64057">
        <ele>903.5</ele>
        <time>2025-03-16T10:09:45Z</time>
      </trkpt>
      <trkpt lat="43.53709" lon="5.64059">
        <ele>905.1</ele>
        <time>2025-03-16T10:09:55Z</time>
      </trkpt>
      <trkpt lat="43.53708" lon="5.64058">
        <ele>905.9</ele>
        <time>2025-03-16T10:09:59Z</time>
      </trkpt>
      <trkpt lat="43.53711" lon="5.64061">
        <ele>906.8</ele>
        <time>2025-03-16T10:10:06Z</time>
      </trkpt>
      <trkpt lat="43.53711" lon="5.64061">
        <ele>906.8</ele>
        <time>2025-03-16T10:10:07Z</time>
      </trkpt>
      <trkpt lat="43.5372" lon="5.64062">
        <ele>908.8</ele>
        <time>2025-03-16T10:10:25Z</time>
      </trkpt>
      <trkpt lat="43.53729" lon="5.64069">
        <ele>909.2</ele>
        <time>2025-03-16T10:10:43Z</time>
      </trkpt>
      <trkpt lat="43.53729" lon="5.64055">
        <ele>912.1</ele>
        <time>2025-03-16T10:11:29Z</time>
      </trkpt>
      <trkpt lat="43.53737" lon="5.64063">
        <ele>913.1</ele>
        <time>2025-03-16T10:11:39Z</time>
      </trkpt>
      <trkpt lat="43.53742" lon="5.64065">
        <ele>915.4</ele>
        <time>2025-03-16T10:11:51Z</time>
      </trkpt>
      <trkpt lat="43.53742" lon="5.64065">
        <ele>915.8</ele>
        <time>2025-03-16T10:11:53Z</time>
      </trkpt>
      <trkpt lat="43.53751" lon="5.64071">
        <ele>918.9</ele>
        <time>2025-03-16T10:12:15Z</time>
      </trkpt>
      <trkpt lat="43.53757" lon="5.64071">
        <ele>922.2</ele>
        <time>2025-03-16T10:12:43Z</time>
      </trkpt>
      <trkpt lat="43.53758" lon="5.64071">
        <ele>922.3</ele>
        <time>2025-03-16T10:12:44Z</time>
      </trkpt>
      <trkpt lat="43.53767" lon="5.64071">
        <ele>924.2</ele>
        <time>2025-03-16T10:13:04Z</time>
      </trkpt>
      <trkpt lat="43.53773" lon="5.6408">
        <ele>925</ele>
        <time>2025-03-16T10:13:14Z</time>
      </trkpt>
      <trkpt lat="43.53778" lon="5.64088">
        <ele>927.3</ele>
        <time>2025-03-16T10:13:30Z</time>
      </trkpt>
      <trkpt lat="43.53778" lon="5.64089">
        <ele>927.5</ele>
        <time>2025-03-16T10:13:31Z</time>
      </trkpt>
      <trkpt lat="43.53781" lon="5.64096">
        <ele>926.6</ele>
        <time>2025-03-16T10:14:00Z</time>
      </trkpt>
      <trkpt lat="43.53782" lon="5.64096">
        <ele>926.6</ele>
        <time>2025-03-16T10:14:01Z</time>
      </trkpt>
      <trkpt lat="43.53779" lon="5.64109">
        <ele>928.1</ele>
        <time>2025-03-16T10:14:19Z</time>
      </trkpt>
      <trkpt lat="43.53784" lon="5.6412">
        <ele>928.1</ele>
        <time>2025-03-16T10:14:27Z</time>
      </trkpt>
      <trkpt lat="43.53785" lon="5.6412">
        <ele>927.6</ele>
        <time>2025-03-16T10:14:29Z</time>
      </trkpt>
      <trkpt lat="43.53785" lon="5.6412">
        <ele>927.4</ele>
        <time>2025-03-16T10:14:30Z</time>
      </trkpt>
      <trkpt lat="43.53789" lon="5.64132">
        <ele>926.6</ele>
        <time>2025-03-16T10:14:44Z</time>
      </trkpt>
      <trkpt lat="43.53796" lon="5.6414">
        <ele>925.1</ele>
        <time>2025-03-16T10:15:08Z</time>
      </trkpt>
      <trkpt lat="43.53802" lon="5.64132">
        <ele>925.9</ele>
        <time>2025-03-16T10:15:30Z</time>
      </trkpt>
      <trkpt lat="43.53803" lon="5.64131">
        <ele>926.4</ele>
        <time>2025-03-16T10:15:32Z</time>
      </trkpt>
      <trkpt lat="43.53803" lon="5.64131">
        <ele>926.7</ele>
        <time>2025-03-16T10:15:33Z</time>
      </trkpt>
      <trkpt lat="43.53804" lon="5.6414">
        <ele>926</ele>
        <time>2025-03-16T10:15:47Z</time>
      </trkpt>
      <trkpt lat="43.53804" lon="5.64139">
        <ele>926.1</ele>
        <time>2025-03-16T10:15:48Z</time>
      </trkpt>
      <trkpt lat="43.53804" lon="5.64139">
        <ele>926.2</ele>
        <time>2025-03-16T10:15:49Z</time>
      </trkpt>
      <trkpt lat="43.53803" lon="5.64139">
        <ele>926.6</ele>
        <time>2025-03-16T10:15:51Z</time>
      </trkpt>
      <trkpt lat="43.53808" lon="5.6415">
        <ele>926</ele>
        <time>2025-03-16T10:16:12Z</time>
      </trkpt>
      <trkpt lat="43.53809" lon="5.64158">
        <ele>926.2</ele>
        <time>2025-03-16T10:16:21Z</time>
      </trkpt>
      <trkpt lat="43.53809" lon="5.64158">
        <ele>926.2</ele>
        <time>2025-03-16T10:16:22Z</time>
      </trkpt>
      <trkpt lat="43.53811" lon="5.64171">
        <ele>926.1</ele>
        <time>2025-03-16T10:16:38Z</time>
      </trkpt>
      <trkpt lat="43.53815" lon="5.64182">
        <ele>929.6</ele>
        <time>2025-03-16T10:17:00Z</time>
      </trkpt>
      <trkpt lat="43.53815" lon="5.6419">
        <ele>931.9</ele>
        <time>2025-03-16T10:17:14Z</time>
      </trkpt>
      <trkpt lat="43.53814" lon="5.6419">
        <ele>932.3</ele>
        <time>2025-03-16T10:17:15Z</time>
      </trkpt>
      <trkpt lat="43.53814" lon="5.6419">
        <ele>932.8</ele>
        <time>2025-03-16T10:17:16Z</time>
      </trkpt>
      <trkpt lat="43.53814" lon="5.6419">
        <ele>933.2</ele>
        <time>2025-03-16T10:17:17Z</time>
      </trkpt>
      <trkpt lat="43.53817" lon="5.64192">
        <ele>935</ele>
        <time>2025-03-16T10:17:24Z</time>
      </trkpt>
      <trkpt lat="43.53818" lon="5.64192">
        <ele>935.2</ele>
        <time>2025-03-16T10:17:25Z</time>
      </trkpt>
      <trkpt lat="43.53822" lon="5.64203">
        <ele>938.4</ele>
        <time>2025-03-16T10:17:46Z</time>
      </trkpt>
      <trkpt lat="43.53829" lon="5.64209">
        <ele>941.7</ele>
        <time>2025-03-16T10:18:04Z</time>
      </trkpt>
      <trkpt lat="43.5383" lon="5.6421">
        <ele>942</ele>
        <time>2025-03-16T10:18:05Z</time>
      </trkpt>
      <trkpt lat="43.53831" lon="5.64208">
        <ele>943.3</ele>
        <time>2025-03-16T10:18:09Z</time>
      </trkpt>
      <trkpt lat="43.53831" lon="5.64208">
        <ele>943.5</ele>
        <time>2025-03-16T10:18:10Z</time>
      </trkpt>
      <trkpt lat="43.53833" lon="5.64209">
        <ele>944.1</ele>
        <time>2025-03-16T10:18:13Z</time>
      </trkpt>
      <trkpt lat="43.53833" lon="5.64209">
        <ele>944</ele>
        <time>2025-03-16T10:18:14Z</time>
      </trkpt>
      <trkpt lat="43.53838" lon="5.64221">
        <ele>945.1</ele>
        <time>2025-03-16T10:18:33Z</time>
      </trkpt>
      <trkpt lat="43.53843" lon="5.64231">
        <ele>946.9</ele>
        <time>2025-03-16T10:18:52Z</time>
      </trkpt>
      <trkpt lat="43.53852" lon="5.64228">
        <ele>949.1</ele>
        <time>2025-03-16T10:19:10Z</time>
      </trkpt>
      <trkpt lat="43.53851" lon="5.64228">
        <ele>949.6</ele>
        <time>2025-03-16T10:19:14Z</time>
      </trkpt>
      <trkpt lat="43.53852" lon="5.64229">
        <ele>949.8</ele>
        <time>2025-03-16T10:19:15Z</time>
      </trkpt>
      <trkpt lat="43.53852" lon="5.64239">
        <ele>951.6</ele>
        <time>2025-03-16T10:19:44Z</time>
      </trkpt>
      <trkpt lat="43.53852" lon="5.64239">
        <ele>951.6</ele>
        <time>2025-03-16T10:19:46Z</time>
      </trkpt>
      <trkpt lat="43.53852" lon="5.64251">
        <ele>953.9</ele>
        <time>2025-03-16T10:20:06Z</time>
      </trkpt>
      <trkpt lat="43.53858" lon="5.64261">
        <ele>955.3</ele>
        <time>2025-03-16T10:20:21Z</time>
      </trkpt>
      <trkpt lat="43.53861" lon="5.64273">
        <ele>957.2</ele>
        <time>2025-03-16T10:20:44Z</time>
      </trkpt>
      <trkpt lat="43.53864" lon="5.64285">
        <ele>962</ele>
        <time>2025-03-16T10:21:11Z</time>
      </trkpt>
      <trkpt lat="43.53864" lon="5.64285">
        <ele>962.1</ele>
        <time>2025-03-16T10:21:12Z</time>
      </trkpt>
      <trkpt lat="43.53865" lon="5.64285">
        <ele>962.3</ele>
        <time>2025-03-16T10:21:13Z</time>
      </trkpt>
      <trkpt lat="43.53873" lon="5.64292">
        <ele>963.6</ele>
        <time>2025-03-16T10:21:29Z</time>
      </trkpt>
      <trkpt lat="43.53876" lon="5.64296">
        <ele>963.8</ele>
        <time>2025-03-16T10:21:42Z</time>
      </trkpt>
      <trkpt lat="43.53877" lon="5.64296">
        <ele>963.9</ele>
        <time>2025-03-16T10:21:43Z</time>
      </trkpt>
      <trkpt lat="43.53881" lon="5.64307">
        <ele>965.9</ele>
        <time>2025-03-16T10:21:59Z</time>
      </trkpt>
      <trkpt lat="43.53889" lon="5.64315">
        <ele>968.2</ele>
        <time>2025-03-16T10:22:16Z</time>
      </trkpt>
      <trkpt lat="43.5389" lon="5.64328">
        <ele>968.7</ele>
        <time>2025-03-16T10:22:38Z</time>
      </trkpt>
      <trkpt lat="43.53896" lon="5.64339">
        <ele>970</ele>
        <time>2025-03-16T10:22:50Z</time>
      </trkpt>
      <trkpt lat="43.53901" lon="5.64349">
        <ele>972.2</ele>
        <time>2025-03-16T10:23:05Z</time>
      </trkpt>
      <trkpt lat="43.53901" lon="5.64362">
        <ele>971.9</ele>
        <time>2025-03-16T10:23:26Z</time>
      </trkpt>
      <trkpt lat="43.53908" lon="5.64367">
        <ele>974.7</ele>
        <time>2025-03-16T10:24:09Z</time>
      </trkpt>
      <trkpt lat="43.53909" lon="5.64368">
        <ele>974.7</ele>
        <time>2025-03-16T10:24:10Z</time>
      </trkpt>
      <trkpt lat="43.53914" lon="5.64376">
        <ele>979.2</ele>
        <time>2025-03-16T10:24:43Z</time>
      </trkpt>
      <trkpt lat="43.53914" lon="5.64376">
        <ele>979.2</ele>
        <time>2025-03-16T10:24:46Z</time>
      </trkpt>
      <trkpt lat="43.53915" lon="5.64375">
        <ele>979.7</ele>
        <time>2025-03-16T10:24:54Z</time>
      </trkpt>
      <trkpt lat="43.53915" lon="5.64376">
        <ele>980.1</ele>
        <time>2025-03-16T10:24:57Z</time>
      </trkpt>
      <trkpt lat="43.53921" lon="5.64386">
        <ele>982.2</ele>
        <time>2025-03-16T10:25:17Z</time>
      </trkpt>
      <trkpt lat="43.53924" lon="5.64397">
        <ele>983.7</ele>
        <time>2025-03-16T10:25:35Z</time>
      </trkpt>
      <trkpt lat="43.53924" lon="5.64397">
        <ele>983.7</ele>
        <time>2025-03-16T10:25:36Z</time>
      </trkpt>
      <trkpt lat="43.53922" lon="5.64403">
        <ele>984.2</ele>
        <time>2025-03-16T10:25:48Z</time>
      </trkpt>
      <trkpt lat="43.53922" lon="5.64403">
        <ele>984.3</ele>
        <time>2025-03-16T10:25:49Z</time>
      </trkpt>
      <trkpt lat="43.53922" lon="5.64403">
        <ele>984.3</ele>
        <time>2025-03-16T10:25:50Z</time>
      </trkpt>
      <trkpt lat="43.53922" lon="5.64403">
        <ele>984.4</ele>
        <time>2025-03-16T10:25:51Z</time>
      </trkpt>
      <trkpt lat="43.5392" lon="5.64416">
        <ele>987.8</ele>
        <time>2025-03-16T10:26:12Z</time>
      </trkpt>
      <trkpt lat="43.53918" lon="5.64429">
        <ele>988.8</ele>
        <time>2025-03-16T10:26:28Z</time>
      </trkpt>
      <trkpt lat="43.53916" lon="5.64442">
        <ele>991.4</ele>
        <time>2025-03-16T10:26:45Z</time>
      </trkpt>
      <trkpt lat="43.53916" lon="5.64448">
        <ele>991.3</ele>
        <time>2025-03-16T10:26:51Z</time>
      </trkpt>
      <trkpt lat="43.53916" lon="5.64448">
        <ele>991.3</ele>
        <time>2025-03-16T10:26:52Z</time>
      </trkpt>
      <trkpt lat="43.53916" lon="5.64453">
        <ele>993.7</ele>
        <time>2025-03-16T10:27:02Z</time>
      </trkpt>
      <trkpt lat="43.53916" lon="5.64454">
        <ele>993.8</ele>
        <time>2025-03-16T10:27:03Z</time>
      </trkpt>
      <trkpt lat="43.53914" lon="5.64466">
        <ele>993.1</ele>
        <time>2025-03-16T10:27:23Z</time>
      </trkpt>
      <trkpt lat="43.53912" lon="5.64478">
        <ele>993.1</ele>
        <time>2025-03-16T10:27:38Z</time>
      </trkpt>
      <trkpt lat="43.5391" lon="5.64486">
        <ele>993</ele>
        <time>2025-03-16T10:27:48Z</time>
      </trkpt>
      <trkpt lat="43.53911" lon="5.64487">
        <ele>992.8</ele>
        <time>2025-03-16T10:27:49Z</time>
      </trkpt>
      <trkpt lat="43.53909" lon="5.64499">
        <ele>994.2</ele>
        <time>2025-03-16T10:27:59Z</time>
      </trkpt>
      <trkpt lat="43.53908" lon="5.64512">
        <ele>995.7</ele>
        <time>2025-03-16T10:28:14Z</time>
      </trkpt>
      <trkpt lat="43.53908" lon="5.64515">
        <ele>996.1</ele>
        <time>2025-03-16T10:28:19Z</time>
      </trkpt>
      <trkpt lat="43.53908" lon="5.64515">
        <ele>996.2</ele>
        <time>2025-03-16T10:28:20Z</time>
      </trkpt>
      <trkpt lat="43.53907" lon="5.64517">
        <ele>996.4</ele>
        <time>2025-03-16T10:28:23Z</time>
      </trkpt>
      <trkpt lat="43.53907" lon="5.64517">
        <ele>996.3</ele>
        <time>2025-03-16T10:28:24Z</time>
      </trkpt>
      <trkpt lat="43.53907" lon="5.64517">
        <ele>996.2</ele>
        <time>2025-03-16T10:28:25Z</time>
      </trkpt>
      <trkpt lat="43.53907" lon="5.64517">
        <ele>996.1</ele>
        <time>2025-03-16T10:28:26Z</time>
      </trkpt>
      <trkpt lat="43.53907" lon="5.64517">
        <ele>995.9</ele>
        <time>2025-03-16T10:28:27Z</time>
      </trkpt>
      <trkpt lat="43.53907" lon="5.64518">
        <ele>995.8</ele>
        <time>2025-03-16T10:28:28Z</time>
      </trkpt>
      <trkpt lat="43.53904" lon="5.64523">
        <ele>998.1</ele>
        <time>2025-03-16T10:28:43Z</time>
      </trkpt>
      <trkpt lat="43.53905" lon="5.64523">
        <ele>998.2</ele>
        <time>2025-03-16T10:28:44Z</time>
      </trkpt>
      <trkpt lat="43.53903" lon="5.64536">
        <ele>999</ele>
        <time>2025-03-16T10:29:08Z</time>
      </trkpt>
      <trkpt lat="43.53904" lon="5.64538">
        <ele>1000.8</ele>
        <time>2025-03-16T10:29:22Z</time>
      </trkpt>
      <trkpt lat="43.53904" lon="5.64539">
        <ele>1000.9</ele>
        <time>2025-03-16T10:29:23Z</time>
      </trkpt>
      <trkpt lat="43.53906" lon="5.64552">
        <ele>1002.4</ele>
        <time>2025-03-16T10:29:34Z</time>
      </trkpt>
      <trkpt lat="43.53909" lon="5.64564">
        <ele>1004</ele>
        <time>2025-03-16T10:29:55Z</time>
      </trkpt>
      <trkpt lat="43.53908" lon="5.64561">
        <ele>1005.3</ele>
        <time>2025-03-16T10:30:02Z</time>
      </trkpt>
      <trkpt lat="43.53908" lon="5.64562">
        <ele>1005.7</ele>
        <time>2025-03-16T10:30:06Z</time>
      </trkpt>
      <trkpt lat="43.53909" lon="5.64562">
        <ele>1006.1</ele>
        <time>2025-03-16T10:30:08Z</time>
      </trkpt>
      <trkpt lat="43.53908" lon="5.64562">
        <ele>1006.3</ele>
        <time>2025-03-16T10:30:11Z</time>
      </trkpt>
      <trkpt lat="43.53908" lon="5.64561">
        <ele>1006.7</ele>
        <time>2025-03-16T10:30:14Z</time>
      </trkpt>
      <trkpt lat="43.53909" lon="5.64561">
        <ele>1006.8</ele>
        <time>2025-03-16T10:30:26Z</time>
      </trkpt>
      <trkpt lat="43.53911" lon="5.64561">
        <ele>1006.8</ele>
        <time>2025-03-16T10:30:33Z</time>
      </trkpt>
      <trkpt lat="43.53911" lon="5.64561">
        <ele>1007.1</ele>
        <time>2025-03-16T10:30:34Z</time>
      </trkpt>
      <trkpt lat="43.5391" lon="5.6456">
        <ele>1008.1</ele>
        <time>2025-03-16T10:30:38Z</time>
      </trkpt>
      <trkpt lat="43.5391" lon="5.6456">
        <ele>1008.2</ele>
        <time>2025-03-16T10:30:41Z</time>
      </trkpt>
      <trkpt lat="43.53908" lon="5.64558">
        <ele>1009.3</ele>
        <time>2025-03-16T10:30:48Z</time>
      </trkpt>
      <trkpt lat="43.53908" lon="5.64558">
        <ele>1009.4</ele>
        <time>2025-03-16T10:30:49Z</time>
      </trkpt>
      <trkpt lat="43.53908" lon="5.64558">
        <ele>1009.4</ele>
        <time>2025-03-16T10:30:50Z</time>
      </trkpt>
      <trkpt lat="43.53908" lon="5.64558">
        <ele>1009.5</ele>
        <time>2025-03-16T10:30:52Z</time>
      </trkpt>
      <trkpt lat="43.53907" lon="5.64558">
        <ele>1009.8</ele>
        <time>2025-03-16T10:31:00Z</time>
      </trkpt>
      <trkpt lat="43.53906" lon="5.64558">
        <ele>1010.1</ele>
        <time>2025-03-16T10:31:01Z</time>
      </trkpt>
      <trkpt lat="43.53905" lon="5.64558">
        <ele>1010.8</ele>
        <time>2025-03-16T10:31:12Z</time>
      </trkpt>
      <trkpt lat="43.53905" lon="5.64559">
        <ele>1011.1</ele>
        <time>2025-03-16T10:31:15Z</time>
      </trkpt>
      <trkpt lat="43.53903" lon="5.64559">
        <ele>1012</ele>
        <time>2025-03-16T10:31:21Z</time>
      </trkpt>
      <trkpt lat="43.53903" lon="5.64559">
        <ele>1012</ele>
        <time>2025-03-16T10:31:22Z</time>
      </trkpt>
      <trkpt lat="43.53902" lon="5.64559">
        <ele>1011.9</ele>
        <time>2025-03-16T10:31:24Z</time>
      </trkpt>
      <trkpt lat="43.53903" lon="5.64559">
        <ele>1011.8</ele>
        <time>2025-03-16T10:31:25Z</time>
      </trkpt>
      <trkpt lat="43.53903" lon="5.64558">
        <ele>1011.8</ele>
        <time>2025-03-16T10:31:29Z</time>
      </trkpt>
      <trkpt lat="43.53903" lon="5.64558">
        <ele>1011.9</ele>
        <time>2025-03-16T10:31:30Z</time>
      </trkpt>
      <trkpt lat="43.53903" lon="5.64557">
        <ele>1011.6</ele>
        <time>2025-03-16T10:31:42Z</time>
      </trkpt>
      <trkpt lat="43.53903" lon="5.64557">
        <ele>1011.5</ele>
        <time>2025-03-16T10:31:45Z</time>
      </trkpt>
      <trkpt lat="43.53903" lon="5.64557">
        <ele>1011.5</ele>
        <time>2025-03-16T10:31:47Z</time>
      </trkpt>
      <trkpt lat="43.53903" lon="5.64557">
        <ele>1011.6</ele>
        <time>2025-03-16T10:31:49Z</time>
      </trkpt>
      <trkpt lat="43.53908" lon="5.64555">
        <ele>1011</ele>
        <time>2025-03-16T10:31:59Z</time>
      </trkpt>
      <trkpt lat="43.53908" lon="5.64555">
        <ele>1011</ele>
        <time>2025-03-16T10:32:10Z</time>
      </trkpt>
      <trkpt lat="43.53907" lon="5.64555">
        <ele>1011.4</ele>
        <time>2025-03-16T10:32:25Z</time>
      </trkpt>
      <trkpt lat="43.53907" lon="5.64556">
        <ele>1011.2</ele>
        <time>2025-03-16T10:32:36Z</time>
      </trkpt>
      <trkpt lat="43.53907" lon="5.64557">
        <ele>1010.8</ele>
        <time>2025-03-16T10:32:44Z</time>
      </trkpt>
      <trkpt lat="43.53907" lon="5.64557">
        <ele>1010.8</ele>
        <time>2025-03-16T10:32:45Z</time>
      </trkpt>
      <trkpt lat="43.53908" lon="5.64569">
        <ele>1010.5</ele>
        <time>2025-03-16T10:33:04Z</time>
      </trkpt>
      <trkpt lat="43.53908" lon="5.64569">
        <ele>1010.5</ele>
        <time>2025-03-16T10:33:07Z</time>
      </trkpt>
      <trkpt lat="43.53908" lon="5.64569">
        <ele>1010.4</ele>
        <time>2025-03-16T10:33:10Z</time>
      </trkpt>
      <trkpt lat="43.53908" lon="5.64569">
        <ele>1010.4</ele>
        <time>2025-03-16T10:33:11Z</time>
      </trkpt>
      <trkpt lat="43.53908" lon="5.64569">
        <ele>1010.4</ele>
        <time>2025-03-16T10:33:12Z</time>
      </trkpt>
      <trkpt lat="43.53908" lon="5.64569">
        <ele>1010.4</ele>
        <time>2025-03-16T10:33:13Z</time>
      </trkpt>
      <trkpt lat="43.53907" lon="5.6457">
        <ele>1010.4</ele>
        <time>2025-03-16T10:33:16Z</time>
      </trkpt>
      <trkpt lat="43.53907" lon="5.64572">
        <ele>1010</ele>
        <time>2025-03-16T10:33:20Z</time>
      </trkpt>
      <trkpt lat="43.53907" lon="5.64572">
        <ele>1010</ele>
        <time>2025-03-16T10:33:34Z</time>
      </trkpt>
      <trkpt lat="43.53907" lon="5.64572">
        <ele>1010.1</ele>
        <time>2025-03-16T10:33:35Z</time>
      </trkpt>
      <trkpt lat="43.53908" lon="5.64571">
        <ele>1010.2</ele>
        <time>2025-03-16T10:33:37Z</time>
      </trkpt>
      <trkpt lat="43.53908" lon="5.64572">
        <ele>1010.2</ele>
        <time>2025-03-16T10:33:38Z</time>
      </trkpt>
      <trkpt lat="43.53908" lon="5.64571">
        <ele>1010.3</ele>
        <time>2025-03-16T10:33:39Z</time>
      </trkpt>
      <trkpt lat="43.53907" lon="5.64571">
        <ele>1010.3</ele>
        <time>2025-03-16T10:33:41Z</time>
      </trkpt>
      <trkpt lat="43.53907" lon="5.64571">
        <ele>1010.4</ele>
        <time>2025-03-16T10:33:48Z</time>
      </trkpt>
      <trkpt lat="43.53907" lon="5.64571">
        <ele>1010.6</ele>
        <time>2025-03-16T10:33:50Z</time>
      </trkpt>
      <trkpt lat="43.53908" lon="5.64572">
        <ele>1010.6</ele>
        <time>2025-03-16T10:33:51Z</time>
      </trkpt>
      <trkpt lat="43.53908" lon="5.64571">
        <ele>1010.8</ele>
        <time>2025-03-16T10:33:55Z</time>
      </trkpt>
      <trkpt lat="43.53908" lon="5.6457">
        <ele>1010.8</ele>
        <time>2025-03-16T10:34:17Z</time>
      </trkpt>
      <trkpt lat="43.53908" lon="5.6457">
        <ele>1010.8</ele>
        <time>2025-03-16T10:34:18Z</time>
      </trkpt>
      <trkpt lat="43.53908" lon="5.6457">
        <ele>1010.8</ele>
        <time>2025-03-16T10:34:23Z</time>
      </trkpt>
      <trkpt lat="43.53908" lon="5.6457">
        <ele>1010.7</ele>
        <time>2025-03-16T10:34:24Z</time>
      </trkpt>
      <trkpt lat="43.53908" lon="5.6457">
        <ele>1010.7</ele>
        <time>2025-03-16T10:34:25Z</time>
      </trkpt>
      <trkpt lat="43.53908" lon="5.64569">
        <ele>1010.8</ele>
        <time>2025-03-16T10:34:27Z</time>
      </trkpt>
      <trkpt lat="43.53907" lon="5.64569">
        <ele>1010.9</ele>
        <time>2025-03-16T10:34:42Z</time>
      </trkpt>
      <trkpt lat="43.53907" lon="5.64569">
        <ele>1010.9</ele>
        <time>2025-03-16T10:34:43Z</time>
      </trkpt>
      <trkpt lat="43.53908" lon="5.64569">
        <ele>1010.7</ele>
        <time>2025-03-16T10:35:02Z</time>
      </trkpt>
      <trkpt lat="43.53909" lon="5.6457">
        <ele>1010.6</ele>
        <time>2025-03-16T10:35:06Z</time>
      </trkpt>
      <trkpt lat="43.53909" lon="5.6457">
        <ele>1010.7</ele>
        <time>2025-03-16T10:35:14Z</time>
      </trkpt>
      <trkpt lat="43.5391" lon="5.64572">
        <ele>1011.1</ele>
        <time>2025-03-16T10:35:19Z</time>
      </trkpt>
      <trkpt lat="43.5391" lon="5.64572">
        <ele>1011.1</ele>
        <time>2025-03-16T10:35:21Z</time>
      </trkpt>
      <trkpt lat="43.53908" lon="5.64571">
        <ele>1011.1</ele>
        <time>2025-03-16T10:35:32Z</time>
      </trkpt>
      <trkpt lat="43.53908" lon="5.64572">
        <ele>1011</ele>
        <time>2025-03-16T10:36:04Z</time>
      </trkpt>
      <trkpt lat="43.53908" lon="5.64572">
        <ele>1011</ele>
        <time>2025-03-16T10:36:05Z</time>
      </trkpt>
      <trkpt lat="43.53908" lon="5.64572">
        <ele>1010.9</ele>
        <time>2025-03-16T10:36:07Z</time>
      </trkpt>
      <trkpt lat="43.53909" lon="5.64572">
        <ele>1010.7</ele>
        <time>2025-03-16T10:36:14Z</time>
      </trkpt>
      <trkpt lat="43.53909" lon="5.64572">
        <ele>1010.7</ele>
        <time>2025-03-16T10:36:15Z</time>
      </trkpt>
      <trkpt lat="43.53909" lon="5.64572">
        <ele>1010.8</ele>
        <time>2025-03-16T10:36:16Z</time>
      </trkpt>
      <trkpt lat="43.53909" lon="5.64572">
        <ele>1010.8</ele>
        <time>2025-03-16T10:36:17Z</time>
      </trkpt>
      <trkpt lat="43.53908" lon="5.6457">
        <ele>1011.9</ele>
        <time>2025-03-16T10:36:26Z</time>
      </trkpt>
      <trkpt lat="43.53908" lon="5.6457">
        <ele>1012</ele>
        <time>2025-03-16T10:36:32Z</time>
      </trkpt>
      <trkpt lat="43.53909" lon="5.64571">
        <ele>1012.2</ele>
        <time>2025-03-16T10:36:36Z</time>
      </trkpt>
      <trkpt lat="43.53911" lon="5.64572">
        <ele>1012</ele>
        <time>2025-03-16T10:36:37Z</time>
      </trkpt>
      <trkpt lat="43.53911" lon="5.64575">
        <ele>1011.9</ele>
        <time>2025-03-16T10:36:45Z</time>
      </trkpt>
      <trkpt lat="43.53911" lon="5.64575">
        <ele>1011.9</ele>
        <time>2025-03-16T10:36:47Z</time>
      </trkpt>
      <trkpt lat="43.5391" lon="5.64575">
        <ele>1011.8</ele>
        <time>2025-03-16T10:36:50Z</time>
      </trkpt>
      <trkpt lat="43.5391" lon="5.64575">
        <ele>1011.9</ele>
        <time>2025-03-16T10:36:51Z</time>
      </trkpt>
      <trkpt lat="43.53907" lon="5.64579">
        <ele>1011.7</ele>
        <time>2025-03-16T10:37:03Z</time>
      </trkpt>
      <trkpt lat="43.53907" lon="5.64579">
        <ele>1011.5</ele>
        <time>2025-03-16T10:37:04Z</time>
      </trkpt>
      <trkpt lat="43.53907" lon="5.64579">
        <ele>1011.4</ele>
        <time>2025-03-16T10:37:05Z</time>
      </trkpt>
      <trkpt lat="43.53907" lon="5.64579">
        <ele>1011.4</ele>
        <time>2025-03-16T10:37:06Z</time>
      </trkpt>
      <trkpt lat="43.53907" lon="5.64579">
        <ele>1011.4</ele>
        <time>2025-03-16T10:37:08Z</time>
      </trkpt>
      <trkpt lat="43.53908" lon="5.6458">
        <ele>1011.3</ele>
        <time>2025-03-16T10:37:13Z</time>
      </trkpt>
      <trkpt lat="43.53908" lon="5.64581">
        <ele>1011.2</ele>
        <time>2025-03-16T10:37:15Z</time>
      </trkpt>
      <trkpt lat="43.53908" lon="5.64581">
        <ele>1011.3</ele>
        <time>2025-03-16T10:37:38Z</time>
      </trkpt>
      <trkpt lat="43.53908" lon="5.6458">
        <ele>1011</ele>
        <time>2025-03-16T10:37:42Z</time>
      </trkpt>
      <trkpt lat="43.53909" lon="5.6458">
        <ele>1010.8</ele>
        <time>2025-03-16T10:37:43Z</time>
      </trkpt>
      <trkpt lat="43.53909" lon="5.6458">
        <ele>1010.5</ele>
        <time>2025-03-16T10:37:56Z</time>
      </trkpt>
      <trkpt lat="43.53909" lon="5.6458">
        <ele>1010.5</ele>
        <time>2025-03-16T10:37:58Z</time>
      </trkpt>
      <trkpt lat="43.53911" lon="5.64593">
        <ele>1010.5</ele>
        <time>2025-03-16T10:38:22Z</time>
      </trkpt>
      <trkpt lat="43.53909" lon="5.64605">
        <ele>1011</ele>
        <time>2025-03-16T10:38:37Z</time>
      </trkpt>
      <trkpt lat="43.5391" lon="5.64618">
        <ele>1011.6</ele>
        <time>2025-03-16T10:38:57Z</time>
      </trkpt>
      <trkpt lat="43.53911" lon="5.64631">
        <ele>1011.7</ele>
        <time>2025-03-16T10:39:13Z</time>
      </trkpt>
      <trkpt lat="43.5391" lon="5.64638">
        <ele>1011.4</ele>
        <time>2025-03-16T10:39:24Z</time>
      </trkpt>
      <trkpt lat="43.53911" lon="5.64639">
        <ele>1011.4</ele>
        <time>2025-03-16T10:39:25Z</time>
      </trkpt>
      <trkpt lat="43.53912" lon="5.64646">
        <ele>1009.4</ele>
        <time>2025-03-16T10:39:36Z</time>
      </trkpt>
      <trkpt lat="43.53913" lon="5.64646">
        <ele>1008.5</ele>
        <time>2025-03-16T10:39:37Z</time>
      </trkpt>
      <trkpt lat="43.53918" lon="5.64657">
        <ele>1007</ele>
        <time>2025-03-16T10:39:50Z</time>
      </trkpt>
      <trkpt lat="43.53918" lon="5.6467">
        <ele>1005.9</ele>
        <time>2025-03-16T10:40:06Z</time>
      </trkpt>
      <trkpt lat="43.53915" lon="5.64682">
        <ele>1005.8</ele>
        <time>2025-03-16T10:40:24Z</time>
      </trkpt>
      <trkpt lat="43.53915" lon="5.64695">
        <ele>1004.8</ele>
        <time>2025-03-16T10:40:46Z</time>
      </trkpt>
      <trkpt lat="43.5392" lon="5.64706">
        <ele>1002.7</ele>
        <time>2025-03-16T10:41:00Z</time>
      </trkpt>
      <trkpt lat="43.53922" lon="5.64718">
        <ele>1003.4</ele>
        <time>2025-03-16T10:41:14Z</time>
      </trkpt>
      <trkpt lat="43.53925" lon="5.6473">
        <ele>1002</ele>
        <time>2025-03-16T10:41:29Z</time>
      </trkpt>
      <trkpt lat="43.53928" lon="5.64741">
        <ele>1000.6</ele>
        <time>2025-03-16T10:41:43Z</time>
      </trkpt>
      <trkpt lat="43.53932" lon="5.64753">
        <ele>1000.6</ele>
        <time>2025-03-16T10:41:57Z</time>
      </trkpt>
      <trkpt lat="43.53933" lon="5.64766">
        <ele>999.4</ele>
        <time>2025-03-16T10:42:10Z</time>
      </trkpt>
      <trkpt lat="43.53935" lon="5.64778">
        <ele>998.8</ele>
        <time>2025-03-16T10:42:27Z</time>
      </trkpt>
      <trkpt lat="43.53935" lon="5.64778">
        <ele>998.8</ele>
        <time>2025-03-16T10:42:28Z</time>
      </trkpt>
      <trkpt lat="43.5394" lon="5.6479">
        <ele>996.4</ele>
        <time>2025-03-16T10:42:43Z</time>
      </trkpt>
      <trkpt lat="43.53941" lon="5.64803">
        <ele>994.4</ele>
        <time>2025-03-16T10:43:08Z</time>
      </trkpt>
      <trkpt lat="43.53943" lon="5.64812">
        <ele>993.5</ele>
        <time>2025-03-16T10:43:21Z</time>
      </trkpt>
      <trkpt lat="43.53943" lon="5.64812">
        <ele>993.5</ele>
        <time>2025-03-16T10:43:26Z</time>
      </trkpt>
      <trkpt lat="43.53943" lon="5.64811">
        <ele>993.4</ele>
        <time>2025-03-16T10:43:28Z</time>
      </trkpt>
      <trkpt lat="43.53943" lon="5.64811">
        <ele>993.4</ele>
        <time>2025-03-16T10:43:30Z</time>
      </trkpt>
      <trkpt lat="43.53943" lon="5.64811">
        <ele>993.4</ele>
        <time>2025-03-16T10:43:31Z</time>
      </trkpt>
      <trkpt lat="43.53943" lon="5.6481">
        <ele>993.3</ele>
        <time>2025-03-16T10:43:34Z</time>
      </trkpt>
      <trkpt lat="43.53943" lon="5.64808">
        <ele>991.8</ele>
        <time>2025-03-16T10:43:46Z</time>
      </trkpt>
      <trkpt lat="43.53943" lon="5.64808">
        <ele>991.5</ele>
        <time>2025-03-16T10:43:47Z</time>
      </trkpt>
      <trkpt lat="43.53943" lon="5.64806">
        <ele>991.2</ele>
        <time>2025-03-16T10:43:57Z</time>
      </trkpt>
      <trkpt lat="43.53943" lon="5.64805">
        <ele>991.2</ele>
        <time>2025-03-16T10:43:58Z</time>
      </trkpt>
      <trkpt lat="43.53943" lon="5.64807">
        <ele>990.9</ele>
        <time>2025-03-16T10:44:15Z</time>
      </trkpt>
      <trkpt lat="43.53943" lon="5.64807">
        <ele>990.7</ele>
        <time>2025-03-16T10:44:16Z</time>
      </trkpt>
      <trkpt lat="43.53935" lon="5.64802">
        <ele>988.7</ele>
        <time>2025-03-16T10:44:35Z</time>
      </trkpt>
      <trkpt lat="43.53935" lon="5.64802">
        <ele>988.7</ele>
        <time>2025-03-16T10:44:36Z</time>
      </trkpt>
      <trkpt lat="43.53935" lon="5.64804">
        <ele>988.1</ele>
        <time>2025-03-16T10:44:40Z</time>
      </trkpt>
      <trkpt lat="43.53935" lon="5.64803">
        <ele>987.9</ele>
        <time>2025-03-16T10:44:41Z</time>
      </trkpt>
      <trkpt lat="43.53935" lon="5.64806">
        <ele>987.5</ele>
        <time>2025-03-16T10:44:48Z</time>
      </trkpt>
      <trkpt lat="43.53935" lon="5.64807">
        <ele>987.2</ele>
        <time>2025-03-16T10:44:50Z</time>
      </trkpt>
      <trkpt lat="43.53935" lon="5.64806">
        <ele>987.2</ele>
        <time>2025-03-16T10:44:58Z</time>
      </trkpt>
      <trkpt lat="43.53935" lon="5.64806">
        <ele>987.1</ele>
        <time>2025-03-16T10:45:00Z</time>
      </trkpt>
      <trkpt lat="43.53937" lon="5.64806">
        <ele>987.5</ele>
        <time>2025-03-16T10:45:04Z</time>
      </trkpt>
      <trkpt lat="43.53937" lon="5.64806">
        <ele>987.6</ele>
        <time>2025-03-16T10:45:11Z</time>
      </trkpt>
      <trkpt lat="43.53937" lon="5.64806">
        <ele>987.6</ele>
        <time>2025-03-16T10:45:12Z</time>
      </trkpt>
      <trkpt lat="43.53936" lon="5.64806">
        <ele>987.9</ele>
        <time>2025-03-16T10:45:26Z</time>
      </trkpt>
      <trkpt lat="43.53936" lon="5.64806">
        <ele>988</ele>
        <time>2025-03-16T10:45:27Z</time>
      </trkpt>
      <trkpt lat="43.53937" lon="5.64807">
        <ele>988.7</ele>
        <time>2025-03-16T10:45:38Z</time>
      </trkpt>
      <trkpt lat="43.53938" lon="5.64808">
        <ele>988.8</ele>
        <time>2025-03-16T10:45:42Z</time>
      </trkpt>
      <trkpt lat="43.53938" lon="5.64808">
        <ele>988.8</ele>
        <time>2025-03-16T10:45:43Z</time>
      </trkpt>
      <trkpt lat="43.53938" lon="5.64808">
        <ele>988.8</ele>
        <time>2025-03-16T10:45:44Z</time>
      </trkpt>
      <trkpt lat="43.53938" lon="5.64808">
        <ele>988.7</ele>
        <time>2025-03-16T10:45:45Z</time>
      </trkpt>
      <trkpt lat="43.53938" lon="5.64808">
        <ele>988.6</ele>
        <time>2025-03-16T10:45:47Z</time>
      </trkpt>
      <trkpt lat="43.53938" lon="5.64808">
        <ele>988.6</ele>
        <time>2025-03-16T10:45:48Z</time>
      </trkpt>
      <trkpt lat="43.53948" lon="5.64809">
        <ele>986.7</ele>
        <time>2025-03-16T10:46:57Z</time>
      </trkpt>
      <trkpt lat="43.53946" lon="5.64813">
        <ele>986.7</ele>
        <time>2025-03-16T10:47:06Z</time>
      </trkpt>
      <trkpt lat="43.53946" lon="5.64814">
        <ele>986.7</ele>
        <time>2025-03-16T10:47:07Z</time>
      </trkpt>
      <trkpt lat="43.53949" lon="5.64802">
        <ele>984.4</ele>
        <time>2025-03-16T10:47:50Z</time>
      </trkpt>
      <trkpt lat="43.5395" lon="5.6479">
        <ele>984.1</ele>
        <time>2025-03-16T10:48:33Z</time>
      </trkpt>
      <trkpt lat="43.5395" lon="5.6479">
        <ele>984</ele>
        <time>2025-03-16T10:48:34Z</time>
      </trkpt>
      <trkpt lat="43.53945" lon="5.64801">
        <ele>983.9</ele>
        <time>2025-03-16T10:48:39Z</time>
      </trkpt>
      <trkpt lat="43.53939" lon="5.64811">
        <ele>983.9</ele>
        <time>2025-03-16T10:48:48Z</time>
      </trkpt>
      <trkpt lat="43.5393" lon="5.64814">
        <ele>983.7</ele>
        <time>2025-03-16T10:48:58Z</time>
      </trkpt>
      <trkpt lat="43.53938" lon="5.64819">
        <ele>984.2</ele>
        <time>2025-03-16T10:49:28Z</time>
      </trkpt>
      <trkpt lat="43.53936" lon="5.64813">
        <ele>984.3</ele>
        <time>2025-03-16T10:49:35Z</time>
      </trkpt>
      <trkpt lat="43.53936" lon="5.64813">
        <ele>984.2</ele>
        <time>2025-03-16T10:49:36Z</time>
      </trkpt>
      <trkpt lat="43.5394" lon="5.64803">
        <ele>984</ele>
        <time>2025-03-16T10:50:26Z</time>
      </trkpt>
      <trkpt lat="43.53941" lon="5.64803">
        <ele>984</ele>
        <time>2025-03-16T10:50:27Z</time>
      </trkpt>
      <trkpt lat="43.53938" lon="5.64805">
        <ele>984.9</ele>
        <time>2025-03-16T10:50:31Z</time>
      </trkpt>
      <trkpt lat="43.53938" lon="5.64806">
        <ele>985.5</ele>
        <time>2025-03-16T10:50:45Z</time>
      </trkpt>
      <trkpt lat="43.53938" lon="5.64806">
        <ele>985.6</ele>
        <time>2025-03-16T10:50:46Z</time>
      </trkpt>
      <trkpt lat="43.53938" lon="5.64806">
        <ele>985.7</ele>
        <time>2025-03-16T10:50:47Z</time>
      </trkpt>
      <trkpt lat="43.53938" lon="5.64806">
        <ele>985.8</ele>
        <time>2025-03-16T10:50:48Z</time>
      </trkpt>
      <trkpt lat="43.53938" lon="5.64806">
        <ele>986.2</ele>
        <time>2025-03-16T10:51:46Z</time>
      </trkpt>
      <trkpt lat="43.53938" lon="5.64806">
        <ele>986.2</ele>
        <time>2025-03-16T10:51:47Z</time>
      </trkpt>
      <trkpt lat="43.53938" lon="5.64806">
        <ele>986.4</ele>
        <time>2025-03-16T10:52:30Z</time>
      </trkpt>
      <trkpt lat="43.53938" lon="5.64806">
        <ele>986.4</ele>
        <time>2025-03-16T10:52:31Z</time>
      </trkpt>
      <trkpt lat="43.53938" lon="5.64806">
        <ele>986.5</ele>
        <time>2025-03-16T10:52:32Z</time>
      </trkpt>
      <trkpt lat="43.53938" lon="5.64806">
        <ele>986.5</ele>
        <time>2025-03-16T10:52:33Z</time>
      </trkpt>
      <trkpt lat="43.53937" lon="5.64807">
        <ele>986.2</ele>
        <time>2025-03-16T10:53:19Z</time>
      </trkpt>
      <trkpt lat="43.53937" lon="5.64807">
        <ele>986.2</ele>
        <time>2025-03-16T10:53:20Z</time>
      </trkpt>
      <trkpt lat="43.53937" lon="5.64807">
        <ele>986.3</ele>
        <time>2025-03-16T10:53:50Z</time>
      </trkpt>
      <trkpt lat="43.53937" lon="5.64807">
        <ele>986.3</ele>
        <time>2025-03-16T10:53:51Z</time>
      </trkpt>
      <trkpt lat="43.53937" lon="5.64807">
        <ele>986.3</ele>
        <time>2025-03-16T10:53:57Z</time>
      </trkpt>
      <trkpt lat="43.53937" lon="5.64807">
        <ele>986.3</ele>
        <time>2025-03-16T10:53:58Z</time>
      </trkpt>
      <trkpt lat="43.53937" lon="5.64807">
        <ele>986.3</ele>
        <time>2025-03-16T10:54:07Z</time>
      </trkpt>
      <trkpt lat="43.53937" lon="5.64807">
        <ele>986.3</ele>
        <time>2025-03-16T10:54:08Z</time>
      </trkpt>
      <trkpt lat="43.53937" lon="5.64807">
        <ele>986.4</ele>
        <time>2025-03-16T10:54:37Z</time>
      </trkpt>
      <trkpt lat="43.53937" lon="5.64807">
        <ele>986.4</ele>
        <time>2025-03-16T10:54:38Z</time>
      </trkpt>
      <trkpt lat="43.53937" lon="5.64807">
        <ele>986.4</ele>
        <time>2025-03-16T10:55:17Z</time>
      </trkpt>
      <trkpt lat="43.53937" lon="5.64807">
        <ele>986.4</ele>
        <time>2025-03-16T10:55:18Z</time>
      </trkpt>
      <trkpt lat="43.53937" lon="5.64807">
        <ele>986.9</ele>
        <time>2025-03-16T10:56:01Z</time>
      </trkpt>
      <trkpt lat="43.53937" lon="5.64806">
        <ele>987.2</ele>
        <time>2025-03-16T10:56:02Z</time>
      </trkpt>
      <trkpt lat="43.53937" lon="5.64807">
        <ele>987.1</ele>
        <time>2025-03-16T10:56:03Z</time>
      </trkpt>
      <trkpt lat="43.53937" lon="5.64807">
        <ele>987.3</ele>
        <time>2025-03-16T10:56:04Z</time>
      </trkpt>
      <trkpt lat="43.53937" lon="5.64806">
        <ele>987.2</ele>
        <time>2025-03-16T10:56:08Z</time>
      </trkpt>
      <trkpt lat="43.53938" lon="5.64806">
        <ele>987</ele>
        <time>2025-03-16T10:56:11Z</time>
      </trkpt>
      <trkpt lat="43.53938" lon="5.64806">
        <ele>986.9</ele>
        <time>2025-03-16T10:56:28Z</time>
      </trkpt>
      <trkpt lat="43.53938" lon="5.64806">
        <ele>986.9</ele>
        <time>2025-03-16T10:56:29Z</time>
      </trkpt>
      <trkpt lat="43.53938" lon="5.64806">
        <ele>986.7</ele>
        <time>2025-03-16T10:56:31Z</time>
      </trkpt>
      <trkpt lat="43.53938" lon="5.64806">
        <ele>986.7</ele>
        <time>2025-03-16T10:56:32Z</time>
      </trkpt>
      <trkpt lat="43.53938" lon="5.64806">
        <ele>986.5</ele>
        <time>2025-03-16T10:57:17Z</time>
      </trkpt>
      <trkpt lat="43.53938" lon="5.64806">
        <ele>986.5</ele>
        <time>2025-03-16T10:57:18Z</time>
      </trkpt>
      <trkpt lat="43.53938" lon="5.64806">
        <ele>986.5</ele>
        <time>2025-03-16T10:57:20Z</time>
      </trkpt>
      <trkpt lat="43.53938" lon="5.64806">
        <ele>986.5</ele>
        <time>2025-03-16T10:57:21Z</time>
      </trkpt>
      <trkpt lat="43.53938" lon="5.64806">
        <ele>986.5</ele>
        <time>2025-03-16T10:57:23Z</time>
      </trkpt>
      <trkpt lat="43.53938" lon="5.64806">
        <ele>986.5</ele>
        <time>2025-03-16T10:57:24Z</time>
      </trkpt>
      <trkpt lat="43.53938" lon="5.64806">
        <ele>986.5</ele>
        <time>2025-03-16T10:57:39Z</time>
      </trkpt>
      <trkpt lat="43.53938" lon="5.64806">
        <ele>986.6</ele>
        <time>2025-03-16T10:57:40Z</time>
      </trkpt>
      <trkpt lat="43.53938" lon="5.64806">
        <ele>986.4</ele>
        <time>2025-03-16T10:58:03Z</time>
      </trkpt>
      <trkpt lat="43.53938" lon="5.64806">
        <ele>986.2</ele>
        <time>2025-03-16T10:58:05Z</time>
      </trkpt>
      <trkpt lat="43.53938" lon="5.64806">
        <ele>986.1</ele>
        <time>2025-03-16T10:58:11Z</time>
      </trkpt>
      <trkpt lat="43.53938" lon="5.64806">
        <ele>986.1</ele>
        <time>2025-03-16T10:58:12Z</time>
      </trkpt>
      <trkpt lat="43.53938" lon="5.64806">
        <ele>986.2</ele>
        <time>2025-03-16T10:58:13Z</time>
      </trkpt>
      <trkpt lat="43.53938" lon="5.64806">
        <ele>986.2</ele>
        <time>2025-03-16T10:58:14Z</time>
      </trkpt>
      <trkpt lat="43.53938" lon="5.64807">
        <ele>985.8</ele>
        <time>2025-03-16T10:58:43Z</time>
      </trkpt>
      <trkpt lat="43.53938" lon="5.64807">
        <ele>985.9</ele>
        <time>2025-03-16T10:58:44Z</time>
      </trkpt>
      <trkpt lat="43.53938" lon="5.64807">
        <ele>985.8</ele>
        <time>2025-03-16T10:58:46Z</time>
      </trkpt>
      <trkpt lat="43.53938" lon="5.64807">
        <ele>985.9</ele>
        <time>2025-03-16T10:58:47Z</time>
      </trkpt>
      <trkpt lat="43.53938" lon="5.64807">
        <ele>985.8</ele>
        <time>2025-03-16T10:58:50Z</time>
      </trkpt>
      <trkpt lat="43.53938" lon="5.64807">
        <ele>985.8</ele>
        <time>2025-03-16T10:58:51Z</time>
      </trkpt>
      <trkpt lat="43.53938" lon="5.64807">
        <ele>985.9</ele>
        <time>2025-03-16T10:59:33Z</time>
      </trkpt>
      <trkpt lat="43.53938" lon="5.64807">
        <ele>986.1</ele>
        <time>2025-03-16T10:59:35Z</time>
      </trkpt>
      <trkpt lat="43.53938" lon="5.64807">
        <ele>985.8</ele>
        <time>2025-03-16T11:00:01Z</time>
      </trkpt>
      <trkpt lat="43.53938" lon="5.64808">
        <ele>985.2</ele>
        <time>2025-03-16T11:00:04Z</time>
      </trkpt>
      <trkpt lat="43.53938" lon="5.64808">
        <ele>985.2</ele>
        <time>2025-03-16T11:00:39Z</time>
      </trkpt>
      <trkpt lat="43.53938" lon="5.64808">
        <ele>985.2</ele>
        <time>2025-03-16T11:00:40Z</time>
      </trkpt>
      <trkpt lat="43.53938" lon="5.64808">
        <ele>985.2</ele>
        <time>2025-03-16T11:00:42Z</time>
      </trkpt>
      <trkpt lat="43.53938" lon="5.64808">
        <ele>984.9</ele>
        <time>2025-03-16T11:00:44Z</time>
      </trkpt>
      <trkpt lat="43.53938" lon="5.64808">
        <ele>985</ele>
        <time>2025-03-16T11:00:51Z</time>
      </trkpt>
      <trkpt lat="43.53938" lon="5.64808">
        <ele>985.1</ele>
        <time>2025-03-16T11:00:52Z</time>
      </trkpt>
      <trkpt lat="43.53938" lon="5.64808">
        <ele>985.2</ele>
        <time>2025-03-16T11:00:55Z</time>
      </trkpt>
      <trkpt lat="43.53938" lon="5.64808">
        <ele>985.2</ele>
        <time>2025-03-16T11:00:56Z</time>
      </trkpt>
      <trkpt lat="43.53938" lon="5.64808">
        <ele>985.3</ele>
        <time>2025-03-16T11:01:00Z</time>
      </trkpt>
      <trkpt lat="43.53938" lon="5.64808">
        <ele>985.2</ele>
        <time>2025-03-16T11:01:01Z</time>
      </trkpt>
      <trkpt lat="43.53938" lon="5.64807">
        <ele>985.2</ele>
        <time>2025-03-16T11:01:02Z</time>
      </trkpt>
      <trkpt lat="43.53938" lon="5.64807">
        <ele>985.2</ele>
        <time>2025-03-16T11:01:04Z</time>
      </trkpt>
      <trkpt lat="43.53938" lon="5.64807">
        <ele>985.4</ele>
        <time>2025-03-16T11:01:07Z</time>
      </trkpt>
      <trkpt lat="43.53938" lon="5.64807">
        <ele>985.4</ele>
        <time>2025-03-16T11:01:11Z</time>
      </trkpt>
      <trkpt lat="43.53938" lon="5.64807">
        <ele>985.6</ele>
        <time>2025-03-16T11:01:13Z</time>
      </trkpt>
      <trkpt lat="43.53938" lon="5.64807">
        <ele>985.6</ele>
        <time>2025-03-16T11:01:14Z</time>
      </trkpt>
      <trkpt lat="43.53938" lon="5.64807">
        <ele>985.6</ele>
        <time>2025-03-16T11:01:19Z</time>
      </trkpt>
      <trkpt lat="43.53938" lon="5.64807">
        <ele>985.5</ele>
        <time>2025-03-16T11:01:20Z</time>
      </trkpt>
      <trkpt lat="43.53938" lon="5.64807">
        <ele>985.5</ele>
        <time>2025-03-16T11:01:21Z</time>
      </trkpt>
      <trkpt lat="43.53938" lon="5.64807">
        <ele>985.4</ele>
        <time>2025-03-16T11:01:22Z</time>
      </trkpt>
      <trkpt lat="43.53938" lon="5.64807">
        <ele>985.4</ele>
        <time>2025-03-16T11:01:45Z</time>
      </trkpt>
      <trkpt lat="43.53938" lon="5.64807">
        <ele>985.5</ele>
        <time>2025-03-16T11:01:46Z</time>
      </trkpt>
      <trkpt lat="43.53938" lon="5.64807">
        <ele>985.5</ele>
        <time>2025-03-16T11:01:47Z</time>
      </trkpt>
      <trkpt lat="43.53938" lon="5.64807">
        <ele>985.5</ele>
        <time>2025-03-16T11:01:48Z</time>
      </trkpt>
      <trkpt lat="43.53938" lon="5.64807">
        <ele>985.3</ele>
        <time>2025-03-16T11:01:50Z</time>
      </trkpt>
      <trkpt lat="43.53938" lon="5.64807">
        <ele>985.2</ele>
        <time>2025-03-16T11:01:51Z</time>
      </trkpt>
      <trkpt lat="43.53938" lon="5.64807">
        <ele>985.2</ele>
        <time>2025-03-16T11:02:00Z</time>
      </trkpt>
      <trkpt lat="43.53938" lon="5.64807">
        <ele>985.2</ele>
        <time>2025-03-16T11:02:01Z</time>
      </trkpt>
      <trkpt lat="43.53938" lon="5.64807">
        <ele>985.3</ele>
        <time>2025-03-16T11:02:06Z</time>
      </trkpt>
      <trkpt lat="43.53938" lon="5.64807">
        <ele>985.3</ele>
        <time>2025-03-16T11:02:07Z</time>
      </trkpt>
      <trkpt lat="43.53938" lon="5.64807">
        <ele>985.4</ele>
        <time>2025-03-16T11:02:25Z</time>
      </trkpt>
      <trkpt lat="43.53938" lon="5.64807">
        <ele>985.5</ele>
        <time>2025-03-16T11:02:26Z</time>
      </trkpt>
      <trkpt lat="43.53938" lon="5.64807">
        <ele>985.6</ele>
        <time>2025-03-16T11:02:32Z</time>
      </trkpt>
      <trkpt lat="43.53938" lon="5.64807">
        <ele>985.6</ele>
        <time>2025-03-16T11:02:33Z</time>
      </trkpt>
      <trkpt lat="43.53938" lon="5.64807">
        <ele>985.4</ele>
        <time>2025-03-16T11:02:38Z</time>
      </trkpt>
      <trkpt lat="43.53938" lon="5.64807">
        <ele>985.1</ele>
        <time>2025-03-16T11:02:40Z</time>
      </trkpt>
      <trkpt lat="43.53938" lon="5.64806">
        <ele>985.3</ele>
        <time>2025-03-16T11:02:44Z</time>
      </trkpt>
      <trkpt lat="43.53938" lon="5.64806">
        <ele>985.3</ele>
        <time>2025-03-16T11:02:45Z</time>
      </trkpt>
      <trkpt lat="43.53939" lon="5.64806">
        <ele>985.1</ele>
        <time>2025-03-16T11:02:48Z</time>
      </trkpt>
      <trkpt lat="43.53939" lon="5.64806">
        <ele>984.7</ele>
        <time>2025-03-16T11:02:50Z</time>
      </trkpt>
      <trkpt lat="43.53939" lon="5.64806">
        <ele>984.6</ele>
        <time>2025-03-16T11:02:52Z</time>
      </trkpt>
      <trkpt lat="43.53939" lon="5.64806">
        <ele>984.6</ele>
        <time>2025-03-16T11:02:53Z</time>
      </trkpt>
      <trkpt lat="43.53939" lon="5.64806">
        <ele>984.8</ele>
        <time>2025-03-16T11:02:55Z</time>
      </trkpt>
      <trkpt lat="43.53938" lon="5.64806">
        <ele>985.6</ele>
        <time>2025-03-16T11:03:00Z</time>
      </trkpt>
      <trkpt lat="43.53938" lon="5.64806">
        <ele>985.7</ele>
        <time>2025-03-16T11:03:01Z</time>
      </trkpt>
      <trkpt lat="43.53938" lon="5.64806">
        <ele>985.8</ele>
        <time>2025-03-16T11:03:02Z</time>
      </trkpt>
      <trkpt lat="43.53938" lon="5.64806">
        <ele>985.9</ele>
        <time>2025-03-16T11:03:03Z</time>
      </trkpt>
      <trkpt lat="43.53938" lon="5.64806">
        <ele>986</ele>
        <time>2025-03-16T11:03:04Z</time>
      </trkpt>
      <trkpt lat="43.53938" lon="5.64806">
        <ele>985.9</ele>
        <time>2025-03-16T11:03:09Z</time>
      </trkpt>
      <trkpt lat="43.53938" lon="5.64806">
        <ele>985.9</ele>
        <time>2025-03-16T11:03:10Z</time>
      </trkpt>
      <trkpt lat="43.53938" lon="5.64806">
        <ele>986.1</ele>
        <time>2025-03-16T11:03:37Z</time>
      </trkpt>
      <trkpt lat="43.53938" lon="5.64806">
        <ele>986.2</ele>
        <time>2025-03-16T11:03:38Z</time>
      </trkpt>
      <trkpt lat="43.53938" lon="5.64806">
        <ele>986.3</ele>
        <time>2025-03-16T11:03:49Z</time>
      </trkpt>
      <trkpt lat="43.53938" lon="5.64806">
        <ele>986.3</ele>
        <time>2025-03-16T11:03:50Z</time>
      </trkpt>
      <trkpt lat="43.53938" lon="5.64806">
        <ele>986.5</ele>
        <time>2025-03-16T11:04:23Z</time>
      </trkpt>
      <trkpt lat="43.53938" lon="5.64806">
        <ele>986.5</ele>
        <time>2025-03-16T11:04:24Z</time>
      </trkpt>
      <trkpt lat="43.53938" lon="5.64806">
        <ele>986.5</ele>
        <time>2025-03-16T11:04:31Z</time>
      </trkpt>
      <trkpt lat="43.53938" lon="5.64805">
        <ele>986.4</ele>
        <time>2025-03-16T11:04:34Z</time>
      </trkpt>
      <trkpt lat="43.53938" lon="5.64806">
        <ele>986.3</ele>
        <time>2025-03-16T11:05:18Z</time>
      </trkpt>
      <trkpt lat="43.53938" lon="5.64806">
        <ele>986</ele>
        <time>2025-03-16T11:05:20Z</time>
      </trkpt>
      <trkpt lat="43.53938" lon="5.64806">
        <ele>985.9</ele>
        <time>2025-03-16T11:05:23Z</time>
      </trkpt>
      <trkpt lat="43.53938" lon="5.64806">
        <ele>985.9</ele>
        <time>2025-03-16T11:05:24Z</time>
      </trkpt>
      <trkpt lat="43.53938" lon="5.64806">
        <ele>985.8</ele>
        <time>2025-03-16T11:06:02Z</time>
      </trkpt>
      <trkpt lat="43.53938" lon="5.64806">
        <ele>985.7</ele>
        <time>2025-03-16T11:06:03Z</time>
      </trkpt>
      <trkpt lat="43.53938" lon="5.64806">
        <ele>985.7</ele>
        <time>2025-03-16T11:06:48Z</time>
      </trkpt>
      <trkpt lat="43.53938" lon="5.64806">
        <ele>985.8</ele>
        <time>2025-03-16T11:06:49Z</time>
      </trkpt>
      <trkpt lat="43.53938" lon="5.64806">
        <ele>985.8</ele>
        <time>2025-03-16T11:06:50Z</time>
      </trkpt>
      <trkpt lat="43.53938" lon="5.64806">
        <ele>985.9</ele>
        <time>2025-03-16T11:06:51Z</time>
      </trkpt>
      <trkpt lat="43.53938" lon="5.64806">
        <ele>985.9</ele>
        <time>2025-03-16T11:06:56Z</time>
      </trkpt>
      <trkpt lat="43.53938" lon="5.64806">
        <ele>985.9</ele>
        <time>2025-03-16T11:06:57Z</time>
      </trkpt>
      <trkpt lat="43.53938" lon="5.64806">
        <ele>986.1</ele>
        <time>2025-03-16T11:07:28Z</time>
      </trkpt>
      <trkpt lat="43.53938" lon="5.64806">
        <ele>986.1</ele>
        <time>2025-03-16T11:07:29Z</time>
      </trkpt>
      <trkpt lat="43.53938" lon="5.64806">
        <ele>986.1</ele>
        <time>2025-03-16T11:07:31Z</time>
      </trkpt>
      <trkpt lat="43.53938" lon="5.64806">
        <ele>986.1</ele>
        <time>2025-03-16T11:07:33Z</time>
      </trkpt>
      <trkpt lat="43.53938" lon="5.64806">
        <ele>986.2</ele>
        <time>2025-03-16T11:07:55Z</time>
      </trkpt>
      <trkpt lat="43.53938" lon="5.64806">
        <ele>986.3</ele>
        <time>2025-03-16T11:07:56Z</time>
      </trkpt>
      <trkpt lat="43.53937" lon="5.64806">
        <ele>986.3</ele>
        <time>2025-03-16T11:07:59Z</time>
      </trkpt>
      <trkpt lat="43.53937" lon="5.64806">
        <ele>986.4</ele>
        <time>2025-03-16T11:08:00Z</time>
      </trkpt>
      <trkpt lat="43.53937" lon="5.64806">
        <ele>986.5</ele>
        <time>2025-03-16T11:08:01Z</time>
      </trkpt>
      <trkpt lat="43.53937" lon="5.64805">
        <ele>986.6</ele>
        <time>2025-03-16T11:08:03Z</time>
      </trkpt>
      <trkpt lat="43.53937" lon="5.64805">
        <ele>986.7</ele>
        <time>2025-03-16T11:08:05Z</time>
      </trkpt>
      <trkpt lat="43.53937" lon="5.64805">
        <ele>986.8</ele>
        <time>2025-03-16T11:08:07Z</time>
      </trkpt>
      <trkpt lat="43.53937" lon="5.64805">
        <ele>986.9</ele>
        <time>2025-03-16T11:08:08Z</time>
      </trkpt>
      <trkpt lat="43.53937" lon="5.64805">
        <ele>986.9</ele>
        <time>2025-03-16T11:08:09Z</time>
      </trkpt>
      <trkpt lat="43.53937" lon="5.64805">
        <ele>986.7</ele>
        <time>2025-03-16T11:08:13Z</time>
      </trkpt>
      <trkpt lat="43.53937" lon="5.64805">
        <ele>986.6</ele>
        <time>2025-03-16T11:08:17Z</time>
      </trkpt>
      <trkpt lat="43.53937" lon="5.64805">
        <ele>986.6</ele>
        <time>2025-03-16T11:08:19Z</time>
      </trkpt>
      <trkpt lat="43.53937" lon="5.64804">
        <ele>986.5</ele>
        <time>2025-03-16T11:08:23Z</time>
      </trkpt>
      <trkpt lat="43.53937" lon="5.64803">
        <ele>986.5</ele>
        <time>2025-03-16T11:08:26Z</time>
      </trkpt>
      <trkpt lat="43.53937" lon="5.64803">
        <ele>986.5</ele>
        <time>2025-03-16T11:08:27Z</time>
      </trkpt>
      <trkpt lat="43.53937" lon="5.64803">
        <ele>986.5</ele>
        <time>2025-03-16T11:08:28Z</time>
      </trkpt>
      <trkpt lat="43.53937" lon="5.64803">
        <ele>986.6</ele>
        <time>2025-03-16T11:08:32Z</time>
      </trkpt>
      <trkpt lat="43.53937" lon="5.64803">
        <ele>986.5</ele>
        <time>2025-03-16T11:08:34Z</time>
      </trkpt>
      <trkpt lat="43.53937" lon="5.64803">
        <ele>986.9</ele>
        <time>2025-03-16T11:08:43Z</time>
      </trkpt>
      <trkpt lat="43.53937" lon="5.64803">
        <ele>987.1</ele>
        <time>2025-03-16T11:08:45Z</time>
      </trkpt>
      <trkpt lat="43.53938" lon="5.64803">
        <ele>987.3</ele>
        <time>2025-03-16T11:08:52Z</time>
      </trkpt>
      <trkpt lat="43.53938" lon="5.64803">
        <ele>987.2</ele>
        <time>2025-03-16T11:08:54Z</time>
      </trkpt>
      <trkpt lat="43.53939" lon="5.64805">
        <ele>986.8</ele>
        <time>2025-03-16T11:09:06Z</time>
      </trkpt>
      <trkpt lat="43.53938" lon="5.64807">
        <ele>986.4</ele>
        <time>2025-03-16T11:09:07Z</time>
      </trkpt>
      <trkpt lat="43.53938" lon="5.64807">
        <ele>986.3</ele>
        <time>2025-03-16T11:09:11Z</time>
      </trkpt>
      <trkpt lat="43.53939" lon="5.64807">
        <ele>986.4</ele>
        <time>2025-03-16T11:09:12Z</time>
      </trkpt>
      <trkpt lat="43.53939" lon="5.64814">
        <ele>985.4</ele>
        <time>2025-03-16T11:09:22Z</time>
      </trkpt>
      <trkpt lat="43.53939" lon="5.64814">
        <ele>985.3</ele>
        <time>2025-03-16T11:09:23Z</time>
      </trkpt>
      <trkpt lat="43.5394" lon="5.64814">
        <ele>985.4</ele>
        <time>2025-03-16T11:09:27Z</time>
      </trkpt>
      <trkpt lat="43.5394" lon="5.64814">
        <ele>985.5</ele>
        <time>2025-03-16T11:09:30Z</time>
      </trkpt>
      <trkpt lat="43.53939" lon="5.64811">
        <ele>985.8</ele>
        <time>2025-03-16T11:09:45Z</time>
      </trkpt>
      <trkpt lat="43.53939" lon="5.64811">
        <ele>985.9</ele>
        <time>2025-03-16T11:09:46Z</time>
      </trkpt>
      <trkpt lat="43.53937" lon="5.6481">
        <ele>986.3</ele>
        <time>2025-03-16T11:09:56Z</time>
      </trkpt>
      <trkpt lat="43.53936" lon="5.6481">
        <ele>986.4</ele>
        <time>2025-03-16T11:09:57Z</time>
      </trkpt>
      <trkpt lat="43.53935" lon="5.64812">
        <ele>987.1</ele>
        <time>2025-03-16T11:10:15Z</time>
      </trkpt>
      <trkpt lat="43.53935" lon="5.64811">
        <ele>987.2</ele>
        <time>2025-03-16T11:10:16Z</time>
      </trkpt>
      <trkpt lat="43.53936" lon="5.64808">
        <ele>988.2</ele>
        <time>2025-03-16T11:10:23Z</time>
      </trkpt>
      <trkpt lat="43.53936" lon="5.64809">
        <ele>988.2</ele>
        <time>2025-03-16T11:10:24Z</time>
      </trkpt>
      <trkpt lat="43.53935" lon="5.64808">
        <ele>988.3</ele>
        <time>2025-03-16T11:10:27Z</time>
      </trkpt>
      <trkpt lat="43.53935" lon="5.64808">
        <ele>988.3</ele>
        <time>2025-03-16T11:10:28Z</time>
      </trkpt>
      <trkpt lat="43.53935" lon="5.64808">
        <ele>988.2</ele>
        <time>2025-03-16T11:10:29Z</time>
      </trkpt>
      <trkpt lat="43.53935" lon="5.64808">
        <ele>988.1</ele>
        <time>2025-03-16T11:10:32Z</time>
      </trkpt>
      <trkpt lat="43.53935" lon="5.64807">
        <ele>988.3</ele>
        <time>2025-03-16T11:10:34Z</time>
      </trkpt>
      <trkpt lat="43.53935" lon="5.64807">
        <ele>988.4</ele>
        <time>2025-03-16T11:10:35Z</time>
      </trkpt>
      <trkpt lat="43.53935" lon="5.64807">
        <ele>988.5</ele>
        <time>2025-03-16T11:10:36Z</time>
      </trkpt>
      <trkpt lat="43.53935" lon="5.64807">
        <ele>988.5</ele>
        <time>2025-03-16T11:10:37Z</time>
      </trkpt>
      <trkpt lat="43.53935" lon="5.64807">
        <ele>988.6</ele>
        <time>2025-03-16T11:10:39Z</time>
      </trkpt>
      <trkpt lat="43.53936" lon="5.64807">
        <ele>988.4</ele>
        <time>2025-03-16T11:10:40Z</time>
      </trkpt>
      <trkpt lat="43.53936" lon="5.64807">
        <ele>988.3</ele>
        <time>2025-03-16T11:10:45Z</time>
      </trkpt>
      <trkpt lat="43.53936" lon="5.64807">
        <ele>987.9</ele>
        <time>2025-03-16T11:10:46Z</time>
      </trkpt>
      <trkpt lat="43.53937" lon="5.64807">
        <ele>987.8</ele>
        <time>2025-03-16T11:10:48Z</time>
      </trkpt>
      <trkpt lat="43.53937" lon="5.64807">
        <ele>987.5</ele>
        <time>2025-03-16T11:10:51Z</time>
      </trkpt>
      <trkpt lat="43.53936" lon="5.64805">
        <ele>988.3</ele>
        <time>2025-03-16T11:10:57Z</time>
      </trkpt>
      <trkpt lat="43.53936" lon="5.64805">
        <ele>988.2</ele>
        <time>2025-03-16T11:10:59Z</time>
      </trkpt>
      <trkpt lat="43.53936" lon="5.64805">
        <ele>988.1</ele>
        <time>2025-03-16T11:11:00Z</time>
      </trkpt>
      <trkpt lat="43.53937" lon="5.64805">
        <ele>988.1</ele>
        <time>2025-03-16T11:11:02Z</time>
      </trkpt>
      <trkpt lat="43.53937" lon="5.64805">
        <ele>987.9</ele>
        <time>2025-03-16T11:11:04Z</time>
      </trkpt>
      <trkpt lat="43.53937" lon="5.64805">
        <ele>987.8</ele>
        <time>2025-03-16T11:11:05Z</time>
      </trkpt>
      <trkpt lat="43.53937" lon="5.64806">
        <ele>987.8</ele>
        <time>2025-03-16T11:11:08Z</time>
      </trkpt>
      <trkpt lat="43.53937" lon="5.64806">
        <ele>987.8</ele>
        <time>2025-03-16T11:11:09Z</time>
      </trkpt>
      <trkpt lat="43.53937" lon="5.64806">
        <ele>987.7</ele>
        <time>2025-03-16T11:11:10Z</time>
      </trkpt>
      <trkpt lat="43.53937" lon="5.64806">
        <ele>987.6</ele>
        <time>2025-03-16T11:11:11Z</time>
      </trkpt>
      <trkpt lat="43.53937" lon="5.64806">
        <ele>987.3</ele>
        <time>2025-03-16T11:11:13Z</time>
      </trkpt>
      <trkpt lat="43.53937" lon="5.64806">
        <ele>987.3</ele>
        <time>2025-03-16T11:11:15Z</time>
      </trkpt>
      <trkpt lat="43.53937" lon="5.64806">
        <ele>987.3</ele>
        <time>2025-03-16T11:11:16Z</time>
      </trkpt>
      <trkpt lat="43.53937" lon="5.64806">
        <ele>987</ele>
        <time>2025-03-16T11:11:19Z</time>
      </trkpt>
      <trkpt lat="43.53937" lon="5.64806">
        <ele>987</ele>
        <time>2025-03-16T11:11:21Z</time>
      </trkpt>
      <trkpt lat="43.53937" lon="5.64806">
        <ele>987</ele>
        <time>2025-03-16T11:11:22Z</time>
      </trkpt>
      <trkpt lat="43.53938" lon="5.64806">
        <ele>986.9</ele>
        <time>2025-03-16T11:11:24Z</time>
      </trkpt>
      <trkpt lat="43.53937" lon="5.64806">
        <ele>987.1</ele>
        <time>2025-03-16T11:11:25Z</time>
      </trkpt>
      <trkpt lat="43.53936" lon="5.64805">
        <ele>987.2</ele>
        <time>2025-03-16T11:11:30Z</time>
      </trkpt>
      <trkpt lat="43.53936" lon="5.64805">
        <ele>987.2</ele>
        <time>2025-03-16T11:11:35Z</time>
      </trkpt>
      <trkpt lat="43.53937" lon="5.64805">
        <ele>987.2</ele>
        <time>2025-03-16T11:11:44Z</time>
      </trkpt>
      <trkpt lat="43.53937" lon="5.64805">
        <ele>987.2</ele>
        <time>2025-03-16T11:11:45Z</time>
      </trkpt>
      <trkpt lat="43.53937" lon="5.64805">
        <ele>987.1</ele>
        <time>2025-03-16T11:11:46Z</time>
      </trkpt>
      <trkpt lat="43.53937" lon="5.64804">
        <ele>987.2</ele>
        <time>2025-03-16T11:11:47Z</time>
      </trkpt>
      <trkpt lat="43.53936" lon="5.64804">
        <ele>987.4</ele>
        <time>2025-03-16T11:11:50Z</time>
      </trkpt>
      <trkpt lat="43.53936" lon="5.64804">
        <ele>987.4</ele>
        <time>2025-03-16T11:11:55Z</time>
      </trkpt>
      <trkpt lat="43.53936" lon="5.64804">
        <ele>987.2</ele>
        <time>2025-03-16T11:11:56Z</time>
      </trkpt>
      <trkpt lat="43.53936" lon="5.64803">
        <ele>987.2</ele>
        <time>2025-03-16T11:11:57Z</time>
      </trkpt>
      <trkpt lat="43.53936" lon="5.64804">
        <ele>987.2</ele>
        <time>2025-03-16T11:11:58Z</time>
      </trkpt>
      <trkpt lat="43.53936" lon="5.64804">
        <ele>987.1</ele>
        <time>2025-03-16T11:11:59Z</time>
      </trkpt>
      <trkpt lat="43.53938" lon="5.64806">
        <ele>986</ele>
        <time>2025-03-16T11:12:08Z</time>
      </trkpt>
      <trkpt lat="43.53938" lon="5.64806">
        <ele>986.1</ele>
        <time>2025-03-16T11:12:09Z</time>
      </trkpt>
      <trkpt lat="43.53936" lon="5.64805">
        <ele>986.8</ele>
        <time>2025-03-16T11:12:16Z</time>
      </trkpt>
      <trkpt lat="43.53936" lon="5.64805">
        <ele>986.9</ele>
        <time>2025-03-16T11:12:17Z</time>
      </trkpt>
      <trkpt lat="43.53935" lon="5.64805">
        <ele>987</ele>
        <time>2025-03-16T11:12:21Z</time>
      </trkpt>
      <trkpt lat="43.53935" lon="5.64805">
        <ele>986.9</ele>
        <time>2025-03-16T11:12:23Z</time>
      </trkpt>
      <trkpt lat="43.53935" lon="5.64806">
        <ele>987.3</ele>
        <time>2025-03-16T11:12:28Z</time>
      </trkpt>
      <trkpt lat="43.53935" lon="5.64806">
        <ele>987.2</ele>
        <time>2025-03-16T11:12:29Z</time>
      </trkpt>
      <trkpt lat="43.53935" lon="5.64806">
        <ele>987.1</ele>
        <time>2025-03-16T11:12:30Z</time>
      </trkpt>
      <trkpt lat="43.53935" lon="5.64807">
        <ele>987.2</ele>
        <time>2025-03-16T11:12:31Z</time>
      </trkpt>
      <trkpt lat="43.53934" lon="5.64807">
        <ele>987.4</ele>
        <time>2025-03-16T11:12:36Z</time>
      </trkpt>
      <trkpt lat="43.53935" lon="5.64807">
        <ele>987.5</ele>
        <time>2025-03-16T11:12:37Z</time>
      </trkpt>
      <trkpt lat="43.53936" lon="5.64807">
        <ele>987</ele>
        <time>2025-03-16T11:12:52Z</time>
      </trkpt>
      <trkpt lat="43.53937" lon="5.64807">
        <ele>986.7</ele>
        <time>2025-03-16T11:13:04Z</time>
      </trkpt>
      <trkpt lat="43.53937" lon="5.64807">
        <ele>986.7</ele>
        <time>2025-03-16T11:13:05Z</time>
      </trkpt>
      <trkpt lat="43.53936" lon="5.64807">
        <ele>986.6</ele>
        <time>2025-03-16T11:13:07Z</time>
      </trkpt>
      <trkpt lat="43.53936" lon="5.64806">
        <ele>986.6</ele>
        <time>2025-03-16T11:13:12Z</time>
      </trkpt>
      <trkpt lat="43.53936" lon="5.64806">
        <ele>986.5</ele>
        <time>2025-03-16T11:13:26Z</time>
      </trkpt>
      <trkpt lat="43.53936" lon="5.64806">
        <ele>986.5</ele>
        <time>2025-03-16T11:13:27Z</time>
      </trkpt>
      <trkpt lat="43.53936" lon="5.64806">
        <ele>986.4</ele>
        <time>2025-03-16T11:13:28Z</time>
      </trkpt>
      <trkpt lat="43.53936" lon="5.64807">
        <ele>985.6</ele>
        <time>2025-03-16T11:13:32Z</time>
      </trkpt>
      <trkpt lat="43.53936" lon="5.64807">
        <ele>985.6</ele>
        <time>2025-03-16T11:13:50Z</time>
      </trkpt>
      <trkpt lat="43.53936" lon="5.64807">
        <ele>985.6</ele>
        <time>2025-03-16T11:13:51Z</time>
      </trkpt>
      <trkpt lat="43.53937" lon="5.64807">
        <ele>985.6</ele>
        <time>2025-03-16T11:14:05Z</time>
      </trkpt>
      <trkpt lat="43.53937" lon="5.64807">
        <ele>985.6</ele>
        <time>2025-03-16T11:14:08Z</time>
      </trkpt>
      <trkpt lat="43.53936" lon="5.64807">
        <ele>985.6</ele>
        <time>2025-03-16T11:14:12Z</time>
      </trkpt>
      <trkpt lat="43.53936" lon="5.64806">
        <ele>985.7</ele>
        <time>2025-03-16T11:14:14Z</time>
      </trkpt>
      <trkpt lat="43.53937" lon="5.64806">
        <ele>985.5</ele>
        <time>2025-03-16T11:14:25Z</time>
      </trkpt>
      <trkpt lat="43.53937" lon="5.64806">
        <ele>985.5</ele>
        <time>2025-03-16T11:14:26Z</time>
      </trkpt>
      <trkpt lat="43.53937" lon="5.64807">
        <ele>985.4</ele>
        <time>2025-03-16T11:14:31Z</time>
      </trkpt>
      <trkpt lat="43.53937" lon="5.64807">
        <ele>985.4</ele>
        <time>2025-03-16T11:14:32Z</time>
      </trkpt>
      <trkpt lat="43.53937" lon="5.64807">
        <ele>985.3</ele>
        <time>2025-03-16T11:14:37Z</time>
      </trkpt>
      <trkpt lat="43.53937" lon="5.64807">
        <ele>985.3</ele>
        <time>2025-03-16T11:14:38Z</time>
      </trkpt>
      <trkpt lat="43.53937" lon="5.64806">
        <ele>985.3</ele>
        <time>2025-03-16T11:14:49Z</time>
      </trkpt>
      <trkpt lat="43.53937" lon="5.64806">
        <ele>985.2</ele>
        <time>2025-03-16T11:14:53Z</time>
      </trkpt>
      <trkpt lat="43.53937" lon="5.64806">
        <ele>985.1</ele>
        <time>2025-03-16T11:15:02Z</time>
      </trkpt>
      <trkpt lat="43.53937" lon="5.64806">
        <ele>985.1</ele>
        <time>2025-03-16T11:15:03Z</time>
      </trkpt>
      <trkpt lat="43.53937" lon="5.64806">
        <ele>985</ele>
        <time>2025-03-16T11:15:06Z</time>
      </trkpt>
      <trkpt lat="43.53938" lon="5.64806">
        <ele>984.8</ele>
        <time>2025-03-16T11:15:08Z</time>
      </trkpt>
      <trkpt lat="43.53937" lon="5.64806">
        <ele>984.8</ele>
        <time>2025-03-16T11:15:19Z</time>
      </trkpt>
      <trkpt lat="43.53937" lon="5.64806">
        <ele>984.9</ele>
        <time>2025-03-16T11:15:20Z</time>
      </trkpt>
      <trkpt lat="43.53937" lon="5.64806">
        <ele>984.8</ele>
        <time>2025-03-16T11:15:22Z</time>
      </trkpt>
      <trkpt lat="43.53938" lon="5.64806">
        <ele>985</ele>
        <time>2025-03-16T11:15:27Z</time>
      </trkpt>
      <trkpt lat="43.53938" lon="5.64806">
        <ele>985</ele>
        <time>2025-03-16T11:15:28Z</time>
      </trkpt>
      <trkpt lat="43.53938" lon="5.64806">
        <ele>985</ele>
        <time>2025-03-16T11:15:29Z</time>
      </trkpt>
      <trkpt lat="43.53938" lon="5.64806">
        <ele>984.9</ele>
        <time>2025-03-16T11:15:30Z</time>
      </trkpt>
      <trkpt lat="43.53938" lon="5.64806">
        <ele>984.7</ele>
        <time>2025-03-16T11:15:33Z</time>
      </trkpt>
      <trkpt lat="43.53938" lon="5.64806">
        <ele>984.7</ele>
        <time>2025-03-16T11:15:34Z</time>
      </trkpt>
      <trkpt lat="43.53938" lon="5.64806">
        <ele>984.7</ele>
        <time>2025-03-16T11:15:35Z</time>
      </trkpt>
      <trkpt lat="43.53938" lon="5.64806">
        <ele>984.7</ele>
        <time>2025-03-16T11:15:36Z</time>
      </trkpt>
      <trkpt lat="43.53938" lon="5.64805">
        <ele>984.6</ele>
        <time>2025-03-16T11:15:39Z</time>
      </trkpt>
      <trkpt lat="43.53938" lon="5.64805">
        <ele>984.5</ele>
        <time>2025-03-16T11:15:52Z</time>
      </trkpt>
      <trkpt lat="43.53938" lon="5.64805">
        <ele>984.5</ele>
        <time>2025-03-16T11:15:53Z</time>
      </trkpt>
      <trkpt lat="43.53938" lon="5.64805">
        <ele>984.5</ele>
        <time>2025-03-16T11:16:06Z</time>
      </trkpt>
      <trkpt lat="43.53938" lon="5.64805">
        <ele>984.5</ele>
        <time>2025-03-16T11:16:07Z</time>
      </trkpt>
      <trkpt lat="43.53938" lon="5.64805">
        <ele>984.5</ele>
        <time>2025-03-16T11:16:26Z</time>
      </trkpt>
      <trkpt lat="43.53938" lon="5.64806">
        <ele>984.4</ele>
        <time>2025-03-16T11:16:30Z</time>
      </trkpt>
      <trkpt lat="43.53938" lon="5.64806">
        <ele>984.4</ele>
        <time>2025-03-16T11:16:37Z</time>
      </trkpt>
      <trkpt lat="43.53938" lon="5.64806">
        <ele>984.4</ele>
        <time>2025-03-16T11:16:39Z</time>
      </trkpt>
      <trkpt lat="43.53938" lon="5.64806">
        <ele>984.3</ele>
        <time>2025-03-16T11:16:41Z</time>
      </trkpt>
      <trkpt lat="43.53939" lon="5.64806">
        <ele>984.5</ele>
        <time>2025-03-16T11:16:47Z</time>
      </trkpt>
      <trkpt lat="43.5394" lon="5.64807">
        <ele>984.6</ele>
        <time>2025-03-16T11:16:49Z</time>
      </trkpt>
      <trkpt lat="43.5394" lon="5.64807">
        <ele>984.5</ele>
        <time>2025-03-16T11:16:50Z</time>
      </trkpt>
      <trkpt lat="43.53939" lon="5.64807">
        <ele>984.6</ele>
        <time>2025-03-16T11:16:51Z</time>
      </trkpt>
      <trkpt lat="43.53939" lon="5.64807">
        <ele>984.6</ele>
        <time>2025-03-16T11:16:52Z</time>
      </trkpt>
      <trkpt lat="43.5394" lon="5.64807">
        <ele>984.7</ele>
        <time>2025-03-16T11:16:53Z</time>
      </trkpt>
      <trkpt lat="43.5394" lon="5.64807">
        <ele>984.6</ele>
        <time>2025-03-16T11:16:55Z</time>
      </trkpt>
      <trkpt lat="43.5394" lon="5.64807">
        <ele>984.7</ele>
        <time>2025-03-16T11:16:59Z</time>
      </trkpt>
      <trkpt lat="43.5394" lon="5.64807">
        <ele>984.7</ele>
        <time>2025-03-16T11:17:02Z</time>
      </trkpt>
      <trkpt lat="43.5394" lon="5.64807">
        <ele>984.7</ele>
        <time>2025-03-16T11:17:03Z</time>
      </trkpt>
      <trkpt lat="43.53939" lon="5.64806">
        <ele>984.6</ele>
        <time>2025-03-16T11:17:07Z</time>
      </trkpt>
      <trkpt lat="43.53939" lon="5.64807">
        <ele>984.6</ele>
        <time>2025-03-16T11:17:11Z</time>
      </trkpt>
      <trkpt lat="43.53939" lon="5.64807">
        <ele>984.7</ele>
        <time>2025-03-16T11:17:14Z</time>
      </trkpt>
      <trkpt lat="43.53939" lon="5.64808">
        <ele>984.8</ele>
        <time>2025-03-16T11:17:17Z</time>
      </trkpt>
      <trkpt lat="43.53939" lon="5.64807">
        <ele>984.8</ele>
        <time>2025-03-16T11:17:18Z</time>
      </trkpt>
      <trkpt lat="43.53939" lon="5.64808">
        <ele>984.9</ele>
        <time>2025-03-16T11:17:21Z</time>
      </trkpt>
      <trkpt lat="43.53939" lon="5.64808">
        <ele>984.9</ele>
        <time>2025-03-16T11:17:22Z</time>
      </trkpt>
      <trkpt lat="43.53939" lon="5.64808">
        <ele>984.9</ele>
        <time>2025-03-16T11:17:38Z</time>
      </trkpt>
      <trkpt lat="43.53939" lon="5.64808">
        <ele>985</ele>
        <time>2025-03-16T11:17:39Z</time>
      </trkpt>
      <trkpt lat="43.53939" lon="5.64807">
        <ele>984.8</ele>
        <time>2025-03-16T11:17:41Z</time>
      </trkpt>
      <trkpt lat="43.53939" lon="5.64807">
        <ele>984.8</ele>
        <time>2025-03-16T11:17:42Z</time>
      </trkpt>
      <trkpt lat="43.53939" lon="5.64807">
        <ele>984.8</ele>
        <time>2025-03-16T11:17:44Z</time>
      </trkpt>
      <trkpt lat="43.53938" lon="5.64807">
        <ele>984.7</ele>
        <time>2025-03-16T11:17:46Z</time>
      </trkpt>
      <trkpt lat="43.53938" lon="5.64806">
        <ele>984.6</ele>
        <time>2025-03-16T11:17:47Z</time>
      </trkpt>
      <trkpt lat="43.53938" lon="5.64806">
        <ele>984.5</ele>
        <time>2025-03-16T11:17:49Z</time>
      </trkpt>
      <trkpt lat="43.53938" lon="5.64806">
        <ele>984.5</ele>
        <time>2025-03-16T11:17:50Z</time>
      </trkpt>
      <trkpt lat="43.53938" lon="5.64806">
        <ele>984.5</ele>
        <time>2025-03-16T11:17:53Z</time>
      </trkpt>
      <trkpt lat="43.53938" lon="5.64806">
        <ele>984.5</ele>
        <time>2025-03-16T11:17:59Z</time>
      </trkpt>
      <trkpt lat="43.53938" lon="5.64806">
        <ele>984.4</ele>
        <time>2025-03-16T11:18:00Z</time>
      </trkpt>
      <trkpt lat="43.53938" lon="5.64807">
        <ele>984.3</ele>
        <time>2025-03-16T11:18:01Z</time>
      </trkpt>
      <trkpt lat="43.53938" lon="5.64807">
        <ele>984.3</ele>
        <time>2025-03-16T11:18:04Z</time>
      </trkpt>
      <trkpt lat="43.53938" lon="5.64807">
        <ele>984.4</ele>
        <time>2025-03-16T11:18:05Z</time>
      </trkpt>
      <trkpt lat="43.53938" lon="5.64807">
        <ele>984.3</ele>
        <time>2025-03-16T11:18:10Z</time>
      </trkpt>
      <trkpt lat="43.53938" lon="5.64806">
        <ele>984.2</ele>
        <time>2025-03-16T11:18:11Z</time>
      </trkpt>
      <trkpt lat="43.53941" lon="5.64807">
        <ele>983.6</ele>
        <time>2025-03-16T11:18:16Z</time>
      </trkpt>
      <trkpt lat="43.53942" lon="5.64809">
        <ele>983.4</ele>
        <time>2025-03-16T11:18:17Z</time>
      </trkpt>
      <trkpt lat="43.53943" lon="5.6481">
        <ele>983</ele>
        <time>2025-03-16T11:18:19Z</time>
      </trkpt>
      <trkpt lat="43.53942" lon="5.64809">
        <ele>983</ele>
        <time>2025-03-16T11:18:20Z</time>
      </trkpt>
      <trkpt lat="43.53942" lon="5.64809">
        <ele>983</ele>
        <time>2025-03-16T11:18:21Z</time>
      </trkpt>
      <trkpt lat="43.53942" lon="5.64809">
        <ele>983</ele>
        <time>2025-03-16T11:18:39Z</time>
      </trkpt>
      <trkpt lat="43.53941" lon="5.64809">
        <ele>983</ele>
        <time>2025-03-16T11:18:44Z</time>
      </trkpt>
      <trkpt lat="43.53941" lon="5.64809">
        <ele>983</ele>
        <time>2025-03-16T11:18:49Z</time>
      </trkpt>
      <trkpt lat="43.5394" lon="5.64808">
        <ele>982.9</ele>
        <time>2025-03-16T11:18:54Z</time>
      </trkpt>
      <trkpt lat="43.5394" lon="5.64808">
        <ele>982.8</ele>
        <time>2025-03-16T11:18:56Z</time>
      </trkpt>
      <trkpt lat="43.5394" lon="5.64808">
        <ele>982.8</ele>
        <time>2025-03-16T11:18:57Z</time>
      </trkpt>
      <trkpt lat="43.5394" lon="5.64807">
        <ele>982.7</ele>
        <time>2025-03-16T11:19:01Z</time>
      </trkpt>
      <trkpt lat="43.53939" lon="5.64806">
        <ele>982.7</ele>
        <time>2025-03-16T11:19:07Z</time>
      </trkpt>
      <trkpt lat="43.53939" lon="5.64806">
        <ele>982.7</ele>
        <time>2025-03-16T11:19:08Z</time>
      </trkpt>
      <trkpt lat="43.53939" lon="5.64806">
        <ele>982.7</ele>
        <time>2025-03-16T11:19:09Z</time>
      </trkpt>
      <trkpt lat="43.53939" lon="5.64806">
        <ele>982.7</ele>
        <time>2025-03-16T11:19:29Z</time>
      </trkpt>
      <trkpt lat="43.53939" lon="5.64807">
        <ele>982.7</ele>
        <time>2025-03-16T11:19:31Z</time>
      </trkpt>
      <trkpt lat="43.53939" lon="5.64807">
        <ele>982.7</ele>
        <time>2025-03-16T11:19:33Z</time>
      </trkpt>
      <trkpt lat="43.53939" lon="5.64807">
        <ele>982.7</ele>
        <time>2025-03-16T11:19:34Z</time>
      </trkpt>
      <trkpt lat="43.53939" lon="5.64807">
        <ele>982.7</ele>
        <time>2025-03-16T11:19:35Z</time>
      </trkpt>
      <trkpt lat="43.53938" lon="5.64807">
        <ele>982.6</ele>
        <time>2025-03-16T11:19:42Z</time>
      </trkpt>
      <trkpt lat="43.53938" lon="5.64807">
        <ele>982.4</ele>
        <time>2025-03-16T11:19:45Z</time>
      </trkpt>
      <trkpt lat="43.53938" lon="5.64807">
        <ele>982.4</ele>
        <time>2025-03-16T11:19:46Z</time>
      </trkpt>
      <trkpt lat="43.53938" lon="5.64807">
        <ele>982.5</ele>
        <time>2025-03-16T11:19:50Z</time>
      </trkpt>
      <trkpt lat="43.53938" lon="5.64808">
        <ele>982.2</ele>
        <time>2025-03-16T11:19:53Z</time>
      </trkpt>
      <trkpt lat="43.53938" lon="5.64808">
        <ele>982.1</ele>
        <time>2025-03-16T11:19:54Z</time>
      </trkpt>
      <trkpt lat="43.53938" lon="5.64808">
        <ele>982.1</ele>
        <time>2025-03-16T11:19:55Z</time>
      </trkpt>
      <trkpt lat="43.53938" lon="5.64808">
        <ele>982.1</ele>
        <time>2025-03-16T11:19:56Z</time>
      </trkpt>
      <trkpt lat="43.53938" lon="5.64808">
        <ele>982</ele>
        <time>2025-03-16T11:19:57Z</time>
      </trkpt>
      <trkpt lat="43.53938" lon="5.64808">
        <ele>982</ele>
        <time>2025-03-16T11:19:58Z</time>
      </trkpt>
      <trkpt lat="43.53935" lon="5.64804">
        <ele>981.5</ele>
        <time>2025-03-16T11:20:08Z</time>
      </trkpt>
      <trkpt lat="43.53935" lon="5.64804">
        <ele>981.4</ele>
        <time>2025-03-16T11:20:09Z</time>
      </trkpt>
      <trkpt lat="43.53943" lon="5.64797">
        <ele>980.7</ele>
        <time>2025-03-16T11:20:24Z</time>
      </trkpt>
      <trkpt lat="43.53936" lon="5.64804">
        <ele>979.9</ele>
        <time>2025-03-16T11:20:45Z</time>
      </trkpt>
      <trkpt lat="43.53926" lon="5.64808">
        <ele>978.2</ele>
        <time>2025-03-16T11:21:22Z</time>
      </trkpt>
      <trkpt lat="43.53936" lon="5.64809">
        <ele>978</ele>
        <time>2025-03-16T11:21:39Z</time>
      </trkpt>
      <trkpt lat="43.53938" lon="5.6482">
        <ele>978</ele>
        <time>2025-03-16T11:21:50Z</time>
      </trkpt>
      <trkpt lat="43.53938" lon="5.6482">
        <ele>978</ele>
        <time>2025-03-16T11:21:51Z</time>
      </trkpt>
      <trkpt lat="43.53937" lon="5.64807">
        <ele>976.9</ele>
        <time>2025-03-16T11:22:24Z</time>
      </trkpt>
      <trkpt lat="43.53935" lon="5.6482">
        <ele>976.6</ele>
        <time>2025-03-16T11:22:36Z</time>
      </trkpt>
      <trkpt lat="43.53937" lon="5.6482">
        <ele>976</ele>
        <time>2025-03-16T11:22:51Z</time>
      </trkpt>
      <trkpt lat="43.53937" lon="5.6482">
        <ele>975.9</ele>
        <time>2025-03-16T11:22:52Z</time>
      </trkpt>
      <trkpt lat="43.53936" lon="5.64807">
        <ele>975.5</ele>
        <time>2025-03-16T11:23:05Z</time>
      </trkpt>
      <trkpt lat="43.53936" lon="5.64804">
        <ele>975.3</ele>
        <time>2025-03-16T11:23:08Z</time>
      </trkpt>
      <trkpt lat="43.53935" lon="5.64804">
        <ele>975.1</ele>
        <time>2025-03-16T11:23:10Z</time>
      </trkpt>
      <trkpt lat="43.53935" lon="5.64812">
        <ele>973.7</ele>
        <time>2025-03-16T11:23:19Z</time>
      </trkpt>
      <trkpt lat="43.53934" lon="5.64813">
        <ele>973.7</ele>
        <time>2025-03-16T11:23:20Z</time>
      </trkpt>
      <trkpt lat="43.53943" lon="5.64809">
        <ele>974.4</ele>
        <time>2025-03-16T11:23:48Z</time>
      </trkpt>
      <trkpt lat="43.53937" lon="5.64812">
        <ele>972.5</ele>
        <time>2025-03-16T11:24:17Z</time>
      </trkpt>
      <trkpt lat="43.53938" lon="5.64812">
        <ele>972.4</ele>
        <time>2025-03-16T11:24:18Z</time>
      </trkpt>
      <trkpt lat="43.53943" lon="5.64801">
        <ele>971.5</ele>
        <time>2025-03-16T11:24:59Z</time>
      </trkpt>
      <trkpt lat="43.53942" lon="5.64813">
        <ele>973.2</ele>
        <time>2025-03-16T11:25:30Z</time>
      </trkpt>
      <trkpt lat="43.53942" lon="5.64813">
        <ele>973.4</ele>
        <time>2025-03-16T11:25:31Z</time>
      </trkpt>
      <trkpt lat="43.53951" lon="5.64809">
        <ele>973.3</ele>
        <time>2025-03-16T11:26:03Z</time>
      </trkpt>
      <trkpt lat="43.53943" lon="5.64815">
        <ele>973.1</ele>
        <time>2025-03-16T11:26:10Z</time>
      </trkpt>
      <trkpt lat="43.53949" lon="5.64821">
        <ele>974.7</ele>
        <time>2025-03-16T11:26:32Z</time>
      </trkpt>
      <trkpt lat="43.5395" lon="5.6482">
        <ele>974.8</ele>
        <time>2025-03-16T11:26:33Z</time>
      </trkpt>
      <trkpt lat="43.53943" lon="5.64811">
        <ele>974.9</ele>
        <time>2025-03-16T11:26:54Z</time>
      </trkpt>
      <trkpt lat="43.53948" lon="5.64816">
        <ele>972.8</ele>
        <time>2025-03-16T11:27:23Z</time>
      </trkpt>
      <trkpt lat="43.53948" lon="5.64816">
        <ele>972.8</ele>
        <time>2025-03-16T11:27:24Z</time>
      </trkpt>
      <trkpt lat="43.53951" lon="5.64803">
        <ele>973.3</ele>
        <time>2025-03-16T11:27:39Z</time>
      </trkpt>
      <trkpt lat="43.53946" lon="5.64813">
        <ele>973.9</ele>
        <time>2025-03-16T11:28:07Z</time>
      </trkpt>
      <trkpt lat="43.53942" lon="5.64818">
        <ele>974.2</ele>
        <time>2025-03-16T11:28:15Z</time>
      </trkpt>
      <trkpt lat="43.53942" lon="5.64818">
        <ele>974.1</ele>
        <time>2025-03-16T11:28:16Z</time>
      </trkpt>
      <trkpt lat="43.53939" lon="5.64806">
        <ele>976.2</ele>
        <time>2025-03-16T11:28:53Z</time>
      </trkpt>
      <trkpt lat="43.53937" lon="5.648">
        <ele>976.1</ele>
        <time>2025-03-16T11:29:08Z</time>
      </trkpt>
      <trkpt lat="43.53938" lon="5.64799">
        <ele>976</ele>
        <time>2025-03-16T11:29:09Z</time>
      </trkpt>
      <trkpt lat="43.53937" lon="5.64813">
        <ele>975.8</ele>
        <time>2025-03-16T11:30:13Z</time>
      </trkpt>
      <trkpt lat="43.53941" lon="5.64801">
        <ele>976.5</ele>
        <time>2025-03-16T11:30:27Z</time>
      </trkpt>
      <trkpt lat="43.53941" lon="5.64801">
        <ele>976.7</ele>
        <time>2025-03-16T11:30:29Z</time>
      </trkpt>
      <trkpt lat="43.53941" lon="5.64801">
        <ele>976.7</ele>
        <time>2025-03-16T11:30:30Z</time>
      </trkpt>
      <trkpt lat="43.53932" lon="5.64806">
        <ele>976.2</ele>
        <time>2025-03-16T11:30:40Z</time>
      </trkpt>
      <trkpt lat="43.53938" lon="5.64803">
        <ele>977.2</ele>
        <time>2025-03-16T11:31:14Z</time>
      </trkpt>
      <trkpt lat="43.53938" lon="5.64803">
        <ele>977.2</ele>
        <time>2025-03-16T11:31:23Z</time>
      </trkpt>
      <trkpt lat="43.53938" lon="5.64803">
        <ele>977.2</ele>
        <time>2025-03-16T11:31:24Z</time>
      </trkpt>
      <trkpt lat="43.53938" lon="5.64803">
        <ele>977.3</ele>
        <time>2025-03-16T11:31:36Z</time>
      </trkpt>
      <trkpt lat="43.53938" lon="5.64803">
        <ele>977.3</ele>
        <time>2025-03-16T11:31:37Z</time>
      </trkpt>
      <trkpt lat="43.53938" lon="5.64803">
        <ele>977.3</ele>
        <time>2025-03-16T11:31:38Z</time>
      </trkpt>
      <trkpt lat="43.53938" lon="5.64803">
        <ele>979.5</ele>
        <time>2025-03-16T11:31:44Z</time>
      </trkpt>
      <trkpt lat="43.53938" lon="5.64803">
        <ele>979.6</ele>
        <time>2025-03-16T11:31:46Z</time>
      </trkpt>
      <trkpt lat="43.53946" lon="5.64811">
        <ele>982.7</ele>
        <time>2025-03-16T11:31:59Z</time>
      </trkpt>
      <trkpt lat="43.53948" lon="5.64813">
        <ele>985.1</ele>
        <time>2025-03-16T11:32:07Z</time>
      </trkpt>
      <trkpt lat="43.53948" lon="5.64813">
        <ele>985.2</ele>
        <time>2025-03-16T11:32:08Z</time>
      </trkpt>
      <trkpt lat="43.53948" lon="5.64813">
        <ele>985.5</ele>
        <time>2025-03-16T11:32:09Z</time>
      </trkpt>
      <trkpt lat="43.53948" lon="5.64812">
        <ele>986</ele>
        <time>2025-03-16T11:32:11Z</time>
      </trkpt>
      <trkpt lat="43.53943" lon="5.6481">
        <ele>988.1</ele>
        <time>2025-03-16T11:32:20Z</time>
      </trkpt>
      <trkpt lat="43.53944" lon="5.64811">
        <ele>988.5</ele>
        <time>2025-03-16T11:32:21Z</time>
      </trkpt>
      <trkpt lat="43.53944" lon="5.64811">
        <ele>988.8</ele>
        <time>2025-03-16T11:32:34Z</time>
      </trkpt>
      <trkpt lat="43.53944" lon="5.64812">
        <ele>988.7</ele>
        <time>2025-03-16T11:32:40Z</time>
      </trkpt>
      <trkpt lat="43.53944" lon="5.64812">
        <ele>988.8</ele>
        <time>2025-03-16T11:32:43Z</time>
      </trkpt>
      <trkpt lat="43.53944" lon="5.64812">
        <ele>988.9</ele>
        <time>2025-03-16T11:32:44Z</time>
      </trkpt>
      <trkpt lat="43.53944" lon="5.64812">
        <ele>989</ele>
        <time>2025-03-16T11:32:45Z</time>
      </trkpt>
      <trkpt lat="43.53943" lon="5.64812">
        <ele>989.1</ele>
        <time>2025-03-16T11:32:48Z</time>
      </trkpt>
      <trkpt lat="43.53943" lon="5.64812">
        <ele>989.1</ele>
        <time>2025-03-16T11:32:49Z</time>
      </trkpt>
      <trkpt lat="43.53943" lon="5.64812">
        <ele>989.1</ele>
        <time>2025-03-16T11:32:51Z</time>
      </trkpt>
      <trkpt lat="43.53943" lon="5.64812">
        <ele>989.1</ele>
        <time>2025-03-16T11:32:52Z</time>
      </trkpt>
      <trkpt lat="43.53943" lon="5.64811">
        <ele>988.7</ele>
        <time>2025-03-16T11:32:53Z</time>
      </trkpt>
      <trkpt lat="43.53943" lon="5.64811">
        <ele>988.5</ele>
        <time>2025-03-16T11:32:54Z</time>
      </trkpt>
      <trkpt lat="43.53943" lon="5.64811">
        <ele>988.6</ele>
        <time>2025-03-16T11:32:55Z</time>
      </trkpt>
      <trkpt lat="43.53943" lon="5.64811">
        <ele>988.6</ele>
        <time>2025-03-16T11:32:57Z</time>
      </trkpt>
      <trkpt lat="43.53942" lon="5.64811">
        <ele>989.2</ele>
        <time>2025-03-16T11:33:09Z</time>
      </trkpt>
      <trkpt lat="43.53942" lon="5.6481">
        <ele>989.4</ele>
        <time>2025-03-16T11:33:10Z</time>
      </trkpt>
      <trkpt lat="43.53942" lon="5.6481">
        <ele>989.5</ele>
        <time>2025-03-16T11:33:11Z</time>
      </trkpt>
      <trkpt lat="43.53941" lon="5.6481">
        <ele>990.4</ele>
        <time>2025-03-16T11:33:17Z</time>
      </trkpt>
      <trkpt lat="43.53941" lon="5.6481">
        <ele>990.5</ele>
        <time>2025-03-16T11:33:18Z</time>
      </trkpt>
      <trkpt lat="43.53941" lon="5.6481">
        <ele>990.9</ele>
        <time>2025-03-16T11:33:21Z</time>
      </trkpt>
      <trkpt lat="43.53941" lon="5.6481">
        <ele>991</ele>
        <time>2025-03-16T11:33:22Z</time>
      </trkpt>
      <trkpt lat="43.53941" lon="5.64809">
        <ele>991.2</ele>
        <time>2025-03-16T11:33:24Z</time>
      </trkpt>
      <trkpt lat="43.53941" lon="5.6481">
        <ele>991.3</ele>
        <time>2025-03-16T11:33:25Z</time>
      </trkpt>
      <trkpt lat="43.53941" lon="5.6481">
        <ele>991.2</ele>
        <time>2025-03-16T11:33:26Z</time>
      </trkpt>
      <trkpt lat="43.53941" lon="5.6481">
        <ele>991.2</ele>
        <time>2025-03-16T11:33:27Z</time>
      </trkpt>
      <trkpt lat="43.53941" lon="5.6481">
        <ele>991.3</ele>
        <time>2025-03-16T11:33:29Z</time>
      </trkpt>
      <trkpt lat="43.53941" lon="5.64809">
        <ele>991.2</ele>
        <time>2025-03-16T11:33:30Z</time>
      </trkpt>
      <trkpt lat="43.53941" lon="5.64809">
        <ele>991.3</ele>
        <time>2025-03-16T11:33:31Z</time>
      </trkpt>
      <trkpt lat="43.53942" lon="5.64809">
        <ele>991.5</ele>
        <time>2025-03-16T11:33:33Z</time>
      </trkpt>
      <trkpt lat="43.53942" lon="5.64809">
        <ele>991.5</ele>
        <time>2025-03-16T11:33:34Z</time>
      </trkpt>
      <trkpt lat="43.53941" lon="5.64809">
        <ele>991.7</ele>
        <time>2025-03-16T11:33:36Z</time>
      </trkpt>
      <trkpt lat="43.53941" lon="5.64809">
        <ele>991.8</ele>
        <time>2025-03-16T11:33:39Z</time>
      </trkpt>
      <trkpt lat="43.5394" lon="5.64809">
        <ele>991.9</ele>
        <time>2025-03-16T11:33:41Z</time>
      </trkpt>
      <trkpt lat="43.5394" lon="5.64809">
        <ele>991.9</ele>
        <time>2025-03-16T11:33:43Z</time>
      </trkpt>
      <trkpt lat="43.5394" lon="5.64809">
        <ele>991.8</ele>
        <time>2025-03-16T11:33:46Z</time>
      </trkpt>
      <trkpt lat="43.5394" lon="5.64809">
        <ele>991.9</ele>
        <time>2025-03-16T11:33:48Z</time>
      </trkpt>
      <trkpt lat="43.5394" lon="5.64809">
        <ele>991.8</ele>
        <time>2025-03-16T11:33:50Z</time>
      </trkpt>
      <trkpt lat="43.5394" lon="5.64809">
        <ele>991.8</ele>
        <time>2025-03-16T11:33:51Z</time>
      </trkpt>
      <trkpt lat="43.5394" lon="5.64809">
        <ele>991.8</ele>
        <time>2025-03-16T11:33:52Z</time>
      </trkpt>
      <trkpt lat="43.5394" lon="5.64809">
        <ele>991.8</ele>
        <time>2025-03-16T11:33:54Z</time>
      </trkpt>
      <trkpt lat="43.5394" lon="5.64809">
        <ele>991.7</ele>
        <time>2025-03-16T11:33:55Z</time>
      </trkpt>
      <trkpt lat="43.5394" lon="5.64809">
        <ele>991.7</ele>
        <time>2025-03-16T11:33:56Z</time>
      </trkpt>
      <trkpt lat="43.5394" lon="5.6481">
        <ele>991.7</ele>
        <time>2025-03-16T11:33:58Z</time>
      </trkpt>
      <trkpt lat="43.5394" lon="5.6481">
        <ele>991.7</ele>
        <time>2025-03-16T11:33:59Z</time>
      </trkpt>
      <trkpt lat="43.5394" lon="5.6481">
        <ele>991.7</ele>
        <time>2025-03-16T11:34:02Z</time>
      </trkpt>
      <trkpt lat="43.5394" lon="5.6481">
        <ele>991.7</ele>
        <time>2025-03-16T11:34:03Z</time>
      </trkpt>
      <trkpt lat="43.5394" lon="5.6481">
        <ele>991.7</ele>
        <time>2025-03-16T11:34:04Z</time>
      </trkpt>
      <trkpt lat="43.5394" lon="5.6481">
        <ele>991.9</ele>
        <time>2025-03-16T11:34:06Z</time>
      </trkpt>
      <trkpt lat="43.53939" lon="5.6481">
        <ele>991.9</ele>
        <time>2025-03-16T11:34:08Z</time>
      </trkpt>
      <trkpt lat="43.53939" lon="5.64811">
        <ele>991.7</ele>
        <time>2025-03-16T11:34:14Z</time>
      </trkpt>
      <trkpt lat="43.53939" lon="5.6481">
        <ele>991.8</ele>
        <time>2025-03-16T11:34:16Z</time>
      </trkpt>
      <trkpt lat="43.53939" lon="5.64811">
        <ele>991.8</ele>
        <time>2025-03-16T11:34:18Z</time>
      </trkpt>
      <trkpt lat="43.53939" lon="5.6481">
        <ele>991.9</ele>
        <time>2025-03-16T11:34:19Z</time>
      </trkpt>
      <trkpt lat="43.53939" lon="5.64811">
        <ele>991.8</ele>
        <time>2025-03-16T11:34:20Z</time>
      </trkpt>
      <trkpt lat="43.53939" lon="5.64811">
        <ele>991.8</ele>
        <time>2025-03-16T11:34:21Z</time>
      </trkpt>
      <trkpt lat="43.53939" lon="5.6481">
        <ele>992</ele>
        <time>2025-03-16T11:34:29Z</time>
      </trkpt>
      <trkpt lat="43.53939" lon="5.6481">
        <ele>992.1</ele>
        <time>2025-03-16T11:34:32Z</time>
      </trkpt>
      <trkpt lat="43.53939" lon="5.6481">
        <ele>992</ele>
        <time>2025-03-16T11:34:33Z</time>
      </trkpt>
      <trkpt lat="43.5394" lon="5.6481">
        <ele>992</ele>
        <time>2025-03-16T11:34:34Z</time>
      </trkpt>
      <trkpt lat="43.5394" lon="5.6481">
        <ele>992.1</ele>
        <time>2025-03-16T11:34:38Z</time>
      </trkpt>
      <trkpt lat="43.5394" lon="5.6481">
        <ele>992.1</ele>
        <time>2025-03-16T11:34:39Z</time>
      </trkpt>
      <trkpt lat="43.5394" lon="5.6481">
        <ele>992.1</ele>
        <time>2025-03-16T11:34:41Z</time>
      </trkpt>
      <trkpt lat="43.5394" lon="5.64809">
        <ele>992.1</ele>
        <time>2025-03-16T11:34:42Z</time>
      </trkpt>
      <trkpt lat="43.5394" lon="5.64809">
        <ele>992.3</ele>
        <time>2025-03-16T11:34:44Z</time>
      </trkpt>
      <trkpt lat="43.5394" lon="5.64809">
        <ele>992.8</ele>
        <time>2025-03-16T11:35:06Z</time>
      </trkpt>
      <trkpt lat="43.5394" lon="5.64809">
        <ele>994.1</ele>
        <time>2025-03-16T11:35:16Z</time>
      </trkpt>
      <trkpt lat="43.5394" lon="5.64809">
        <ele>994.2</ele>
        <time>2025-03-16T11:35:17Z</time>
      </trkpt>
      <trkpt lat="43.5394" lon="5.64809">
        <ele>994.5</ele>
        <time>2025-03-16T11:35:22Z</time>
      </trkpt>
      <trkpt lat="43.5394" lon="5.64809">
        <ele>994.6</ele>
        <time>2025-03-16T11:35:24Z</time>
      </trkpt>
      <trkpt lat="43.5394" lon="5.64809">
        <ele>994.6</ele>
        <time>2025-03-16T11:35:25Z</time>
      </trkpt>
      <trkpt lat="43.5394" lon="5.6481">
        <ele>994.6</ele>
        <time>2025-03-16T11:35:26Z</time>
      </trkpt>
      <trkpt lat="43.5394" lon="5.6481">
        <ele>994.6</ele>
        <time>2025-03-16T11:35:27Z</time>
      </trkpt>
      <trkpt lat="43.53939" lon="5.6481">
        <ele>994.8</ele>
        <time>2025-03-16T11:35:30Z</time>
      </trkpt>
      <trkpt lat="43.53938" lon="5.64811">
        <ele>996.1</ele>
        <time>2025-03-16T11:35:48Z</time>
      </trkpt>
      <trkpt lat="43.53938" lon="5.64811">
        <ele>996.1</ele>
        <time>2025-03-16T11:35:49Z</time>
      </trkpt>
      <trkpt lat="43.53938" lon="5.64811">
        <ele>996.1</ele>
        <time>2025-03-16T11:35:50Z</time>
      </trkpt>
      <trkpt lat="43.53938" lon="5.64811">
        <ele>996.1</ele>
        <time>2025-03-16T11:35:51Z</time>
      </trkpt>
      <trkpt lat="43.53937" lon="5.6481">
        <ele>996.5</ele>
        <time>2025-03-16T11:35:56Z</time>
      </trkpt>
      <trkpt lat="43.53937" lon="5.6481">
        <ele>996.6</ele>
        <time>2025-03-16T11:35:57Z</time>
      </trkpt>
      <trkpt lat="43.53937" lon="5.6481">
        <ele>996.8</ele>
        <time>2025-03-16T11:35:59Z</time>
      </trkpt>
      <trkpt lat="43.53937" lon="5.6481">
        <ele>996.9</ele>
        <time>2025-03-16T11:36:00Z</time>
      </trkpt>
      <trkpt lat="43.53936" lon="5.64809">
        <ele>997.9</ele>
        <time>2025-03-16T11:36:16Z</time>
      </trkpt>
      <trkpt lat="43.53936" lon="5.64809">
        <ele>997.9</ele>
        <time>2025-03-16T11:36:18Z</time>
      </trkpt>
      <trkpt lat="43.53936" lon="5.6481">
        <ele>997.8</ele>
        <time>2025-03-16T11:36:21Z</time>
      </trkpt>
      <trkpt lat="43.53935" lon="5.6481">
        <ele>997.8</ele>
        <time>2025-03-16T11:36:22Z</time>
      </trkpt>
      <trkpt lat="43.53935" lon="5.6481">
        <ele>997.8</ele>
        <time>2025-03-16T11:36:24Z</time>
      </trkpt>
      <trkpt lat="43.53936" lon="5.6481">
        <ele>997.7</ele>
        <time>2025-03-16T11:36:25Z</time>
      </trkpt>
      <trkpt lat="43.53936" lon="5.6481">
        <ele>997.7</ele>
        <time>2025-03-16T11:36:26Z</time>
      </trkpt>
      <trkpt lat="43.53936" lon="5.6481">
        <ele>997.7</ele>
        <time>2025-03-16T11:36:31Z</time>
      </trkpt>
      <trkpt lat="43.53936" lon="5.6481">
        <ele>997.7</ele>
        <time>2025-03-16T11:36:32Z</time>
      </trkpt>
      <trkpt lat="43.53936" lon="5.6481">
        <ele>997.5</ele>
        <time>2025-03-16T11:36:40Z</time>
      </trkpt>
      <trkpt lat="43.53936" lon="5.6481">
        <ele>997.4</ele>
        <time>2025-03-16T11:36:41Z</time>
      </trkpt>
      <trkpt lat="43.53936" lon="5.6481">
        <ele>997.1</ele>
        <time>2025-03-16T11:36:43Z</time>
      </trkpt>
      <trkpt lat="43.53936" lon="5.64811">
        <ele>996.6</ele>
        <time>2025-03-16T11:36:52Z</time>
      </trkpt>
      <trkpt lat="43.53936" lon="5.64811">
        <ele>996.7</ele>
        <time>2025-03-16T11:36:55Z</time>
      </trkpt>
      <trkpt lat="43.53938" lon="5.6481">
        <ele>995.3</ele>
        <time>2025-03-16T11:37:08Z</time>
      </trkpt>
      <trkpt lat="43.53938" lon="5.6481">
        <ele>995.2</ele>
        <time>2025-03-16T11:37:13Z</time>
      </trkpt>
      <trkpt lat="43.53938" lon="5.64809">
        <ele>995.3</ele>
        <time>2025-03-16T11:37:15Z</time>
      </trkpt>
      <trkpt lat="43.53938" lon="5.64809">
        <ele>995.1</ele>
        <time>2025-03-16T11:37:24Z</time>
      </trkpt>
      <trkpt lat="43.53938" lon="5.64809">
        <ele>994.9</ele>
        <time>2025-03-16T11:37:26Z</time>
      </trkpt>
      <trkpt lat="43.53938" lon="5.64808">
        <ele>994.9</ele>
        <time>2025-03-16T11:37:31Z</time>
      </trkpt>
      <trkpt lat="43.53938" lon="5.64808">
        <ele>994.9</ele>
        <time>2025-03-16T11:37:32Z</time>
      </trkpt>
      <trkpt lat="43.53937" lon="5.64808">
        <ele>995</ele>
        <time>2025-03-16T11:37:34Z</time>
      </trkpt>
      <trkpt lat="43.53937" lon="5.64808">
        <ele>995</ele>
        <time>2025-03-16T11:37:35Z</time>
      </trkpt>
      <trkpt lat="43.53937" lon="5.64808">
        <ele>995</ele>
        <time>2025-03-16T11:37:43Z</time>
      </trkpt>
      <trkpt lat="43.53937" lon="5.64808">
        <ele>994.8</ele>
        <time>2025-03-16T11:37:45Z</time>
      </trkpt>
      <trkpt lat="43.53938" lon="5.64808">
        <ele>994.7</ele>
        <time>2025-03-16T11:37:46Z</time>
      </trkpt>
      <trkpt lat="43.53938" lon="5.64808">
        <ele>994.7</ele>
        <time>2025-03-16T11:37:47Z</time>
      </trkpt>
      <trkpt lat="43.53938" lon="5.64808">
        <ele>994.4</ele>
        <time>2025-03-16T11:37:59Z</time>
      </trkpt>
      <trkpt lat="43.53938" lon="5.64808">
        <ele>994.4</ele>
        <time>2025-03-16T11:38:00Z</time>
      </trkpt>
      <trkpt lat="43.53938" lon="5.64808">
        <ele>994.1</ele>
        <time>2025-03-16T11:38:14Z</time>
      </trkpt>
      <trkpt lat="43.53939" lon="5.64808">
        <ele>993.5</ele>
        <time>2025-03-16T11:38:19Z</time>
      </trkpt>
      <trkpt lat="43.53939" lon="5.64808">
        <ele>993.5</ele>
        <time>2025-03-16T11:38:36Z</time>
      </trkpt>
      <trkpt lat="43.53939" lon="5.64808">
        <ele>993.5</ele>
        <time>2025-03-16T11:38:37Z</time>
      </trkpt>
      <trkpt lat="43.53939" lon="5.64808">
        <ele>993.5</ele>
        <time>2025-03-16T11:38:41Z</time>
      </trkpt>
      <trkpt lat="43.53939" lon="5.64808">
        <ele>993.5</ele>
        <time>2025-03-16T11:38:42Z</time>
      </trkpt>
      <trkpt lat="43.53939" lon="5.64808">
        <ele>993.5</ele>
        <time>2025-03-16T11:38:52Z</time>
      </trkpt>
      <trkpt lat="43.53939" lon="5.64808">
        <ele>993.5</ele>
        <time>2025-03-16T11:38:53Z</time>
      </trkpt>
      <trkpt lat="43.53939" lon="5.64808">
        <ele>993.5</ele>
        <time>2025-03-16T11:38:57Z</time>
      </trkpt>
      <trkpt lat="43.53939" lon="5.64808">
        <ele>993.6</ele>
        <time>2025-03-16T11:38:59Z</time>
      </trkpt>
      <trkpt lat="43.53939" lon="5.64809">
        <ele>993.7</ele>
        <time>2025-03-16T11:39:04Z</time>
      </trkpt>
      <trkpt lat="43.53939" lon="5.64808">
        <ele>993.8</ele>
        <time>2025-03-16T11:39:05Z</time>
      </trkpt>
      <trkpt lat="43.53939" lon="5.64808">
        <ele>993.8</ele>
        <time>2025-03-16T11:39:06Z</time>
      </trkpt>
      <trkpt lat="43.53939" lon="5.64808">
        <ele>994</ele>
        <time>2025-03-16T11:39:08Z</time>
      </trkpt>
      <trkpt lat="43.53938" lon="5.64809">
        <ele>994</ele>
        <time>2025-03-16T11:39:16Z</time>
      </trkpt>
      <trkpt lat="43.53938" lon="5.64809">
        <ele>994</ele>
        <time>2025-03-16T11:39:17Z</time>
      </trkpt>
      <trkpt lat="43.53939" lon="5.64809">
        <ele>994</ele>
        <time>2025-03-16T11:39:22Z</time>
      </trkpt>
      <trkpt lat="43.53939" lon="5.64809">
        <ele>994</ele>
        <time>2025-03-16T11:39:23Z</time>
      </trkpt>
      <trkpt lat="43.53939" lon="5.64809">
        <ele>994</ele>
        <time>2025-03-16T11:39:24Z</time>
      </trkpt>
      <trkpt lat="43.53939" lon="5.64809">
        <ele>994</ele>
        <time>2025-03-16T11:39:25Z</time>
      </trkpt>
      <trkpt lat="43.53939" lon="5.64809">
        <ele>993.9</ele>
        <time>2025-03-16T11:39:26Z</time>
      </trkpt>
      <trkpt lat="43.53939" lon="5.64809">
        <ele>994</ele>
        <time>2025-03-16T11:39:27Z</time>
      </trkpt>
      <trkpt lat="43.53939" lon="5.64809">
        <ele>994</ele>
        <time>2025-03-16T11:39:32Z</time>
      </trkpt>
      <trkpt lat="43.53939" lon="5.64809">
        <ele>994</ele>
        <time>2025-03-16T11:39:34Z</time>
      </trkpt>
      <trkpt lat="43.53939" lon="5.64809">
        <ele>993.9</ele>
        <time>2025-03-16T11:40:04Z</time>
      </trkpt>
      <trkpt lat="43.53939" lon="5.64809">
        <ele>993.9</ele>
        <time>2025-03-16T11:40:05Z</time>
      </trkpt>
      <trkpt lat="43.53939" lon="5.64809">
        <ele>993.9</ele>
        <time>2025-03-16T11:40:06Z</time>
      </trkpt>
      <trkpt lat="43.53939" lon="5.64809">
        <ele>993.9</ele>
        <time>2025-03-16T11:40:07Z</time>
      </trkpt>
      <trkpt lat="43.53939" lon="5.64809">
        <ele>993.8</ele>
        <time>2025-03-16T11:40:10Z</time>
      </trkpt>
      <trkpt lat="43.53939" lon="5.64809">
        <ele>993.9</ele>
        <time>2025-03-16T11:40:11Z</time>
      </trkpt>
      <trkpt lat="43.53939" lon="5.6481">
        <ele>993.8</ele>
        <time>2025-03-16T11:40:12Z</time>
      </trkpt>
      <trkpt lat="43.53939" lon="5.6481">
        <ele>993.7</ele>
        <time>2025-03-16T11:40:14Z</time>
      </trkpt>
      <trkpt lat="43.5394" lon="5.6481">
        <ele>993.6</ele>
        <time>2025-03-16T11:40:53Z</time>
      </trkpt>
      <trkpt lat="43.5394" lon="5.64811">
        <ele>993.3</ele>
        <time>2025-03-16T11:40:56Z</time>
      </trkpt>
      <trkpt lat="43.5394" lon="5.64812">
        <ele>993.2</ele>
        <time>2025-03-16T11:40:58Z</time>
      </trkpt>
      <trkpt lat="43.53939" lon="5.64813">
        <ele>993.1</ele>
        <time>2025-03-16T11:41:03Z</time>
      </trkpt>
      <trkpt lat="43.53939" lon="5.64813">
        <ele>993.1</ele>
        <time>2025-03-16T11:41:04Z</time>
      </trkpt>
      <trkpt lat="43.53939" lon="5.64813">
        <ele>992.9</ele>
        <time>2025-03-16T11:41:11Z</time>
      </trkpt>
      <trkpt lat="43.53939" lon="5.64813">
        <ele>992.5</ele>
        <time>2025-03-16T11:41:25Z</time>
      </trkpt>
      <trkpt lat="43.53939" lon="5.64814">
        <ele>992.3</ele>
        <time>2025-03-16T11:41:28Z</time>
      </trkpt>
      <trkpt lat="43.53939" lon="5.64813">
        <ele>992.1</ele>
        <time>2025-03-16T11:41:40Z</time>
      </trkpt>
      <trkpt lat="43.53939" lon="5.64813">
        <ele>992.1</ele>
        <time>2025-03-16T11:41:41Z</time>
      </trkpt>
      <trkpt lat="43.53939" lon="5.64813">
        <ele>992.1</ele>
        <time>2025-03-16T11:41:48Z</time>
      </trkpt>
      <trkpt lat="43.53939" lon="5.64813">
        <ele>992.1</ele>
        <time>2025-03-16T11:41:50Z</time>
      </trkpt>
      <trkpt lat="43.53939" lon="5.64813">
        <ele>992.1</ele>
        <time>2025-03-16T11:41:51Z</time>
      </trkpt>
      <trkpt lat="43.53939" lon="5.64813">
        <ele>992.1</ele>
        <time>2025-03-16T11:41:52Z</time>
      </trkpt>
      <trkpt lat="43.53939" lon="5.64813">
        <ele>992.1</ele>
        <time>2025-03-16T11:41:53Z</time>
      </trkpt>
      <trkpt lat="43.53942" lon="5.64809">
        <ele>992</ele>
        <time>2025-03-16T11:42:03Z</time>
      </trkpt>
      <trkpt lat="43.53942" lon="5.64809">
        <ele>992</ele>
        <time>2025-03-16T11:42:06Z</time>
      </trkpt>
      <trkpt lat="43.53942" lon="5.64809">
        <ele>992.1</ele>
        <time>2025-03-16T11:42:08Z</time>
      </trkpt>
      <trkpt lat="43.53941" lon="5.64809">
        <ele>992.1</ele>
        <time>2025-03-16T11:42:11Z</time>
      </trkpt>
      <trkpt lat="43.53941" lon="5.64809">
        <ele>992.1</ele>
        <time>2025-03-16T11:42:12Z</time>
      </trkpt>
      <trkpt lat="43.53941" lon="5.64809">
        <ele>992.1</ele>
        <time>2025-03-16T11:42:17Z</time>
      </trkpt>
      <trkpt lat="43.5394" lon="5.64808">
        <ele>992.3</ele>
        <time>2025-03-16T11:42:20Z</time>
      </trkpt>
      <trkpt lat="43.5394" lon="5.64808">
        <ele>992.3</ele>
        <time>2025-03-16T11:42:23Z</time>
      </trkpt>
      <trkpt lat="43.5394" lon="5.64808">
        <ele>992.4</ele>
        <time>2025-03-16T11:42:25Z</time>
      </trkpt>
      <trkpt lat="43.5394" lon="5.64808">
        <ele>992.5</ele>
        <time>2025-03-16T11:42:28Z</time>
      </trkpt>
      <trkpt lat="43.5394" lon="5.64808">
        <ele>992.5</ele>
        <time>2025-03-16T11:42:29Z</time>
      </trkpt>
      <trkpt lat="43.5394" lon="5.64808">
        <ele>992.4</ele>
        <time>2025-03-16T11:43:03Z</time>
      </trkpt>
      <trkpt lat="43.5394" lon="5.64808">
        <ele>992.3</ele>
        <time>2025-03-16T11:43:06Z</time>
      </trkpt>
      <trkpt lat="43.5394" lon="5.64808">
        <ele>992.2</ele>
        <time>2025-03-16T11:43:07Z</time>
      </trkpt>
      <trkpt lat="43.5394" lon="5.64808">
        <ele>992.1</ele>
        <time>2025-03-16T11:43:10Z</time>
      </trkpt>
      <trkpt lat="43.5394" lon="5.64809">
        <ele>991.9</ele>
        <time>2025-03-16T11:43:13Z</time>
      </trkpt>
      <trkpt lat="43.5394" lon="5.64809">
        <ele>992</ele>
        <time>2025-03-16T11:43:15Z</time>
      </trkpt>
      <trkpt lat="43.5394" lon="5.64809">
        <ele>991.9</ele>
        <time>2025-03-16T11:43:21Z</time>
      </trkpt>
      <trkpt lat="43.5394" lon="5.64809">
        <ele>991.9</ele>
        <time>2025-03-16T11:43:23Z</time>
      </trkpt>
      <trkpt lat="43.5394" lon="5.64809">
        <ele>991.8</ele>
        <time>2025-03-16T11:44:05Z</time>
      </trkpt>
      <trkpt lat="43.5394" lon="5.64809">
        <ele>991.8</ele>
        <time>2025-03-16T11:44:06Z</time>
      </trkpt>
      <trkpt lat="43.5394" lon="5.64809">
        <ele>991.6</ele>
        <time>2025-03-16T11:45:05Z</time>
      </trkpt>
      <trkpt lat="43.5394" lon="5.64809">
        <ele>991.7</ele>
        <time>2025-03-16T11:45:06Z</time>
      </trkpt>
      <trkpt lat="43.5394" lon="5.64809">
        <ele>991.6</ele>
        <time>2025-03-16T11:45:10Z</time>
      </trkpt>
      <trkpt lat="43.5394" lon="5.64809">
        <ele>991.6</ele>
        <time>2025-03-16T11:45:12Z</time>
      </trkpt>
      <trkpt lat="43.5394" lon="5.64809">
        <ele>991.6</ele>
        <time>2025-03-16T11:45:14Z</time>
      </trkpt>
      <trkpt lat="43.5394" lon="5.64809">
        <ele>991.6</ele>
        <time>2025-03-16T11:45:17Z</time>
      </trkpt>
      <trkpt lat="43.5394" lon="5.64809">
        <ele>991.5</ele>
        <time>2025-03-16T11:45:56Z</time>
      </trkpt>
      <trkpt lat="43.5394" lon="5.64809">
        <ele>991.6</ele>
        <time>2025-03-16T11:45:57Z</time>
      </trkpt>
      <trkpt lat="43.5394" lon="5.64809">
        <ele>991.6</ele>
        <time>2025-03-16T11:46:01Z</time>
      </trkpt>
      <trkpt lat="43.53938" lon="5.64806">
        <ele>991.8</ele>
        <time>2025-03-16T11:46:18Z</time>
      </trkpt>
      <trkpt lat="43.53938" lon="5.64806">
        <ele>991.8</ele>
        <time>2025-03-16T11:46:19Z</time>
      </trkpt>
      <trkpt lat="43.53932" lon="5.64797">
        <ele>991.6</ele>
        <time>2025-03-16T11:46:29Z</time>
      </trkpt>
      <trkpt lat="43.53927" lon="5.64785">
        <ele>991.7</ele>
        <time>2025-03-16T11:46:34Z</time>
      </trkpt>
      <trkpt lat="43.53931" lon="5.64786">
        <ele>991.5</ele>
        <time>2025-03-16T11:46:44Z</time>
      </trkpt>
      <trkpt lat="43.53931" lon="5.64787">
        <ele>991.5</ele>
        <time>2025-03-16T11:46:45Z</time>
      </trkpt>
      <trkpt lat="43.53936" lon="5.64798">
        <ele>992.4</ele>
        <time>2025-03-16T11:47:00Z</time>
      </trkpt>
      <trkpt lat="43.53937" lon="5.64801">
        <ele>992.3</ele>
        <time>2025-03-16T11:47:06Z</time>
      </trkpt>
      <trkpt lat="43.53937" lon="5.64802">
        <ele>992.3</ele>
        <time>2025-03-16T11:47:07Z</time>
      </trkpt>
      <trkpt lat="43.53944" lon="5.64809">
        <ele>992.3</ele>
        <time>2025-03-16T11:47:24Z</time>
      </trkpt>
      <trkpt lat="43.53943" lon="5.64809">
        <ele>992.3</ele>
        <time>2025-03-16T11:47:28Z</time>
      </trkpt>
      <trkpt lat="43.53943" lon="5.64809">
        <ele>992.3</ele>
        <time>2025-03-16T11:47:31Z</time>
      </trkpt>
      <trkpt lat="43.53943" lon="5.64809">
        <ele>992.3</ele>
        <time>2025-03-16T11:47:37Z</time>
      </trkpt>
      <trkpt lat="43.53943" lon="5.64809">
        <ele>992.3</ele>
        <time>2025-03-16T11:47:38Z</time>
      </trkpt>
      <trkpt lat="43.53943" lon="5.64809">
        <ele>992.3</ele>
        <time>2025-03-16T11:47:42Z</time>
      </trkpt>
      <trkpt lat="43.53949" lon="5.64813">
        <ele>991.3</ele>
        <time>2025-03-16T11:48:01Z</time>
      </trkpt>
      <trkpt lat="43.53949" lon="5.64813">
        <ele>991.5</ele>
        <time>2025-03-16T11:48:02Z</time>
      </trkpt>
      <trkpt lat="43.53954" lon="5.64824">
        <ele>990.4</ele>
        <time>2025-03-16T11:49:22Z</time>
      </trkpt>
      <trkpt lat="43.53948" lon="5.64833">
        <ele>988.5</ele>
        <time>2025-03-16T11:49:33Z</time>
      </trkpt>
      <trkpt lat="43.53948" lon="5.64846">
        <ele>990</ele>
        <time>2025-03-16T11:49:43Z</time>
      </trkpt>
      <trkpt lat="43.53951" lon="5.64857">
        <ele>989.5</ele>
        <time>2025-03-16T11:49:57Z</time>
      </trkpt>
      <trkpt lat="43.53952" lon="5.64871">
        <ele>989.5</ele>
        <time>2025-03-16T11:50:10Z</time>
      </trkpt>
      <trkpt lat="43.53951" lon="5.64883">
        <ele>988.7</ele>
        <time>2025-03-16T11:50:23Z</time>
      </trkpt>
      <trkpt lat="43.53947" lon="5.64894">
        <ele>989.7</ele>
        <time>2025-03-16T11:50:35Z</time>
      </trkpt>
      <trkpt lat="43.53945" lon="5.64906">
        <ele>989.7</ele>
        <time>2025-03-16T11:50:44Z</time>
      </trkpt>
      <trkpt lat="43.53947" lon="5.64919">
        <ele>988.6</ele>
        <time>2025-03-16T11:50:55Z</time>
      </trkpt>
      <trkpt lat="43.53947" lon="5.64932">
        <ele>987.9</ele>
        <time>2025-03-16T11:51:12Z</time>
      </trkpt>
      <trkpt lat="43.53947" lon="5.64945">
        <ele>987.5</ele>
        <time>2025-03-16T11:51:30Z</time>
      </trkpt>
      <trkpt lat="43.53949" lon="5.64957">
        <ele>987.4</ele>
        <time>2025-03-16T11:51:45Z</time>
      </trkpt>
      <trkpt lat="43.53947" lon="5.6497">
        <ele>984.2</ele>
        <time>2025-03-16T11:51:59Z</time>
      </trkpt>
      <trkpt lat="43.53949" lon="5.64982">
        <ele>982</ele>
        <time>2025-03-16T11:52:13Z</time>
      </trkpt>
      <trkpt lat="43.53948" lon="5.64994">
        <ele>979.3</ele>
        <time>2025-03-16T11:52:26Z</time>
      </trkpt>
      <trkpt lat="43.53948" lon="5.65008">
        <ele>978.6</ele>
        <time>2025-03-16T11:52:39Z</time>
      </trkpt>
      <trkpt lat="43.53945" lon="5.6502">
        <ele>977.6</ele>
        <time>2025-03-16T11:52:53Z</time>
      </trkpt>
      <trkpt lat="43.53944" lon="5.65032">
        <ele>976</ele>
        <time>2025-03-16T11:53:07Z</time>
      </trkpt>
      <trkpt lat="43.53942" lon="5.65037">
        <ele>975.8</ele>
        <time>2025-03-16T11:53:16Z</time>
      </trkpt>
      <trkpt lat="43.53941" lon="5.65037">
        <ele>975.8</ele>
        <time>2025-03-16T11:53:17Z</time>
      </trkpt>
      <trkpt lat="43.53934" lon="5.65044">
        <ele>974.1</ele>
        <time>2025-03-16T11:53:38Z</time>
      </trkpt>
      <trkpt lat="43.53929" lon="5.65047">
        <ele>972.8</ele>
        <time>2025-03-16T11:53:50Z</time>
      </trkpt>
      <trkpt lat="43.53929" lon="5.65047">
        <ele>972.6</ele>
        <time>2025-03-16T11:54:06Z</time>
      </trkpt>
      <trkpt lat="43.53929" lon="5.65047">
        <ele>972.6</ele>
        <time>2025-03-16T11:54:07Z</time>
      </trkpt>
      <trkpt lat="43.53929" lon="5.65047">
        <ele>972.3</ele>
        <time>2025-03-16T11:54:21Z</time>
      </trkpt>
      <trkpt lat="43.53929" lon="5.65047">
        <ele>972.4</ele>
        <time>2025-03-16T11:54:23Z</time>
      </trkpt>
      <trkpt lat="43.53929" lon="5.65047">
        <ele>972.3</ele>
        <time>2025-03-16T11:54:27Z</time>
      </trkpt>
      <trkpt lat="43.53929" lon="5.65047">
        <ele>972.2</ele>
        <time>2025-03-16T11:54:28Z</time>
      </trkpt>
      <trkpt lat="43.53929" lon="5.65048">
        <ele>972.3</ele>
        <time>2025-03-16T11:54:30Z</time>
      </trkpt>
      <trkpt lat="43.53929" lon="5.65048">
        <ele>972.2</ele>
        <time>2025-03-16T11:54:31Z</time>
      </trkpt>
      <trkpt lat="43.53929" lon="5.65048">
        <ele>972.3</ele>
        <time>2025-03-16T11:54:32Z</time>
      </trkpt>
      <trkpt lat="43.53929" lon="5.65048">
        <ele>972.1</ele>
        <time>2025-03-16T11:54:35Z</time>
      </trkpt>
      <trkpt lat="43.53929" lon="5.65048">
        <ele>972</ele>
        <time>2025-03-16T11:54:36Z</time>
      </trkpt>
      <trkpt lat="43.53929" lon="5.65048">
        <ele>971.9</ele>
        <time>2025-03-16T11:54:38Z</time>
      </trkpt>
      <trkpt lat="43.53929" lon="5.65048">
        <ele>971.9</ele>
        <time>2025-03-16T11:54:39Z</time>
      </trkpt>
      <trkpt lat="43.53929" lon="5.65048">
        <ele>971.8</ele>
        <time>2025-03-16T11:54:40Z</time>
      </trkpt>
      <trkpt lat="43.53929" lon="5.65048">
        <ele>971.8</ele>
        <time>2025-03-16T11:54:44Z</time>
      </trkpt>
      <trkpt lat="43.53929" lon="5.65048">
        <ele>971.8</ele>
        <time>2025-03-16T11:54:45Z</time>
      </trkpt>
      <trkpt lat="43.53929" lon="5.65047">
        <ele>971.6</ele>
        <time>2025-03-16T11:54:47Z</time>
      </trkpt>
      <trkpt lat="43.5392" lon="5.6505">
        <ele>971.6</ele>
        <time>2025-03-16T11:55:00Z</time>
      </trkpt>
      <trkpt lat="43.53921" lon="5.65049">
        <ele>971.5</ele>
        <time>2025-03-16T11:55:01Z</time>
      </trkpt>
      <trkpt lat="43.53929" lon="5.65045">
        <ele>970.9</ele>
        <time>2025-03-16T11:55:20Z</time>
      </trkpt>
      <trkpt lat="43.5393" lon="5.65045">
        <ele>970.7</ele>
        <time>2025-03-16T11:55:21Z</time>
      </trkpt>
      <trkpt lat="43.5393" lon="5.65045">
        <ele>970.2</ele>
        <time>2025-03-16T11:55:23Z</time>
      </trkpt>
      <trkpt lat="43.5393" lon="5.65045">
        <ele>970</ele>
        <time>2025-03-16T11:55:24Z</time>
      </trkpt>
      <trkpt lat="43.53931" lon="5.65045">
        <ele>969.8</ele>
        <time>2025-03-16T11:55:27Z</time>
      </trkpt>
      <trkpt lat="43.53931" lon="5.65045">
        <ele>969.6</ele>
        <time>2025-03-16T11:55:35Z</time>
      </trkpt>
      <trkpt lat="43.53931" lon="5.65045">
        <ele>969.5</ele>
        <time>2025-03-16T11:55:37Z</time>
      </trkpt>
      <trkpt lat="43.53931" lon="5.65045">
        <ele>969.4</ele>
        <time>2025-03-16T11:55:40Z</time>
      </trkpt>
      <trkpt lat="43.53931" lon="5.65043">
        <ele>968.8</ele>
        <time>2025-03-16T11:55:44Z</time>
      </trkpt>
      <trkpt lat="43.53931" lon="5.65043">
        <ele>968.7</ele>
        <time>2025-03-16T11:55:45Z</time>
      </trkpt>
      <trkpt lat="43.53931" lon="5.65055">
        <ele>968</ele>
        <time>2025-03-16T11:56:00Z</time>
      </trkpt>
      <trkpt lat="43.53931" lon="5.65042">
        <ele>969.2</ele>
        <time>2025-03-16T11:56:22Z</time>
      </trkpt>
      <trkpt lat="43.5393" lon="5.65041">
        <ele>969</ele>
        <time>2025-03-16T11:56:24Z</time>
      </trkpt>
      <trkpt lat="43.5393" lon="5.65041">
        <ele>968.8</ele>
        <time>2025-03-16T11:56:25Z</time>
      </trkpt>
      <trkpt lat="43.53937" lon="5.65038">
        <ele>965.6</ele>
        <time>2025-03-16T11:56:57Z</time>
      </trkpt>
      <trkpt lat="43.53937" lon="5.65037">
        <ele>965.8</ele>
        <time>2025-03-16T11:57:00Z</time>
      </trkpt>
      <trkpt lat="43.53937" lon="5.65037">
        <ele>966.2</ele>
        <time>2025-03-16T11:57:03Z</time>
      </trkpt>
      <trkpt lat="43.53937" lon="5.65037">
        <ele>966.3</ele>
        <time>2025-03-16T11:57:04Z</time>
      </trkpt>
      <trkpt lat="43.53928" lon="5.65037">
        <ele>969.5</ele>
        <time>2025-03-16T11:57:25Z</time>
      </trkpt>
      <trkpt lat="43.53927" lon="5.65035">
        <ele>969.8</ele>
        <time>2025-03-16T11:57:36Z</time>
      </trkpt>
      <trkpt lat="43.53927" lon="5.65036">
        <ele>969.9</ele>
        <time>2025-03-16T11:57:37Z</time>
      </trkpt>
      <trkpt lat="43.53926" lon="5.65035">
        <ele>971</ele>
        <time>2025-03-16T11:58:02Z</time>
      </trkpt>
      <trkpt lat="43.53926" lon="5.65035">
        <ele>971</ele>
        <time>2025-03-16T11:58:03Z</time>
      </trkpt>
      <trkpt lat="43.53926" lon="5.65035">
        <ele>971.2</ele>
        <time>2025-03-16T11:58:07Z</time>
      </trkpt>
      <trkpt lat="43.53926" lon="5.65035">
        <ele>971.3</ele>
        <time>2025-03-16T11:58:08Z</time>
      </trkpt>
      <trkpt lat="43.53927" lon="5.65035">
        <ele>973.2</ele>
        <time>2025-03-16T11:58:26Z</time>
      </trkpt>
      <trkpt lat="43.53927" lon="5.65035">
        <ele>973</ele>
        <time>2025-03-16T11:58:27Z</time>
      </trkpt>
      <trkpt lat="43.53927" lon="5.65035">
        <ele>972.7</ele>
        <time>2025-03-16T11:58:32Z</time>
      </trkpt>
      <trkpt lat="43.53927" lon="5.65035">
        <ele>972.6</ele>
        <time>2025-03-16T11:58:33Z</time>
      </trkpt>
      <trkpt lat="43.53927" lon="5.65035">
        <ele>973.9</ele>
        <time>2025-03-16T11:58:42Z</time>
      </trkpt>
      <trkpt lat="43.53926" lon="5.65035">
        <ele>974.1</ele>
        <time>2025-03-16T11:58:43Z</time>
      </trkpt>
      <trkpt lat="43.53926" lon="5.65035">
        <ele>974.3</ele>
        <time>2025-03-16T11:58:44Z</time>
      </trkpt>
      <trkpt lat="43.53927" lon="5.65035">
        <ele>974.5</ele>
        <time>2025-03-16T11:58:45Z</time>
      </trkpt>
      <trkpt lat="43.53927" lon="5.65036">
        <ele>974.5</ele>
        <time>2025-03-16T11:58:49Z</time>
      </trkpt>
      <trkpt lat="43.53927" lon="5.65036">
        <ele>974.6</ele>
        <time>2025-03-16T11:58:50Z</time>
      </trkpt>
      <trkpt lat="43.53926" lon="5.65038">
        <ele>974.6</ele>
        <time>2025-03-16T11:58:56Z</time>
      </trkpt>
      <trkpt lat="43.53926" lon="5.65038">
        <ele>974.7</ele>
        <time>2025-03-16T11:58:57Z</time>
      </trkpt>
      <trkpt lat="43.53926" lon="5.65039">
        <ele>975</ele>
        <time>2025-03-16T11:59:01Z</time>
      </trkpt>
      <trkpt lat="43.53926" lon="5.65039">
        <ele>975.5</ele>
        <time>2025-03-16T11:59:05Z</time>
      </trkpt>
      <trkpt lat="43.53926" lon="5.65039">
        <ele>975.8</ele>
        <time>2025-03-16T11:59:07Z</time>
      </trkpt>
      <trkpt lat="43.53926" lon="5.65039">
        <ele>976.2</ele>
        <time>2025-03-16T11:59:11Z</time>
      </trkpt>
      <trkpt lat="43.53926" lon="5.6504">
        <ele>976.2</ele>
        <time>2025-03-16T11:59:12Z</time>
      </trkpt>
      <trkpt lat="43.53926" lon="5.6504">
        <ele>976.1</ele>
        <time>2025-03-16T11:59:14Z</time>
      </trkpt>
      <trkpt lat="43.53924" lon="5.6504">
        <ele>977.2</ele>
        <time>2025-03-16T11:59:21Z</time>
      </trkpt>
      <trkpt lat="43.53924" lon="5.65039">
        <ele>977.1</ele>
        <time>2025-03-16T11:59:22Z</time>
      </trkpt>
      <trkpt lat="43.53926" lon="5.65036">
        <ele>975.8</ele>
        <time>2025-03-16T11:59:28Z</time>
      </trkpt>
      <trkpt lat="43.53926" lon="5.65035">
        <ele>975.6</ele>
        <time>2025-03-16T11:59:29Z</time>
      </trkpt>
      <trkpt lat="43.53926" lon="5.65033">
        <ele>974.5</ele>
        <time>2025-03-16T11:59:34Z</time>
      </trkpt>
      <trkpt lat="43.53926" lon="5.65032">
        <ele>974.4</ele>
        <time>2025-03-16T11:59:35Z</time>
      </trkpt>
      <trkpt lat="43.53926" lon="5.6503">
        <ele>976</ele>
        <time>2025-03-16T11:59:43Z</time>
      </trkpt>
      <trkpt lat="43.53926" lon="5.6503">
        <ele>976</ele>
        <time>2025-03-16T11:59:50Z</time>
      </trkpt>
      <trkpt lat="43.53926" lon="5.6503">
        <ele>976</ele>
        <time>2025-03-16T11:59:51Z</time>
      </trkpt>
      <trkpt lat="43.53926" lon="5.6503">
        <ele>976</ele>
        <time>2025-03-16T11:59:54Z</time>
      </trkpt>
      <trkpt lat="43.53926" lon="5.6503">
        <ele>976</ele>
        <time>2025-03-16T11:59:56Z</time>
      </trkpt>
      <trkpt lat="43.53926" lon="5.6503">
        <ele>976.1</ele>
        <time>2025-03-16T11:59:58Z</time>
      </trkpt>
      <trkpt lat="43.53926" lon="5.65032">
        <ele>976.1</ele>
        <time>2025-03-16T12:00:07Z</time>
      </trkpt>
      <trkpt lat="43.53926" lon="5.65032">
        <ele>976.3</ele>
        <time>2025-03-16T12:00:08Z</time>
      </trkpt>
      <trkpt lat="43.5393" lon="5.65034">
        <ele>977.1</ele>
        <time>2025-03-16T12:00:24Z</time>
      </trkpt>
      <trkpt lat="43.5393" lon="5.65034">
        <ele>977.2</ele>
        <time>2025-03-16T12:00:26Z</time>
      </trkpt>
      <trkpt lat="43.53937" lon="5.65042">
        <ele>978.7</ele>
        <time>2025-03-16T12:00:40Z</time>
      </trkpt>
      <trkpt lat="43.53937" lon="5.65041">
        <ele>979.3</ele>
        <time>2025-03-16T12:00:45Z</time>
      </trkpt>
      <trkpt lat="43.53937" lon="5.6504">
        <ele>979.4</ele>
        <time>2025-03-16T12:00:46Z</time>
      </trkpt>
      <trkpt lat="43.53937" lon="5.6504">
        <ele>979.5</ele>
        <time>2025-03-16T12:00:47Z</time>
      </trkpt>
      <trkpt lat="43.53937" lon="5.6504">
        <ele>979.4</ele>
        <time>2025-03-16T12:00:48Z</time>
      </trkpt>
      <trkpt lat="43.53935" lon="5.65046">
        <ele>977.6</ele>
        <time>2025-03-16T12:01:14Z</time>
      </trkpt>
      <trkpt lat="43.53936" lon="5.65045">
        <ele>977.7</ele>
        <time>2025-03-16T12:01:15Z</time>
      </trkpt>
      <trkpt lat="43.53932" lon="5.65049">
        <ele>977.7</ele>
        <time>2025-03-16T12:01:30Z</time>
      </trkpt>
      <trkpt lat="43.53932" lon="5.65049">
        <ele>977.8</ele>
        <time>2025-03-16T12:01:31Z</time>
      </trkpt>
      <trkpt lat="43.53932" lon="5.65049">
        <ele>977.6</ele>
        <time>2025-03-16T12:01:32Z</time>
      </trkpt>
      <trkpt lat="43.53932" lon="5.65049">
        <ele>977.5</ele>
        <time>2025-03-16T12:01:33Z</time>
      </trkpt>
      <trkpt lat="43.53932" lon="5.65049">
        <ele>977.5</ele>
        <time>2025-03-16T12:01:34Z</time>
      </trkpt>
      <trkpt lat="43.53932" lon="5.65049">
        <ele>977.3</ele>
        <time>2025-03-16T12:01:37Z</time>
      </trkpt>
      <trkpt lat="43.53932" lon="5.65049">
        <ele>977.1</ele>
        <time>2025-03-16T12:01:38Z</time>
      </trkpt>
      <trkpt lat="43.53933" lon="5.65049">
        <ele>976.8</ele>
        <time>2025-03-16T12:01:40Z</time>
      </trkpt>
      <trkpt lat="43.53934" lon="5.65049">
        <ele>976</ele>
        <time>2025-03-16T12:01:45Z</time>
      </trkpt>
      <trkpt lat="43.53933" lon="5.65049">
        <ele>975.8</ele>
        <time>2025-03-16T12:01:46Z</time>
      </trkpt>
      <trkpt lat="43.53933" lon="5.65049">
        <ele>975.8</ele>
        <time>2025-03-16T12:01:47Z</time>
      </trkpt>
      <trkpt lat="43.53933" lon="5.65048">
        <ele>975.7</ele>
        <time>2025-03-16T12:01:48Z</time>
      </trkpt>
      <trkpt lat="43.53933" lon="5.65048">
        <ele>975.6</ele>
        <time>2025-03-16T12:01:51Z</time>
      </trkpt>
      <trkpt lat="43.53933" lon="5.65047">
        <ele>975.6</ele>
        <time>2025-03-16T12:01:52Z</time>
      </trkpt>
      <trkpt lat="43.53932" lon="5.65047">
        <ele>975.2</ele>
        <time>2025-03-16T12:01:59Z</time>
      </trkpt>
      <trkpt lat="43.53932" lon="5.65047">
        <ele>975.2</ele>
        <time>2025-03-16T12:02:00Z</time>
      </trkpt>
      <trkpt lat="43.53934" lon="5.65046">
        <ele>974</ele>
        <time>2025-03-16T12:02:08Z</time>
      </trkpt>
      <trkpt lat="43.53933" lon="5.65046">
        <ele>973.9</ele>
        <time>2025-03-16T12:02:09Z</time>
      </trkpt>
      <trkpt lat="43.53933" lon="5.65046">
        <ele>974</ele>
        <time>2025-03-16T12:02:10Z</time>
      </trkpt>
      <trkpt lat="43.53934" lon="5.65047">
        <ele>974</ele>
        <time>2025-03-16T12:02:11Z</time>
      </trkpt>
      <trkpt lat="43.53934" lon="5.65048">
        <ele>973.9</ele>
        <time>2025-03-16T12:02:14Z</time>
      </trkpt>
      <trkpt lat="43.53934" lon="5.65047">
        <ele>973.8</ele>
        <time>2025-03-16T12:02:15Z</time>
      </trkpt>
      <trkpt lat="43.53934" lon="5.65047">
        <ele>973.8</ele>
        <time>2025-03-16T12:02:16Z</time>
      </trkpt>
      <trkpt lat="43.53934" lon="5.65047">
        <ele>973.9</ele>
        <time>2025-03-16T12:02:17Z</time>
      </trkpt>
      <trkpt lat="43.53928" lon="5.65045">
        <ele>975.1</ele>
        <time>2025-03-16T12:02:37Z</time>
      </trkpt>
      <trkpt lat="43.53927" lon="5.65044">
        <ele>975.1</ele>
        <time>2025-03-16T12:02:38Z</time>
      </trkpt>
      <trkpt lat="43.53927" lon="5.65044">
        <ele>975.4</ele>
        <time>2025-03-16T12:02:48Z</time>
      </trkpt>
      <trkpt lat="43.53927" lon="5.65044">
        <ele>975.7</ele>
        <time>2025-03-16T12:02:49Z</time>
      </trkpt>
      <trkpt lat="43.53927" lon="5.65044">
        <ele>976.8</ele>
        <time>2025-03-16T12:02:54Z</time>
      </trkpt>
      <trkpt lat="43.53926" lon="5.65044">
        <ele>976.6</ele>
        <time>2025-03-16T12:02:56Z</time>
      </trkpt>
      <trkpt lat="43.53926" lon="5.65045">
        <ele>976.6</ele>
        <time>2025-03-16T12:02:59Z</time>
      </trkpt>
      <trkpt lat="43.53925" lon="5.65044">
        <ele>976.7</ele>
        <time>2025-03-16T12:03:00Z</time>
      </trkpt>
      <trkpt lat="43.53918" lon="5.65052">
        <ele>976.4</ele>
        <time>2025-03-16T12:03:09Z</time>
      </trkpt>
      <trkpt lat="43.53908" lon="5.65049">
        <ele>973.5</ele>
        <time>2025-03-16T12:03:29Z</time>
      </trkpt>
      <trkpt lat="43.53904" lon="5.65052">
        <ele>973.5</ele>
        <time>2025-03-16T12:03:34Z</time>
      </trkpt>
      <trkpt lat="43.53904" lon="5.65052">
        <ele>973.3</ele>
        <time>2025-03-16T12:03:35Z</time>
      </trkpt>
      <trkpt lat="43.53904" lon="5.65053">
        <ele>973.1</ele>
        <time>2025-03-16T12:03:36Z</time>
      </trkpt>
      <trkpt lat="43.53904" lon="5.65051">
        <ele>972.9</ele>
        <time>2025-03-16T12:03:38Z</time>
      </trkpt>
      <trkpt lat="43.53895" lon="5.65055">
        <ele>966.7</ele>
        <time>2025-03-16T12:04:14Z</time>
      </trkpt>
      <trkpt lat="43.53886" lon="5.6506">
        <ele>963.9</ele>
        <time>2025-03-16T12:04:32Z</time>
      </trkpt>
      <trkpt lat="43.53885" lon="5.65047">
        <ele>961.5</ele>
        <time>2025-03-16T12:04:54Z</time>
      </trkpt>
      <trkpt lat="43.53882" lon="5.65059">
        <ele>959.3</ele>
        <time>2025-03-16T12:05:20Z</time>
      </trkpt>
      <trkpt lat="43.53875" lon="5.6506">
        <ele>954.6</ele>
        <time>2025-03-16T12:05:48Z</time>
      </trkpt>
      <trkpt lat="43.53874" lon="5.6506">
        <ele>954.6</ele>
        <time>2025-03-16T12:05:49Z</time>
      </trkpt>
      <trkpt lat="43.53875" lon="5.6506">
        <ele>953.9</ele>
        <time>2025-03-16T12:05:53Z</time>
      </trkpt>
      <trkpt lat="43.53875" lon="5.6506">
        <ele>953.8</ele>
        <time>2025-03-16T12:05:54Z</time>
      </trkpt>
      <trkpt lat="43.53875" lon="5.6506">
        <ele>953.7</ele>
        <time>2025-03-16T12:05:55Z</time>
      </trkpt>
      <trkpt lat="43.53875" lon="5.65061">
        <ele>953.6</ele>
        <time>2025-03-16T12:05:56Z</time>
      </trkpt>
      <trkpt lat="43.53875" lon="5.65049">
        <ele>952</ele>
        <time>2025-03-16T12:06:08Z</time>
      </trkpt>
      <trkpt lat="43.53874" lon="5.6505">
        <ele>951.8</ele>
        <time>2025-03-16T12:06:09Z</time>
      </trkpt>
      <trkpt lat="43.53865" lon="5.6505">
        <ele>948.4</ele>
        <time>2025-03-16T12:06:45Z</time>
      </trkpt>
      <trkpt lat="43.53865" lon="5.6505">
        <ele>948.2</ele>
        <time>2025-03-16T12:06:46Z</time>
      </trkpt>
      <trkpt lat="43.53865" lon="5.6505">
        <ele>948</ele>
        <time>2025-03-16T12:06:47Z</time>
      </trkpt>
      <trkpt lat="43.53865" lon="5.65051">
        <ele>947.5</ele>
        <time>2025-03-16T12:06:51Z</time>
      </trkpt>
      <trkpt lat="43.53865" lon="5.65051">
        <ele>947.6</ele>
        <time>2025-03-16T12:06:52Z</time>
      </trkpt>
      <trkpt lat="43.53858" lon="5.65049">
        <ele>945.4</ele>
        <time>2025-03-16T12:07:17Z</time>
      </trkpt>
      <trkpt lat="43.53858" lon="5.6505">
        <ele>945.3</ele>
        <time>2025-03-16T12:07:18Z</time>
      </trkpt>
      <trkpt lat="43.53856" lon="5.65051">
        <ele>945.2</ele>
        <time>2025-03-16T12:07:35Z</time>
      </trkpt>
      <trkpt lat="43.53857" lon="5.6505">
        <ele>945.2</ele>
        <time>2025-03-16T12:07:36Z</time>
      </trkpt>
      <trkpt lat="43.53854" lon="5.65052">
        <ele>945.6</ele>
        <time>2025-03-16T12:07:54Z</time>
      </trkpt>
      <trkpt lat="43.53854" lon="5.65052">
        <ele>945.6</ele>
        <time>2025-03-16T12:07:55Z</time>
      </trkpt>
      <trkpt lat="43.53853" lon="5.65051">
        <ele>945.1</ele>
        <time>2025-03-16T12:08:03Z</time>
      </trkpt>
      <trkpt lat="43.53854" lon="5.65051">
        <ele>944.9</ele>
        <time>2025-03-16T12:08:04Z</time>
      </trkpt>
      <trkpt lat="43.53849" lon="5.65046">
        <ele>937.3</ele>
        <time>2025-03-16T12:08:44Z</time>
      </trkpt>
      <trkpt lat="43.53849" lon="5.65046">
        <ele>937.3</ele>
        <time>2025-03-16T12:08:45Z</time>
      </trkpt>
      <trkpt lat="43.53848" lon="5.6505">
        <ele>936.4</ele>
        <time>2025-03-16T12:08:51Z</time>
      </trkpt>
      <trkpt lat="43.53848" lon="5.6505">
        <ele>936.5</ele>
        <time>2025-03-16T12:08:52Z</time>
      </trkpt>
      <trkpt lat="43.53844" lon="5.65062">
        <ele>937.1</ele>
        <time>2025-03-16T12:09:07Z</time>
      </trkpt>
      <trkpt lat="43.53844" lon="5.6507">
        <ele>934.7</ele>
        <time>2025-03-16T12:09:21Z</time>
      </trkpt>
      <trkpt lat="43.53843" lon="5.6507">
        <ele>934.6</ele>
        <time>2025-03-16T12:09:22Z</time>
      </trkpt>
      <trkpt lat="43.53842" lon="5.65067">
        <ele>933.9</ele>
        <time>2025-03-16T12:09:29Z</time>
      </trkpt>
      <trkpt lat="43.53842" lon="5.65067">
        <ele>933.9</ele>
        <time>2025-03-16T12:09:30Z</time>
      </trkpt>
      <trkpt lat="43.53842" lon="5.65067">
        <ele>933.9</ele>
        <time>2025-03-16T12:09:31Z</time>
      </trkpt>
      <trkpt lat="43.53841" lon="5.65067">
        <ele>933.9</ele>
        <time>2025-03-16T12:09:32Z</time>
      </trkpt>
      <trkpt lat="43.53837" lon="5.65069">
        <ele>933</ele>
        <time>2025-03-16T12:09:39Z</time>
      </trkpt>
      <trkpt lat="43.53836" lon="5.6507">
        <ele>932.9</ele>
        <time>2025-03-16T12:09:40Z</time>
      </trkpt>
      <trkpt lat="43.53837" lon="5.65057">
        <ele>930.9</ele>
        <time>2025-03-16T12:10:10Z</time>
      </trkpt>
      <trkpt lat="43.53836" lon="5.65055">
        <ele>930</ele>
        <time>2025-03-16T12:10:29Z</time>
      </trkpt>
      <trkpt lat="43.53835" lon="5.65055">
        <ele>930</ele>
        <time>2025-03-16T12:10:30Z</time>
      </trkpt>
      <trkpt lat="43.53829" lon="5.65066">
        <ele>927.7</ele>
        <time>2025-03-16T12:10:39Z</time>
      </trkpt>
      <trkpt lat="43.53823" lon="5.65074">
        <ele>925.8</ele>
        <time>2025-03-16T12:10:50Z</time>
      </trkpt>
      <trkpt lat="43.53818" lon="5.65077">
        <ele>924</ele>
        <time>2025-03-16T12:11:03Z</time>
      </trkpt>
      <trkpt lat="43.53817" lon="5.65077">
        <ele>923.8</ele>
        <time>2025-03-16T12:11:04Z</time>
      </trkpt>
      <trkpt lat="43.53818" lon="5.65078">
        <ele>923.4</ele>
        <time>2025-03-16T12:11:08Z</time>
      </trkpt>
      <trkpt lat="43.53818" lon="5.65078">
        <ele>923.3</ele>
        <time>2025-03-16T12:11:09Z</time>
      </trkpt>
      <trkpt lat="43.53817" lon="5.65072">
        <ele>919.1</ele>
        <time>2025-03-16T12:11:24Z</time>
      </trkpt>
      <trkpt lat="43.53818" lon="5.65073">
        <ele>918.6</ele>
        <time>2025-03-16T12:11:25Z</time>
      </trkpt>
      <trkpt lat="43.5382" lon="5.65073">
        <ele>917.9</ele>
        <time>2025-03-16T12:11:27Z</time>
      </trkpt>
      <trkpt lat="43.53819" lon="5.65074">
        <ele>917.5</ele>
        <time>2025-03-16T12:11:40Z</time>
      </trkpt>
      <trkpt lat="43.53819" lon="5.65074">
        <ele>917.4</ele>
        <time>2025-03-16T12:11:41Z</time>
      </trkpt>
      <trkpt lat="43.53819" lon="5.65073">
        <ele>917.2</ele>
        <time>2025-03-16T12:11:42Z</time>
      </trkpt>
      <trkpt lat="43.53819" lon="5.65071">
        <ele>916.1</ele>
        <time>2025-03-16T12:11:46Z</time>
      </trkpt>
      <trkpt lat="43.53819" lon="5.65071">
        <ele>916</ele>
        <time>2025-03-16T12:11:47Z</time>
      </trkpt>
      <trkpt lat="43.53819" lon="5.65071">
        <ele>915.9</ele>
        <time>2025-03-16T12:11:48Z</time>
      </trkpt>
      <trkpt lat="43.53818" lon="5.65071">
        <ele>915.8</ele>
        <time>2025-03-16T12:11:49Z</time>
      </trkpt>
      <trkpt lat="43.53819" lon="5.65071">
        <ele>915.4</ele>
        <time>2025-03-16T12:11:56Z</time>
      </trkpt>
      <trkpt lat="43.5382" lon="5.65072">
        <ele>915.4</ele>
        <time>2025-03-16T12:11:57Z</time>
      </trkpt>
      <trkpt lat="43.53823" lon="5.65072">
        <ele>915.7</ele>
        <time>2025-03-16T12:12:04Z</time>
      </trkpt>
      <trkpt lat="43.53822" lon="5.65071">
        <ele>915.8</ele>
        <time>2025-03-16T12:12:05Z</time>
      </trkpt>
      <trkpt lat="43.53816" lon="5.65074">
        <ele>911.8</ele>
        <time>2025-03-16T12:12:28Z</time>
      </trkpt>
      <trkpt lat="43.53816" lon="5.65074">
        <ele>912</ele>
        <time>2025-03-16T12:12:29Z</time>
      </trkpt>
      <trkpt lat="43.53814" lon="5.65075">
        <ele>911</ele>
        <time>2025-03-16T12:12:36Z</time>
      </trkpt>
      <trkpt lat="43.53814" lon="5.65076">
        <ele>910.8</ele>
        <time>2025-03-16T12:12:39Z</time>
      </trkpt>
      <trkpt lat="43.53807" lon="5.65077">
        <ele>907.8</ele>
        <time>2025-03-16T12:13:19Z</time>
      </trkpt>
      <trkpt lat="43.53807" lon="5.65076">
        <ele>907.8</ele>
        <time>2025-03-16T12:13:20Z</time>
      </trkpt>
      <trkpt lat="43.53808" lon="5.65077">
        <ele>907.8</ele>
        <time>2025-03-16T12:13:23Z</time>
      </trkpt>
      <trkpt lat="43.53808" lon="5.65076">
        <ele>907.8</ele>
        <time>2025-03-16T12:13:24Z</time>
      </trkpt>
      <trkpt lat="43.53807" lon="5.65077">
        <ele>907.1</ele>
        <time>2025-03-16T12:13:30Z</time>
      </trkpt>
      <trkpt lat="43.53807" lon="5.65077">
        <ele>907.1</ele>
        <time>2025-03-16T12:13:31Z</time>
      </trkpt>
      <trkpt lat="43.538" lon="5.65078">
        <ele>906.3</ele>
        <time>2025-03-16T12:14:14Z</time>
      </trkpt>
      <trkpt lat="43.538" lon="5.65078">
        <ele>906.3</ele>
        <time>2025-03-16T12:14:15Z</time>
      </trkpt>
      <trkpt lat="43.53793" lon="5.65069">
        <ele>901.9</ele>
        <time>2025-03-16T12:14:45Z</time>
      </trkpt>
      <trkpt lat="43.53792" lon="5.65068">
        <ele>902.4</ele>
        <time>2025-03-16T12:15:07Z</time>
      </trkpt>
      <trkpt lat="43.53792" lon="5.65068">
        <ele>902.3</ele>
        <time>2025-03-16T12:15:08Z</time>
      </trkpt>
      <trkpt lat="43.53792" lon="5.65068">
        <ele>902.1</ele>
        <time>2025-03-16T12:15:09Z</time>
      </trkpt>
      <trkpt lat="43.53792" lon="5.65068">
        <ele>901.8</ele>
        <time>2025-03-16T12:15:10Z</time>
      </trkpt>
      <trkpt lat="43.53787" lon="5.65068">
        <ele>900.1</ele>
        <time>2025-03-16T12:15:21Z</time>
      </trkpt>
      <trkpt lat="43.53788" lon="5.65068">
        <ele>899.9</ele>
        <time>2025-03-16T12:15:24Z</time>
      </trkpt>
      <trkpt lat="43.53788" lon="5.65065">
        <ele>898.8</ele>
        <time>2025-03-16T12:15:32Z</time>
      </trkpt>
      <trkpt lat="43.53788" lon="5.65065">
        <ele>898.7</ele>
        <time>2025-03-16T12:15:33Z</time>
      </trkpt>
      <trkpt lat="43.53787" lon="5.65065">
        <ele>898.3</ele>
        <time>2025-03-16T12:15:37Z</time>
      </trkpt>
      <trkpt lat="43.53788" lon="5.65065">
        <ele>898.3</ele>
        <time>2025-03-16T12:15:38Z</time>
      </trkpt>
      <trkpt lat="43.53788" lon="5.65063">
        <ele>895.3</ele>
        <time>2025-03-16T12:15:59Z</time>
      </trkpt>
      <trkpt lat="43.53788" lon="5.65063">
        <ele>894.9</ele>
        <time>2025-03-16T12:16:00Z</time>
      </trkpt>
      <trkpt lat="43.53782" lon="5.65067">
        <ele>894.4</ele>
        <time>2025-03-16T12:16:22Z</time>
      </trkpt>
      <trkpt lat="43.53782" lon="5.65068">
        <ele>894.4</ele>
        <time>2025-03-16T12:16:23Z</time>
      </trkpt>
      <trkpt lat="43.53782" lon="5.65056">
        <ele>892.7</ele>
        <time>2025-03-16T12:16:47Z</time>
      </trkpt>
      <trkpt lat="43.53782" lon="5.65056">
        <ele>892.7</ele>
        <time>2025-03-16T12:16:48Z</time>
      </trkpt>
      <trkpt lat="43.53773" lon="5.6505">
        <ele>892.4</ele>
        <time>2025-03-16T12:17:01Z</time>
      </trkpt>
      <trkpt lat="43.53779" lon="5.6504">
        <ele>891.3</ele>
        <time>2025-03-16T12:17:14Z</time>
      </trkpt>
      <trkpt lat="43.53779" lon="5.65038">
        <ele>891.1</ele>
        <time>2025-03-16T12:17:19Z</time>
      </trkpt>
      <trkpt lat="43.53779" lon="5.65039">
        <ele>891.1</ele>
        <time>2025-03-16T12:17:20Z</time>
      </trkpt>
      <trkpt lat="43.53772" lon="5.65029">
        <ele>887.9</ele>
        <time>2025-03-16T12:17:49Z</time>
      </trkpt>
      <trkpt lat="43.53766" lon="5.6502">
        <ele>888</ele>
        <time>2025-03-16T12:17:59Z</time>
      </trkpt>
      <trkpt lat="43.53761" lon="5.65009">
        <ele>886.8</ele>
        <time>2025-03-16T12:18:15Z</time>
      </trkpt>
      <trkpt lat="43.53752" lon="5.65003">
        <ele>886.7</ele>
        <time>2025-03-16T12:18:42Z</time>
      </trkpt>
      <trkpt lat="43.53753" lon="5.65002">
        <ele>886.8</ele>
        <time>2025-03-16T12:18:44Z</time>
      </trkpt>
      <trkpt lat="43.53753" lon="5.65001">
        <ele>886.9</ele>
        <time>2025-03-16T12:18:45Z</time>
      </trkpt>
      <trkpt lat="43.53756" lon="5.64988">
        <ele>886.5</ele>
        <time>2025-03-16T12:18:50Z</time>
      </trkpt>
      <trkpt lat="43.53756" lon="5.64988">
        <ele>886.3</ele>
        <time>2025-03-16T12:18:51Z</time>
      </trkpt>
      <trkpt lat="43.53756" lon="5.64988">
        <ele>886.2</ele>
        <time>2025-03-16T12:18:52Z</time>
      </trkpt>
      <trkpt lat="43.53757" lon="5.64984">
        <ele>885.5</ele>
        <time>2025-03-16T12:18:58Z</time>
      </trkpt>
      <trkpt lat="43.53757" lon="5.64984">
        <ele>885.5</ele>
        <time>2025-03-16T12:18:59Z</time>
      </trkpt>
      <trkpt lat="43.53757" lon="5.64983">
        <ele>885.5</ele>
        <time>2025-03-16T12:19:00Z</time>
      </trkpt>
      <trkpt lat="43.53757" lon="5.64983">
        <ele>885.6</ele>
        <time>2025-03-16T12:19:01Z</time>
      </trkpt>
      <trkpt lat="43.53756" lon="5.6497">
        <ele>886.7</ele>
        <time>2025-03-16T12:19:18Z</time>
      </trkpt>
      <trkpt lat="43.53756" lon="5.6497">
        <ele>886.9</ele>
        <time>2025-03-16T12:19:19Z</time>
      </trkpt>
      <trkpt lat="43.53756" lon="5.6497">
        <ele>886.9</ele>
        <time>2025-03-16T12:19:20Z</time>
      </trkpt>
      <trkpt lat="43.53754" lon="5.64967">
        <ele>886.5</ele>
        <time>2025-03-16T12:19:27Z</time>
      </trkpt>
      <trkpt lat="43.53754" lon="5.64966">
        <ele>886.5</ele>
        <time>2025-03-16T12:19:28Z</time>
      </trkpt>
      <trkpt lat="43.53755" lon="5.64965">
        <ele>886.4</ele>
        <time>2025-03-16T12:19:31Z</time>
      </trkpt>
      <trkpt lat="43.53755" lon="5.64964">
        <ele>886.4</ele>
        <time>2025-03-16T12:19:32Z</time>
      </trkpt>
      <trkpt lat="43.53756" lon="5.64959">
        <ele>881.2</ele>
        <time>2025-03-16T12:20:07Z</time>
      </trkpt>
      <trkpt lat="43.53756" lon="5.64959">
        <ele>881</ele>
        <time>2025-03-16T12:20:08Z</time>
      </trkpt>
      <trkpt lat="43.53756" lon="5.64957">
        <ele>881.7</ele>
        <time>2025-03-16T12:20:18Z</time>
      </trkpt>
      <trkpt lat="43.53755" lon="5.64956">
        <ele>882.1</ele>
        <time>2025-03-16T12:20:20Z</time>
      </trkpt>
      <trkpt lat="43.53751" lon="5.64948">
        <ele>880.3</ele>
        <time>2025-03-16T12:20:52Z</time>
      </trkpt>
      <trkpt lat="43.53751" lon="5.64947">
        <ele>880.4</ele>
        <time>2025-03-16T12:20:53Z</time>
      </trkpt>
      <trkpt lat="43.53751" lon="5.64947">
        <ele>880.3</ele>
        <time>2025-03-16T12:20:54Z</time>
      </trkpt>
      <trkpt lat="43.53751" lon="5.64948">
        <ele>880.4</ele>
        <time>2025-03-16T12:20:56Z</time>
      </trkpt>
      <trkpt lat="43.53758" lon="5.64939">
        <ele>880.4</ele>
        <time>2025-03-16T12:21:04Z</time>
      </trkpt>
      <trkpt lat="43.5376" lon="5.64932">
        <ele>880.8</ele>
        <time>2025-03-16T12:21:31Z</time>
      </trkpt>
      <trkpt lat="43.5376" lon="5.64933">
        <ele>880.7</ele>
        <time>2025-03-16T12:21:32Z</time>
      </trkpt>
      <trkpt lat="43.53761" lon="5.64932">
        <ele>880.6</ele>
        <time>2025-03-16T12:21:36Z</time>
      </trkpt>
      <trkpt lat="43.53762" lon="5.64932">
        <ele>880.5</ele>
        <time>2025-03-16T12:21:37Z</time>
      </trkpt>
      <trkpt lat="43.53752" lon="5.64925">
        <ele>883</ele>
        <time>2025-03-16T12:22:19Z</time>
      </trkpt>
      <trkpt lat="43.53757" lon="5.64921">
        <ele>880.1</ele>
        <time>2025-03-16T12:22:49Z</time>
      </trkpt>
      <trkpt lat="43.53757" lon="5.64921">
        <ele>880.2</ele>
        <time>2025-03-16T12:22:50Z</time>
      </trkpt>
      <trkpt lat="43.53752" lon="5.64915">
        <ele>877.9</ele>
        <time>2025-03-16T12:23:05Z</time>
      </trkpt>
      <trkpt lat="43.53753" lon="5.64914">
        <ele>877.7</ele>
        <time>2025-03-16T12:23:06Z</time>
      </trkpt>
      <trkpt lat="43.53762" lon="5.64908">
        <ele>877.5</ele>
        <time>2025-03-16T12:23:35Z</time>
      </trkpt>
      <trkpt lat="43.53754" lon="5.64902">
        <ele>878.6</ele>
        <time>2025-03-16T12:24:00Z</time>
      </trkpt>
      <trkpt lat="43.53745" lon="5.64904">
        <ele>875.5</ele>
        <time>2025-03-16T12:24:27Z</time>
      </trkpt>
      <trkpt lat="43.53741" lon="5.64904">
        <ele>873</ele>
        <time>2025-03-16T12:25:26Z</time>
      </trkpt>
      <trkpt lat="43.5374" lon="5.64904">
        <ele>872.9</ele>
        <time>2025-03-16T12:25:27Z</time>
      </trkpt>
      <trkpt lat="43.5374" lon="5.64904">
        <ele>872.9</ele>
        <time>2025-03-16T12:25:28Z</time>
      </trkpt>
      <trkpt lat="43.5374" lon="5.64904">
        <ele>872.9</ele>
        <time>2025-03-16T12:25:29Z</time>
      </trkpt>
      <trkpt lat="43.53739" lon="5.64898">
        <ele>871.7</ele>
        <time>2025-03-16T12:25:34Z</time>
      </trkpt>
      <trkpt lat="43.53739" lon="5.64898">
        <ele>871.8</ele>
        <time>2025-03-16T12:25:36Z</time>
      </trkpt>
      <trkpt lat="43.53739" lon="5.64894">
        <ele>871.4</ele>
        <time>2025-03-16T12:25:58Z</time>
      </trkpt>
      <trkpt lat="43.53739" lon="5.64894">
        <ele>871.2</ele>
        <time>2025-03-16T12:26:01Z</time>
      </trkpt>
      <trkpt lat="43.53739" lon="5.64895">
        <ele>870.5</ele>
        <time>2025-03-16T12:26:11Z</time>
      </trkpt>
      <trkpt lat="43.5374" lon="5.64896">
        <ele>870.3</ele>
        <time>2025-03-16T12:26:12Z</time>
      </trkpt>
      <trkpt lat="43.5374" lon="5.64896">
        <ele>870.2</ele>
        <time>2025-03-16T12:26:13Z</time>
      </trkpt>
      <trkpt lat="43.53739" lon="5.64896">
        <ele>870.1</ele>
        <time>2025-03-16T12:26:36Z</time>
      </trkpt>
      <trkpt lat="43.53739" lon="5.64896">
        <ele>870.1</ele>
        <time>2025-03-16T12:26:37Z</time>
      </trkpt>
      <trkpt lat="43.53739" lon="5.64896">
        <ele>869.9</ele>
        <time>2025-03-16T12:26:45Z</time>
      </trkpt>
      <trkpt lat="43.53739" lon="5.64897">
        <ele>869.9</ele>
        <time>2025-03-16T12:26:49Z</time>
      </trkpt>
      <trkpt lat="43.53739" lon="5.64898">
        <ele>869.7</ele>
        <time>2025-03-16T12:26:53Z</time>
      </trkpt>
      <trkpt lat="43.53733" lon="5.64891">
        <ele>870</ele>
        <time>2025-03-16T12:27:16Z</time>
      </trkpt>
      <trkpt lat="43.53733" lon="5.64892">
        <ele>870.1</ele>
        <time>2025-03-16T12:27:17Z</time>
      </trkpt>
      <trkpt lat="43.53734" lon="5.64894">
        <ele>870.6</ele>
        <time>2025-03-16T12:27:25Z</time>
      </trkpt>
      <trkpt lat="43.53734" lon="5.64894">
        <ele>870.6</ele>
        <time>2025-03-16T12:27:28Z</time>
      </trkpt>
      <trkpt lat="43.53734" lon="5.64894">
        <ele>870.6</ele>
        <time>2025-03-16T12:27:29Z</time>
      </trkpt>
      <trkpt lat="43.53735" lon="5.64894">
        <ele>870.9</ele>
        <time>2025-03-16T12:27:35Z</time>
      </trkpt>
      <trkpt lat="43.53735" lon="5.64894">
        <ele>871</ele>
        <time>2025-03-16T12:27:36Z</time>
      </trkpt>
      <trkpt lat="43.53736" lon="5.64894">
        <ele>870.7</ele>
        <time>2025-03-16T12:27:50Z</time>
      </trkpt>
      <trkpt lat="43.53736" lon="5.64894">
        <ele>870.6</ele>
        <time>2025-03-16T12:27:51Z</time>
      </trkpt>
      <trkpt lat="43.53736" lon="5.64894">
        <ele>870.1</ele>
        <time>2025-03-16T12:27:54Z</time>
      </trkpt>
      <trkpt lat="43.53744" lon="5.64888">
        <ele>866</ele>
        <time>2025-03-16T12:28:20Z</time>
      </trkpt>
      <trkpt lat="43.53738" lon="5.64878">
        <ele>861.8</ele>
        <time>2025-03-16T12:28:55Z</time>
      </trkpt>
      <trkpt lat="43.53731" lon="5.64871">
        <ele>860</ele>
        <time>2025-03-16T12:29:09Z</time>
      </trkpt>
      <trkpt lat="43.53722" lon="5.64868">
        <ele>859.5</ele>
        <time>2025-03-16T12:29:20Z</time>
      </trkpt>
      <trkpt lat="43.53721" lon="5.64863">
        <ele>858.4</ele>
        <time>2025-03-16T12:29:29Z</time>
      </trkpt>
      <trkpt lat="43.53721" lon="5.64862">
        <ele>857.9</ele>
        <time>2025-03-16T12:29:31Z</time>
      </trkpt>
      <trkpt lat="43.53721" lon="5.64858">
        <ele>855.8</ele>
        <time>2025-03-16T12:29:40Z</time>
      </trkpt>
      <trkpt lat="43.53721" lon="5.64858">
        <ele>855.6</ele>
        <time>2025-03-16T12:29:41Z</time>
      </trkpt>
      <trkpt lat="43.53716" lon="5.64858">
        <ele>854.8</ele>
        <time>2025-03-16T12:29:50Z</time>
      </trkpt>
      <trkpt lat="43.53716" lon="5.64858">
        <ele>854.8</ele>
        <time>2025-03-16T12:29:59Z</time>
      </trkpt>
      <trkpt lat="43.5371" lon="5.64848">
        <ele>854.9</ele>
        <time>2025-03-16T12:30:13Z</time>
      </trkpt>
      <trkpt lat="43.53706" lon="5.64836">
        <ele>851.5</ele>
        <time>2025-03-16T12:30:31Z</time>
      </trkpt>
      <trkpt lat="43.53706" lon="5.64834">
        <ele>851.1</ele>
        <time>2025-03-16T12:30:35Z</time>
      </trkpt>
      <trkpt lat="43.53706" lon="5.64834">
        <ele>851.1</ele>
        <time>2025-03-16T12:30:36Z</time>
      </trkpt>
      <trkpt lat="43.53697" lon="5.64832">
        <ele>851.5</ele>
        <time>2025-03-16T12:30:45Z</time>
      </trkpt>
      <trkpt lat="43.53693" lon="5.64823">
        <ele>848.4</ele>
        <time>2025-03-16T12:31:06Z</time>
      </trkpt>
      <trkpt lat="43.53693" lon="5.64824">
        <ele>848.3</ele>
        <time>2025-03-16T12:31:07Z</time>
      </trkpt>
      <trkpt lat="43.53685" lon="5.64817">
        <ele>846.9</ele>
        <time>2025-03-16T12:31:23Z</time>
      </trkpt>
      <trkpt lat="43.53679" lon="5.64808">
        <ele>847.1</ele>
        <time>2025-03-16T12:31:34Z</time>
      </trkpt>
      <trkpt lat="43.5367" lon="5.64807">
        <ele>848.8</ele>
        <time>2025-03-16T12:31:44Z</time>
      </trkpt>
      <trkpt lat="43.53661" lon="5.64806">
        <ele>850.1</ele>
        <time>2025-03-16T12:31:58Z</time>
      </trkpt>
      <trkpt lat="43.53652" lon="5.64801">
        <ele>850.6</ele>
        <time>2025-03-16T12:32:16Z</time>
      </trkpt>
      <trkpt lat="43.53652" lon="5.64801">
        <ele>850.4</ele>
        <time>2025-03-16T12:32:18Z</time>
      </trkpt>
      <trkpt lat="43.53652" lon="5.64801">
        <ele>850.3</ele>
        <time>2025-03-16T12:32:19Z</time>
      </trkpt>
      <trkpt lat="43.53652" lon="5.64801">
        <ele>850.2</ele>
        <time>2025-03-16T12:32:24Z</time>
      </trkpt>
      <trkpt lat="43.53653" lon="5.64801">
        <ele>850.1</ele>
        <time>2025-03-16T12:32:25Z</time>
      </trkpt>
      <trkpt lat="43.53646" lon="5.64791">
        <ele>848.5</ele>
        <time>2025-03-16T12:32:48Z</time>
      </trkpt>
      <trkpt lat="43.53645" lon="5.64792">
        <ele>848.5</ele>
        <time>2025-03-16T12:32:53Z</time>
      </trkpt>
      <trkpt lat="43.53645" lon="5.64792">
        <ele>848.4</ele>
        <time>2025-03-16T12:32:55Z</time>
      </trkpt>
      <trkpt lat="43.53643" lon="5.64792">
        <ele>847.6</ele>
        <time>2025-03-16T12:33:04Z</time>
      </trkpt>
      <trkpt lat="43.53642" lon="5.64793">
        <ele>847.3</ele>
        <time>2025-03-16T12:33:06Z</time>
      </trkpt>
      <trkpt lat="43.53639" lon="5.64794">
        <ele>846.4</ele>
        <time>2025-03-16T12:33:13Z</time>
      </trkpt>
      <trkpt lat="43.5364" lon="5.64794">
        <ele>846.3</ele>
        <time>2025-03-16T12:33:14Z</time>
      </trkpt>
      <trkpt lat="43.5364" lon="5.64794">
        <ele>846.2</ele>
        <time>2025-03-16T12:33:17Z</time>
      </trkpt>
      <trkpt lat="43.53641" lon="5.64794">
        <ele>845.8</ele>
        <time>2025-03-16T12:33:20Z</time>
      </trkpt>
      <trkpt lat="43.53642" lon="5.64795">
        <ele>844.9</ele>
        <time>2025-03-16T12:33:25Z</time>
      </trkpt>
      <trkpt lat="43.53642" lon="5.64795">
        <ele>844.9</ele>
        <time>2025-03-16T12:33:32Z</time>
      </trkpt>
      <trkpt lat="43.53642" lon="5.64795">
        <ele>844.9</ele>
        <time>2025-03-16T12:33:33Z</time>
      </trkpt>
      <trkpt lat="43.53642" lon="5.64794">
        <ele>845</ele>
        <time>2025-03-16T12:33:34Z</time>
      </trkpt>
      <trkpt lat="43.53644" lon="5.64794">
        <ele>845.4</ele>
        <time>2025-03-16T12:33:37Z</time>
      </trkpt>
      <trkpt lat="43.53644" lon="5.64794">
        <ele>845.3</ele>
        <time>2025-03-16T12:33:41Z</time>
      </trkpt>
      <trkpt lat="43.53644" lon="5.64795">
        <ele>845.7</ele>
        <time>2025-03-16T12:33:46Z</time>
      </trkpt>
      <trkpt lat="43.53644" lon="5.64795">
        <ele>845.7</ele>
        <time>2025-03-16T12:33:47Z</time>
      </trkpt>
      <trkpt lat="43.53644" lon="5.64795">
        <ele>845.7</ele>
        <time>2025-03-16T12:33:48Z</time>
      </trkpt>
      <trkpt lat="43.53644" lon="5.64794">
        <ele>845.7</ele>
        <time>2025-03-16T12:33:51Z</time>
      </trkpt>
      <trkpt lat="43.53645" lon="5.64795">
        <ele>846.1</ele>
        <time>2025-03-16T12:34:03Z</time>
      </trkpt>
      <trkpt lat="43.53645" lon="5.64796">
        <ele>846</ele>
        <time>2025-03-16T12:34:04Z</time>
      </trkpt>
      <trkpt lat="43.53645" lon="5.64795">
        <ele>845.5</ele>
        <time>2025-03-16T12:34:08Z</time>
      </trkpt>
      <trkpt lat="43.53645" lon="5.64795">
        <ele>845.4</ele>
        <time>2025-03-16T12:34:09Z</time>
      </trkpt>
      <trkpt lat="43.53647" lon="5.64801">
        <ele>849.7</ele>
        <time>2025-03-16T12:34:47Z</time>
      </trkpt>
      <trkpt lat="43.53647" lon="5.64802">
        <ele>849.7</ele>
        <time>2025-03-16T12:34:48Z</time>
      </trkpt>
      <trkpt lat="43.53647" lon="5.64801">
        <ele>849.5</ele>
        <time>2025-03-16T12:34:50Z</time>
      </trkpt>
      <trkpt lat="43.53647" lon="5.64802">
        <ele>849.5</ele>
        <time>2025-03-16T12:34:51Z</time>
      </trkpt>
      <trkpt lat="43.53647" lon="5.64802">
        <ele>849.7</ele>
        <time>2025-03-16T12:34:52Z</time>
      </trkpt>
      <trkpt lat="43.53647" lon="5.64801">
        <ele>850.1</ele>
        <time>2025-03-16T12:34:54Z</time>
      </trkpt>
      <trkpt lat="43.53647" lon="5.64801">
        <ele>850.3</ele>
        <time>2025-03-16T12:34:55Z</time>
      </trkpt>
      <trkpt lat="43.53647" lon="5.64801">
        <ele>850.5</ele>
        <time>2025-03-16T12:34:56Z</time>
      </trkpt>
      <trkpt lat="43.53645" lon="5.64801">
        <ele>850.5</ele>
        <time>2025-03-16T12:35:08Z</time>
      </trkpt>
      <trkpt lat="43.53646" lon="5.64801">
        <ele>850.6</ele>
        <time>2025-03-16T12:35:10Z</time>
      </trkpt>
      <trkpt lat="43.53646" lon="5.64801">
        <ele>850.6</ele>
        <time>2025-03-16T12:35:11Z</time>
      </trkpt>
      <trkpt lat="43.53645" lon="5.64801">
        <ele>850.5</ele>
        <time>2025-03-16T12:35:12Z</time>
      </trkpt>
      <trkpt lat="43.53645" lon="5.64798">
        <ele>850.7</ele>
        <time>2025-03-16T12:35:17Z</time>
      </trkpt>
      <trkpt lat="43.53645" lon="5.64798">
        <ele>850.9</ele>
        <time>2025-03-16T12:35:18Z</time>
      </trkpt>
      <trkpt lat="43.53645" lon="5.64798">
        <ele>851</ele>
        <time>2025-03-16T12:35:19Z</time>
      </trkpt>
      <trkpt lat="43.53645" lon="5.64798">
        <ele>851.1</ele>
        <time>2025-03-16T12:35:20Z</time>
      </trkpt>
      <trkpt lat="43.53645" lon="5.64798">
        <ele>851.2</ele>
        <time>2025-03-16T12:35:21Z</time>
      </trkpt>
      <trkpt lat="43.53645" lon="5.64798">
        <ele>851.3</ele>
        <time>2025-03-16T12:35:22Z</time>
      </trkpt>
      <trkpt lat="43.53645" lon="5.64798">
        <ele>851.3</ele>
        <time>2025-03-16T12:35:23Z</time>
      </trkpt>
      <trkpt lat="43.53645" lon="5.64798">
        <ele>851.3</ele>
        <time>2025-03-16T12:35:25Z</time>
      </trkpt>
      <trkpt lat="43.53645" lon="5.64799">
        <ele>851.3</ele>
        <time>2025-03-16T12:35:27Z</time>
      </trkpt>
      <trkpt lat="43.53645" lon="5.64799">
        <ele>851.4</ele>
        <time>2025-03-16T12:35:28Z</time>
      </trkpt>
      <trkpt lat="43.53646" lon="5.64799">
        <ele>851.5</ele>
        <time>2025-03-16T12:35:32Z</time>
      </trkpt>
      <trkpt lat="43.53646" lon="5.64799">
        <ele>851.5</ele>
        <time>2025-03-16T12:35:33Z</time>
      </trkpt>
      <trkpt lat="43.53647" lon="5.648">
        <ele>851.4</ele>
        <time>2025-03-16T12:35:36Z</time>
      </trkpt>
      <trkpt lat="43.53646" lon="5.648">
        <ele>851.4</ele>
        <time>2025-03-16T12:35:37Z</time>
      </trkpt>
      <trkpt lat="43.53641" lon="5.64792">
        <ele>850.8</ele>
        <time>2025-03-16T12:36:00Z</time>
      </trkpt>
      <trkpt lat="43.5364" lon="5.64792">
        <ele>850.9</ele>
        <time>2025-03-16T12:36:01Z</time>
      </trkpt>
      <trkpt lat="43.53635" lon="5.64781">
        <ele>846.4</ele>
        <time>2025-03-16T12:36:29Z</time>
      </trkpt>
      <trkpt lat="43.53634" lon="5.64783">
        <ele>846.4</ele>
        <time>2025-03-16T12:36:36Z</time>
      </trkpt>
      <trkpt lat="43.53635" lon="5.64783">
        <ele>846.5</ele>
        <time>2025-03-16T12:36:37Z</time>
      </trkpt>
      <trkpt lat="43.53641" lon="5.64793">
        <ele>846.6</ele>
        <time>2025-03-16T12:36:49Z</time>
      </trkpt>
      <trkpt lat="43.53641" lon="5.64793">
        <ele>846.7</ele>
        <time>2025-03-16T12:36:50Z</time>
      </trkpt>
      <trkpt lat="43.53641" lon="5.64793">
        <ele>846.9</ele>
        <time>2025-03-16T12:36:56Z</time>
      </trkpt>
      <trkpt lat="43.53636" lon="5.64791">
        <ele>845.6</ele>
        <time>2025-03-16T12:37:24Z</time>
      </trkpt>
      <trkpt lat="43.53636" lon="5.64791">
        <ele>845.2</ele>
        <time>2025-03-16T12:37:25Z</time>
      </trkpt>
      <trkpt lat="43.53639" lon="5.64791">
        <ele>843.4</ele>
        <time>2025-03-16T12:37:37Z</time>
      </trkpt>
      <trkpt lat="43.5364" lon="5.64791">
        <ele>843.3</ele>
        <time>2025-03-16T12:37:38Z</time>
      </trkpt>
      <trkpt lat="43.53641" lon="5.64792">
        <ele>841.4</ele>
        <time>2025-03-16T12:38:00Z</time>
      </trkpt>
      <trkpt lat="43.53641" lon="5.64792">
        <ele>841.4</ele>
        <time>2025-03-16T12:38:01Z</time>
      </trkpt>
      <trkpt lat="43.53642" lon="5.6478">
        <ele>839.8</ele>
        <time>2025-03-16T12:38:40Z</time>
      </trkpt>
      <trkpt lat="43.53634" lon="5.64775">
        <ele>837.6</ele>
        <time>2025-03-16T12:38:57Z</time>
      </trkpt>
      <trkpt lat="43.53632" lon="5.64775">
        <ele>836.2</ele>
        <time>2025-03-16T12:39:16Z</time>
      </trkpt>
      <trkpt lat="43.53632" lon="5.64775">
        <ele>836.2</ele>
        <time>2025-03-16T12:39:17Z</time>
      </trkpt>
      <trkpt lat="43.53631" lon="5.64773">
        <ele>835.1</ele>
        <time>2025-03-16T12:39:39Z</time>
      </trkpt>
      <trkpt lat="43.53632" lon="5.64773">
        <ele>835.1</ele>
        <time>2025-03-16T12:39:40Z</time>
      </trkpt>
      <trkpt lat="43.53628" lon="5.64772">
        <ele>832.8</ele>
        <time>2025-03-16T12:39:57Z</time>
      </trkpt>
      <trkpt lat="43.53628" lon="5.64772">
        <ele>832.3</ele>
        <time>2025-03-16T12:39:59Z</time>
      </trkpt>
      <trkpt lat="43.53625" lon="5.64771">
        <ele>832.1</ele>
        <time>2025-03-16T12:40:08Z</time>
      </trkpt>
      <trkpt lat="43.53625" lon="5.64771">
        <ele>832.1</ele>
        <time>2025-03-16T12:40:10Z</time>
      </trkpt>
      <trkpt lat="43.5363" lon="5.64782">
        <ele>830.7</ele>
        <time>2025-03-16T12:40:23Z</time>
      </trkpt>
      <trkpt lat="43.53629" lon="5.64781">
        <ele>830.7</ele>
        <time>2025-03-16T12:40:24Z</time>
      </trkpt>
      <trkpt lat="43.53626" lon="5.64783">
        <ele>829.7</ele>
        <time>2025-03-16T12:40:32Z</time>
      </trkpt>
      <trkpt lat="43.53626" lon="5.64783">
        <ele>829.6</ele>
        <time>2025-03-16T12:40:33Z</time>
      </trkpt>
      <trkpt lat="43.53626" lon="5.64782">
        <ele>828.7</ele>
        <time>2025-03-16T12:40:41Z</time>
      </trkpt>
      <trkpt lat="43.53627" lon="5.64783">
        <ele>828.5</ele>
        <time>2025-03-16T12:40:42Z</time>
      </trkpt>
      <trkpt lat="43.53629" lon="5.64783">
        <ele>827.9</ele>
        <time>2025-03-16T12:40:51Z</time>
      </trkpt>
      <trkpt lat="43.53629" lon="5.64783">
        <ele>827.8</ele>
        <time>2025-03-16T12:40:52Z</time>
      </trkpt>
      <trkpt lat="43.53623" lon="5.64773">
        <ele>826.1</ele>
        <time>2025-03-16T12:41:25Z</time>
      </trkpt>
      <trkpt lat="43.53623" lon="5.64773">
        <ele>826.1</ele>
        <time>2025-03-16T12:41:26Z</time>
      </trkpt>
      <trkpt lat="43.53623" lon="5.64772">
        <ele>826.1</ele>
        <time>2025-03-16T12:41:28Z</time>
      </trkpt>
      <trkpt lat="43.53622" lon="5.64773">
        <ele>825.8</ele>
        <time>2025-03-16T12:41:32Z</time>
      </trkpt>
      <trkpt lat="43.53623" lon="5.64774">
        <ele>825.9</ele>
        <time>2025-03-16T12:41:33Z</time>
      </trkpt>
      <trkpt lat="43.53622" lon="5.64777">
        <ele>825.6</ele>
        <time>2025-03-16T12:41:39Z</time>
      </trkpt>
      <trkpt lat="43.53623" lon="5.64777">
        <ele>825.5</ele>
        <time>2025-03-16T12:41:44Z</time>
      </trkpt>
      <trkpt lat="43.53623" lon="5.64769">
        <ele>823.6</ele>
        <time>2025-03-16T12:41:56Z</time>
      </trkpt>
      <trkpt lat="43.53623" lon="5.64769">
        <ele>823.6</ele>
        <time>2025-03-16T12:41:58Z</time>
      </trkpt>
      <trkpt lat="43.53623" lon="5.64768">
        <ele>823.6</ele>
        <time>2025-03-16T12:42:01Z</time>
      </trkpt>
      <trkpt lat="43.53623" lon="5.64767">
        <ele>823.5</ele>
        <time>2025-03-16T12:42:03Z</time>
      </trkpt>
      <trkpt lat="43.53623" lon="5.64768">
        <ele>823.6</ele>
        <time>2025-03-16T12:42:05Z</time>
      </trkpt>
      <trkpt lat="43.53623" lon="5.64767">
        <ele>823.7</ele>
        <time>2025-03-16T12:42:06Z</time>
      </trkpt>
      <trkpt lat="43.53621" lon="5.64761">
        <ele>824</ele>
        <time>2025-03-16T12:42:23Z</time>
      </trkpt>
      <trkpt lat="43.53621" lon="5.64761">
        <ele>824</ele>
        <time>2025-03-16T12:42:25Z</time>
      </trkpt>
      <trkpt lat="43.53618" lon="5.64762">
        <ele>821.7</ele>
        <time>2025-03-16T12:42:47Z</time>
      </trkpt>
      <trkpt lat="43.53619" lon="5.64763">
        <ele>821.8</ele>
        <time>2025-03-16T12:42:48Z</time>
      </trkpt>
      <trkpt lat="43.5361" lon="5.64768">
        <ele>822.6</ele>
        <time>2025-03-16T12:43:27Z</time>
      </trkpt>
      <trkpt lat="43.53606" lon="5.6477">
        <ele>821.9</ele>
        <time>2025-03-16T12:43:38Z</time>
      </trkpt>
      <trkpt lat="43.53606" lon="5.6477">
        <ele>821.7</ele>
        <time>2025-03-16T12:43:40Z</time>
      </trkpt>
      <trkpt lat="43.53606" lon="5.64782">
        <ele>820</ele>
        <time>2025-03-16T12:43:59Z</time>
      </trkpt>
      <trkpt lat="43.536" lon="5.64785">
        <ele>821.7</ele>
        <time>2025-03-16T12:44:14Z</time>
      </trkpt>
      <trkpt lat="43.536" lon="5.64785">
        <ele>821.6</ele>
        <time>2025-03-16T12:44:15Z</time>
      </trkpt>
      <trkpt lat="43.536" lon="5.64784">
        <ele>821.8</ele>
        <time>2025-03-16T12:44:32Z</time>
      </trkpt>
      <trkpt lat="43.536" lon="5.64784">
        <ele>821.8</ele>
        <time>2025-03-16T12:44:35Z</time>
      </trkpt>
      <trkpt lat="43.53604" lon="5.64782">
        <ele>821.8</ele>
        <time>2025-03-16T12:44:43Z</time>
      </trkpt>
      <trkpt lat="43.53604" lon="5.64781">
        <ele>821.9</ele>
        <time>2025-03-16T12:44:50Z</time>
      </trkpt>
      <trkpt lat="43.53604" lon="5.64781">
        <ele>821.9</ele>
        <time>2025-03-16T12:44:51Z</time>
      </trkpt>
      <trkpt lat="43.53604" lon="5.64781">
        <ele>822</ele>
        <time>2025-03-16T12:45:02Z</time>
      </trkpt>
      <trkpt lat="43.53605" lon="5.64779">
        <ele>822.3</ele>
        <time>2025-03-16T12:45:14Z</time>
      </trkpt>
      <trkpt lat="43.53605" lon="5.64779">
        <ele>822.4</ele>
        <time>2025-03-16T12:45:15Z</time>
      </trkpt>
      <trkpt lat="43.53605" lon="5.64776">
        <ele>822.4</ele>
        <time>2025-03-16T12:45:24Z</time>
      </trkpt>
      <trkpt lat="43.53605" lon="5.64776">
        <ele>822.4</ele>
        <time>2025-03-16T12:45:27Z</time>
      </trkpt>
      <trkpt lat="43.53605" lon="5.64776">
        <ele>822.4</ele>
        <time>2025-03-16T12:45:28Z</time>
      </trkpt>
      <trkpt lat="43.53605" lon="5.64776">
        <ele>822.5</ele>
        <time>2025-03-16T12:45:29Z</time>
      </trkpt>
      <trkpt lat="43.53606" lon="5.64776">
        <ele>822.6</ele>
        <time>2025-03-16T12:45:32Z</time>
      </trkpt>
      <trkpt lat="43.53606" lon="5.64776">
        <ele>822.5</ele>
        <time>2025-03-16T12:45:33Z</time>
      </trkpt>
      <trkpt lat="43.53602" lon="5.64778">
        <ele>823</ele>
        <time>2025-03-16T12:45:51Z</time>
      </trkpt>
      <trkpt lat="43.53601" lon="5.64778">
        <ele>823.2</ele>
        <time>2025-03-16T12:45:52Z</time>
      </trkpt>
      <trkpt lat="43.53602" lon="5.64779">
        <ele>823.1</ele>
        <time>2025-03-16T12:45:57Z</time>
      </trkpt>
      <trkpt lat="43.53603" lon="5.64779">
        <ele>823</ele>
        <time>2025-03-16T12:47:04Z</time>
      </trkpt>
      <trkpt lat="43.53603" lon="5.6478">
        <ele>822.9</ele>
        <time>2025-03-16T12:47:06Z</time>
      </trkpt>
      <trkpt lat="43.53603" lon="5.6478">
        <ele>823</ele>
        <time>2025-03-16T12:47:41Z</time>
      </trkpt>
      <trkpt lat="43.53602" lon="5.6478">
        <ele>823.1</ele>
        <time>2025-03-16T12:47:44Z</time>
      </trkpt>
      <trkpt lat="43.53602" lon="5.64781">
        <ele>823.3</ele>
        <time>2025-03-16T12:47:50Z</time>
      </trkpt>
      <trkpt lat="43.53601" lon="5.64781">
        <ele>823.7</ele>
        <time>2025-03-16T12:47:53Z</time>
      </trkpt>
      <trkpt lat="43.53601" lon="5.64781">
        <ele>823.8</ele>
        <time>2025-03-16T12:47:54Z</time>
      </trkpt>
      <trkpt lat="43.53601" lon="5.64781">
        <ele>823.9</ele>
        <time>2025-03-16T12:47:56Z</time>
      </trkpt>
      <trkpt lat="43.53601" lon="5.64781">
        <ele>823.8</ele>
        <time>2025-03-16T12:48:02Z</time>
      </trkpt>
      <trkpt lat="43.53601" lon="5.64781">
        <ele>823.9</ele>
        <time>2025-03-16T12:48:07Z</time>
      </trkpt>
      <trkpt lat="43.53601" lon="5.64781">
        <ele>823.9</ele>
        <time>2025-03-16T12:48:13Z</time>
      </trkpt>
      <trkpt lat="43.53601" lon="5.64781">
        <ele>823.9</ele>
        <time>2025-03-16T12:48:14Z</time>
      </trkpt>
      <trkpt lat="43.53601" lon="5.64781">
        <ele>823.9</ele>
        <time>2025-03-16T12:49:04Z</time>
      </trkpt>
      <trkpt lat="43.53602" lon="5.64781">
        <ele>823.9</ele>
        <time>2025-03-16T12:49:07Z</time>
      </trkpt>
      <trkpt lat="43.53602" lon="5.64781">
        <ele>823.9</ele>
        <time>2025-03-16T12:49:15Z</time>
      </trkpt>
      <trkpt lat="43.53602" lon="5.64781">
        <ele>823.9</ele>
        <time>2025-03-16T12:49:16Z</time>
      </trkpt>
      <trkpt lat="43.53602" lon="5.64781">
        <ele>823.8</ele>
        <time>2025-03-16T12:49:56Z</time>
      </trkpt>
      <trkpt lat="43.53606" lon="5.64782">
        <ele>823.2</ele>
        <time>2025-03-16T12:50:07Z</time>
      </trkpt>
      <trkpt lat="43.53606" lon="5.64782">
        <ele>823.2</ele>
        <time>2025-03-16T12:51:03Z</time>
      </trkpt>
      <trkpt lat="43.53606" lon="5.64782">
        <ele>823.2</ele>
        <time>2025-03-16T12:51:04Z</time>
      </trkpt>
      <trkpt lat="43.53607" lon="5.64782">
        <ele>823.4</ele>
        <time>2025-03-16T12:51:18Z</time>
      </trkpt>
      <trkpt lat="43.53607" lon="5.64782">
        <ele>823.4</ele>
        <time>2025-03-16T12:51:19Z</time>
      </trkpt>
      <trkpt lat="43.53606" lon="5.64782">
        <ele>823.4</ele>
        <time>2025-03-16T12:51:34Z</time>
      </trkpt>
      <trkpt lat="43.53606" lon="5.64782">
        <ele>823.4</ele>
        <time>2025-03-16T12:51:35Z</time>
      </trkpt>
      <trkpt lat="43.53606" lon="5.64782">
        <ele>823.4</ele>
        <time>2025-03-16T12:51:36Z</time>
      </trkpt>
      <trkpt lat="43.53606" lon="5.64782">
        <ele>823.4</ele>
        <time>2025-03-16T12:51:39Z</time>
      </trkpt>
      <trkpt lat="43.53606" lon="5.64784">
        <ele>823.1</ele>
        <time>2025-03-16T12:51:47Z</time>
      </trkpt>
      <trkpt lat="43.53608" lon="5.64793">
        <ele>823.3</ele>
        <time>2025-03-16T12:52:02Z</time>
      </trkpt>
      <trkpt lat="43.53608" lon="5.64793">
        <ele>823.1</ele>
        <time>2025-03-16T12:52:03Z</time>
      </trkpt>
      <trkpt lat="43.53608" lon="5.64793">
        <ele>822.8</ele>
        <time>2025-03-16T12:52:07Z</time>
      </trkpt>
      <trkpt lat="43.53607" lon="5.64792">
        <ele>822.8</ele>
        <time>2025-03-16T12:52:09Z</time>
      </trkpt>
      <trkpt lat="43.53606" lon="5.6478">
        <ele>822.3</ele>
        <time>2025-03-16T12:52:51Z</time>
      </trkpt>
      <trkpt lat="43.53605" lon="5.64781">
        <ele>822.2</ele>
        <time>2025-03-16T12:52:52Z</time>
      </trkpt>
      <trkpt lat="43.53605" lon="5.64781">
        <ele>821.4</ele>
        <time>2025-03-16T12:52:57Z</time>
      </trkpt>
      <trkpt lat="43.53606" lon="5.64781">
        <ele>821.3</ele>
        <time>2025-03-16T12:52:58Z</time>
      </trkpt>
      <trkpt lat="43.53614" lon="5.64782">
        <ele>820.1</ele>
        <time>2025-03-16T12:53:51Z</time>
      </trkpt>
      <trkpt lat="43.53613" lon="5.64782">
        <ele>820.3</ele>
        <time>2025-03-16T12:53:52Z</time>
      </trkpt>
      <trkpt lat="43.53609" lon="5.64778">
        <ele>819.1</ele>
        <time>2025-03-16T12:54:30Z</time>
      </trkpt>
      <trkpt lat="43.53609" lon="5.64778">
        <ele>819</ele>
        <time>2025-03-16T12:54:31Z</time>
      </trkpt>
      <trkpt lat="43.53617" lon="5.64779">
        <ele>816.2</ele>
        <time>2025-03-16T12:54:51Z</time>
      </trkpt>
      <trkpt lat="43.53617" lon="5.64778">
        <ele>816.1</ele>
        <time>2025-03-16T12:54:52Z</time>
      </trkpt>
      <trkpt lat="43.53616" lon="5.64772">
        <ele>816.6</ele>
        <time>2025-03-16T12:54:59Z</time>
      </trkpt>
      <trkpt lat="43.53616" lon="5.64772">
        <ele>816.6</ele>
        <time>2025-03-16T12:55:00Z</time>
      </trkpt>
      <trkpt lat="43.53613" lon="5.64772">
        <ele>816</ele>
        <time>2025-03-16T12:55:08Z</time>
      </trkpt>
      <trkpt lat="43.53613" lon="5.64771">
        <ele>816</ele>
        <time>2025-03-16T12:55:09Z</time>
      </trkpt>
      <trkpt lat="43.53613" lon="5.64771">
        <ele>815.7</ele>
        <time>2025-03-16T12:55:35Z</time>
      </trkpt>
      <trkpt lat="43.53612" lon="5.6477">
        <ele>815.6</ele>
        <time>2025-03-16T12:55:36Z</time>
      </trkpt>
      <trkpt lat="43.53612" lon="5.6477">
        <ele>815.4</ele>
        <time>2025-03-16T12:55:37Z</time>
      </trkpt>
      <trkpt lat="43.53612" lon="5.6477">
        <ele>815.3</ele>
        <time>2025-03-16T12:55:38Z</time>
      </trkpt>
      <trkpt lat="43.53613" lon="5.64763">
        <ele>815.3</ele>
        <time>2025-03-16T12:56:20Z</time>
      </trkpt>
      <trkpt lat="43.53613" lon="5.64762">
        <ele>815.2</ele>
        <time>2025-03-16T12:56:21Z</time>
      </trkpt>
      <trkpt lat="43.53613" lon="5.64761">
        <ele>814.8</ele>
        <time>2025-03-16T12:56:27Z</time>
      </trkpt>
      <trkpt lat="43.53613" lon="5.64761">
        <ele>814.8</ele>
        <time>2025-03-16T12:56:28Z</time>
      </trkpt>
      <trkpt lat="43.53607" lon="5.64751">
        <ele>815</ele>
        <time>2025-03-16T12:56:54Z</time>
      </trkpt>
      <trkpt lat="43.53607" lon="5.64751">
        <ele>814.4</ele>
        <time>2025-03-16T12:56:57Z</time>
      </trkpt>
      <trkpt lat="43.53607" lon="5.6475">
        <ele>814.3</ele>
        <time>2025-03-16T12:56:58Z</time>
      </trkpt>
      <trkpt lat="43.53607" lon="5.6475">
        <ele>814.1</ele>
        <time>2025-03-16T12:57:00Z</time>
      </trkpt>
      <trkpt lat="43.53607" lon="5.6475">
        <ele>814</ele>
        <time>2025-03-16T12:57:01Z</time>
      </trkpt>
      <trkpt lat="43.53609" lon="5.64749">
        <ele>812</ele>
        <time>2025-03-16T12:57:20Z</time>
      </trkpt>
      <trkpt lat="43.53609" lon="5.64749">
        <ele>812</ele>
        <time>2025-03-16T12:57:21Z</time>
      </trkpt>
      <trkpt lat="43.5361" lon="5.6475">
        <ele>810.4</ele>
        <time>2025-03-16T12:57:27Z</time>
      </trkpt>
      <trkpt lat="43.5361" lon="5.6475">
        <ele>810.5</ele>
        <time>2025-03-16T12:57:28Z</time>
      </trkpt>
      <trkpt lat="43.5361" lon="5.6475">
        <ele>810.5</ele>
        <time>2025-03-16T12:57:29Z</time>
      </trkpt>
      <trkpt lat="43.5361" lon="5.6475">
        <ele>810.8</ele>
        <time>2025-03-16T12:57:31Z</time>
      </trkpt>
      <trkpt lat="43.53605" lon="5.64752">
        <ele>811.4</ele>
        <time>2025-03-16T12:57:43Z</time>
      </trkpt>
      <trkpt lat="43.53605" lon="5.64752">
        <ele>811.6</ele>
        <time>2025-03-16T12:57:44Z</time>
      </trkpt>
      <trkpt lat="43.53603" lon="5.64758">
        <ele>813.3</ele>
        <time>2025-03-16T12:58:22Z</time>
      </trkpt>
      <trkpt lat="43.53602" lon="5.64758">
        <ele>813.4</ele>
        <time>2025-03-16T12:58:23Z</time>
      </trkpt>
      <trkpt lat="43.53601" lon="5.64756">
        <ele>813.2</ele>
        <time>2025-03-16T12:58:28Z</time>
      </trkpt>
      <trkpt lat="43.53601" lon="5.64756">
        <ele>813</ele>
        <time>2025-03-16T12:58:29Z</time>
      </trkpt>
      <trkpt lat="43.53602" lon="5.6476">
        <ele>811.5</ele>
        <time>2025-03-16T12:58:39Z</time>
      </trkpt>
      <trkpt lat="43.53602" lon="5.6476">
        <ele>811.6</ele>
        <time>2025-03-16T12:58:40Z</time>
      </trkpt>
      <trkpt lat="43.53604" lon="5.64747">
        <ele>811.3</ele>
        <time>2025-03-16T12:58:55Z</time>
      </trkpt>
      <trkpt lat="43.53603" lon="5.64737">
        <ele>809.8</ele>
        <time>2025-03-16T12:59:16Z</time>
      </trkpt>
      <trkpt lat="43.53603" lon="5.64737">
        <ele>809.7</ele>
        <time>2025-03-16T12:59:18Z</time>
      </trkpt>
      <trkpt lat="43.53603" lon="5.64737">
        <ele>809.7</ele>
        <time>2025-03-16T12:59:19Z</time>
      </trkpt>
      <trkpt lat="43.53603" lon="5.64739">
        <ele>809.8</ele>
        <time>2025-03-16T12:59:20Z</time>
      </trkpt>
      <trkpt lat="43.53604" lon="5.6474">
        <ele>810</ele>
        <time>2025-03-16T12:59:25Z</time>
      </trkpt>
      <trkpt lat="43.53604" lon="5.6474">
        <ele>809.8</ele>
        <time>2025-03-16T12:59:26Z</time>
      </trkpt>
      <trkpt lat="43.53604" lon="5.64739">
        <ele>809.7</ele>
        <time>2025-03-16T12:59:28Z</time>
      </trkpt>
      <trkpt lat="43.53604" lon="5.64738">
        <ele>809.5</ele>
        <time>2025-03-16T12:59:29Z</time>
      </trkpt>
      <trkpt lat="43.53601" lon="5.6473">
        <ele>808.1</ele>
        <time>2025-03-16T12:59:43Z</time>
      </trkpt>
      <trkpt lat="43.53602" lon="5.64729">
        <ele>808</ele>
        <time>2025-03-16T12:59:44Z</time>
      </trkpt>
      <trkpt lat="43.53607" lon="5.64739">
        <ele>807.8</ele>
        <time>2025-03-16T13:00:24Z</time>
      </trkpt>
      <trkpt lat="43.53608" lon="5.6474">
        <ele>807.2</ele>
        <time>2025-03-16T13:00:32Z</time>
      </trkpt>
      <trkpt lat="43.53608" lon="5.64741">
        <ele>807.3</ele>
        <time>2025-03-16T13:00:33Z</time>
      </trkpt>
      <trkpt lat="43.53609" lon="5.64743">
        <ele>807.5</ele>
        <time>2025-03-16T13:00:38Z</time>
      </trkpt>
      <trkpt lat="43.53608" lon="5.64743">
        <ele>807.5</ele>
        <time>2025-03-16T13:00:39Z</time>
      </trkpt>
      <trkpt lat="43.53604" lon="5.64733">
        <ele>806.6</ele>
        <time>2025-03-16T13:00:48Z</time>
      </trkpt>
      <trkpt lat="43.53602" lon="5.64732">
        <ele>806.4</ele>
        <time>2025-03-16T13:00:52Z</time>
      </trkpt>
      <trkpt lat="43.53602" lon="5.64732">
        <ele>806.2</ele>
        <time>2025-03-16T13:00:53Z</time>
      </trkpt>
      <trkpt lat="43.536" lon="5.64719">
        <ele>802.8</ele>
        <time>2025-03-16T13:01:07Z</time>
      </trkpt>
      <trkpt lat="43.53601" lon="5.64719">
        <ele>802.7</ele>
        <time>2025-03-16T13:01:20Z</time>
      </trkpt>
      <trkpt lat="43.53602" lon="5.64719">
        <ele>802.7</ele>
        <time>2025-03-16T13:01:22Z</time>
      </trkpt>
      <trkpt lat="43.53601" lon="5.64721">
        <ele>801.9</ele>
        <time>2025-03-16T13:01:36Z</time>
      </trkpt>
      <trkpt lat="43.53601" lon="5.64721">
        <ele>801.7</ele>
        <time>2025-03-16T13:01:37Z</time>
      </trkpt>
      <trkpt lat="43.53601" lon="5.64721">
        <ele>801.6</ele>
        <time>2025-03-16T13:01:39Z</time>
      </trkpt>
      <trkpt lat="43.53602" lon="5.64721">
        <ele>801.6</ele>
        <time>2025-03-16T13:01:40Z</time>
      </trkpt>
      <trkpt lat="43.53604" lon="5.64714">
        <ele>801.1</ele>
        <time>2025-03-16T13:01:49Z</time>
      </trkpt>
      <trkpt lat="43.53604" lon="5.64713">
        <ele>801.2</ele>
        <time>2025-03-16T13:01:50Z</time>
      </trkpt>
      <trkpt lat="43.53598" lon="5.64704">
        <ele>801.5</ele>
        <time>2025-03-16T13:02:13Z</time>
      </trkpt>
      <trkpt lat="43.53591" lon="5.64703">
        <ele>801.3</ele>
        <time>2025-03-16T13:02:28Z</time>
      </trkpt>
      <trkpt lat="43.53592" lon="5.64703">
        <ele>801.1</ele>
        <time>2025-03-16T13:02:29Z</time>
      </trkpt>
      <trkpt lat="43.5359" lon="5.64704">
        <ele>798.6</ele>
        <time>2025-03-16T13:02:56Z</time>
      </trkpt>
      <trkpt lat="43.5359" lon="5.64703">
        <ele>798.4</ele>
        <time>2025-03-16T13:02:57Z</time>
      </trkpt>
      <trkpt lat="43.53587" lon="5.64705">
        <ele>797.6</ele>
        <time>2025-03-16T13:03:06Z</time>
      </trkpt>
      <trkpt lat="43.53587" lon="5.64706">
        <ele>797.4</ele>
        <time>2025-03-16T13:03:07Z</time>
      </trkpt>
      <trkpt lat="43.53581" lon="5.64696">
        <ele>793.5</ele>
        <time>2025-03-16T13:03:46Z</time>
      </trkpt>
      <trkpt lat="43.53586" lon="5.64705">
        <ele>790.9</ele>
        <time>2025-03-16T13:04:10Z</time>
      </trkpt>
      <trkpt lat="43.53587" lon="5.64706">
        <ele>790.8</ele>
        <time>2025-03-16T13:04:11Z</time>
      </trkpt>
      <trkpt lat="43.5359" lon="5.6471">
        <ele>789.5</ele>
        <time>2025-03-16T13:04:36Z</time>
      </trkpt>
      <trkpt lat="43.5359" lon="5.64711">
        <ele>789.4</ele>
        <time>2025-03-16T13:04:37Z</time>
      </trkpt>
      <trkpt lat="43.53593" lon="5.64699">
        <ele>787.5</ele>
        <time>2025-03-16T13:04:54Z</time>
      </trkpt>
      <trkpt lat="43.53597" lon="5.64695">
        <ele>787.3</ele>
        <time>2025-03-16T13:05:10Z</time>
      </trkpt>
      <trkpt lat="43.53596" lon="5.64694">
        <ele>787.5</ele>
        <time>2025-03-16T13:05:11Z</time>
      </trkpt>
      <trkpt lat="43.53595" lon="5.64699">
        <ele>789.2</ele>
        <time>2025-03-16T13:05:23Z</time>
      </trkpt>
      <trkpt lat="43.53595" lon="5.64698">
        <ele>789.4</ele>
        <time>2025-03-16T13:05:25Z</time>
      </trkpt>
      <trkpt lat="43.53604" lon="5.64693">
        <ele>789.7</ele>
        <time>2025-03-16T13:05:41Z</time>
      </trkpt>
      <trkpt lat="43.53604" lon="5.6468">
        <ele>787.1</ele>
        <time>2025-03-16T13:06:14Z</time>
      </trkpt>
      <trkpt lat="43.53604" lon="5.64666">
        <ele>787.6</ele>
        <time>2025-03-16T13:06:28Z</time>
      </trkpt>
      <trkpt lat="43.53603" lon="5.64662">
        <ele>787.6</ele>
        <time>2025-03-16T13:06:32Z</time>
      </trkpt>
      <trkpt lat="43.53603" lon="5.64661">
        <ele>787.5</ele>
        <time>2025-03-16T13:06:33Z</time>
      </trkpt>
      <trkpt lat="43.53603" lon="5.64658">
        <ele>787.6</ele>
        <time>2025-03-16T13:06:38Z</time>
      </trkpt>
      <trkpt lat="43.53603" lon="5.64657">
        <ele>787.6</ele>
        <time>2025-03-16T13:06:39Z</time>
      </trkpt>
      <trkpt lat="43.536" lon="5.64652">
        <ele>788</ele>
        <time>2025-03-16T13:06:44Z</time>
      </trkpt>
      <trkpt lat="43.53601" lon="5.64652">
        <ele>788.2</ele>
        <time>2025-03-16T13:06:45Z</time>
      </trkpt>
      <trkpt lat="43.53599" lon="5.64639">
        <ele>788.3</ele>
        <time>2025-03-16T13:06:57Z</time>
      </trkpt>
      <trkpt lat="43.536" lon="5.64635">
        <ele>789.8</ele>
        <time>2025-03-16T13:07:42Z</time>
      </trkpt>
      <trkpt lat="43.53599" lon="5.64635">
        <ele>790</ele>
        <time>2025-03-16T13:07:43Z</time>
      </trkpt>
      <trkpt lat="43.53599" lon="5.64634">
        <ele>789.9</ele>
        <time>2025-03-16T13:07:44Z</time>
      </trkpt>
      <trkpt lat="43.53599" lon="5.64634">
        <ele>790</ele>
        <time>2025-03-16T13:07:45Z</time>
      </trkpt>
      <trkpt lat="43.53601" lon="5.64629">
        <ele>789.4</ele>
        <time>2025-03-16T13:08:02Z</time>
      </trkpt>
      <trkpt lat="43.536" lon="5.64628">
        <ele>789.2</ele>
        <time>2025-03-16T13:08:03Z</time>
      </trkpt>
      <trkpt lat="43.53597" lon="5.64616">
        <ele>789</ele>
        <time>2025-03-16T13:08:15Z</time>
      </trkpt>
      <trkpt lat="43.53596" lon="5.64615">
        <ele>788.9</ele>
        <time>2025-03-16T13:08:17Z</time>
      </trkpt>
      <trkpt lat="43.53597" lon="5.64615">
        <ele>788.9</ele>
        <time>2025-03-16T13:08:18Z</time>
      </trkpt>
      <trkpt lat="43.53592" lon="5.64611">
        <ele>787.5</ele>
        <time>2025-03-16T13:08:27Z</time>
      </trkpt>
      <trkpt lat="43.53593" lon="5.64611">
        <ele>787.7</ele>
        <time>2025-03-16T13:08:28Z</time>
      </trkpt>
      <trkpt lat="43.53586" lon="5.64614">
        <ele>786.9</ele>
        <time>2025-03-16T13:08:59Z</time>
      </trkpt>
      <trkpt lat="43.53586" lon="5.64614">
        <ele>786.8</ele>
        <time>2025-03-16T13:09:00Z</time>
      </trkpt>
      <trkpt lat="43.53594" lon="5.64609">
        <ele>793</ele>
        <time>2025-03-16T13:09:36Z</time>
      </trkpt>
      <trkpt lat="43.53598" lon="5.64604">
        <ele>794.5</ele>
        <time>2025-03-16T13:09:59Z</time>
      </trkpt>
      <trkpt lat="43.53598" lon="5.64604">
        <ele>794.8</ele>
        <time>2025-03-16T13:10:00Z</time>
      </trkpt>
      <trkpt lat="43.53598" lon="5.64593">
        <ele>794.4</ele>
        <time>2025-03-16T13:10:21Z</time>
      </trkpt>
      <trkpt lat="43.53598" lon="5.64593">
        <ele>794.4</ele>
        <time>2025-03-16T13:10:22Z</time>
      </trkpt>
      <trkpt lat="43.53596" lon="5.64601">
        <ele>796.8</ele>
        <time>2025-03-16T13:10:47Z</time>
      </trkpt>
      <trkpt lat="43.53596" lon="5.64601">
        <ele>796.8</ele>
        <time>2025-03-16T13:10:48Z</time>
      </trkpt>
      <trkpt lat="43.5359" lon="5.6459">
        <ele>798.1</ele>
        <time>2025-03-16T13:11:11Z</time>
      </trkpt>
      <trkpt lat="43.53592" lon="5.64597">
        <ele>798</ele>
        <time>2025-03-16T13:11:31Z</time>
      </trkpt>
      <trkpt lat="43.53592" lon="5.64594">
        <ele>798</ele>
        <time>2025-03-16T13:11:32Z</time>
      </trkpt>
      <trkpt lat="43.53593" lon="5.64594">
        <ele>798</ele>
        <time>2025-03-16T13:11:40Z</time>
      </trkpt>
      <trkpt lat="43.53593" lon="5.64595">
        <ele>798</ele>
        <time>2025-03-16T13:11:41Z</time>
      </trkpt>
      <trkpt lat="43.53593" lon="5.64595">
        <ele>798</ele>
        <time>2025-03-16T13:11:42Z</time>
      </trkpt>
      <trkpt lat="43.53593" lon="5.64595">
        <ele>798</ele>
        <time>2025-03-16T13:11:43Z</time>
      </trkpt>
      <trkpt lat="43.53592" lon="5.64592">
        <ele>798.3</ele>
        <time>2025-03-16T13:11:46Z</time>
      </trkpt>
      <trkpt lat="43.53593" lon="5.64592">
        <ele>798.3</ele>
        <time>2025-03-16T13:11:47Z</time>
      </trkpt>
      <trkpt lat="43.53594" lon="5.64593">
        <ele>798.3</ele>
        <time>2025-03-16T13:11:51Z</time>
      </trkpt>
      <trkpt lat="43.53594" lon="5.64591">
        <ele>798.3</ele>
        <time>2025-03-16T13:11:52Z</time>
      </trkpt>
      <trkpt lat="43.53592" lon="5.64577">
        <ele>798.8</ele>
        <time>2025-03-16T13:12:05Z</time>
      </trkpt>
      <trkpt lat="43.53596" lon="5.64597">
        <ele>797.4</ele>
        <time>2025-03-16T13:12:10Z</time>
      </trkpt>
      <trkpt lat="43.53597" lon="5.64596">
        <ele>799.6</ele>
        <time>2025-03-16T13:12:12Z</time>
      </trkpt>
      <trkpt lat="43.53597" lon="5.64596">
        <ele>799.7</ele>
        <time>2025-03-16T13:12:13Z</time>
      </trkpt>
      <trkpt lat="43.53597" lon="5.64596">
        <ele>799.8</ele>
        <time>2025-03-16T13:12:14Z</time>
      </trkpt>
      <trkpt lat="43.53597" lon="5.64595">
        <ele>800.1</ele>
        <time>2025-03-16T13:12:17Z</time>
      </trkpt>
      <trkpt lat="43.53598" lon="5.64594">
        <ele>800.8</ele>
        <time>2025-03-16T13:12:20Z</time>
      </trkpt>
      <trkpt lat="43.53598" lon="5.64594">
        <ele>800.8</ele>
        <time>2025-03-16T13:12:49Z</time>
      </trkpt>
      <trkpt lat="43.53598" lon="5.64594">
        <ele>800.8</ele>
        <time>2025-03-16T13:12:50Z</time>
      </trkpt>
      <trkpt lat="43.53599" lon="5.64594">
        <ele>801.3</ele>
        <time>2025-03-16T13:12:54Z</time>
      </trkpt>
      <trkpt lat="43.53597" lon="5.64594">
        <ele>801.2</ele>
        <time>2025-03-16T13:13:25Z</time>
      </trkpt>
      <trkpt lat="43.53598" lon="5.64595">
        <ele>801.3</ele>
        <time>2025-03-16T13:13:26Z</time>
      </trkpt>
      <trkpt lat="43.53598" lon="5.64598">
        <ele>801.7</ele>
        <time>2025-03-16T13:13:36Z</time>
      </trkpt>
      <trkpt lat="43.53597" lon="5.64598">
        <ele>801.8</ele>
        <time>2025-03-16T13:13:37Z</time>
      </trkpt>
      <trkpt lat="43.53602" lon="5.64595">
        <ele>801.5</ele>
        <time>2025-03-16T13:13:52Z</time>
      </trkpt>
      <trkpt lat="43.53603" lon="5.64595">
        <ele>801.4</ele>
        <time>2025-03-16T13:13:53Z</time>
      </trkpt>
      <trkpt lat="43.53604" lon="5.64585">
        <ele>799.5</ele>
        <time>2025-03-16T13:14:14Z</time>
      </trkpt>
      <trkpt lat="43.53604" lon="5.64585">
        <ele>799.6</ele>
        <time>2025-03-16T13:14:15Z</time>
      </trkpt>
      <trkpt lat="43.53598" lon="5.64575">
        <ele>800.1</ele>
        <time>2025-03-16T13:14:33Z</time>
      </trkpt>
      <trkpt lat="43.5359" lon="5.64565">
        <ele>800.6</ele>
        <time>2025-03-16T13:14:42Z</time>
      </trkpt>
      <trkpt lat="43.53587" lon="5.64562">
        <ele>804.8</ele>
        <time>2025-03-16T13:14:57Z</time>
      </trkpt>
      <trkpt lat="43.53587" lon="5.64562">
        <ele>804.9</ele>
        <time>2025-03-16T13:15:02Z</time>
      </trkpt>
      <trkpt lat="43.53587" lon="5.64561">
        <ele>805.8</ele>
        <time>2025-03-16T13:15:05Z</time>
      </trkpt>
      <trkpt lat="43.53587" lon="5.64561">
        <ele>805.9</ele>
        <time>2025-03-16T13:15:14Z</time>
      </trkpt>
      <trkpt lat="43.53587" lon="5.64563">
        <ele>806</ele>
        <time>2025-03-16T13:15:17Z</time>
      </trkpt>
      <trkpt lat="43.53587" lon="5.64563">
        <ele>806</ele>
        <time>2025-03-16T13:15:18Z</time>
      </trkpt>
      <trkpt lat="43.53587" lon="5.64563">
        <ele>806</ele>
        <time>2025-03-16T13:15:19Z</time>
      </trkpt>
      <trkpt lat="43.53587" lon="5.64563">
        <ele>806</ele>
        <time>2025-03-16T13:15:27Z</time>
      </trkpt>
      <trkpt lat="43.53588" lon="5.64569">
        <ele>805.7</ele>
        <time>2025-03-16T13:15:39Z</time>
      </trkpt>
      <trkpt lat="43.53588" lon="5.64569">
        <ele>805.7</ele>
        <time>2025-03-16T13:15:40Z</time>
      </trkpt>
      <trkpt lat="43.5359" lon="5.64572">
        <ele>805.6</ele>
        <time>2025-03-16T13:15:51Z</time>
      </trkpt>
      <trkpt lat="43.5359" lon="5.64572">
        <ele>805.6</ele>
        <time>2025-03-16T13:15:53Z</time>
      </trkpt>
      <trkpt lat="43.53589" lon="5.64571">
        <ele>805.4</ele>
        <time>2025-03-16T13:15:56Z</time>
      </trkpt>
      <trkpt lat="43.53589" lon="5.64571">
        <ele>805.4</ele>
        <time>2025-03-16T13:15:57Z</time>
      </trkpt>
      <trkpt lat="43.5359" lon="5.64575">
        <ele>806.4</ele>
        <time>2025-03-16T13:16:04Z</time>
      </trkpt>
      <trkpt lat="43.53591" lon="5.64576">
        <ele>806.6</ele>
        <time>2025-03-16T13:16:07Z</time>
      </trkpt>
      <trkpt lat="43.53591" lon="5.64576">
        <ele>806.7</ele>
        <time>2025-03-16T13:16:08Z</time>
      </trkpt>
      <trkpt lat="43.53591" lon="5.64576">
        <ele>807.1</ele>
        <time>2025-03-16T13:16:15Z</time>
      </trkpt>
      <trkpt lat="43.53591" lon="5.64576">
        <ele>807.2</ele>
        <time>2025-03-16T13:16:16Z</time>
      </trkpt>
      <trkpt lat="43.53591" lon="5.64577">
        <ele>807.3</ele>
        <time>2025-03-16T13:16:19Z</time>
      </trkpt>
      <trkpt lat="43.53591" lon="5.64577">
        <ele>807.3</ele>
        <time>2025-03-16T13:16:20Z</time>
      </trkpt>
      <trkpt lat="43.53591" lon="5.64577">
        <ele>807.7</ele>
        <time>2025-03-16T13:16:22Z</time>
      </trkpt>
      <trkpt lat="43.53591" lon="5.64577">
        <ele>807.8</ele>
        <time>2025-03-16T13:16:23Z</time>
      </trkpt>
      <trkpt lat="43.5359" lon="5.64577">
        <ele>808.2</ele>
        <time>2025-03-16T13:16:31Z</time>
      </trkpt>
      <trkpt lat="43.5359" lon="5.64577">
        <ele>808.3</ele>
        <time>2025-03-16T13:16:32Z</time>
      </trkpt>
      <trkpt lat="43.5359" lon="5.64578">
        <ele>808.4</ele>
        <time>2025-03-16T13:16:36Z</time>
      </trkpt>
      <trkpt lat="43.5359" lon="5.64578">
        <ele>808.3</ele>
        <time>2025-03-16T13:16:37Z</time>
      </trkpt>
      <trkpt lat="43.5359" lon="5.64577">
        <ele>808.2</ele>
        <time>2025-03-16T13:16:38Z</time>
      </trkpt>
      <trkpt lat="43.53592" lon="5.64577">
        <ele>808.1</ele>
        <time>2025-03-16T13:16:42Z</time>
      </trkpt>
      <trkpt lat="43.53592" lon="5.64577">
        <ele>808.2</ele>
        <time>2025-03-16T13:16:43Z</time>
      </trkpt>
      <trkpt lat="43.53592" lon="5.64576">
        <ele>808.2</ele>
        <time>2025-03-16T13:16:44Z</time>
      </trkpt>
      <trkpt lat="43.53591" lon="5.64576">
        <ele>808.2</ele>
        <time>2025-03-16T13:16:45Z</time>
      </trkpt>
      <trkpt lat="43.5359" lon="5.64575">
        <ele>808.9</ele>
        <time>2025-03-16T13:16:51Z</time>
      </trkpt>
      <trkpt lat="43.5359" lon="5.64575">
        <ele>809</ele>
        <time>2025-03-16T13:16:52Z</time>
      </trkpt>
      <trkpt lat="43.53581" lon="5.64577">
        <ele>805.4</ele>
        <time>2025-03-16T13:17:33Z</time>
      </trkpt>
      <trkpt lat="43.53581" lon="5.64577">
        <ele>805.3</ele>
        <time>2025-03-16T13:17:34Z</time>
      </trkpt>
      <trkpt lat="43.53582" lon="5.64578">
        <ele>805.5</ele>
        <time>2025-03-16T13:17:36Z</time>
      </trkpt>
      <trkpt lat="43.53582" lon="5.64578">
        <ele>805.8</ele>
        <time>2025-03-16T13:17:38Z</time>
      </trkpt>
      <trkpt lat="43.53583" lon="5.64579">
        <ele>806</ele>
        <time>2025-03-16T13:17:39Z</time>
      </trkpt>
      <trkpt lat="43.53583" lon="5.6458">
        <ele>805.4</ele>
        <time>2025-03-16T13:17:46Z</time>
      </trkpt>
      <trkpt lat="43.53582" lon="5.64579">
        <ele>805.3</ele>
        <time>2025-03-16T13:17:47Z</time>
      </trkpt>
      <trkpt lat="43.53582" lon="5.64579">
        <ele>805.1</ele>
        <time>2025-03-16T13:17:49Z</time>
      </trkpt>
      <trkpt lat="43.53582" lon="5.64579">
        <ele>805</ele>
        <time>2025-03-16T13:17:50Z</time>
      </trkpt>
      <trkpt lat="43.53582" lon="5.64579">
        <ele>804.7</ele>
        <time>2025-03-16T13:17:54Z</time>
      </trkpt>
      <trkpt lat="43.53582" lon="5.64579">
        <ele>804.8</ele>
        <time>2025-03-16T13:17:55Z</time>
      </trkpt>
      <trkpt lat="43.53583" lon="5.64578">
        <ele>804.7</ele>
        <time>2025-03-16T13:18:00Z</time>
      </trkpt>
      <trkpt lat="43.53583" lon="5.64578">
        <ele>804.6</ele>
        <time>2025-03-16T13:18:01Z</time>
      </trkpt>
      <trkpt lat="43.53582" lon="5.64578">
        <ele>804.6</ele>
        <time>2025-03-16T13:18:05Z</time>
      </trkpt>
      <trkpt lat="43.53582" lon="5.64578">
        <ele>804.7</ele>
        <time>2025-03-16T13:18:06Z</time>
      </trkpt>
      <trkpt lat="43.53582" lon="5.64578">
        <ele>804.4</ele>
        <time>2025-03-16T13:18:08Z</time>
      </trkpt>
      <trkpt lat="43.53581" lon="5.64578">
        <ele>804.2</ele>
        <time>2025-03-16T13:18:11Z</time>
      </trkpt>
      <trkpt lat="43.5358" lon="5.64578">
        <ele>804.1</ele>
        <time>2025-03-16T13:18:14Z</time>
      </trkpt>
      <trkpt lat="43.5358" lon="5.64578">
        <ele>804</ele>
        <time>2025-03-16T13:18:15Z</time>
      </trkpt>
      <trkpt lat="43.5358" lon="5.64577">
        <ele>803.7</ele>
        <time>2025-03-16T13:18:18Z</time>
      </trkpt>
      <trkpt lat="43.5358" lon="5.64578">
        <ele>803.6</ele>
        <time>2025-03-16T13:18:19Z</time>
      </trkpt>
      <trkpt lat="43.53579" lon="5.64564">
        <ele>801.9</ele>
        <time>2025-03-16T13:18:46Z</time>
      </trkpt>
      <trkpt lat="43.53579" lon="5.64573">
        <ele>800.7</ele>
        <time>2025-03-16T13:18:53Z</time>
      </trkpt>
      <trkpt lat="43.53581" lon="5.64573">
        <ele>800.7</ele>
        <time>2025-03-16T13:18:54Z</time>
      </trkpt>
      <trkpt lat="43.53585" lon="5.64577">
        <ele>800.4</ele>
        <time>2025-03-16T13:19:02Z</time>
      </trkpt>
      <trkpt lat="43.53585" lon="5.64577">
        <ele>800.4</ele>
        <time>2025-03-16T13:19:03Z</time>
      </trkpt>
      <trkpt lat="43.53585" lon="5.6458">
        <ele>800.8</ele>
        <time>2025-03-16T13:19:14Z</time>
      </trkpt>
      <trkpt lat="43.53584" lon="5.6458">
        <ele>800.8</ele>
        <time>2025-03-16T13:19:15Z</time>
      </trkpt>
      <trkpt lat="43.53584" lon="5.6458">
        <ele>801.1</ele>
        <time>2025-03-16T13:19:19Z</time>
      </trkpt>
      <trkpt lat="43.53583" lon="5.64581">
        <ele>801.2</ele>
        <time>2025-03-16T13:19:20Z</time>
      </trkpt>
      <trkpt lat="43.53583" lon="5.64581">
        <ele>802.6</ele>
        <time>2025-03-16T13:19:40Z</time>
      </trkpt>
      <trkpt lat="43.53583" lon="5.64581">
        <ele>802.7</ele>
        <time>2025-03-16T13:19:41Z</time>
      </trkpt>
      <trkpt lat="43.53583" lon="5.64582">
        <ele>803</ele>
        <time>2025-03-16T13:19:44Z</time>
      </trkpt>
      <trkpt lat="43.53582" lon="5.64582">
        <ele>803</ele>
        <time>2025-03-16T13:19:45Z</time>
      </trkpt>
      <trkpt lat="43.53582" lon="5.64582">
        <ele>803</ele>
        <time>2025-03-16T13:19:46Z</time>
      </trkpt>
      <trkpt lat="43.53582" lon="5.64582">
        <ele>803</ele>
        <time>2025-03-16T13:19:48Z</time>
      </trkpt>
      <trkpt lat="43.53577" lon="5.64584">
        <ele>800.3</ele>
        <time>2025-03-16T13:20:03Z</time>
      </trkpt>
      <trkpt lat="43.53576" lon="5.64584">
        <ele>800.5</ele>
        <time>2025-03-16T13:20:04Z</time>
      </trkpt>
      <trkpt lat="43.53575" lon="5.64584">
        <ele>800.3</ele>
        <time>2025-03-16T13:20:08Z</time>
      </trkpt>
      <trkpt lat="43.53575" lon="5.64584">
        <ele>800.4</ele>
        <time>2025-03-16T13:20:09Z</time>
      </trkpt>
      <trkpt lat="43.53575" lon="5.64584">
        <ele>800.5</ele>
        <time>2025-03-16T13:20:10Z</time>
      </trkpt>
      <trkpt lat="43.53575" lon="5.64584">
        <ele>800.4</ele>
        <time>2025-03-16T13:20:11Z</time>
      </trkpt>
      <trkpt lat="43.53573" lon="5.64588">
        <ele>801</ele>
        <time>2025-03-16T13:20:23Z</time>
      </trkpt>
      <trkpt lat="43.53573" lon="5.64588">
        <ele>801.1</ele>
        <time>2025-03-16T13:20:24Z</time>
      </trkpt>
      <trkpt lat="43.53573" lon="5.64588">
        <ele>801.1</ele>
        <time>2025-03-16T13:20:25Z</time>
      </trkpt>
      <trkpt lat="43.53573" lon="5.64588">
        <ele>801.1</ele>
        <time>2025-03-16T13:20:26Z</time>
      </trkpt>
      <trkpt lat="43.53574" lon="5.64578">
        <ele>799.6</ele>
        <time>2025-03-16T13:21:41Z</time>
      </trkpt>
      <trkpt lat="43.53574" lon="5.64578">
        <ele>799.5</ele>
        <time>2025-03-16T13:21:42Z</time>
      </trkpt>
      <trkpt lat="43.53566" lon="5.64572">
        <ele>799.1</ele>
        <time>2025-03-16T13:21:53Z</time>
      </trkpt>
      <trkpt lat="43.53562" lon="5.64583">
        <ele>797.5</ele>
        <time>2025-03-16T13:22:11Z</time>
      </trkpt>
      <trkpt lat="43.53556" lon="5.64591">
        <ele>788.6</ele>
        <time>2025-03-16T13:22:45Z</time>
      </trkpt>
      <trkpt lat="43.53556" lon="5.64591">
        <ele>788.5</ele>
        <time>2025-03-16T13:22:46Z</time>
      </trkpt>
      <trkpt lat="43.53556" lon="5.64578">
        <ele>788.4</ele>
        <time>2025-03-16T13:22:54Z</time>
      </trkpt>
      <trkpt lat="43.53555" lon="5.6458">
        <ele>786.8</ele>
        <time>2025-03-16T13:23:18Z</time>
      </trkpt>
      <trkpt lat="43.53555" lon="5.6458">
        <ele>786.8</ele>
        <time>2025-03-16T13:23:19Z</time>
      </trkpt>
      <trkpt lat="43.53549" lon="5.6458">
        <ele>779.9</ele>
        <time>2025-03-16T13:23:53Z</time>
      </trkpt>
      <trkpt lat="43.5355" lon="5.64581">
        <ele>779.8</ele>
        <time>2025-03-16T13:23:54Z</time>
      </trkpt>
      <trkpt lat="43.5355" lon="5.64591">
        <ele>778.3</ele>
        <time>2025-03-16T13:24:13Z</time>
      </trkpt>
      <trkpt lat="43.5355" lon="5.64591">
        <ele>778.2</ele>
        <time>2025-03-16T13:24:14Z</time>
      </trkpt>
      <trkpt lat="43.5355" lon="5.64591">
        <ele>777.9</ele>
        <time>2025-03-16T13:24:16Z</time>
      </trkpt>
      <trkpt lat="43.53551" lon="5.64591">
        <ele>777.8</ele>
        <time>2025-03-16T13:24:17Z</time>
      </trkpt>
      <trkpt lat="43.5355" lon="5.64591">
        <ele>777.5</ele>
        <time>2025-03-16T13:24:20Z</time>
      </trkpt>
      <trkpt lat="43.5355" lon="5.64591">
        <ele>777.4</ele>
        <time>2025-03-16T13:24:21Z</time>
      </trkpt>
      <trkpt lat="43.5355" lon="5.64591">
        <ele>777.4</ele>
        <time>2025-03-16T13:24:22Z</time>
      </trkpt>
      <trkpt lat="43.5355" lon="5.6459">
        <ele>777.4</ele>
        <time>2025-03-16T13:24:23Z</time>
      </trkpt>
      <trkpt lat="43.53546" lon="5.64586">
        <ele>775.7</ele>
        <time>2025-03-16T13:24:34Z</time>
      </trkpt>
      <trkpt lat="43.53547" lon="5.64587">
        <ele>775.5</ele>
        <time>2025-03-16T13:24:35Z</time>
      </trkpt>
      <trkpt lat="43.53547" lon="5.64584">
        <ele>773.7</ele>
        <time>2025-03-16T13:25:04Z</time>
      </trkpt>
      <trkpt lat="43.53548" lon="5.64585">
        <ele>773.7</ele>
        <time>2025-03-16T13:25:05Z</time>
      </trkpt>
      <trkpt lat="43.53548" lon="5.64585">
        <ele>773.6</ele>
        <time>2025-03-16T13:25:06Z</time>
      </trkpt>
      <trkpt lat="43.53548" lon="5.64585">
        <ele>773.7</ele>
        <time>2025-03-16T13:25:07Z</time>
      </trkpt>
      <trkpt lat="43.53549" lon="5.64585">
        <ele>773</ele>
        <time>2025-03-16T13:25:14Z</time>
      </trkpt>
      <trkpt lat="43.53549" lon="5.64586">
        <ele>772.8</ele>
        <time>2025-03-16T13:25:15Z</time>
      </trkpt>
      <trkpt lat="43.53552" lon="5.6459">
        <ele>772.4</ele>
        <time>2025-03-16T13:25:23Z</time>
      </trkpt>
      <trkpt lat="43.53551" lon="5.6459">
        <ele>772.5</ele>
        <time>2025-03-16T13:25:24Z</time>
      </trkpt>
      <trkpt lat="43.53552" lon="5.64594">
        <ele>773.1</ele>
        <time>2025-03-16T13:25:32Z</time>
      </trkpt>
      <trkpt lat="43.53552" lon="5.64594">
        <ele>773.1</ele>
        <time>2025-03-16T13:25:33Z</time>
      </trkpt>
      <trkpt lat="43.53553" lon="5.64587">
        <ele>772.1</ele>
        <time>2025-03-16T13:25:44Z</time>
      </trkpt>
      <trkpt lat="43.53552" lon="5.64588">
        <ele>772.1</ele>
        <time>2025-03-16T13:25:45Z</time>
      </trkpt>
      <trkpt lat="43.53554" lon="5.64589">
        <ele>771.8</ele>
        <time>2025-03-16T13:25:55Z</time>
      </trkpt>
      <trkpt lat="43.53554" lon="5.64589">
        <ele>771.9</ele>
        <time>2025-03-16T13:25:56Z</time>
      </trkpt>
      <trkpt lat="43.53554" lon="5.64589">
        <ele>772</ele>
        <time>2025-03-16T13:25:58Z</time>
      </trkpt>
      <trkpt lat="43.53554" lon="5.64589">
        <ele>771.9</ele>
        <time>2025-03-16T13:25:59Z</time>
      </trkpt>
      <trkpt lat="43.53553" lon="5.64582">
        <ele>770.1</ele>
        <time>2025-03-16T13:26:28Z</time>
      </trkpt>
      <trkpt lat="43.53553" lon="5.64582">
        <ele>769.5</ele>
        <time>2025-03-16T13:26:30Z</time>
      </trkpt>
      <trkpt lat="43.53551" lon="5.64578">
        <ele>768</ele>
        <time>2025-03-16T13:26:49Z</time>
      </trkpt>
      <trkpt lat="43.53551" lon="5.64578">
        <ele>768</ele>
        <time>2025-03-16T13:26:50Z</time>
      </trkpt>
      <trkpt lat="43.53546" lon="5.64577">
        <ele>765.2</ele>
        <time>2025-03-16T13:26:59Z</time>
      </trkpt>
      <trkpt lat="43.53546" lon="5.64577">
        <ele>764.9</ele>
        <time>2025-03-16T13:27:00Z</time>
      </trkpt>
      <trkpt lat="43.53545" lon="5.64576">
        <ele>764.3</ele>
        <time>2025-03-16T13:27:07Z</time>
      </trkpt>
      <trkpt lat="43.53546" lon="5.64576">
        <ele>764.4</ele>
        <time>2025-03-16T13:27:08Z</time>
      </trkpt>
      <trkpt lat="43.53545" lon="5.64574">
        <ele>765</ele>
        <time>2025-03-16T13:27:25Z</time>
      </trkpt>
      <trkpt lat="43.53545" lon="5.64574">
        <ele>765.2</ele>
        <time>2025-03-16T13:27:26Z</time>
      </trkpt>
      <trkpt lat="43.53544" lon="5.64587">
        <ele>763.2</ele>
        <time>2025-03-16T13:27:59Z</time>
      </trkpt>
      <trkpt lat="43.5354" lon="5.64573">
        <ele>757.7</ele>
        <time>2025-03-16T13:29:26Z</time>
      </trkpt>
      <trkpt lat="43.5354" lon="5.64574">
        <ele>757.2</ele>
        <time>2025-03-16T13:29:29Z</time>
      </trkpt>
      <trkpt lat="43.5354" lon="5.64573">
        <ele>757.3</ele>
        <time>2025-03-16T13:29:30Z</time>
      </trkpt>
      <trkpt lat="43.53532" lon="5.6458">
        <ele>755</ele>
        <time>2025-03-16T13:30:06Z</time>
      </trkpt>
      <trkpt lat="43.53531" lon="5.64581">
        <ele>755.3</ele>
        <time>2025-03-16T13:30:09Z</time>
      </trkpt>
      <trkpt lat="43.53531" lon="5.64581">
        <ele>755.3</ele>
        <time>2025-03-16T13:30:10Z</time>
      </trkpt>
      <trkpt lat="43.53532" lon="5.64583">
        <ele>755.8</ele>
        <time>2025-03-16T13:30:15Z</time>
      </trkpt>
      <trkpt lat="43.53532" lon="5.64583">
        <ele>755.8</ele>
        <time>2025-03-16T13:30:16Z</time>
      </trkpt>
      <trkpt lat="43.53532" lon="5.64585">
        <ele>756</ele>
        <time>2025-03-16T13:30:20Z</time>
      </trkpt>
      <trkpt lat="43.53533" lon="5.64585">
        <ele>755.9</ele>
        <time>2025-03-16T13:30:21Z</time>
      </trkpt>
      <trkpt lat="43.53531" lon="5.64583">
        <ele>755.9</ele>
        <time>2025-03-16T13:30:33Z</time>
      </trkpt>
      <trkpt lat="43.53532" lon="5.64583">
        <ele>756</ele>
        <time>2025-03-16T13:30:35Z</time>
      </trkpt>
      <trkpt lat="43.53524" lon="5.64576">
        <ele>755.4</ele>
        <time>2025-03-16T13:30:59Z</time>
      </trkpt>
      <trkpt lat="43.5352" lon="5.64576">
        <ele>755.4</ele>
        <time>2025-03-16T13:31:08Z</time>
      </trkpt>
      <trkpt lat="43.5352" lon="5.64576">
        <ele>755.4</ele>
        <time>2025-03-16T13:31:09Z</time>
      </trkpt>
      <trkpt lat="43.53521" lon="5.64575">
        <ele>755</ele>
        <time>2025-03-16T13:31:13Z</time>
      </trkpt>
      <trkpt lat="43.53521" lon="5.64574">
        <ele>755.1</ele>
        <time>2025-03-16T13:31:14Z</time>
      </trkpt>
      <trkpt lat="43.53519" lon="5.64573">
        <ele>755.5</ele>
        <time>2025-03-16T13:31:35Z</time>
      </trkpt>
      <trkpt lat="43.53519" lon="5.64573">
        <ele>755.5</ele>
        <time>2025-03-16T13:31:36Z</time>
      </trkpt>
      <trkpt lat="43.53516" lon="5.64576">
        <ele>754.8</ele>
        <time>2025-03-16T13:32:15Z</time>
      </trkpt>
      <trkpt lat="43.53516" lon="5.64577">
        <ele>754.9</ele>
        <time>2025-03-16T13:32:16Z</time>
      </trkpt>
      <trkpt lat="43.53517" lon="5.64578">
        <ele>757.1</ele>
        <time>2025-03-16T13:32:45Z</time>
      </trkpt>
      <trkpt lat="43.53518" lon="5.64577">
        <ele>757</ele>
        <time>2025-03-16T13:32:46Z</time>
      </trkpt>
      <trkpt lat="43.53517" lon="5.64573">
        <ele>757.3</ele>
        <time>2025-03-16T13:32:52Z</time>
      </trkpt>
      <trkpt lat="43.53517" lon="5.64574">
        <ele>757.4</ele>
        <time>2025-03-16T13:32:53Z</time>
      </trkpt>
      <trkpt lat="43.53516" lon="5.64575">
        <ele>757.7</ele>
        <time>2025-03-16T13:32:59Z</time>
      </trkpt>
      <trkpt lat="43.53516" lon="5.64576">
        <ele>757.6</ele>
        <time>2025-03-16T13:33:00Z</time>
      </trkpt>
      <trkpt lat="43.53513" lon="5.64586">
        <ele>758.1</ele>
        <time>2025-03-16T13:33:45Z</time>
      </trkpt>
      <trkpt lat="43.53513" lon="5.64586">
        <ele>758.3</ele>
        <time>2025-03-16T13:33:47Z</time>
      </trkpt>
      <trkpt lat="43.53516" lon="5.64584">
        <ele>757.2</ele>
        <time>2025-03-16T13:34:05Z</time>
      </trkpt>
      <trkpt lat="43.53515" lon="5.64585">
        <ele>757.3</ele>
        <time>2025-03-16T13:34:06Z</time>
      </trkpt>
      <trkpt lat="43.53509" lon="5.64587">
        <ele>756.8</ele>
        <time>2025-03-16T13:34:21Z</time>
      </trkpt>
      <trkpt lat="43.53508" lon="5.64587">
        <ele>756.7</ele>
        <time>2025-03-16T13:34:22Z</time>
      </trkpt>
      <trkpt lat="43.53507" lon="5.64588">
        <ele>756.2</ele>
        <time>2025-03-16T13:34:25Z</time>
      </trkpt>
      <trkpt lat="43.53507" lon="5.64588">
        <ele>756.1</ele>
        <time>2025-03-16T13:34:26Z</time>
      </trkpt>
      <trkpt lat="43.53507" lon="5.64583">
        <ele>755</ele>
        <time>2025-03-16T13:34:41Z</time>
      </trkpt>
      <trkpt lat="43.53507" lon="5.64583">
        <ele>755</ele>
        <time>2025-03-16T13:34:48Z</time>
      </trkpt>
      <trkpt lat="43.53507" lon="5.64583">
        <ele>755</ele>
        <time>2025-03-16T13:34:49Z</time>
      </trkpt>
      <trkpt lat="43.53508" lon="5.64583">
        <ele>754.9</ele>
        <time>2025-03-16T13:35:07Z</time>
      </trkpt>
      <trkpt lat="43.53508" lon="5.64583">
        <ele>754.9</ele>
        <time>2025-03-16T13:35:08Z</time>
      </trkpt>
      <trkpt lat="43.53508" lon="5.64583">
        <ele>754.9</ele>
        <time>2025-03-16T13:35:17Z</time>
      </trkpt>
      <trkpt lat="43.5351" lon="5.64583">
        <ele>754</ele>
        <time>2025-03-16T13:35:25Z</time>
      </trkpt>
      <trkpt lat="43.5351" lon="5.64583">
        <ele>754</ele>
        <time>2025-03-16T13:35:26Z</time>
      </trkpt>
      <trkpt lat="43.53506" lon="5.64592">
        <ele>754.6</ele>
        <time>2025-03-16T13:36:01Z</time>
      </trkpt>
      <trkpt lat="43.53505" lon="5.64592">
        <ele>754.3</ele>
        <time>2025-03-16T13:36:02Z</time>
      </trkpt>
      <trkpt lat="43.53505" lon="5.64592">
        <ele>754.1</ele>
        <time>2025-03-16T13:36:03Z</time>
      </trkpt>
      <trkpt lat="43.53505" lon="5.64592">
        <ele>753.8</ele>
        <time>2025-03-16T13:36:04Z</time>
      </trkpt>
      <trkpt lat="43.53503" lon="5.64593">
        <ele>753.4</ele>
        <time>2025-03-16T13:36:10Z</time>
      </trkpt>
      <trkpt lat="43.53503" lon="5.64593">
        <ele>753.3</ele>
        <time>2025-03-16T13:36:11Z</time>
      </trkpt>
      <trkpt lat="43.53503" lon="5.64593">
        <ele>753.2</ele>
        <time>2025-03-16T13:36:14Z</time>
      </trkpt>
      <trkpt lat="43.53503" lon="5.64592">
        <ele>753.3</ele>
        <time>2025-03-16T13:36:16Z</time>
      </trkpt>
      <trkpt lat="43.53505" lon="5.6459">
        <ele>748.7</ele>
        <time>2025-03-16T13:36:56Z</time>
      </trkpt>
      <trkpt lat="43.53505" lon="5.64591">
        <ele>748.5</ele>
        <time>2025-03-16T13:36:57Z</time>
      </trkpt>
      <trkpt lat="43.53504" lon="5.64591">
        <ele>747.8</ele>
        <time>2025-03-16T13:37:01Z</time>
      </trkpt>
      <trkpt lat="43.53505" lon="5.64591">
        <ele>747.9</ele>
        <time>2025-03-16T13:37:02Z</time>
      </trkpt>
      <trkpt lat="43.5351" lon="5.64602">
        <ele>747.5</ele>
        <time>2025-03-16T13:37:27Z</time>
      </trkpt>
      <trkpt lat="43.53507" lon="5.64604">
        <ele>747.5</ele>
        <time>2025-03-16T13:37:35Z</time>
      </trkpt>
      <trkpt lat="43.53507" lon="5.64605">
        <ele>747.4</ele>
        <time>2025-03-16T13:37:36Z</time>
      </trkpt>
      <trkpt lat="43.53513" lon="5.64612">
        <ele>747.2</ele>
        <time>2025-03-16T13:38:12Z</time>
      </trkpt>
      <trkpt lat="43.53513" lon="5.64612">
        <ele>747.2</ele>
        <time>2025-03-16T13:38:13Z</time>
      </trkpt>
      <trkpt lat="43.53513" lon="5.64612">
        <ele>747.4</ele>
        <time>2025-03-16T13:38:14Z</time>
      </trkpt>
      <trkpt lat="43.53513" lon="5.64612">
        <ele>747.7</ele>
        <time>2025-03-16T13:38:17Z</time>
      </trkpt>
      <trkpt lat="43.53513" lon="5.6461">
        <ele>747.4</ele>
        <time>2025-03-16T13:38:26Z</time>
      </trkpt>
      <trkpt lat="43.53514" lon="5.6461">
        <ele>747.2</ele>
        <time>2025-03-16T13:38:27Z</time>
      </trkpt>
      <trkpt lat="43.53516" lon="5.64606">
        <ele>746.8</ele>
        <time>2025-03-16T13:38:35Z</time>
      </trkpt>
      <trkpt lat="43.53516" lon="5.64606">
        <ele>746.9</ele>
        <time>2025-03-16T13:38:36Z</time>
      </trkpt>
      <trkpt lat="43.5351" lon="5.64601">
        <ele>747.2</ele>
        <time>2025-03-16T13:38:51Z</time>
      </trkpt>
      <trkpt lat="43.53511" lon="5.64602">
        <ele>747.3</ele>
        <time>2025-03-16T13:38:52Z</time>
      </trkpt>
      <trkpt lat="43.53511" lon="5.64602">
        <ele>747.4</ele>
        <time>2025-03-16T13:38:54Z</time>
      </trkpt>
      <trkpt lat="43.53511" lon="5.64601">
        <ele>747.4</ele>
        <time>2025-03-16T13:38:55Z</time>
      </trkpt>
      <trkpt lat="43.53509" lon="5.64602">
        <ele>747.2</ele>
        <time>2025-03-16T13:39:04Z</time>
      </trkpt>
      <trkpt lat="43.53509" lon="5.64602">
        <ele>747.2</ele>
        <time>2025-03-16T13:39:05Z</time>
      </trkpt>
      <trkpt lat="43.53509" lon="5.64608">
        <ele>744.6</ele>
        <time>2025-03-16T13:39:33Z</time>
      </trkpt>
      <trkpt lat="43.53509" lon="5.64608">
        <ele>744.5</ele>
        <time>2025-03-16T13:39:34Z</time>
      </trkpt>
      <trkpt lat="43.53512" lon="5.64613">
        <ele>744.2</ele>
        <time>2025-03-16T13:39:45Z</time>
      </trkpt>
      <trkpt lat="43.53511" lon="5.64613">
        <ele>744.2</ele>
        <time>2025-03-16T13:39:46Z</time>
      </trkpt>
      <trkpt lat="43.53509" lon="5.6461">
        <ele>743.8</ele>
        <time>2025-03-16T13:40:06Z</time>
      </trkpt>
      <trkpt lat="43.53508" lon="5.64611">
        <ele>743.8</ele>
        <time>2025-03-16T13:40:07Z</time>
      </trkpt>
      <trkpt lat="43.53508" lon="5.64611">
        <ele>743.5</ele>
        <time>2025-03-16T13:40:11Z</time>
      </trkpt>
      <trkpt lat="43.53508" lon="5.64611">
        <ele>743.4</ele>
        <time>2025-03-16T13:40:12Z</time>
      </trkpt>
      <trkpt lat="43.53508" lon="5.64611">
        <ele>743.5</ele>
        <time>2025-03-16T13:40:15Z</time>
      </trkpt>
      <trkpt lat="43.53508" lon="5.6461">
        <ele>743.5</ele>
        <time>2025-03-16T13:40:16Z</time>
      </trkpt>
      <trkpt lat="43.53503" lon="5.64604">
        <ele>745.1</ele>
        <time>2025-03-16T13:40:33Z</time>
      </trkpt>
      <trkpt lat="43.53504" lon="5.64605">
        <ele>745</ele>
        <time>2025-03-16T13:40:35Z</time>
      </trkpt>
      <trkpt lat="43.53505" lon="5.64608">
        <ele>742.6</ele>
        <time>2025-03-16T13:41:23Z</time>
      </trkpt>
      <trkpt lat="43.53504" lon="5.64607">
        <ele>742.5</ele>
        <time>2025-03-16T13:41:24Z</time>
      </trkpt>
      <trkpt lat="43.53505" lon="5.64606">
        <ele>742.1</ele>
        <time>2025-03-16T13:41:28Z</time>
      </trkpt>
      <trkpt lat="43.53506" lon="5.64605">
        <ele>741.9</ele>
        <time>2025-03-16T13:41:29Z</time>
      </trkpt>
      <trkpt lat="43.535" lon="5.64612">
        <ele>739.8</ele>
        <time>2025-03-16T13:42:00Z</time>
      </trkpt>
      <trkpt lat="43.535" lon="5.64612">
        <ele>739.9</ele>
        <time>2025-03-16T13:42:01Z</time>
      </trkpt>
      <trkpt lat="43.535" lon="5.64612">
        <ele>740.1</ele>
        <time>2025-03-16T13:42:03Z</time>
      </trkpt>
      <trkpt lat="43.535" lon="5.64612">
        <ele>740.2</ele>
        <time>2025-03-16T13:42:04Z</time>
      </trkpt>
      <trkpt lat="43.53499" lon="5.64614">
        <ele>737.9</ele>
        <time>2025-03-16T13:42:15Z</time>
      </trkpt>
      <trkpt lat="43.53499" lon="5.64617">
        <ele>737.5</ele>
        <time>2025-03-16T13:42:16Z</time>
      </trkpt>
      <trkpt lat="43.53496" lon="5.64609">
        <ele>734.7</ele>
        <time>2025-03-16T13:42:43Z</time>
      </trkpt>
      <trkpt lat="43.53495" lon="5.64609">
        <ele>734.8</ele>
        <time>2025-03-16T13:42:45Z</time>
      </trkpt>
      <trkpt lat="43.53491" lon="5.64603">
        <ele>735.5</ele>
        <time>2025-03-16T13:43:03Z</time>
      </trkpt>
      <trkpt lat="43.53492" lon="5.64605">
        <ele>735.6</ele>
        <time>2025-03-16T13:43:04Z</time>
      </trkpt>
      <trkpt lat="43.53488" lon="5.6461">
        <ele>737.4</ele>
        <time>2025-03-16T13:43:22Z</time>
      </trkpt>
      <trkpt lat="43.53488" lon="5.6461">
        <ele>737.5</ele>
        <time>2025-03-16T13:43:23Z</time>
      </trkpt>
      <trkpt lat="43.53495" lon="5.64618">
        <ele>736.5</ele>
        <time>2025-03-16T13:43:38Z</time>
      </trkpt>
      <trkpt lat="43.53493" lon="5.64617">
        <ele>732.7</ele>
        <time>2025-03-16T13:44:06Z</time>
      </trkpt>
      <trkpt lat="43.53494" lon="5.64617">
        <ele>732.4</ele>
        <time>2025-03-16T13:44:07Z</time>
      </trkpt>
      <trkpt lat="43.5349" lon="5.64604">
        <ele>731.2</ele>
        <time>2025-03-16T13:44:21Z</time>
      </trkpt>
      <trkpt lat="43.53494" lon="5.64611">
        <ele>730.7</ele>
        <time>2025-03-16T13:44:31Z</time>
      </trkpt>
      <trkpt lat="43.53492" lon="5.64608">
        <ele>730.1</ele>
        <time>2025-03-16T13:44:32Z</time>
      </trkpt>
      <trkpt lat="43.53493" lon="5.6461">
        <ele>730.1</ele>
        <time>2025-03-16T13:44:38Z</time>
      </trkpt>
      <trkpt lat="43.53493" lon="5.64609">
        <ele>730</ele>
        <time>2025-03-16T13:44:39Z</time>
      </trkpt>
      <trkpt lat="43.53493" lon="5.64609">
        <ele>729.9</ele>
        <time>2025-03-16T13:44:40Z</time>
      </trkpt>
      <trkpt lat="43.53493" lon="5.64609">
        <ele>729.8</ele>
        <time>2025-03-16T13:44:41Z</time>
      </trkpt>
      <trkpt lat="43.53493" lon="5.64611">
        <ele>728.4</ele>
        <time>2025-03-16T13:44:50Z</time>
      </trkpt>
      <trkpt lat="43.53494" lon="5.64612">
        <ele>728.4</ele>
        <time>2025-03-16T13:44:51Z</time>
      </trkpt>
      <trkpt lat="43.53489" lon="5.64624">
        <ele>727</ele>
        <time>2025-03-16T13:45:05Z</time>
      </trkpt>
      <trkpt lat="43.5348" lon="5.64623">
        <ele>725.9</ele>
        <time>2025-03-16T13:45:22Z</time>
      </trkpt>
      <trkpt lat="43.5348" lon="5.64623">
        <ele>726.1</ele>
        <time>2025-03-16T13:45:24Z</time>
      </trkpt>
      <trkpt lat="43.5348" lon="5.64635">
        <ele>726.2</ele>
        <time>2025-03-16T13:45:43Z</time>
      </trkpt>
      <trkpt lat="43.53481" lon="5.64637">
        <ele>726.4</ele>
        <time>2025-03-16T13:45:52Z</time>
      </trkpt>
      <trkpt lat="43.53482" lon="5.64637">
        <ele>726.3</ele>
        <time>2025-03-16T13:45:53Z</time>
      </trkpt>
      <trkpt lat="43.53473" lon="5.64633">
        <ele>723</ele>
        <time>2025-03-16T13:46:18Z</time>
      </trkpt>
      <trkpt lat="43.53471" lon="5.64633">
        <ele>722.5</ele>
        <time>2025-03-16T13:46:21Z</time>
      </trkpt>
      <trkpt lat="43.53471" lon="5.64633">
        <ele>722.3</ele>
        <time>2025-03-16T13:46:22Z</time>
      </trkpt>
      <trkpt lat="43.5348" lon="5.64635">
        <ele>720.5</ele>
        <time>2025-03-16T13:46:35Z</time>
      </trkpt>
      <trkpt lat="43.53482" lon="5.64631">
        <ele>718.9</ele>
        <time>2025-03-16T13:46:50Z</time>
      </trkpt>
      <trkpt lat="43.53482" lon="5.64631">
        <ele>718.8</ele>
        <time>2025-03-16T13:46:51Z</time>
      </trkpt>
      <trkpt lat="43.53479" lon="5.64626">
        <ele>717.8</ele>
        <time>2025-03-16T13:47:03Z</time>
      </trkpt>
      <trkpt lat="43.53479" lon="5.64626">
        <ele>717.6</ele>
        <time>2025-03-16T13:47:04Z</time>
      </trkpt>
      <trkpt lat="43.53473" lon="5.64615">
        <ele>716.7</ele>
        <time>2025-03-16T13:47:28Z</time>
      </trkpt>
      <trkpt lat="43.53467" lon="5.64605">
        <ele>714.5</ele>
        <time>2025-03-16T13:47:53Z</time>
      </trkpt>
      <trkpt lat="43.53468" lon="5.64608">
        <ele>715.5</ele>
        <time>2025-03-16T13:48:00Z</time>
      </trkpt>
      <trkpt lat="43.53468" lon="5.64609">
        <ele>715.6</ele>
        <time>2025-03-16T13:48:01Z</time>
      </trkpt>
      <trkpt lat="43.53471" lon="5.64604">
        <ele>714.3</ele>
        <time>2025-03-16T13:48:35Z</time>
      </trkpt>
      <trkpt lat="43.53472" lon="5.64604">
        <ele>714.3</ele>
        <time>2025-03-16T13:48:36Z</time>
      </trkpt>
      <trkpt lat="43.53472" lon="5.64604">
        <ele>715.3</ele>
        <time>2025-03-16T13:48:44Z</time>
      </trkpt>
      <trkpt lat="43.53472" lon="5.64604">
        <ele>715.2</ele>
        <time>2025-03-16T13:48:45Z</time>
      </trkpt>
      <trkpt lat="43.53472" lon="5.64604">
        <ele>715.3</ele>
        <time>2025-03-16T13:48:46Z</time>
      </trkpt>
      <trkpt lat="43.53472" lon="5.64604">
        <ele>715.2</ele>
        <time>2025-03-16T13:48:47Z</time>
      </trkpt>
      <trkpt lat="43.53472" lon="5.64604">
        <ele>715.1</ele>
        <time>2025-03-16T13:48:48Z</time>
      </trkpt>
      <trkpt lat="43.53472" lon="5.64604">
        <ele>715.1</ele>
        <time>2025-03-16T13:48:49Z</time>
      </trkpt>
      <trkpt lat="43.53471" lon="5.64603">
        <ele>715.1</ele>
        <time>2025-03-16T13:48:52Z</time>
      </trkpt>
      <trkpt lat="43.53471" lon="5.64603">
        <ele>715</ele>
        <time>2025-03-16T13:48:53Z</time>
      </trkpt>
      <trkpt lat="43.53469" lon="5.646">
        <ele>715.2</ele>
        <time>2025-03-16T13:48:58Z</time>
      </trkpt>
      <trkpt lat="43.53469" lon="5.646">
        <ele>715</ele>
        <time>2025-03-16T13:48:59Z</time>
      </trkpt>
      <trkpt lat="43.53467" lon="5.64599">
        <ele>716</ele>
        <time>2025-03-16T13:49:15Z</time>
      </trkpt>
      <trkpt lat="43.53468" lon="5.64599">
        <ele>716</ele>
        <time>2025-03-16T13:49:16Z</time>
      </trkpt>
      <trkpt lat="43.53465" lon="5.64597">
        <ele>716.1</ele>
        <time>2025-03-16T13:49:25Z</time>
      </trkpt>
      <trkpt lat="43.53465" lon="5.64597">
        <ele>716.3</ele>
        <time>2025-03-16T13:49:26Z</time>
      </trkpt>
      <trkpt lat="43.53465" lon="5.64598">
        <ele>716.4</ele>
        <time>2025-03-16T13:49:27Z</time>
      </trkpt>
      <trkpt lat="43.53464" lon="5.64597">
        <ele>716.5</ele>
        <time>2025-03-16T13:49:28Z</time>
      </trkpt>
      <trkpt lat="43.53463" lon="5.64598">
        <ele>716.5</ele>
        <time>2025-03-16T13:49:32Z</time>
      </trkpt>
      <trkpt lat="43.53463" lon="5.64598">
        <ele>716.5</ele>
        <time>2025-03-16T13:49:33Z</time>
      </trkpt>
      <trkpt lat="43.5347" lon="5.64588">
        <ele>716.3</ele>
        <time>2025-03-16T13:49:46Z</time>
      </trkpt>
      <trkpt lat="43.53469" lon="5.64594">
        <ele>714.4</ele>
        <time>2025-03-16T13:50:43Z</time>
      </trkpt>
      <trkpt lat="43.53469" lon="5.64594">
        <ele>714.5</ele>
        <time>2025-03-16T13:50:44Z</time>
      </trkpt>
      <trkpt lat="43.53462" lon="5.64588">
        <ele>711.4</ele>
        <time>2025-03-16T13:51:06Z</time>
      </trkpt>
      <trkpt lat="43.53462" lon="5.64589">
        <ele>711.5</ele>
        <time>2025-03-16T13:51:07Z</time>
      </trkpt>
      <trkpt lat="43.53454" lon="5.64582">
        <ele>709.5</ele>
        <time>2025-03-16T13:51:33Z</time>
      </trkpt>
      <trkpt lat="43.53455" lon="5.64569">
        <ele>708.4</ele>
        <time>2025-03-16T13:51:55Z</time>
      </trkpt>
      <trkpt lat="43.53452" lon="5.64557">
        <ele>708.7</ele>
        <time>2025-03-16T13:52:05Z</time>
      </trkpt>
      <trkpt lat="43.53446" lon="5.64547">
        <ele>709.2</ele>
        <time>2025-03-16T13:52:10Z</time>
      </trkpt>
      <trkpt lat="43.53445" lon="5.6456">
        <ele>711.1</ele>
        <time>2025-03-16T13:52:28Z</time>
      </trkpt>
      <trkpt lat="43.53446" lon="5.64559">
        <ele>710</ele>
        <time>2025-03-16T13:52:46Z</time>
      </trkpt>
      <trkpt lat="43.53446" lon="5.64559">
        <ele>710</ele>
        <time>2025-03-16T13:52:47Z</time>
      </trkpt>
      <trkpt lat="43.53446" lon="5.64559">
        <ele>709.9</ele>
        <time>2025-03-16T13:52:48Z</time>
      </trkpt>
      <trkpt lat="43.53446" lon="5.64559">
        <ele>709.8</ele>
        <time>2025-03-16T13:52:49Z</time>
      </trkpt>
      <trkpt lat="43.53445" lon="5.64558">
        <ele>710.1</ele>
        <time>2025-03-16T13:52:51Z</time>
      </trkpt>
      <trkpt lat="43.53445" lon="5.64557">
        <ele>710.3</ele>
        <time>2025-03-16T13:52:53Z</time>
      </trkpt>
      <trkpt lat="43.53442" lon="5.64557">
        <ele>711.2</ele>
        <time>2025-03-16T13:52:57Z</time>
      </trkpt>
      <trkpt lat="43.53441" lon="5.64557">
        <ele>711.2</ele>
        <time>2025-03-16T13:52:58Z</time>
      </trkpt>
      <trkpt lat="43.5344" lon="5.64557">
        <ele>711</ele>
        <time>2025-03-16T13:53:02Z</time>
      </trkpt>
      <trkpt lat="43.5344" lon="5.64557">
        <ele>711.1</ele>
        <time>2025-03-16T13:53:03Z</time>
      </trkpt>
      <trkpt lat="43.53441" lon="5.64557">
        <ele>710.8</ele>
        <time>2025-03-16T13:53:06Z</time>
      </trkpt>
      <trkpt lat="43.53442" lon="5.64558">
        <ele>710.8</ele>
        <time>2025-03-16T13:53:07Z</time>
      </trkpt>
      <trkpt lat="43.53441" lon="5.64557">
        <ele>710.9</ele>
        <time>2025-03-16T13:53:09Z</time>
      </trkpt>
      <trkpt lat="43.53442" lon="5.64558">
        <ele>710.7</ele>
        <time>2025-03-16T13:53:10Z</time>
      </trkpt>
      <trkpt lat="43.53443" lon="5.6456">
        <ele>710.7</ele>
        <time>2025-03-16T13:53:14Z</time>
      </trkpt>
      <trkpt lat="43.53443" lon="5.6456">
        <ele>710.8</ele>
        <time>2025-03-16T13:53:15Z</time>
      </trkpt>
      <trkpt lat="43.53447" lon="5.64556">
        <ele>708</ele>
        <time>2025-03-16T13:53:38Z</time>
      </trkpt>
      <trkpt lat="43.53447" lon="5.64556">
        <ele>708.1</ele>
        <time>2025-03-16T13:53:39Z</time>
      </trkpt>
      <trkpt lat="43.53439" lon="5.64547">
        <ele>705.8</ele>
        <time>2025-03-16T13:53:50Z</time>
      </trkpt>
      <trkpt lat="43.53437" lon="5.64545">
        <ele>706.3</ele>
        <time>2025-03-16T13:54:10Z</time>
      </trkpt>
      <trkpt lat="43.53437" lon="5.64545">
        <ele>706.4</ele>
        <time>2025-03-16T13:54:11Z</time>
      </trkpt>
      <trkpt lat="43.53439" lon="5.64548">
        <ele>706.3</ele>
        <time>2025-03-16T13:54:19Z</time>
      </trkpt>
      <trkpt lat="43.53439" lon="5.64548">
        <ele>706.2</ele>
        <time>2025-03-16T13:54:20Z</time>
      </trkpt>
      <trkpt lat="43.53439" lon="5.64548">
        <ele>705.7</ele>
        <time>2025-03-16T13:54:24Z</time>
      </trkpt>
      <trkpt lat="43.53438" lon="5.64547">
        <ele>705.3</ele>
        <time>2025-03-16T13:54:26Z</time>
      </trkpt>
      <trkpt lat="43.53436" lon="5.6455">
        <ele>702.7</ele>
        <time>2025-03-16T13:54:50Z</time>
      </trkpt>
      <trkpt lat="43.53436" lon="5.6455">
        <ele>702.7</ele>
        <time>2025-03-16T13:54:51Z</time>
      </trkpt>
      <trkpt lat="43.53436" lon="5.6455">
        <ele>702.8</ele>
        <time>2025-03-16T13:54:52Z</time>
      </trkpt>
      <trkpt lat="43.53436" lon="5.64549">
        <ele>702.9</ele>
        <time>2025-03-16T13:54:53Z</time>
      </trkpt>
      <trkpt lat="43.53432" lon="5.6455">
        <ele>702.4</ele>
        <time>2025-03-16T13:55:27Z</time>
      </trkpt>
      <trkpt lat="43.53432" lon="5.6455">
        <ele>702.6</ele>
        <time>2025-03-16T13:55:28Z</time>
      </trkpt>
      <trkpt lat="43.53429" lon="5.6455">
        <ele>701.8</ele>
        <time>2025-03-16T13:55:40Z</time>
      </trkpt>
      <trkpt lat="43.53429" lon="5.64549">
        <ele>701.7</ele>
        <time>2025-03-16T13:55:41Z</time>
      </trkpt>
      <trkpt lat="43.53431" lon="5.6455">
        <ele>701</ele>
        <time>2025-03-16T13:55:55Z</time>
      </trkpt>
      <trkpt lat="43.5343" lon="5.64549">
        <ele>701.1</ele>
        <time>2025-03-16T13:55:56Z</time>
      </trkpt>
      <trkpt lat="43.53422" lon="5.64545">
        <ele>701.6</ele>
        <time>2025-03-16T13:56:42Z</time>
      </trkpt>
      <trkpt lat="43.53413" lon="5.64538">
        <ele>701.1</ele>
        <time>2025-03-16T13:56:58Z</time>
      </trkpt>
      <trkpt lat="43.53406" lon="5.64529">
        <ele>700.2</ele>
        <time>2025-03-16T13:57:07Z</time>
      </trkpt>
      <trkpt lat="43.53415" lon="5.6453">
        <ele>696.6</ele>
        <time>2025-03-16T13:57:45Z</time>
      </trkpt>
      <trkpt lat="43.53413" lon="5.64535">
        <ele>692.4</ele>
        <time>2025-03-16T13:57:58Z</time>
      </trkpt>
      <trkpt lat="43.53413" lon="5.64535">
        <ele>692.2</ele>
        <time>2025-03-16T13:57:59Z</time>
      </trkpt>
      <trkpt lat="43.53422" lon="5.64532">
        <ele>689.5</ele>
        <time>2025-03-16T13:58:11Z</time>
      </trkpt>
      <trkpt lat="43.53419" lon="5.64533">
        <ele>693.9</ele>
        <time>2025-03-16T13:58:21Z</time>
      </trkpt>
      <trkpt lat="43.53419" lon="5.64533">
        <ele>694.1</ele>
        <time>2025-03-16T13:58:36Z</time>
      </trkpt>
      <trkpt lat="43.53419" lon="5.64533">
        <ele>694.1</ele>
        <time>2025-03-16T13:58:37Z</time>
      </trkpt>
      <trkpt lat="43.53419" lon="5.64533">
        <ele>694.2</ele>
        <time>2025-03-16T13:58:46Z</time>
      </trkpt>
      <trkpt lat="43.53419" lon="5.64533">
        <ele>694.2</ele>
        <time>2025-03-16T13:58:47Z</time>
      </trkpt>
      <trkpt lat="43.53418" lon="5.64533">
        <ele>694.7</ele>
        <time>2025-03-16T13:58:53Z</time>
      </trkpt>
      <trkpt lat="43.53418" lon="5.6453">
        <ele>694.4</ele>
        <time>2025-03-16T13:58:59Z</time>
      </trkpt>
      <trkpt lat="43.53418" lon="5.6453">
        <ele>694.1</ele>
        <time>2025-03-16T13:59:03Z</time>
      </trkpt>
      <trkpt lat="43.53425" lon="5.64529">
        <ele>692</ele>
        <time>2025-03-16T13:59:10Z</time>
      </trkpt>
      <trkpt lat="43.53426" lon="5.64529">
        <ele>692.1</ele>
        <time>2025-03-16T13:59:13Z</time>
      </trkpt>
      <trkpt lat="43.53426" lon="5.64529">
        <ele>692.4</ele>
        <time>2025-03-16T13:59:14Z</time>
      </trkpt>
      <trkpt lat="43.53426" lon="5.64529">
        <ele>692.6</ele>
        <time>2025-03-16T13:59:15Z</time>
      </trkpt>
      <trkpt lat="43.53421" lon="5.64518">
        <ele>694.1</ele>
        <time>2025-03-16T13:59:35Z</time>
      </trkpt>
      <trkpt lat="43.53421" lon="5.64517">
        <ele>695.2</ele>
        <time>2025-03-16T13:59:41Z</time>
      </trkpt>
      <trkpt lat="43.53421" lon="5.64517">
        <ele>695.2</ele>
        <time>2025-03-16T13:59:49Z</time>
      </trkpt>
      <trkpt lat="43.53421" lon="5.64521">
        <ele>696.1</ele>
        <time>2025-03-16T13:59:58Z</time>
      </trkpt>
      <trkpt lat="43.53421" lon="5.64521">
        <ele>696.1</ele>
        <time>2025-03-16T13:59:59Z</time>
      </trkpt>
      <trkpt lat="43.53422" lon="5.6452">
        <ele>696.4</ele>
        <time>2025-03-16T14:00:03Z</time>
      </trkpt>
      <trkpt lat="43.53422" lon="5.6452">
        <ele>696.4</ele>
        <time>2025-03-16T14:00:05Z</time>
      </trkpt>
      <trkpt lat="43.53422" lon="5.64519">
        <ele>696.3</ele>
        <time>2025-03-16T14:00:10Z</time>
      </trkpt>
      <trkpt lat="43.53422" lon="5.64518">
        <ele>696.4</ele>
        <time>2025-03-16T14:00:11Z</time>
      </trkpt>
      <trkpt lat="43.53422" lon="5.64518">
        <ele>696.5</ele>
        <time>2025-03-16T14:00:13Z</time>
      </trkpt>
      <trkpt lat="43.53422" lon="5.64517">
        <ele>696.5</ele>
        <time>2025-03-16T14:00:14Z</time>
      </trkpt>
      <trkpt lat="43.53419" lon="5.64506">
        <ele>696.1</ele>
        <time>2025-03-16T14:00:31Z</time>
      </trkpt>
      <trkpt lat="43.5342" lon="5.64506">
        <ele>695.9</ele>
        <time>2025-03-16T14:00:32Z</time>
      </trkpt>
      <trkpt lat="43.53428" lon="5.645">
        <ele>696</ele>
        <time>2025-03-16T14:00:44Z</time>
      </trkpt>
      <trkpt lat="43.53426" lon="5.64492">
        <ele>695.7</ele>
        <time>2025-03-16T14:00:52Z</time>
      </trkpt>
      <trkpt lat="43.53426" lon="5.64492">
        <ele>695.7</ele>
        <time>2025-03-16T14:00:53Z</time>
      </trkpt>
      <trkpt lat="43.53425" lon="5.64479">
        <ele>696.1</ele>
        <time>2025-03-16T14:01:10Z</time>
      </trkpt>
      <trkpt lat="43.53426" lon="5.64467">
        <ele>698.2</ele>
        <time>2025-03-16T14:01:28Z</time>
      </trkpt>
      <trkpt lat="43.53422" lon="5.64455">
        <ele>699.4</ele>
        <time>2025-03-16T14:01:44Z</time>
      </trkpt>
      <trkpt lat="43.53423" lon="5.64453">
        <ele>699.9</ele>
        <time>2025-03-16T14:01:51Z</time>
      </trkpt>
      <trkpt lat="43.53423" lon="5.64453">
        <ele>699.9</ele>
        <time>2025-03-16T14:01:52Z</time>
      </trkpt>
      <trkpt lat="43.53424" lon="5.6445">
        <ele>699.5</ele>
        <time>2025-03-16T14:01:56Z</time>
      </trkpt>
      <trkpt lat="43.53424" lon="5.6445">
        <ele>699.7</ele>
        <time>2025-03-16T14:01:57Z</time>
      </trkpt>
      <trkpt lat="43.53423" lon="5.64449">
        <ele>699.9</ele>
        <time>2025-03-16T14:02:01Z</time>
      </trkpt>
      <trkpt lat="43.53423" lon="5.64448">
        <ele>700</ele>
        <time>2025-03-16T14:02:02Z</time>
      </trkpt>
      <trkpt lat="43.53427" lon="5.64442">
        <ele>705.5</ele>
        <time>2025-03-16T14:03:04Z</time>
      </trkpt>
      <trkpt lat="43.53426" lon="5.64442">
        <ele>705.7</ele>
        <time>2025-03-16T14:03:05Z</time>
      </trkpt>
      <trkpt lat="43.53429" lon="5.64435">
        <ele>706.7</ele>
        <time>2025-03-16T14:03:34Z</time>
      </trkpt>
      <trkpt lat="43.53429" lon="5.64435">
        <ele>706.6</ele>
        <time>2025-03-16T14:03:35Z</time>
      </trkpt>
      <trkpt lat="43.53427" lon="5.64422">
        <ele>706.2</ele>
        <time>2025-03-16T14:03:52Z</time>
      </trkpt>
      <trkpt lat="43.53425" lon="5.64418">
        <ele>706.9</ele>
        <time>2025-03-16T14:03:55Z</time>
      </trkpt>
      <trkpt lat="43.53425" lon="5.6442">
        <ele>706.9</ele>
        <time>2025-03-16T14:03:56Z</time>
      </trkpt>
      <trkpt lat="43.53422" lon="5.64406">
        <ele>707.4</ele>
        <time>2025-03-16T14:04:18Z</time>
      </trkpt>
      <trkpt lat="43.53426" lon="5.64411">
        <ele>706.9</ele>
        <time>2025-03-16T14:04:39Z</time>
      </trkpt>
      <trkpt lat="43.53427" lon="5.64411">
        <ele>706.7</ele>
        <time>2025-03-16T14:04:40Z</time>
      </trkpt>
      <trkpt lat="43.53434" lon="5.64402">
        <ele>703.1</ele>
        <time>2025-03-16T14:04:56Z</time>
      </trkpt>
      <trkpt lat="43.53432" lon="5.6439">
        <ele>696.6</ele>
        <time>2025-03-16T14:05:06Z</time>
      </trkpt>
      <trkpt lat="43.53434" lon="5.64389">
        <ele>696.1</ele>
        <time>2025-03-16T14:05:12Z</time>
      </trkpt>
      <trkpt lat="43.53433" lon="5.64388">
        <ele>696.2</ele>
        <time>2025-03-16T14:05:13Z</time>
      </trkpt>
      <trkpt lat="43.53432" lon="5.64391">
        <ele>696.9</ele>
        <time>2025-03-16T14:05:19Z</time>
      </trkpt>
      <trkpt lat="43.53432" lon="5.64392">
        <ele>697</ele>
        <time>2025-03-16T14:05:20Z</time>
      </trkpt>
      <trkpt lat="43.53433" lon="5.64383">
        <ele>690.8</ele>
        <time>2025-03-16T14:06:10Z</time>
      </trkpt>
      <trkpt lat="43.53434" lon="5.64382">
        <ele>690.6</ele>
        <time>2025-03-16T14:06:11Z</time>
      </trkpt>
      <trkpt lat="43.53424" lon="5.64383">
        <ele>690.7</ele>
        <time>2025-03-16T14:06:36Z</time>
      </trkpt>
      <trkpt lat="43.53424" lon="5.64381">
        <ele>690.3</ele>
        <time>2025-03-16T14:06:40Z</time>
      </trkpt>
      <trkpt lat="43.53424" lon="5.6438">
        <ele>690.2</ele>
        <time>2025-03-16T14:06:41Z</time>
      </trkpt>
      <trkpt lat="43.53426" lon="5.64368">
        <ele>685.3</ele>
        <time>2025-03-16T14:07:10Z</time>
      </trkpt>
      <trkpt lat="43.53427" lon="5.64366">
        <ele>681.4</ele>
        <time>2025-03-16T14:07:29Z</time>
      </trkpt>
      <trkpt lat="43.53426" lon="5.64365">
        <ele>681.4</ele>
        <time>2025-03-16T14:07:30Z</time>
      </trkpt>
      <trkpt lat="43.53433" lon="5.64358">
        <ele>679.9</ele>
        <time>2025-03-16T14:07:51Z</time>
      </trkpt>
      <trkpt lat="43.53432" lon="5.64345">
        <ele>668.1</ele>
        <time>2025-03-16T14:09:16Z</time>
      </trkpt>
      <trkpt lat="43.53429" lon="5.64332">
        <ele>665.3</ele>
        <time>2025-03-16T14:09:27Z</time>
      </trkpt>
      <trkpt lat="43.5343" lon="5.64332">
        <ele>664.9</ele>
        <time>2025-03-16T14:09:29Z</time>
      </trkpt>
      <trkpt lat="43.5343" lon="5.64332">
        <ele>664.7</ele>
        <time>2025-03-16T14:09:30Z</time>
      </trkpt>
      <trkpt lat="43.53439" lon="5.64327">
        <ele>660.2</ele>
        <time>2025-03-16T14:09:55Z</time>
      </trkpt>
      <trkpt lat="43.53442" lon="5.64323">
        <ele>657.7</ele>
        <time>2025-03-16T14:10:04Z</time>
      </trkpt>
      <trkpt lat="43.53443" lon="5.64323">
        <ele>657.3</ele>
        <time>2025-03-16T14:10:05Z</time>
      </trkpt>
      <trkpt lat="43.53445" lon="5.64319">
        <ele>652</ele>
        <time>2025-03-16T14:10:26Z</time>
      </trkpt>
      <trkpt lat="43.53444" lon="5.64318">
        <ele>652</ele>
        <time>2025-03-16T14:10:27Z</time>
      </trkpt>
      <trkpt lat="43.53443" lon="5.64307">
        <ele>650.3</ele>
        <time>2025-03-16T14:10:41Z</time>
      </trkpt>
      <trkpt lat="43.53443" lon="5.64305">
        <ele>650.7</ele>
        <time>2025-03-16T14:10:42Z</time>
      </trkpt>
      <trkpt lat="43.53442" lon="5.64305">
        <ele>651.3</ele>
        <time>2025-03-16T14:10:47Z</time>
      </trkpt>
      <trkpt lat="43.53441" lon="5.64305">
        <ele>651.4</ele>
        <time>2025-03-16T14:10:48Z</time>
      </trkpt>
      <trkpt lat="43.5344" lon="5.64308">
        <ele>652.6</ele>
        <time>2025-03-16T14:10:58Z</time>
      </trkpt>
      <trkpt lat="43.5344" lon="5.64308">
        <ele>652.8</ele>
        <time>2025-03-16T14:10:59Z</time>
      </trkpt>
      <trkpt lat="43.53432" lon="5.64314">
        <ele>650.5</ele>
        <time>2025-03-16T14:11:13Z</time>
      </trkpt>
      <trkpt lat="43.53431" lon="5.64316">
        <ele>648.5</ele>
        <time>2025-03-16T14:11:32Z</time>
      </trkpt>
      <trkpt lat="43.53431" lon="5.64317">
        <ele>648.5</ele>
        <time>2025-03-16T14:11:33Z</time>
      </trkpt>
      <trkpt lat="43.53441" lon="5.64308">
        <ele>646.7</ele>
        <time>2025-03-16T14:12:14Z</time>
      </trkpt>
      <trkpt lat="43.53451" lon="5.64308">
        <ele>645.3</ele>
        <time>2025-03-16T14:12:24Z</time>
      </trkpt>
      <trkpt lat="43.53442" lon="5.64307">
        <ele>644.5</ele>
        <time>2025-03-16T14:12:53Z</time>
      </trkpt>
      <trkpt lat="43.53436" lon="5.64305">
        <ele>645.1</ele>
        <time>2025-03-16T14:13:01Z</time>
      </trkpt>
      <trkpt lat="43.53437" lon="5.64305">
        <ele>645.2</ele>
        <time>2025-03-16T14:13:02Z</time>
      </trkpt>
      <trkpt lat="43.53436" lon="5.64304">
        <ele>645.1</ele>
        <time>2025-03-16T14:13:14Z</time>
      </trkpt>
      <trkpt lat="43.53435" lon="5.64305">
        <ele>645.2</ele>
        <time>2025-03-16T14:13:15Z</time>
      </trkpt>
      <trkpt lat="43.53433" lon="5.643">
        <ele>644.5</ele>
        <time>2025-03-16T14:13:22Z</time>
      </trkpt>
      <trkpt lat="43.53433" lon="5.643">
        <ele>644.5</ele>
        <time>2025-03-16T14:13:23Z</time>
      </trkpt>
      <trkpt lat="43.53432" lon="5.64299">
        <ele>644.3</ele>
        <time>2025-03-16T14:13:26Z</time>
      </trkpt>
      <trkpt lat="43.53433" lon="5.64299">
        <ele>644.3</ele>
        <time>2025-03-16T14:13:27Z</time>
      </trkpt>
      <trkpt lat="43.53441" lon="5.64293">
        <ele>644.4</ele>
        <time>2025-03-16T14:13:37Z</time>
      </trkpt>
      <trkpt lat="43.53441" lon="5.64279">
        <ele>642.7</ele>
        <time>2025-03-16T14:13:45Z</time>
      </trkpt>
      <trkpt lat="43.53437" lon="5.64267">
        <ele>642.7</ele>
        <time>2025-03-16T14:13:59Z</time>
      </trkpt>
      <trkpt lat="43.53435" lon="5.64253">
        <ele>643.2</ele>
        <time>2025-03-16T14:14:06Z</time>
      </trkpt>
      <trkpt lat="43.53432" lon="5.64241">
        <ele>642.5</ele>
        <time>2025-03-16T14:14:09Z</time>
      </trkpt>
      <trkpt lat="43.53429" lon="5.64228">
        <ele>641.9</ele>
        <time>2025-03-16T14:14:12Z</time>
      </trkpt>
      <trkpt lat="43.53423" lon="5.64218">
        <ele>642.8</ele>
        <time>2025-03-16T14:14:16Z</time>
      </trkpt>
      <trkpt lat="43.53425" lon="5.64204">
        <ele>641.7</ele>
        <time>2025-03-16T14:14:27Z</time>
      </trkpt>
      <trkpt lat="43.53422" lon="5.64219">
        <ele>641.7</ele>
        <time>2025-03-16T14:14:38Z</time>
      </trkpt>
      <trkpt lat="43.53423" lon="5.64232">
        <ele>639.3</ele>
        <time>2025-03-16T14:14:47Z</time>
      </trkpt>
      <trkpt lat="43.5342" lon="5.64244">
        <ele>636.9</ele>
        <time>2025-03-16T14:15:10Z</time>
      </trkpt>
      <trkpt lat="43.53415" lon="5.64232">
        <ele>636.3</ele>
        <time>2025-03-16T14:15:18Z</time>
      </trkpt>
      <trkpt lat="43.53409" lon="5.64219">
        <ele>636.3</ele>
        <time>2025-03-16T14:15:21Z</time>
      </trkpt>
      <trkpt lat="43.53404" lon="5.64205">
        <ele>636.2</ele>
        <time>2025-03-16T14:15:23Z</time>
      </trkpt>
      <trkpt lat="43.53408" lon="5.64213">
        <ele>633.1</ele>
        <time>2025-03-16T14:15:42Z</time>
      </trkpt>
      <trkpt lat="43.53408" lon="5.64212">
        <ele>633</ele>
        <time>2025-03-16T14:15:43Z</time>
      </trkpt>
      <trkpt lat="43.53407" lon="5.64225">
        <ele>630.2</ele>
        <time>2025-03-16T14:15:52Z</time>
      </trkpt>
      <trkpt lat="43.53407" lon="5.64233">
        <ele>627.7</ele>
        <time>2025-03-16T14:16:02Z</time>
      </trkpt>
      <trkpt lat="43.53406" lon="5.64232">
        <ele>627.7</ele>
        <time>2025-03-16T14:16:03Z</time>
      </trkpt>
      <trkpt lat="43.53407" lon="5.64244">
        <ele>625.6</ele>
        <time>2025-03-16T14:16:32Z</time>
      </trkpt>
      <trkpt lat="43.53408" lon="5.64246">
        <ele>625.6</ele>
        <time>2025-03-16T14:16:34Z</time>
      </trkpt>
      <trkpt lat="43.53408" lon="5.64245">
        <ele>625.5</ele>
        <time>2025-03-16T14:16:35Z</time>
      </trkpt>
      <trkpt lat="43.53414" lon="5.64254">
        <ele>625.7</ele>
        <time>2025-03-16T14:16:44Z</time>
      </trkpt>
      <trkpt lat="43.53414" lon="5.64254">
        <ele>625.4</ele>
        <time>2025-03-16T14:16:45Z</time>
      </trkpt>
      <trkpt lat="43.53414" lon="5.64255">
        <ele>625.1</ele>
        <time>2025-03-16T14:16:46Z</time>
      </trkpt>
      <trkpt lat="43.5341" lon="5.64243">
        <ele>625.4</ele>
        <time>2025-03-16T14:17:01Z</time>
      </trkpt>
      <trkpt lat="43.53403" lon="5.64233">
        <ele>625</ele>
        <time>2025-03-16T14:17:18Z</time>
      </trkpt>
      <trkpt lat="43.53397" lon="5.64224">
        <ele>624.4</ele>
        <time>2025-03-16T14:17:22Z</time>
      </trkpt>
      <trkpt lat="43.53388" lon="5.64228">
        <ele>623.7</ele>
        <time>2025-03-16T14:17:29Z</time>
      </trkpt>
      <trkpt lat="43.53395" lon="5.64238">
        <ele>623.6</ele>
        <time>2025-03-16T14:17:33Z</time>
      </trkpt>
      <trkpt lat="43.53404" lon="5.64245">
        <ele>623.1</ele>
        <time>2025-03-16T14:17:38Z</time>
      </trkpt>
      <trkpt lat="43.53404" lon="5.64246">
        <ele>622.8</ele>
        <time>2025-03-16T14:17:40Z</time>
      </trkpt>
      <trkpt lat="43.53403" lon="5.64247">
        <ele>622.6</ele>
        <time>2025-03-16T14:17:41Z</time>
      </trkpt>
      <trkpt lat="43.53396" lon="5.64254">
        <ele>621.1</ele>
        <time>2025-03-16T14:17:53Z</time>
      </trkpt>
      <trkpt lat="43.534" lon="5.6427">
        <ele>622.2</ele>
        <time>2025-03-16T14:18:04Z</time>
      </trkpt>
      <trkpt lat="43.53396" lon="5.64257">
        <ele>621.6</ele>
        <time>2025-03-16T14:18:13Z</time>
      </trkpt>
      <trkpt lat="43.53392" lon="5.64246">
        <ele>620.9</ele>
        <time>2025-03-16T14:18:20Z</time>
      </trkpt>
      <trkpt lat="43.5339" lon="5.64258">
        <ele>617</ele>
        <time>2025-03-16T14:18:55Z</time>
      </trkpt>
      <trkpt lat="43.5339" lon="5.64261">
        <ele>616.9</ele>
        <time>2025-03-16T14:19:04Z</time>
      </trkpt>
      <trkpt lat="43.5339" lon="5.64261">
        <ele>616.9</ele>
        <time>2025-03-16T14:19:05Z</time>
      </trkpt>
      <trkpt lat="43.53392" lon="5.64277">
        <ele>615.3</ele>
        <time>2025-03-16T14:19:19Z</time>
      </trkpt>
      <trkpt lat="43.53397" lon="5.6429">
        <ele>615</ele>
        <time>2025-03-16T14:19:22Z</time>
      </trkpt>
      <trkpt lat="43.53389" lon="5.64282">
        <ele>610.3</ele>
        <time>2025-03-16T14:19:30Z</time>
      </trkpt>
      <trkpt lat="43.53387" lon="5.64279">
        <ele>609.3</ele>
        <time>2025-03-16T14:19:34Z</time>
      </trkpt>
      <trkpt lat="43.53387" lon="5.64279">
        <ele>609.2</ele>
        <time>2025-03-16T14:19:36Z</time>
      </trkpt>
      <trkpt lat="43.53386" lon="5.64278">
        <ele>609.3</ele>
        <time>2025-03-16T14:19:41Z</time>
      </trkpt>
      <trkpt lat="43.53386" lon="5.64277">
        <ele>609.3</ele>
        <time>2025-03-16T14:19:42Z</time>
      </trkpt>
      <trkpt lat="43.53378" lon="5.64267">
        <ele>608.2</ele>
        <time>2025-03-16T14:19:49Z</time>
      </trkpt>
      <trkpt lat="43.53377" lon="5.64264">
        <ele>608.1</ele>
        <time>2025-03-16T14:20:00Z</time>
      </trkpt>
      <trkpt lat="43.53376" lon="5.64264">
        <ele>607.9</ele>
        <time>2025-03-16T14:20:01Z</time>
      </trkpt>
      <trkpt lat="43.53371" lon="5.64253">
        <ele>605.4</ele>
        <time>2025-03-16T14:20:31Z</time>
      </trkpt>
      <trkpt lat="43.53361" lon="5.64248">
        <ele>602.7</ele>
        <time>2025-03-16T14:20:59Z</time>
      </trkpt>
      <trkpt lat="43.53353" lon="5.64247">
        <ele>601.2</ele>
        <time>2025-03-16T14:21:13Z</time>
      </trkpt>
      <trkpt lat="43.53353" lon="5.64247">
        <ele>600.9</ele>
        <time>2025-03-16T14:21:14Z</time>
      </trkpt>
      <trkpt lat="43.53353" lon="5.64261">
        <ele>599.9</ele>
        <time>2025-03-16T14:21:25Z</time>
      </trkpt>
      <trkpt lat="43.53354" lon="5.64253">
        <ele>590.9</ele>
        <time>2025-03-16T14:22:20Z</time>
      </trkpt>
      <trkpt lat="43.53354" lon="5.64254">
        <ele>590.7</ele>
        <time>2025-03-16T14:22:21Z</time>
      </trkpt>
      <trkpt lat="43.53351" lon="5.64256">
        <ele>590</ele>
        <time>2025-03-16T14:22:25Z</time>
      </trkpt>
      <trkpt lat="43.53351" lon="5.64256">
        <ele>589.9</ele>
        <time>2025-03-16T14:22:26Z</time>
      </trkpt>
      <trkpt lat="43.53355" lon="5.64268">
        <ele>586.3</ele>
        <time>2025-03-16T14:22:36Z</time>
      </trkpt>
      <trkpt lat="43.53347" lon="5.64273">
        <ele>585.9</ele>
        <time>2025-03-16T14:23:12Z</time>
      </trkpt>
      <trkpt lat="43.53347" lon="5.6428">
        <ele>587.8</ele>
        <time>2025-03-16T14:23:22Z</time>
      </trkpt>
      <trkpt lat="43.53347" lon="5.64279">
        <ele>587.7</ele>
        <time>2025-03-16T14:23:23Z</time>
      </trkpt>
      <trkpt lat="43.53343" lon="5.64275">
        <ele>585.9</ele>
        <time>2025-03-16T14:23:46Z</time>
      </trkpt>
      <trkpt lat="43.53342" lon="5.64275">
        <ele>585.9</ele>
        <time>2025-03-16T14:23:47Z</time>
      </trkpt>
      <trkpt lat="43.53333" lon="5.64277">
        <ele>588.5</ele>
        <time>2025-03-16T14:24:03Z</time>
      </trkpt>
      <trkpt lat="43.53332" lon="5.6429">
        <ele>587.5</ele>
        <time>2025-03-16T14:24:14Z</time>
      </trkpt>
      <trkpt lat="43.53325" lon="5.64298">
        <ele>588.2</ele>
        <time>2025-03-16T14:24:32Z</time>
      </trkpt>
      <trkpt lat="43.53325" lon="5.64299">
        <ele>588.7</ele>
        <time>2025-03-16T14:24:34Z</time>
      </trkpt>
      <trkpt lat="43.53325" lon="5.64298">
        <ele>588.8</ele>
        <time>2025-03-16T14:24:35Z</time>
      </trkpt>
      <trkpt lat="43.53316" lon="5.643">
        <ele>590.4</ele>
        <time>2025-03-16T14:25:07Z</time>
      </trkpt>
      <trkpt lat="43.53313" lon="5.64299">
        <ele>593.1</ele>
        <time>2025-03-16T14:25:24Z</time>
      </trkpt>
      <trkpt lat="43.53313" lon="5.64298">
        <ele>593.2</ele>
        <time>2025-03-16T14:25:25Z</time>
      </trkpt>
      <trkpt lat="43.53304" lon="5.64299">
        <ele>593.2</ele>
        <time>2025-03-16T14:25:50Z</time>
      </trkpt>
      <trkpt lat="43.53295" lon="5.64298">
        <ele>595.8</ele>
        <time>2025-03-16T14:26:25Z</time>
      </trkpt>
      <trkpt lat="43.53292" lon="5.643">
        <ele>593.1</ele>
        <time>2025-03-16T14:26:47Z</time>
      </trkpt>
      <trkpt lat="43.53292" lon="5.64299">
        <ele>592.9</ele>
        <time>2025-03-16T14:26:48Z</time>
      </trkpt>
      <trkpt lat="43.53287" lon="5.64309">
        <ele>593.3</ele>
        <time>2025-03-16T14:27:13Z</time>
      </trkpt>
      <trkpt lat="43.53282" lon="5.64309">
        <ele>592.3</ele>
        <time>2025-03-16T14:27:28Z</time>
      </trkpt>
      <trkpt lat="43.53282" lon="5.6431">
        <ele>592.1</ele>
        <time>2025-03-16T14:27:29Z</time>
      </trkpt>
      <trkpt lat="43.53286" lon="5.64311">
        <ele>589.8</ele>
        <time>2025-03-16T14:27:40Z</time>
      </trkpt>
      <trkpt lat="43.53287" lon="5.64313">
        <ele>589.6</ele>
        <time>2025-03-16T14:27:41Z</time>
      </trkpt>
      <trkpt lat="43.53288" lon="5.64306">
        <ele>585.6</ele>
        <time>2025-03-16T14:28:04Z</time>
      </trkpt>
      <trkpt lat="43.53289" lon="5.64306">
        <ele>585.2</ele>
        <time>2025-03-16T14:28:05Z</time>
      </trkpt>
      <trkpt lat="43.53285" lon="5.64312">
        <ele>581.5</ele>
        <time>2025-03-16T14:28:26Z</time>
      </trkpt>
      <trkpt lat="43.53284" lon="5.64312">
        <ele>581.1</ele>
        <time>2025-03-16T14:28:27Z</time>
      </trkpt>
      <trkpt lat="43.53276" lon="5.64319">
        <ele>574.3</ele>
        <time>2025-03-16T14:28:51Z</time>
      </trkpt>
      <trkpt lat="43.53273" lon="5.64331">
        <ele>571.1</ele>
        <time>2025-03-16T14:29:12Z</time>
      </trkpt>
      <trkpt lat="43.5327" lon="5.64343">
        <ele>571.7</ele>
        <time>2025-03-16T14:29:25Z</time>
      </trkpt>
      <trkpt lat="43.53261" lon="5.64349">
        <ele>571.2</ele>
        <time>2025-03-16T14:29:41Z</time>
      </trkpt>
      <trkpt lat="43.53257" lon="5.64361">
        <ele>568.7</ele>
        <time>2025-03-16T14:29:53Z</time>
      </trkpt>
      <trkpt lat="43.53255" lon="5.64365">
        <ele>564.3</ele>
        <time>2025-03-16T14:30:09Z</time>
      </trkpt>
      <trkpt lat="43.53254" lon="5.64366">
        <ele>564</ele>
        <time>2025-03-16T14:30:10Z</time>
      </trkpt>
      <trkpt lat="43.53247" lon="5.64374">
        <ele>561.8</ele>
        <time>2025-03-16T14:30:24Z</time>
      </trkpt>
      <trkpt lat="43.53246" lon="5.64375">
        <ele>561.6</ele>
        <time>2025-03-16T14:30:27Z</time>
      </trkpt>
      <trkpt lat="43.53245" lon="5.64375">
        <ele>561.7</ele>
        <time>2025-03-16T14:30:28Z</time>
      </trkpt>
      <trkpt lat="43.53244" lon="5.64375">
        <ele>561.3</ele>
        <time>2025-03-16T14:30:33Z</time>
      </trkpt>
      <trkpt lat="43.53244" lon="5.64375">
        <ele>561.4</ele>
        <time>2025-03-16T14:30:34Z</time>
      </trkpt>
      <trkpt lat="43.53244" lon="5.64383">
        <ele>554.5</ele>
        <time>2025-03-16T14:31:18Z</time>
      </trkpt>
      <trkpt lat="43.53244" lon="5.64383">
        <ele>554.3</ele>
        <time>2025-03-16T14:31:19Z</time>
      </trkpt>
      <trkpt lat="43.5324" lon="5.64383">
        <ele>552.3</ele>
        <time>2025-03-16T14:31:33Z</time>
      </trkpt>
      <trkpt lat="43.53239" lon="5.64383">
        <ele>552.3</ele>
        <time>2025-03-16T14:31:34Z</time>
      </trkpt>
      <trkpt lat="43.53238" lon="5.64384">
        <ele>552.2</ele>
        <time>2025-03-16T14:31:39Z</time>
      </trkpt>
      <trkpt lat="43.53238" lon="5.64385">
        <ele>552.2</ele>
        <time>2025-03-16T14:31:41Z</time>
      </trkpt>
      <trkpt lat="43.53239" lon="5.64384">
        <ele>551.8</ele>
        <time>2025-03-16T14:31:51Z</time>
      </trkpt>
      <trkpt lat="43.53239" lon="5.64383">
        <ele>551.6</ele>
        <time>2025-03-16T14:31:52Z</time>
      </trkpt>
      <trkpt lat="43.53234" lon="5.64373">
        <ele>548.1</ele>
        <time>2025-03-16T14:32:05Z</time>
      </trkpt>
      <trkpt lat="43.53235" lon="5.64374">
        <ele>547.2</ele>
        <time>2025-03-16T14:32:12Z</time>
      </trkpt>
      <trkpt lat="43.53235" lon="5.64373">
        <ele>547.2</ele>
        <time>2025-03-16T14:32:13Z</time>
      </trkpt>
      <trkpt lat="43.53231" lon="5.64366">
        <ele>547</ele>
        <time>2025-03-16T14:32:27Z</time>
      </trkpt>
      <trkpt lat="43.53232" lon="5.64367">
        <ele>547.1</ele>
        <time>2025-03-16T14:32:28Z</time>
      </trkpt>
      <trkpt lat="43.5323" lon="5.6438">
        <ele>545.6</ele>
        <time>2025-03-16T14:32:56Z</time>
      </trkpt>
      <trkpt lat="43.53233" lon="5.64373">
        <ele>544.3</ele>
        <time>2025-03-16T14:33:18Z</time>
      </trkpt>
      <trkpt lat="43.53233" lon="5.64373">
        <ele>544.2</ele>
        <time>2025-03-16T14:33:19Z</time>
      </trkpt>
      <trkpt lat="43.53231" lon="5.64365">
        <ele>544</ele>
        <time>2025-03-16T14:33:32Z</time>
      </trkpt>
      <trkpt lat="43.53231" lon="5.64365">
        <ele>543.9</ele>
        <time>2025-03-16T14:33:33Z</time>
      </trkpt>
      <trkpt lat="43.53235" lon="5.64353">
        <ele>542.1</ele>
        <time>2025-03-16T14:33:50Z</time>
      </trkpt>
      <trkpt lat="43.53226" lon="5.64351">
        <ele>538.5</ele>
        <time>2025-03-16T14:34:18Z</time>
      </trkpt>
      <trkpt lat="43.5323" lon="5.64339">
        <ele>536.7</ele>
        <time>2025-03-16T14:34:37Z</time>
      </trkpt>
      <trkpt lat="43.53231" lon="5.64326">
        <ele>535</ele>
        <time>2025-03-16T14:34:52Z</time>
      </trkpt>
      <trkpt lat="43.53225" lon="5.64316">
        <ele>530</ele>
        <time>2025-03-16T14:35:04Z</time>
      </trkpt>
      <trkpt lat="43.53221" lon="5.6431">
        <ele>529.1</ele>
        <time>2025-03-16T14:35:10Z</time>
      </trkpt>
      <trkpt lat="43.5322" lon="5.64309">
        <ele>528.9</ele>
        <time>2025-03-16T14:35:11Z</time>
      </trkpt>
      <trkpt lat="43.53217" lon="5.64306">
        <ele>527</ele>
        <time>2025-03-16T14:35:18Z</time>
      </trkpt>
      <trkpt lat="43.53217" lon="5.64306">
        <ele>526.8</ele>
        <time>2025-03-16T14:35:19Z</time>
      </trkpt>
      <trkpt lat="43.53213" lon="5.64306">
        <ele>525.1</ele>
        <time>2025-03-16T14:35:27Z</time>
      </trkpt>
      <trkpt lat="43.53213" lon="5.64306">
        <ele>525</ele>
        <time>2025-03-16T14:35:28Z</time>
      </trkpt>
      <trkpt lat="43.53214" lon="5.64306">
        <ele>524.6</ele>
        <time>2025-03-16T14:35:31Z</time>
      </trkpt>
      <trkpt lat="43.53213" lon="5.64306">
        <ele>524.4</ele>
        <time>2025-03-16T14:35:32Z</time>
      </trkpt>
      <trkpt lat="43.53213" lon="5.64293">
        <ele>522.3</ele>
        <time>2025-03-16T14:36:08Z</time>
      </trkpt>
      <trkpt lat="43.53214" lon="5.6428">
        <ele>520.1</ele>
        <time>2025-03-16T14:36:23Z</time>
      </trkpt>
      <trkpt lat="43.53215" lon="5.64266">
        <ele>519.4</ele>
        <time>2025-03-16T14:36:35Z</time>
      </trkpt>
      <trkpt lat="43.5322" lon="5.64255">
        <ele>517.8</ele>
        <time>2025-03-16T14:36:44Z</time>
      </trkpt>
      <trkpt lat="43.53221" lon="5.6425">
        <ele>515.4</ele>
        <time>2025-03-16T14:36:57Z</time>
      </trkpt>
      <trkpt lat="43.53222" lon="5.64249">
        <ele>515.4</ele>
        <time>2025-03-16T14:36:58Z</time>
      </trkpt>
      <trkpt lat="43.53221" lon="5.64245">
        <ele>514.1</ele>
        <time>2025-03-16T14:37:06Z</time>
      </trkpt>
      <trkpt lat="43.53221" lon="5.64245">
        <ele>514</ele>
        <time>2025-03-16T14:37:07Z</time>
      </trkpt>
      <trkpt lat="43.53221" lon="5.64245">
        <ele>514</ele>
        <time>2025-03-16T14:37:08Z</time>
      </trkpt>
      <trkpt lat="43.53221" lon="5.64245">
        <ele>513.9</ele>
        <time>2025-03-16T14:37:09Z</time>
      </trkpt>
      <trkpt lat="43.53225" lon="5.64234">
        <ele>511.7</ele>
        <time>2025-03-16T14:37:24Z</time>
      </trkpt>
      <trkpt lat="43.53229" lon="5.64222">
        <ele>510.5</ele>
        <time>2025-03-16T14:37:41Z</time>
      </trkpt>
      <trkpt lat="43.53234" lon="5.6421">
        <ele>508.2</ele>
        <time>2025-03-16T14:38:01Z</time>
      </trkpt>
      <trkpt lat="43.53234" lon="5.64198">
        <ele>505.7</ele>
        <time>2025-03-16T14:38:19Z</time>
      </trkpt>
      <trkpt lat="43.53234" lon="5.64195">
        <ele>504.1</ele>
        <time>2025-03-16T14:38:29Z</time>
      </trkpt>
      <trkpt lat="43.53234" lon="5.64195">
        <ele>504.1</ele>
        <time>2025-03-16T14:38:30Z</time>
      </trkpt>
      <trkpt lat="43.53231" lon="5.64192">
        <ele>502</ele>
        <time>2025-03-16T14:38:39Z</time>
      </trkpt>
      <trkpt lat="43.53231" lon="5.64192">
        <ele>502</ele>
        <time>2025-03-16T14:38:41Z</time>
      </trkpt>
      <trkpt lat="43.53231" lon="5.64192">
        <ele>502</ele>
        <time>2025-03-16T14:38:42Z</time>
      </trkpt>
      <trkpt lat="43.53231" lon="5.64192">
        <ele>501.9</ele>
        <time>2025-03-16T14:38:44Z</time>
      </trkpt>
      <trkpt lat="43.53231" lon="5.64192">
        <ele>501.8</ele>
        <time>2025-03-16T14:38:45Z</time>
      </trkpt>
      <trkpt lat="43.53231" lon="5.64191">
        <ele>501.7</ele>
        <time>2025-03-16T14:38:46Z</time>
      </trkpt>
      <trkpt lat="43.53231" lon="5.64193">
        <ele>500.6</ele>
        <time>2025-03-16T14:38:54Z</time>
      </trkpt>
      <trkpt lat="43.53231" lon="5.64193">
        <ele>500.5</ele>
        <time>2025-03-16T14:38:55Z</time>
      </trkpt>
      <trkpt lat="43.5323" lon="5.64192">
        <ele>499.5</ele>
        <time>2025-03-16T14:39:02Z</time>
      </trkpt>
      <trkpt lat="43.53229" lon="5.64191">
        <ele>499.4</ele>
        <time>2025-03-16T14:39:03Z</time>
      </trkpt>
      <trkpt lat="43.53229" lon="5.64191">
        <ele>499.5</ele>
        <time>2025-03-16T14:39:06Z</time>
      </trkpt>
      <trkpt lat="43.53228" lon="5.64191">
        <ele>499.6</ele>
        <time>2025-03-16T14:39:08Z</time>
      </trkpt>
      <trkpt lat="43.53223" lon="5.64189">
        <ele>497.8</ele>
        <time>2025-03-16T14:39:22Z</time>
      </trkpt>
      <trkpt lat="43.53223" lon="5.64189">
        <ele>497.6</ele>
        <time>2025-03-16T14:39:23Z</time>
      </trkpt>
      <trkpt lat="43.53223" lon="5.64189">
        <ele>497.3</ele>
        <time>2025-03-16T14:39:26Z</time>
      </trkpt>
      <trkpt lat="43.53223" lon="5.64189">
        <ele>497.3</ele>
        <time>2025-03-16T14:39:27Z</time>
      </trkpt>
      <trkpt lat="43.53227" lon="5.64196">
        <ele>497.4</ele>
        <time>2025-03-16T14:39:45Z</time>
      </trkpt>
      <trkpt lat="43.53227" lon="5.64196">
        <ele>497.4</ele>
        <time>2025-03-16T14:39:46Z</time>
      </trkpt>
      <trkpt lat="43.5323" lon="5.64199">
        <ele>497.1</ele>
        <time>2025-03-16T14:40:00Z</time>
      </trkpt>
      <trkpt lat="43.5323" lon="5.64199">
        <ele>497</ele>
        <time>2025-03-16T14:40:01Z</time>
      </trkpt>
      <trkpt lat="43.53232" lon="5.64202">
        <ele>495.1</ele>
        <time>2025-03-16T14:40:20Z</time>
      </trkpt>
      <trkpt lat="43.53232" lon="5.64202">
        <ele>495.1</ele>
        <time>2025-03-16T14:40:31Z</time>
      </trkpt>
      <trkpt lat="43.53232" lon="5.64201">
        <ele>495.3</ele>
        <time>2025-03-16T14:40:33Z</time>
      </trkpt>
      <trkpt lat="43.53232" lon="5.64201">
        <ele>495.3</ele>
        <time>2025-03-16T14:40:34Z</time>
      </trkpt>
      <trkpt lat="43.53232" lon="5.64201">
        <ele>495.3</ele>
        <time>2025-03-16T14:40:35Z</time>
      </trkpt>
      <trkpt lat="43.53232" lon="5.64202">
        <ele>495.2</ele>
        <time>2025-03-16T14:40:40Z</time>
      </trkpt>
      <trkpt lat="43.53226" lon="5.64205">
        <ele>494.9</ele>
        <time>2025-03-16T14:40:52Z</time>
      </trkpt>
      <trkpt lat="43.53226" lon="5.64204">
        <ele>494.7</ele>
        <time>2025-03-16T14:41:06Z</time>
      </trkpt>
      <trkpt lat="43.53226" lon="5.64203">
        <ele>494.5</ele>
        <time>2025-03-16T14:41:08Z</time>
      </trkpt>
      <trkpt lat="43.53226" lon="5.64203">
        <ele>494.5</ele>
        <time>2025-03-16T14:41:19Z</time>
      </trkpt>
      <trkpt lat="43.53224" lon="5.64197">
        <ele>493.6</ele>
        <time>2025-03-16T14:41:31Z</time>
      </trkpt>
      <trkpt lat="43.53223" lon="5.64197">
        <ele>493.6</ele>
        <time>2025-03-16T14:41:32Z</time>
      </trkpt>
      <trkpt lat="43.53222" lon="5.64197">
        <ele>494.1</ele>
        <time>2025-03-16T14:41:37Z</time>
      </trkpt>
      <trkpt lat="43.53222" lon="5.64197">
        <ele>494.1</ele>
        <time>2025-03-16T14:41:39Z</time>
      </trkpt>
      <trkpt lat="43.53222" lon="5.64197">
        <ele>494.2</ele>
        <time>2025-03-16T14:41:40Z</time>
      </trkpt>
      <trkpt lat="43.53222" lon="5.64197">
        <ele>494.3</ele>
        <time>2025-03-16T14:41:41Z</time>
      </trkpt>
      <trkpt lat="43.53223" lon="5.64196">
        <ele>495.2</ele>
        <time>2025-03-16T14:41:53Z</time>
      </trkpt>
      <trkpt lat="43.53223" lon="5.64196">
        <ele>495.3</ele>
        <time>2025-03-16T14:41:54Z</time>
      </trkpt>
      <trkpt lat="43.53223" lon="5.64197">
        <ele>495.6</ele>
        <time>2025-03-16T14:42:01Z</time>
      </trkpt>
      <trkpt lat="43.53222" lon="5.64197">
        <ele>495.4</ele>
        <time>2025-03-16T14:42:02Z</time>
      </trkpt>
      <trkpt lat="43.53221" lon="5.64198">
        <ele>495.1</ele>
        <time>2025-03-16T14:42:08Z</time>
      </trkpt>
      <trkpt lat="43.5322" lon="5.64196">
        <ele>494.4</ele>
        <time>2025-03-16T14:42:09Z</time>
      </trkpt>
      <trkpt lat="43.53212" lon="5.64192">
        <ele>491.9</ele>
        <time>2025-03-16T14:42:27Z</time>
      </trkpt>
      <trkpt lat="43.53202" lon="5.6419">
        <ele>489.9</ele>
        <time>2025-03-16T14:42:40Z</time>
      </trkpt>
      <trkpt lat="43.53202" lon="5.64189">
        <ele>489.1</ele>
        <time>2025-03-16T14:42:43Z</time>
      </trkpt>
      <trkpt lat="43.53202" lon="5.64189">
        <ele>489</ele>
        <time>2025-03-16T14:42:44Z</time>
      </trkpt>
      <trkpt lat="43.53198" lon="5.64179">
        <ele>486.4</ele>
        <time>2025-03-16T14:43:06Z</time>
      </trkpt>
      <trkpt lat="43.53198" lon="5.64179">
        <ele>486.5</ele>
        <time>2025-03-16T14:43:07Z</time>
      </trkpt>
      <trkpt lat="43.53191" lon="5.64169">
        <ele>485.1</ele>
        <time>2025-03-16T14:43:27Z</time>
      </trkpt>
      <trkpt lat="43.53182" lon="5.64176">
        <ele>484.8</ele>
        <time>2025-03-16T14:43:42Z</time>
      </trkpt>
      <trkpt lat="43.53176" lon="5.64186">
        <ele>483.7</ele>
        <time>2025-03-16T14:43:50Z</time>
      </trkpt>
      <trkpt lat="43.53168" lon="5.64191">
        <ele>481.3</ele>
        <time>2025-03-16T14:44:03Z</time>
      </trkpt>
      <trkpt lat="43.53164" lon="5.64179">
        <ele>474.8</ele>
        <time>2025-03-16T14:44:31Z</time>
      </trkpt>
      <trkpt lat="43.53159" lon="5.64178">
        <ele>475.6</ele>
        <time>2025-03-16T14:44:48Z</time>
      </trkpt>
      <trkpt lat="43.53158" lon="5.64178">
        <ele>475.5</ele>
        <time>2025-03-16T14:44:49Z</time>
      </trkpt>
      <trkpt lat="43.53161" lon="5.64175">
        <ele>474.4</ele>
        <time>2025-03-16T14:45:00Z</time>
      </trkpt>
      <trkpt lat="43.53161" lon="5.64175">
        <ele>474.1</ele>
        <time>2025-03-16T14:45:01Z</time>
      </trkpt>
      <trkpt lat="43.53162" lon="5.64173">
        <ele>471</ele>
        <time>2025-03-16T14:45:14Z</time>
      </trkpt>
      <trkpt lat="43.53162" lon="5.64174">
        <ele>470.6</ele>
        <time>2025-03-16T14:45:15Z</time>
      </trkpt>
      <trkpt lat="43.53161" lon="5.64173">
        <ele>469.6</ele>
        <time>2025-03-16T14:45:20Z</time>
      </trkpt>
      <trkpt lat="43.53161" lon="5.64174">
        <ele>469.2</ele>
        <time>2025-03-16T14:45:22Z</time>
      </trkpt>
      <trkpt lat="43.53164" lon="5.64175">
        <ele>468.1</ele>
        <time>2025-03-16T14:45:30Z</time>
      </trkpt>
      <trkpt lat="43.53163" lon="5.64176">
        <ele>468.1</ele>
        <time>2025-03-16T14:45:31Z</time>
      </trkpt>
      <trkpt lat="43.53163" lon="5.64176">
        <ele>468.1</ele>
        <time>2025-03-16T14:45:33Z</time>
      </trkpt>
      <trkpt lat="43.53163" lon="5.64176">
        <ele>468</ele>
        <time>2025-03-16T14:45:39Z</time>
      </trkpt>
      <trkpt lat="43.53163" lon="5.64176">
        <ele>468</ele>
        <time>2025-03-16T14:45:40Z</time>
      </trkpt>
      <trkpt lat="43.53163" lon="5.64176">
        <ele>468</ele>
        <time>2025-03-16T14:45:42Z</time>
      </trkpt>
      <trkpt lat="43.53162" lon="5.64177">
        <ele>468.3</ele>
        <time>2025-03-16T14:45:44Z</time>
      </trkpt>
      <trkpt lat="43.53162" lon="5.64177">
        <ele>468.4</ele>
        <time>2025-03-16T14:45:59Z</time>
      </trkpt>
      <trkpt lat="43.53162" lon="5.64177">
        <ele>468.4</ele>
        <time>2025-03-16T14:46:00Z</time>
      </trkpt>
      <trkpt lat="43.53162" lon="5.64177">
        <ele>468.3</ele>
        <time>2025-03-16T14:46:05Z</time>
      </trkpt>
      <trkpt lat="43.53162" lon="5.64177">
        <ele>468.4</ele>
        <time>2025-03-16T14:46:07Z</time>
      </trkpt>
      <trkpt lat="43.53162" lon="5.64177">
        <ele>469</ele>
        <time>2025-03-16T14:46:09Z</time>
      </trkpt>
      <trkpt lat="43.53162" lon="5.64177">
        <ele>469.2</ele>
        <time>2025-03-16T14:46:10Z</time>
      </trkpt>
      <trkpt lat="43.53162" lon="5.64177">
        <ele>468.9</ele>
        <time>2025-03-16T14:46:48Z</time>
      </trkpt>
      <trkpt lat="43.53162" lon="5.64177">
        <ele>468.8</ele>
        <time>2025-03-16T14:46:49Z</time>
      </trkpt>
      <trkpt lat="43.53162" lon="5.64177">
        <ele>468.7</ele>
        <time>2025-03-16T14:47:00Z</time>
      </trkpt>
      <trkpt lat="43.53162" lon="5.64177">
        <ele>468.7</ele>
        <time>2025-03-16T14:47:02Z</time>
      </trkpt>
      <trkpt lat="43.53162" lon="5.64177">
        <ele>468.7</ele>
        <time>2025-03-16T14:47:04Z</time>
      </trkpt>
      <trkpt lat="43.5316" lon="5.64175">
        <ele>468.8</ele>
        <time>2025-03-16T14:47:11Z</time>
      </trkpt>
      <trkpt lat="43.5316" lon="5.64175">
        <ele>469.1</ele>
        <time>2025-03-16T14:47:16Z</time>
      </trkpt>
      <trkpt lat="43.5316" lon="5.64175">
        <ele>469.3</ele>
        <time>2025-03-16T14:47:17Z</time>
      </trkpt>
      <trkpt lat="43.5316" lon="5.64175">
        <ele>469.6</ele>
        <time>2025-03-16T14:47:24Z</time>
      </trkpt>
      <trkpt lat="43.5316" lon="5.64176">
        <ele>469.7</ele>
        <time>2025-03-16T14:47:27Z</time>
      </trkpt>
      <trkpt lat="43.53159" lon="5.64176">
        <ele>469.8</ele>
        <time>2025-03-16T14:47:28Z</time>
      </trkpt>
      <trkpt lat="43.53159" lon="5.64176">
        <ele>469.9</ele>
        <time>2025-03-16T14:47:29Z</time>
      </trkpt>
      <trkpt lat="43.53159" lon="5.64176">
        <ele>470</ele>
        <time>2025-03-16T14:47:30Z</time>
      </trkpt>
      <trkpt lat="43.5316" lon="5.64176">
        <ele>469.7</ele>
        <time>2025-03-16T14:47:35Z</time>
      </trkpt>
      <trkpt lat="43.5316" lon="5.64176">
        <ele>469.7</ele>
        <time>2025-03-16T14:47:39Z</time>
      </trkpt>
      <trkpt lat="43.5316" lon="5.64176">
        <ele>469.7</ele>
        <time>2025-03-16T14:47:40Z</time>
      </trkpt>
      <trkpt lat="43.5316" lon="5.64176">
        <ele>469.7</ele>
        <time>2025-03-16T14:47:53Z</time>
      </trkpt>
      <trkpt lat="43.5316" lon="5.64176">
        <ele>469.8</ele>
        <time>2025-03-16T14:47:55Z</time>
      </trkpt>
      <trkpt lat="43.5316" lon="5.64176">
        <ele>469.5</ele>
        <time>2025-03-16T14:47:57Z</time>
      </trkpt>
      <trkpt lat="43.5316" lon="5.64178">
        <ele>468.5</ele>
        <time>2025-03-16T14:48:03Z</time>
      </trkpt>
      <trkpt lat="43.5316" lon="5.64179">
        <ele>468.5</ele>
        <time>2025-03-16T14:48:07Z</time>
      </trkpt>
      <trkpt lat="43.5316" lon="5.64179">
        <ele>468.3</ele>
        <time>2025-03-16T14:48:09Z</time>
      </trkpt>
      <trkpt lat="43.5316" lon="5.64179">
        <ele>468.3</ele>
        <time>2025-03-16T14:48:11Z</time>
      </trkpt>
      <trkpt lat="43.53159" lon="5.6418">
        <ele>468.3</ele>
        <time>2025-03-16T14:48:15Z</time>
      </trkpt>
      <trkpt lat="43.53159" lon="5.64179">
        <ele>468.1</ele>
        <time>2025-03-16T14:48:17Z</time>
      </trkpt>
      <trkpt lat="43.53159" lon="5.64179">
        <ele>468.1</ele>
        <time>2025-03-16T14:48:19Z</time>
      </trkpt>
      <trkpt lat="43.53159" lon="5.64179">
        <ele>468</ele>
        <time>2025-03-16T14:48:23Z</time>
      </trkpt>
      <trkpt lat="43.53158" lon="5.6418">
        <ele>467.6</ele>
        <time>2025-03-16T14:48:26Z</time>
      </trkpt>
      <trkpt lat="43.53158" lon="5.64179">
        <ele>467.5</ele>
        <time>2025-03-16T14:48:38Z</time>
      </trkpt>
      <trkpt lat="43.53158" lon="5.64178">
        <ele>467</ele>
        <time>2025-03-16T14:48:42Z</time>
      </trkpt>
      <trkpt lat="43.53159" lon="5.64179">
        <ele>467.2</ele>
        <time>2025-03-16T14:48:44Z</time>
      </trkpt>
      <trkpt lat="43.53159" lon="5.64178">
        <ele>467.5</ele>
        <time>2025-03-16T14:48:46Z</time>
      </trkpt>
      <trkpt lat="43.53158" lon="5.64178">
        <ele>467.5</ele>
        <time>2025-03-16T14:48:47Z</time>
      </trkpt>
      <trkpt lat="43.53158" lon="5.64179">
        <ele>467.5</ele>
        <time>2025-03-16T14:48:48Z</time>
      </trkpt>
      <trkpt lat="43.53158" lon="5.64178">
        <ele>467.5</ele>
        <time>2025-03-16T14:48:49Z</time>
      </trkpt>
      <trkpt lat="43.53165" lon="5.64181">
        <ele>465.9</ele>
        <time>2025-03-16T14:49:13Z</time>
      </trkpt>
      <trkpt lat="43.53165" lon="5.64181">
        <ele>465.9</ele>
        <time>2025-03-16T14:49:14Z</time>
      </trkpt>
      <trkpt lat="43.53167" lon="5.6418">
        <ele>465.9</ele>
        <time>2025-03-16T14:49:25Z</time>
      </trkpt>
      <trkpt lat="43.53167" lon="5.6418">
        <ele>466</ele>
        <time>2025-03-16T14:49:26Z</time>
      </trkpt>
      <trkpt lat="43.53166" lon="5.64179">
        <ele>466.3</ele>
        <time>2025-03-16T14:49:30Z</time>
      </trkpt>
      <trkpt lat="43.53166" lon="5.64179">
        <ele>466.4</ele>
        <time>2025-03-16T14:49:32Z</time>
      </trkpt>
      <trkpt lat="43.5317" lon="5.64181">
        <ele>465.2</ele>
        <time>2025-03-16T14:49:48Z</time>
      </trkpt>
      <trkpt lat="43.5317" lon="5.6418">
        <ele>465.2</ele>
        <time>2025-03-16T14:49:49Z</time>
      </trkpt>
      <trkpt lat="43.53164" lon="5.64171">
        <ele>464</ele>
        <time>2025-03-16T14:50:36Z</time>
      </trkpt>
      <trkpt lat="43.53164" lon="5.64171">
        <ele>464.1</ele>
        <time>2025-03-16T14:50:37Z</time>
      </trkpt>
      <trkpt lat="43.53164" lon="5.64171">
        <ele>464.1</ele>
        <time>2025-03-16T14:50:38Z</time>
      </trkpt>
      <trkpt lat="43.53164" lon="5.64171">
        <ele>464.1</ele>
        <time>2025-03-16T14:50:39Z</time>
      </trkpt>
      <trkpt lat="43.53164" lon="5.64171">
        <ele>464.3</ele>
        <time>2025-03-16T14:50:43Z</time>
      </trkpt>
      <trkpt lat="43.53164" lon="5.64171">
        <ele>464.2</ele>
        <time>2025-03-16T14:50:45Z</time>
      </trkpt>
      <trkpt lat="43.53164" lon="5.64171">
        <ele>464.2</ele>
        <time>2025-03-16T14:50:46Z</time>
      </trkpt>
      <trkpt lat="43.53164" lon="5.64171">
        <ele>464</ele>
        <time>2025-03-16T14:50:51Z</time>
      </trkpt>
      <trkpt lat="43.53165" lon="5.64165">
        <ele>460.6</ele>
        <time>2025-03-16T14:51:05Z</time>
      </trkpt>
      <trkpt lat="43.53165" lon="5.64164">
        <ele>461</ele>
        <time>2025-03-16T14:51:06Z</time>
      </trkpt>
      <trkpt lat="43.53156" lon="5.64171">
        <ele>464.3</ele>
        <time>2025-03-16T14:51:25Z</time>
      </trkpt>
      <trkpt lat="43.53147" lon="5.64172">
        <ele>466.5</ele>
        <time>2025-03-16T14:51:36Z</time>
      </trkpt>
      <trkpt lat="43.53138" lon="5.64171">
        <ele>466.7</ele>
        <time>2025-03-16T14:51:45Z</time>
      </trkpt>
      <trkpt lat="43.53129" lon="5.64175">
        <ele>466.8</ele>
        <time>2025-03-16T14:51:53Z</time>
      </trkpt>
      <trkpt lat="43.53121" lon="5.64181">
        <ele>466.6</ele>
        <time>2025-03-16T14:52:01Z</time>
      </trkpt>
      <trkpt lat="43.53114" lon="5.64191">
        <ele>466.4</ele>
        <time>2025-03-16T14:52:10Z</time>
      </trkpt>
      <trkpt lat="43.53108" lon="5.64199">
        <ele>466.2</ele>
        <time>2025-03-16T14:52:20Z</time>
      </trkpt>
      <trkpt lat="43.531" lon="5.64207">
        <ele>465.1</ele>
        <time>2025-03-16T14:52:27Z</time>
      </trkpt>
      <trkpt lat="43.53093" lon="5.64215">
        <ele>464.4</ele>
        <time>2025-03-16T14:52:38Z</time>
      </trkpt>
      <trkpt lat="43.53087" lon="5.6422">
        <ele>464.7</ele>
        <time>2025-03-16T14:52:45Z</time>
      </trkpt>
      <trkpt lat="43.53087" lon="5.6422">
        <ele>464.6</ele>
        <time>2025-03-16T14:52:46Z</time>
      </trkpt>
      <trkpt lat="43.53078" lon="5.64226">
        <ele>463.1</ele>
        <time>2025-03-16T14:52:54Z</time>
      </trkpt>
      <trkpt lat="43.5307" lon="5.64233">
        <ele>462</ele>
        <time>2025-03-16T14:53:06Z</time>
      </trkpt>
      <trkpt lat="43.53062" lon="5.64239">
        <ele>460.7</ele>
        <time>2025-03-16T14:53:17Z</time>
      </trkpt>
      <trkpt lat="43.53054" lon="5.64244">
        <ele>459</ele>
        <time>2025-03-16T14:53:31Z</time>
      </trkpt>
      <trkpt lat="43.53045" lon="5.64249">
        <ele>456.9</ele>
        <time>2025-03-16T14:53:41Z</time>
      </trkpt>
      <trkpt lat="43.53036" lon="5.64251">
        <ele>455.4</ele>
        <time>2025-03-16T14:53:54Z</time>
      </trkpt>
      <trkpt lat="43.53027" lon="5.64255">
        <ele>454.1</ele>
        <time>2025-03-16T14:54:07Z</time>
      </trkpt>
      <trkpt lat="43.53018" lon="5.64261">
        <ele>452.5</ele>
        <time>2025-03-16T14:54:20Z</time>
      </trkpt>
      <trkpt lat="43.53009" lon="5.64266">
        <ele>452.2</ele>
        <time>2025-03-16T14:54:31Z</time>
      </trkpt>
      <trkpt lat="43.53" lon="5.64272">
        <ele>451.1</ele>
        <time>2025-03-16T14:54:43Z</time>
      </trkpt>
      <trkpt lat="43.52991" lon="5.64275">
        <ele>448.8</ele>
        <time>2025-03-16T14:54:56Z</time>
      </trkpt>
      <trkpt lat="43.52982" lon="5.64271">
        <ele>446.4</ele>
        <time>2025-03-16T14:55:10Z</time>
      </trkpt>
      <trkpt lat="43.52978" lon="5.64259">
        <ele>444.9</ele>
        <time>2025-03-16T14:55:23Z</time>
      </trkpt>
      <trkpt lat="43.52978" lon="5.6426">
        <ele>444.8</ele>
        <time>2025-03-16T14:55:24Z</time>
      </trkpt>
      <trkpt lat="43.52976" lon="5.6426">
        <ele>444.5</ele>
        <time>2025-03-16T14:55:25Z</time>
      </trkpt>
      <trkpt lat="43.5297" lon="5.6425">
        <ele>440.6</ele>
        <time>2025-03-16T14:55:42Z</time>
      </trkpt>
      <trkpt lat="43.52961" lon="5.64253">
        <ele>439.6</ele>
        <time>2025-03-16T14:55:50Z</time>
      </trkpt>
      <trkpt lat="43.52954" lon="5.64261">
        <ele>439.6</ele>
        <time>2025-03-16T14:56:07Z</time>
      </trkpt>
      <trkpt lat="43.52947" lon="5.64269">
        <ele>438.8</ele>
        <time>2025-03-16T14:56:15Z</time>
      </trkpt>
      <trkpt lat="43.52937" lon="5.64267">
        <ele>435.8</ele>
        <time>2025-03-16T14:56:25Z</time>
      </trkpt>
      <trkpt lat="43.52931" lon="5.64256">
        <ele>434.4</ele>
        <time>2025-03-16T14:56:36Z</time>
      </trkpt>
      <trkpt lat="43.52922" lon="5.6425">
        <ele>433.3</ele>
        <time>2025-03-16T14:56:43Z</time>
      </trkpt>
      <trkpt lat="43.52913" lon="5.64255">
        <ele>433.2</ele>
        <time>2025-03-16T14:56:52Z</time>
      </trkpt>
      <trkpt lat="43.52904" lon="5.64259">
        <ele>430</ele>
        <time>2025-03-16T14:57:03Z</time>
      </trkpt>
      <trkpt lat="43.52894" lon="5.64259">
        <ele>429.2</ele>
        <time>2025-03-16T14:57:12Z</time>
      </trkpt>
      <trkpt lat="43.52885" lon="5.64262">
        <ele>427.1</ele>
        <time>2025-03-16T14:57:22Z</time>
      </trkpt>
      <trkpt lat="43.52876" lon="5.6426">
        <ele>425.1</ele>
        <time>2025-03-16T14:57:33Z</time>
      </trkpt>
      <trkpt lat="43.52866" lon="5.64262">
        <ele>422.4</ele>
        <time>2025-03-16T14:57:44Z</time>
      </trkpt>
      <trkpt lat="43.52857" lon="5.64264">
        <ele>420.7</ele>
        <time>2025-03-16T14:58:00Z</time>
      </trkpt>
      <trkpt lat="43.52856" lon="5.64263">
        <ele>420.4</ele>
        <time>2025-03-16T14:58:03Z</time>
      </trkpt>
      <trkpt lat="43.52856" lon="5.64263">
        <ele>420.4</ele>
        <time>2025-03-16T14:58:05Z</time>
      </trkpt>
      <trkpt lat="43.52856" lon="5.64263">
        <ele>420.4</ele>
        <time>2025-03-16T14:58:06Z</time>
      </trkpt>
      <trkpt lat="43.52857" lon="5.64264">
        <ele>420.4</ele>
        <time>2025-03-16T14:58:08Z</time>
      </trkpt>
      <trkpt lat="43.52864" lon="5.64268">
        <ele>419.9</ele>
        <time>2025-03-16T14:58:19Z</time>
      </trkpt>
      <trkpt lat="43.52865" lon="5.64266">
        <ele>420</ele>
        <time>2025-03-16T14:58:20Z</time>
      </trkpt>
      <trkpt lat="43.5286" lon="5.64256">
        <ele>418.9</ele>
        <time>2025-03-16T14:58:49Z</time>
      </trkpt>
      <trkpt lat="43.52859" lon="5.64259">
        <ele>419.3</ele>
        <time>2025-03-16T14:59:04Z</time>
      </trkpt>
      <trkpt lat="43.52859" lon="5.64259">
        <ele>419.5</ele>
        <time>2025-03-16T14:59:08Z</time>
      </trkpt>
      <trkpt lat="43.52856" lon="5.64262">
        <ele>418.6</ele>
        <time>2025-03-16T14:59:13Z</time>
      </trkpt>
      <trkpt lat="43.52856" lon="5.64264">
        <ele>419</ele>
        <time>2025-03-16T14:59:34Z</time>
      </trkpt>
      <trkpt lat="43.52856" lon="5.64265">
        <ele>419.9</ele>
        <time>2025-03-16T14:59:36Z</time>
      </trkpt>
      <trkpt lat="43.52856" lon="5.64265">
        <ele>420</ele>
        <time>2025-03-16T14:59:40Z</time>
      </trkpt>
      <trkpt lat="43.52856" lon="5.64265">
        <ele>420</ele>
        <time>2025-03-16T14:59:40Z</time>
      </trkpt>
    </trkseg>
  </trk>
</gpx>